<?xml version="1.0" encoding="UTF-8" standalone="no" ?>
<gpx xmlns="http://www.topografix.com/GPX/1/1" xmlns:xsi="http://www.w3.org/2001/XMLSchema-instance" xsi:schemaLocation="http://www.topografix.com/GPX/1/1 http://www.topografix.com/GPX/1/1/gpx.xsd" version="1.1" creator="VisuGPX - https://www.visugpx.com">
  <metadata>
    <name>j8 Sospel-Menton</name>
    <desc><![CDATA[De Sospel à Menton par le GR 52, les cols du Razet, d e Trétore et du Berceau. Le GR 52 dans la descente vers Menton est rendu très difficile et dangereuse par la présence ininterrompue de pierrailles roulantes.]]></desc>
  </metadata>
  <trk>
    <name><![CDATA[20180623173526-ykuJd]]></name>
    <trkseg>
      <trkpt lat="43.88347" lon="7.42744">
        <ele>421</ele>
        <time>2018-06-19T06:28:33Z</time>
      </trkpt>
      <trkpt lat="43.88346" lon="7.42743">
        <ele>421</ele>
        <time>2018-06-19T06:28:37Z</time>
      </trkpt>
      <trkpt lat="43.88343" lon="7.42742">
        <ele>421</ele>
        <time>2018-06-19T06:28:45Z</time>
      </trkpt>
      <trkpt lat="43.88342" lon="7.42743">
        <ele>421</ele>
        <time>2018-06-19T06:29:02Z</time>
      </trkpt>
      <trkpt lat="43.88338" lon="7.42737">
        <ele>421</ele>
        <time>2018-06-19T06:29:06Z</time>
      </trkpt>
      <trkpt lat="43.88335" lon="7.42733">
        <ele>421</ele>
        <time>2018-06-19T06:29:10Z</time>
      </trkpt>
      <trkpt lat="43.88335" lon="7.42733">
        <ele>421</ele>
        <time>2018-06-19T06:29:11Z</time>
      </trkpt>
      <trkpt lat="43.88332" lon="7.42733">
        <ele>422</ele>
        <time>2018-06-19T06:29:14Z</time>
      </trkpt>
      <trkpt lat="43.88328" lon="7.42734">
        <ele>421</ele>
        <time>2018-06-19T06:29:18Z</time>
      </trkpt>
      <trkpt lat="43.88324" lon="7.42739">
        <ele>421</ele>
        <time>2018-06-19T06:29:23Z</time>
      </trkpt>
      <trkpt lat="43.88322" lon="7.42741">
        <ele>421</ele>
        <time>2018-06-19T06:29:25Z</time>
      </trkpt>
      <trkpt lat="43.88321" lon="7.42743">
        <ele>421</ele>
        <time>2018-06-19T06:29:27Z</time>
      </trkpt>
      <trkpt lat="43.88314" lon="7.42756">
        <ele>419</ele>
        <time>2018-06-19T06:29:39Z</time>
      </trkpt>
      <trkpt lat="43.88312" lon="7.42762">
        <ele>419</ele>
        <time>2018-06-19T06:29:43Z</time>
      </trkpt>
      <trkpt lat="43.88311" lon="7.4278">
        <ele>419</ele>
        <time>2018-06-19T06:29:55Z</time>
      </trkpt>
      <trkpt lat="43.88317" lon="7.42785">
        <ele>418</ele>
        <time>2018-06-19T06:30:01Z</time>
      </trkpt>
      <trkpt lat="43.88321" lon="7.42786">
        <ele>418</ele>
        <time>2018-06-19T06:30:03Z</time>
      </trkpt>
      <trkpt lat="43.88329" lon="7.42795">
        <ele>418</ele>
        <time>2018-06-19T06:30:11Z</time>
      </trkpt>
      <trkpt lat="43.88337" lon="7.42813">
        <ele>414</ele>
        <time>2018-06-19T06:30:21Z</time>
      </trkpt>
      <trkpt lat="43.88347" lon="7.42829">
        <ele>414</ele>
        <time>2018-06-19T06:30:32Z</time>
      </trkpt>
      <trkpt lat="43.88349" lon="7.42833">
        <ele>411</ele>
        <time>2018-06-19T06:30:35Z</time>
      </trkpt>
      <trkpt lat="43.88353" lon="7.42841">
        <ele>411</ele>
        <time>2018-06-19T06:30:39Z</time>
      </trkpt>
      <trkpt lat="43.8835" lon="7.42847">
        <ele>411</ele>
        <time>2018-06-19T06:30:42Z</time>
      </trkpt>
      <trkpt lat="43.88355" lon="7.42858">
        <ele>410</ele>
        <time>2018-06-19T06:30:47Z</time>
      </trkpt>
      <trkpt lat="43.88358" lon="7.42862">
        <ele>410</ele>
        <time>2018-06-19T06:30:49Z</time>
      </trkpt>
      <trkpt lat="43.88363" lon="7.42871">
        <ele>410</ele>
        <time>2018-06-19T06:30:54Z</time>
      </trkpt>
      <trkpt lat="43.88366" lon="7.42889">
        <ele>409</ele>
        <time>2018-06-19T06:31:04Z</time>
      </trkpt>
      <trkpt lat="43.88365" lon="7.42894">
        <ele>409</ele>
        <time>2018-06-19T06:31:07Z</time>
      </trkpt>
      <trkpt lat="43.88359" lon="7.42911">
        <ele>409</ele>
        <time>2018-06-19T06:31:17Z</time>
      </trkpt>
      <trkpt lat="43.8836" lon="7.42935">
        <ele>405</ele>
        <time>2018-06-19T06:31:29Z</time>
      </trkpt>
      <trkpt lat="43.88359" lon="7.4296">
        <ele>404</ele>
        <time>2018-06-19T06:31:42Z</time>
      </trkpt>
      <trkpt lat="43.8835" lon="7.4298">
        <ele>402</ele>
        <time>2018-06-19T06:31:56Z</time>
      </trkpt>
      <trkpt lat="43.8835" lon="7.42981">
        <ele>402</ele>
        <time>2018-06-19T06:31:57Z</time>
      </trkpt>
      <trkpt lat="43.88336" lon="7.42984">
        <ele>402</ele>
        <time>2018-06-19T06:32:11Z</time>
      </trkpt>
      <trkpt lat="43.88321" lon="7.42988">
        <ele>405</ele>
        <time>2018-06-19T06:32:24Z</time>
      </trkpt>
      <trkpt lat="43.88302" lon="7.42994">
        <ele>407</ele>
        <time>2018-06-19T06:32:39Z</time>
      </trkpt>
      <trkpt lat="43.88297" lon="7.42995">
        <ele>408</ele>
        <time>2018-06-19T06:32:43Z</time>
      </trkpt>
      <trkpt lat="43.88279" lon="7.43002">
        <ele>404</ele>
        <time>2018-06-19T06:32:58Z</time>
      </trkpt>
      <trkpt lat="43.88265" lon="7.43015">
        <ele>405</ele>
        <time>2018-06-19T06:33:12Z</time>
      </trkpt>
      <trkpt lat="43.88263" lon="7.43019">
        <ele>404</ele>
        <time>2018-06-19T06:33:14Z</time>
      </trkpt>
      <trkpt lat="43.88262" lon="7.43028">
        <ele>403</ele>
        <time>2018-06-19T06:33:19Z</time>
      </trkpt>
      <trkpt lat="43.88257" lon="7.43044">
        <ele>401</ele>
        <time>2018-06-19T06:33:29Z</time>
      </trkpt>
      <trkpt lat="43.88255" lon="7.43049">
        <ele>401</ele>
        <time>2018-06-19T06:33:33Z</time>
      </trkpt>
      <trkpt lat="43.88243" lon="7.43069">
        <ele>402</ele>
        <time>2018-06-19T06:33:48Z</time>
      </trkpt>
      <trkpt lat="43.8823" lon="7.43081">
        <ele>403</ele>
        <time>2018-06-19T06:34:01Z</time>
      </trkpt>
      <trkpt lat="43.88213" lon="7.43089">
        <ele>397</ele>
        <time>2018-06-19T06:34:14Z</time>
      </trkpt>
      <trkpt lat="43.88197" lon="7.4309">
        <ele>398</ele>
        <time>2018-06-19T06:34:27Z</time>
      </trkpt>
      <trkpt lat="43.88184" lon="7.4309">
        <ele>400</ele>
        <time>2018-06-19T06:34:38Z</time>
      </trkpt>
      <trkpt lat="43.88176" lon="7.43091">
        <ele>401</ele>
        <time>2018-06-19T06:34:45Z</time>
      </trkpt>
      <trkpt lat="43.88168" lon="7.43093">
        <ele>401</ele>
        <time>2018-06-19T06:34:51Z</time>
      </trkpt>
      <trkpt lat="43.8815" lon="7.43103">
        <ele>401</ele>
        <time>2018-06-19T06:35:08Z</time>
      </trkpt>
      <trkpt lat="43.88133" lon="7.43115">
        <ele>400</ele>
        <time>2018-06-19T06:35:23Z</time>
      </trkpt>
      <trkpt lat="43.88116" lon="7.43126">
        <ele>400</ele>
        <time>2018-06-19T06:35:39Z</time>
      </trkpt>
      <trkpt lat="43.88114" lon="7.43127">
        <ele>400</ele>
        <time>2018-06-19T06:35:41Z</time>
      </trkpt>
      <trkpt lat="43.88106" lon="7.43132">
        <ele>399</ele>
        <time>2018-06-19T06:35:48Z</time>
      </trkpt>
      <trkpt lat="43.88096" lon="7.43139">
        <ele>399</ele>
        <time>2018-06-19T06:35:57Z</time>
      </trkpt>
      <trkpt lat="43.88092" lon="7.43141">
        <ele>398</ele>
        <time>2018-06-19T06:36:01Z</time>
      </trkpt>
      <trkpt lat="43.88087" lon="7.43144">
        <ele>398</ele>
        <time>2018-06-19T06:36:06Z</time>
      </trkpt>
      <trkpt lat="43.8808" lon="7.43148">
        <ele>398</ele>
        <time>2018-06-19T06:36:12Z</time>
      </trkpt>
      <trkpt lat="43.88067" lon="7.43156">
        <ele>397</ele>
        <time>2018-06-19T06:36:24Z</time>
      </trkpt>
      <trkpt lat="43.88061" lon="7.43161">
        <ele>398</ele>
        <time>2018-06-19T06:36:31Z</time>
      </trkpt>
      <trkpt lat="43.88057" lon="7.43164">
        <ele>398</ele>
        <time>2018-06-19T06:36:35Z</time>
      </trkpt>
      <trkpt lat="43.88052" lon="7.43165">
        <ele>398</ele>
        <time>2018-06-19T06:36:39Z</time>
      </trkpt>
      <trkpt lat="43.88038" lon="7.43175">
        <ele>394</ele>
        <time>2018-06-19T06:36:53Z</time>
      </trkpt>
      <trkpt lat="43.88032" lon="7.43177">
        <ele>394</ele>
        <time>2018-06-19T06:36:57Z</time>
      </trkpt>
      <trkpt lat="43.88015" lon="7.43189">
        <ele>394</ele>
        <time>2018-06-19T06:37:13Z</time>
      </trkpt>
      <trkpt lat="43.87996" lon="7.43204">
        <ele>400</ele>
        <time>2018-06-19T06:37:30Z</time>
      </trkpt>
      <trkpt lat="43.87991" lon="7.43224">
        <ele>400</ele>
        <time>2018-06-19T06:37:42Z</time>
      </trkpt>
      <trkpt lat="43.87992" lon="7.43243">
        <ele>398</ele>
        <time>2018-06-19T06:37:54Z</time>
      </trkpt>
      <trkpt lat="43.87994" lon="7.43255">
        <ele>398</ele>
        <time>2018-06-19T06:38:01Z</time>
      </trkpt>
      <trkpt lat="43.87998" lon="7.4327">
        <ele>401</ele>
        <time>2018-06-19T06:38:10Z</time>
      </trkpt>
      <trkpt lat="43.88" lon="7.43276">
        <ele>394</ele>
        <time>2018-06-19T06:38:14Z</time>
      </trkpt>
      <trkpt lat="43.8801" lon="7.43306">
        <ele>394</ele>
        <time>2018-06-19T06:38:31Z</time>
      </trkpt>
      <trkpt lat="43.88012" lon="7.43313">
        <ele>394</ele>
        <time>2018-06-19T06:38:35Z</time>
      </trkpt>
      <trkpt lat="43.88017" lon="7.43333">
        <ele>395</ele>
        <time>2018-06-19T06:38:49Z</time>
      </trkpt>
      <trkpt lat="43.88018" lon="7.4334">
        <ele>394</ele>
        <time>2018-06-19T06:38:56Z</time>
      </trkpt>
      <trkpt lat="43.88018" lon="7.4337">
        <ele>393</ele>
        <time>2018-06-19T06:39:10Z</time>
      </trkpt>
      <trkpt lat="43.88014" lon="7.43387">
        <ele>393</ele>
        <time>2018-06-19T06:39:20Z</time>
      </trkpt>
      <trkpt lat="43.88022" lon="7.43407">
        <ele>392</ele>
        <time>2018-06-19T06:39:33Z</time>
      </trkpt>
      <trkpt lat="43.88026" lon="7.43416">
        <ele>392</ele>
        <time>2018-06-19T06:39:38Z</time>
      </trkpt>
      <trkpt lat="43.88034" lon="7.43441">
        <ele>390</ele>
        <time>2018-06-19T06:39:53Z</time>
      </trkpt>
      <trkpt lat="43.88044" lon="7.43462">
        <ele>390</ele>
        <time>2018-06-19T06:40:08Z</time>
      </trkpt>
      <trkpt lat="43.88051" lon="7.43478">
        <ele>389</ele>
        <time>2018-06-19T06:40:20Z</time>
      </trkpt>
      <trkpt lat="43.88052" lon="7.43481">
        <ele>389</ele>
        <time>2018-06-19T06:40:22Z</time>
      </trkpt>
      <trkpt lat="43.88058" lon="7.43488">
        <ele>389</ele>
        <time>2018-06-19T06:40:28Z</time>
      </trkpt>
      <trkpt lat="43.88061" lon="7.43493">
        <ele>388</ele>
        <time>2018-06-19T06:40:32Z</time>
      </trkpt>
      <trkpt lat="43.88063" lon="7.43505">
        <ele>387</ele>
        <time>2018-06-19T06:40:39Z</time>
      </trkpt>
      <trkpt lat="43.88066" lon="7.43515">
        <ele>387</ele>
        <time>2018-06-19T06:40:45Z</time>
      </trkpt>
      <trkpt lat="43.8807" lon="7.4353">
        <ele>387</ele>
        <time>2018-06-19T06:40:55Z</time>
      </trkpt>
      <trkpt lat="43.88076" lon="7.43551">
        <ele>387</ele>
        <time>2018-06-19T06:41:09Z</time>
      </trkpt>
      <trkpt lat="43.88083" lon="7.43563">
        <ele>386</ele>
        <time>2018-06-19T06:41:18Z</time>
      </trkpt>
      <trkpt lat="43.88086" lon="7.43571">
        <ele>383</ele>
        <time>2018-06-19T06:41:23Z</time>
      </trkpt>
      <trkpt lat="43.88095" lon="7.43593">
        <ele>381</ele>
        <time>2018-06-19T06:41:38Z</time>
      </trkpt>
      <trkpt lat="43.88107" lon="7.43598">
        <ele>380</ele>
        <time>2018-06-19T06:41:49Z</time>
      </trkpt>
      <trkpt lat="43.88115" lon="7.43601">
        <ele>379</ele>
        <time>2018-06-19T06:41:56Z</time>
      </trkpt>
      <trkpt lat="43.88119" lon="7.43622">
        <ele>379</ele>
        <time>2018-06-19T06:42:08Z</time>
      </trkpt>
      <trkpt lat="43.88117" lon="7.43637">
        <ele>379</ele>
        <time>2018-06-19T06:42:18Z</time>
      </trkpt>
      <trkpt lat="43.88115" lon="7.43661">
        <ele>379</ele>
        <time>2018-06-19T06:42:33Z</time>
      </trkpt>
      <trkpt lat="43.8811" lon="7.43678">
        <ele>376</ele>
        <time>2018-06-19T06:42:45Z</time>
      </trkpt>
      <trkpt lat="43.8811" lon="7.43694">
        <ele>376</ele>
        <time>2018-06-19T06:42:56Z</time>
      </trkpt>
      <trkpt lat="43.88108" lon="7.43708">
        <ele>375</ele>
        <time>2018-06-19T06:43:05Z</time>
      </trkpt>
      <trkpt lat="43.88107" lon="7.43718">
        <ele>375</ele>
        <time>2018-06-19T06:43:13Z</time>
      </trkpt>
      <trkpt lat="43.88104" lon="7.43723">
        <ele>375</ele>
        <time>2018-06-19T06:43:16Z</time>
      </trkpt>
      <trkpt lat="43.88102" lon="7.43736">
        <ele>375</ele>
        <time>2018-06-19T06:43:23Z</time>
      </trkpt>
      <trkpt lat="43.88094" lon="7.43759">
        <ele>373</ele>
        <time>2018-06-19T06:43:38Z</time>
      </trkpt>
      <trkpt lat="43.88093" lon="7.43762">
        <ele>373</ele>
        <time>2018-06-19T06:43:40Z</time>
      </trkpt>
      <trkpt lat="43.88093" lon="7.43766">
        <ele>372</ele>
        <time>2018-06-19T06:43:42Z</time>
      </trkpt>
      <trkpt lat="43.88089" lon="7.4378">
        <ele>370</ele>
        <time>2018-06-19T06:43:56Z</time>
      </trkpt>
      <trkpt lat="43.88086" lon="7.43797">
        <ele>368</ele>
        <time>2018-06-19T06:44:10Z</time>
      </trkpt>
      <trkpt lat="43.88089" lon="7.43796">
        <ele>368</ele>
        <time>2018-06-19T06:44:17Z</time>
      </trkpt>
      <trkpt lat="43.88095" lon="7.43792">
        <ele>369</ele>
        <time>2018-06-19T06:44:29Z</time>
      </trkpt>
      <trkpt lat="43.88092" lon="7.438">
        <ele>368</ele>
        <time>2018-06-19T06:44:40Z</time>
      </trkpt>
      <trkpt lat="43.8809" lon="7.43808">
        <ele>368</ele>
        <time>2018-06-19T06:44:52Z</time>
      </trkpt>
      <trkpt lat="43.8809" lon="7.43812">
        <ele>367</ele>
        <time>2018-06-19T06:44:58Z</time>
      </trkpt>
      <trkpt lat="43.88089" lon="7.43815">
        <ele>367</ele>
        <time>2018-06-19T06:45:01Z</time>
      </trkpt>
      <trkpt lat="43.88086" lon="7.43818">
        <ele>367</ele>
        <time>2018-06-19T06:45:06Z</time>
      </trkpt>
      <trkpt lat="43.88078" lon="7.43838">
        <ele>367</ele>
        <time>2018-06-19T06:45:21Z</time>
      </trkpt>
      <trkpt lat="43.88073" lon="7.43848">
        <ele>367</ele>
        <time>2018-06-19T06:45:31Z</time>
      </trkpt>
      <trkpt lat="43.88067" lon="7.43858">
        <ele>367</ele>
        <time>2018-06-19T06:45:40Z</time>
      </trkpt>
      <trkpt lat="43.8806" lon="7.4387">
        <ele>367</ele>
        <time>2018-06-19T06:45:54Z</time>
      </trkpt>
      <trkpt lat="43.88051" lon="7.43883">
        <ele>367</ele>
        <time>2018-06-19T06:46:02Z</time>
      </trkpt>
      <trkpt lat="43.88047" lon="7.4389">
        <ele>367</ele>
        <time>2018-06-19T06:46:06Z</time>
      </trkpt>
      <trkpt lat="43.88045" lon="7.43892">
        <ele>367</ele>
        <time>2018-06-19T06:46:08Z</time>
      </trkpt>
      <trkpt lat="43.88034" lon="7.43908">
        <ele>367</ele>
        <time>2018-06-19T06:46:20Z</time>
      </trkpt>
      <trkpt lat="43.88023" lon="7.43924">
        <ele>363</ele>
        <time>2018-06-19T06:46:33Z</time>
      </trkpt>
      <trkpt lat="43.88015" lon="7.43939">
        <ele>363</ele>
        <time>2018-06-19T06:46:45Z</time>
      </trkpt>
      <trkpt lat="43.88006" lon="7.4395">
        <ele>362</ele>
        <time>2018-06-19T06:46:54Z</time>
      </trkpt>
      <trkpt lat="43.88003" lon="7.43955">
        <ele>362</ele>
        <time>2018-06-19T06:46:58Z</time>
      </trkpt>
      <trkpt lat="43.87991" lon="7.43973">
        <ele>365</ele>
        <time>2018-06-19T06:47:12Z</time>
      </trkpt>
      <trkpt lat="43.87978" lon="7.43992">
        <ele>364</ele>
        <time>2018-06-19T06:47:25Z</time>
      </trkpt>
      <trkpt lat="43.87969" lon="7.44007">
        <ele>361</ele>
        <time>2018-06-19T06:47:36Z</time>
      </trkpt>
      <trkpt lat="43.87961" lon="7.44023">
        <ele>362</ele>
        <time>2018-06-19T06:47:47Z</time>
      </trkpt>
      <trkpt lat="43.8795" lon="7.44039">
        <ele>362</ele>
        <time>2018-06-19T06:48:00Z</time>
      </trkpt>
      <trkpt lat="43.87944" lon="7.44047">
        <ele>362</ele>
        <time>2018-06-19T06:48:06Z</time>
      </trkpt>
      <trkpt lat="43.87939" lon="7.44053">
        <ele>362</ele>
        <time>2018-06-19T06:48:12Z</time>
      </trkpt>
      <trkpt lat="43.87937" lon="7.44057">
        <ele>362</ele>
        <time>2018-06-19T06:48:15Z</time>
      </trkpt>
      <trkpt lat="43.87929" lon="7.44071">
        <ele>362</ele>
        <time>2018-06-19T06:48:27Z</time>
      </trkpt>
      <trkpt lat="43.87921" lon="7.44083">
        <ele>362</ele>
        <time>2018-06-19T06:48:37Z</time>
      </trkpt>
      <trkpt lat="43.87913" lon="7.44097">
        <ele>364</ele>
        <time>2018-06-19T06:48:48Z</time>
      </trkpt>
      <trkpt lat="43.87906" lon="7.44106">
        <ele>365</ele>
        <time>2018-06-19T06:48:55Z</time>
      </trkpt>
      <trkpt lat="43.87903" lon="7.44112">
        <ele>365</ele>
        <time>2018-06-19T06:49:00Z</time>
      </trkpt>
      <trkpt lat="43.87895" lon="7.44123">
        <ele>365</ele>
        <time>2018-06-19T06:49:13Z</time>
      </trkpt>
      <trkpt lat="43.87892" lon="7.44125">
        <ele>365</ele>
        <time>2018-06-19T06:49:19Z</time>
      </trkpt>
      <trkpt lat="43.87888" lon="7.44131">
        <ele>365</ele>
        <time>2018-06-19T06:49:23Z</time>
      </trkpt>
      <trkpt lat="43.8788" lon="7.44142">
        <ele>366</ele>
        <time>2018-06-19T06:49:35Z</time>
      </trkpt>
      <trkpt lat="43.87875" lon="7.44155">
        <ele>366</ele>
        <time>2018-06-19T06:49:46Z</time>
      </trkpt>
      <trkpt lat="43.87872" lon="7.44166">
        <ele>366</ele>
        <time>2018-06-19T06:49:56Z</time>
      </trkpt>
      <trkpt lat="43.8787" lon="7.44176">
        <ele>364</ele>
        <time>2018-06-19T06:50:09Z</time>
      </trkpt>
      <trkpt lat="43.8787" lon="7.44176">
        <ele>364</ele>
        <time>2018-06-19T06:50:21Z</time>
      </trkpt>
      <trkpt lat="43.87869" lon="7.44179">
        <ele>364</ele>
        <time>2018-06-19T06:50:41Z</time>
      </trkpt>
      <trkpt lat="43.87867" lon="7.44184">
        <ele>364</ele>
        <time>2018-06-19T06:50:43Z</time>
      </trkpt>
      <trkpt lat="43.87865" lon="7.44193">
        <ele>364</ele>
        <time>2018-06-19T06:50:46Z</time>
      </trkpt>
      <trkpt lat="43.87862" lon="7.44205">
        <ele>364</ele>
        <time>2018-06-19T06:50:54Z</time>
      </trkpt>
      <trkpt lat="43.87858" lon="7.44214">
        <ele>364</ele>
        <time>2018-06-19T06:50:59Z</time>
      </trkpt>
      <trkpt lat="43.87853" lon="7.44225">
        <ele>364</ele>
        <time>2018-06-19T06:51:13Z</time>
      </trkpt>
      <trkpt lat="43.87844" lon="7.44248">
        <ele>367</ele>
        <time>2018-06-19T06:51:25Z</time>
      </trkpt>
      <trkpt lat="43.87833" lon="7.44272">
        <ele>368</ele>
        <time>2018-06-19T06:51:38Z</time>
      </trkpt>
      <trkpt lat="43.87819" lon="7.44291">
        <ele>368</ele>
        <time>2018-06-19T06:51:54Z</time>
      </trkpt>
      <trkpt lat="43.87816" lon="7.44297">
        <ele>368</ele>
        <time>2018-06-19T06:51:58Z</time>
      </trkpt>
      <trkpt lat="43.87813" lon="7.44321">
        <ele>366</ele>
        <time>2018-06-19T06:52:13Z</time>
      </trkpt>
      <trkpt lat="43.87813" lon="7.44338">
        <ele>364</ele>
        <time>2018-06-19T06:52:25Z</time>
      </trkpt>
      <trkpt lat="43.87814" lon="7.44342">
        <ele>364</ele>
        <time>2018-06-19T06:52:28Z</time>
      </trkpt>
      <trkpt lat="43.87819" lon="7.44354">
        <ele>364</ele>
        <time>2018-06-19T06:52:39Z</time>
      </trkpt>
      <trkpt lat="43.87821" lon="7.44362">
        <ele>364</ele>
        <time>2018-06-19T06:52:47Z</time>
      </trkpt>
      <trkpt lat="43.87825" lon="7.44381">
        <ele>364</ele>
        <time>2018-06-19T06:52:59Z</time>
      </trkpt>
      <trkpt lat="43.87828" lon="7.44408">
        <ele>362</ele>
        <time>2018-06-19T06:53:13Z</time>
      </trkpt>
      <trkpt lat="43.87825" lon="7.44419">
        <ele>360</ele>
        <time>2018-06-19T06:53:18Z</time>
      </trkpt>
      <trkpt lat="43.87822" lon="7.4443">
        <ele>360</ele>
        <time>2018-06-19T06:53:24Z</time>
      </trkpt>
      <trkpt lat="43.8782" lon="7.44448">
        <ele>360</ele>
        <time>2018-06-19T06:53:37Z</time>
      </trkpt>
      <trkpt lat="43.87815" lon="7.44473">
        <ele>359</ele>
        <time>2018-06-19T06:53:51Z</time>
      </trkpt>
      <trkpt lat="43.8781" lon="7.44496">
        <ele>358</ele>
        <time>2018-06-19T06:54:04Z</time>
      </trkpt>
      <trkpt lat="43.87808" lon="7.44509">
        <ele>355</ele>
        <time>2018-06-19T06:54:15Z</time>
      </trkpt>
      <trkpt lat="43.87806" lon="7.44528">
        <ele>356</ele>
        <time>2018-06-19T06:54:28Z</time>
      </trkpt>
      <trkpt lat="43.87805" lon="7.44546">
        <ele>356</ele>
        <time>2018-06-19T06:54:40Z</time>
      </trkpt>
      <trkpt lat="43.87804" lon="7.44573">
        <ele>355</ele>
        <time>2018-06-19T06:54:55Z</time>
      </trkpt>
      <trkpt lat="43.87801" lon="7.44591">
        <ele>354</ele>
        <time>2018-06-19T06:55:02Z</time>
      </trkpt>
      <trkpt lat="43.87798" lon="7.44612">
        <ele>354</ele>
        <time>2018-06-19T06:55:13Z</time>
      </trkpt>
      <trkpt lat="43.87795" lon="7.44633">
        <ele>354</ele>
        <time>2018-06-19T06:55:24Z</time>
      </trkpt>
      <trkpt lat="43.87796" lon="7.44645">
        <ele>354</ele>
        <time>2018-06-19T06:55:30Z</time>
      </trkpt>
      <trkpt lat="43.87795" lon="7.44649">
        <ele>354</ele>
        <time>2018-06-19T06:55:32Z</time>
      </trkpt>
      <trkpt lat="43.87794" lon="7.44663">
        <ele>354</ele>
        <time>2018-06-19T06:55:42Z</time>
      </trkpt>
      <trkpt lat="43.87792" lon="7.44682">
        <ele>353</ele>
        <time>2018-06-19T06:55:52Z</time>
      </trkpt>
      <trkpt lat="43.87791" lon="7.44688">
        <ele>353</ele>
        <time>2018-06-19T06:55:55Z</time>
      </trkpt>
      <trkpt lat="43.87792" lon="7.44699">
        <ele>353</ele>
        <time>2018-06-19T06:56:05Z</time>
      </trkpt>
      <trkpt lat="43.87792" lon="7.44704">
        <ele>353</ele>
        <time>2018-06-19T06:56:09Z</time>
      </trkpt>
      <trkpt lat="43.87791" lon="7.44714">
        <ele>353</ele>
        <time>2018-06-19T06:56:15Z</time>
      </trkpt>
      <trkpt lat="43.87794" lon="7.44716">
        <ele>353</ele>
        <time>2018-06-19T06:56:18Z</time>
      </trkpt>
      <trkpt lat="43.87798" lon="7.44717">
        <ele>352</ele>
        <time>2018-06-19T06:56:21Z</time>
      </trkpt>
      <trkpt lat="43.87803" lon="7.44723">
        <ele>352</ele>
        <time>2018-06-19T06:56:26Z</time>
      </trkpt>
      <trkpt lat="43.87805" lon="7.44729">
        <ele>352</ele>
        <time>2018-06-19T06:56:34Z</time>
      </trkpt>
      <trkpt lat="43.87804" lon="7.44745">
        <ele>351</ele>
        <time>2018-06-19T06:56:47Z</time>
      </trkpt>
      <trkpt lat="43.87802" lon="7.4477">
        <ele>351</ele>
        <time>2018-06-19T06:56:59Z</time>
      </trkpt>
      <trkpt lat="43.87802" lon="7.44797">
        <ele>350</ele>
        <time>2018-06-19T06:57:14Z</time>
      </trkpt>
      <trkpt lat="43.87801" lon="7.44803">
        <ele>350</ele>
        <time>2018-06-19T06:57:18Z</time>
      </trkpt>
      <trkpt lat="43.87799" lon="7.44812">
        <ele>350</ele>
        <time>2018-06-19T06:57:23Z</time>
      </trkpt>
      <trkpt lat="43.87795" lon="7.44834">
        <ele>351</ele>
        <time>2018-06-19T06:57:38Z</time>
      </trkpt>
      <trkpt lat="43.87792" lon="7.44852">
        <ele>351</ele>
        <time>2018-06-19T06:57:52Z</time>
      </trkpt>
      <trkpt lat="43.87792" lon="7.44853">
        <ele>351</ele>
        <time>2018-06-19T06:57:53Z</time>
      </trkpt>
      <trkpt lat="43.87792" lon="7.44862">
        <ele>351</ele>
        <time>2018-06-19T06:57:59Z</time>
      </trkpt>
      <trkpt lat="43.87789" lon="7.44877">
        <ele>351</ele>
        <time>2018-06-19T06:58:08Z</time>
      </trkpt>
      <trkpt lat="43.87788" lon="7.44883">
        <ele>351</ele>
        <time>2018-06-19T06:58:12Z</time>
      </trkpt>
      <trkpt lat="43.87786" lon="7.44892">
        <ele>352</ele>
        <time>2018-06-19T06:58:17Z</time>
      </trkpt>
      <trkpt lat="43.87783" lon="7.44907">
        <ele>352</ele>
        <time>2018-06-19T06:58:30Z</time>
      </trkpt>
      <trkpt lat="43.87781" lon="7.44913">
        <ele>352</ele>
        <time>2018-06-19T06:58:35Z</time>
      </trkpt>
      <trkpt lat="43.8778" lon="7.44918">
        <ele>352</ele>
        <time>2018-06-19T06:58:39Z</time>
      </trkpt>
      <trkpt lat="43.87773" lon="7.44926">
        <ele>353</ele>
        <time>2018-06-19T06:58:45Z</time>
      </trkpt>
      <trkpt lat="43.87768" lon="7.44937">
        <ele>353</ele>
        <time>2018-06-19T06:58:53Z</time>
      </trkpt>
      <trkpt lat="43.87768" lon="7.44943">
        <ele>352</ele>
        <time>2018-06-19T06:58:56Z</time>
      </trkpt>
      <trkpt lat="43.87767" lon="7.44952">
        <ele>352</ele>
        <time>2018-06-19T06:59:01Z</time>
      </trkpt>
      <trkpt lat="43.87768" lon="7.44955">
        <ele>352</ele>
        <time>2018-06-19T06:59:03Z</time>
      </trkpt>
      <trkpt lat="43.87767" lon="7.44961">
        <ele>352</ele>
        <time>2018-06-19T06:59:07Z</time>
      </trkpt>
      <trkpt lat="43.87767" lon="7.44986">
        <ele>351</ele>
        <time>2018-06-19T06:59:22Z</time>
      </trkpt>
      <trkpt lat="43.87766" lon="7.45003">
        <ele>350</ele>
        <time>2018-06-19T06:59:35Z</time>
      </trkpt>
      <trkpt lat="43.87766" lon="7.45005">
        <ele>350</ele>
        <time>2018-06-19T06:59:36Z</time>
      </trkpt>
      <trkpt lat="43.87763" lon="7.45019">
        <ele>350</ele>
        <time>2018-06-19T06:59:49Z</time>
      </trkpt>
      <trkpt lat="43.87761" lon="7.45021">
        <ele>350</ele>
        <time>2018-06-19T07:00:01Z</time>
      </trkpt>
      <trkpt lat="43.87755" lon="7.45019">
        <ele>350</ele>
        <time>2018-06-19T07:00:12Z</time>
      </trkpt>
      <trkpt lat="43.87755" lon="7.45019">
        <ele>350</ele>
        <time>2018-06-19T07:00:16Z</time>
      </trkpt>
      <trkpt lat="43.87751" lon="7.45014">
        <ele>350</ele>
        <time>2018-06-19T07:00:24Z</time>
      </trkpt>
      <trkpt lat="43.87745" lon="7.45011">
        <ele>350</ele>
        <time>2018-06-19T07:00:31Z</time>
      </trkpt>
      <trkpt lat="43.8774" lon="7.45009">
        <ele>350</ele>
        <time>2018-06-19T07:00:35Z</time>
      </trkpt>
      <trkpt lat="43.87734" lon="7.45007">
        <ele>350</ele>
        <time>2018-06-19T07:00:41Z</time>
      </trkpt>
      <trkpt lat="43.87721" lon="7.45011">
        <ele>351</ele>
        <time>2018-06-19T07:00:54Z</time>
      </trkpt>
      <trkpt lat="43.8771" lon="7.45019">
        <ele>351</ele>
        <time>2018-06-19T07:01:04Z</time>
      </trkpt>
      <trkpt lat="43.87699" lon="7.45027">
        <ele>351</ele>
        <time>2018-06-19T07:01:17Z</time>
      </trkpt>
      <trkpt lat="43.87688" lon="7.45036">
        <ele>351</ele>
        <time>2018-06-19T07:01:29Z</time>
      </trkpt>
      <trkpt lat="43.87675" lon="7.45049">
        <ele>352</ele>
        <time>2018-06-19T07:01:42Z</time>
      </trkpt>
      <trkpt lat="43.87672" lon="7.45065">
        <ele>353</ele>
        <time>2018-06-19T07:01:53Z</time>
      </trkpt>
      <trkpt lat="43.87672" lon="7.45068">
        <ele>353</ele>
        <time>2018-06-19T07:01:55Z</time>
      </trkpt>
      <trkpt lat="43.87662" lon="7.4508">
        <ele>356</ele>
        <time>2018-06-19T07:02:07Z</time>
      </trkpt>
      <trkpt lat="43.87661" lon="7.45079">
        <ele>356</ele>
        <time>2018-06-19T07:02:09Z</time>
      </trkpt>
      <trkpt lat="43.87651" lon="7.45078">
        <ele>357</ele>
        <time>2018-06-19T07:02:22Z</time>
      </trkpt>
      <trkpt lat="43.8765" lon="7.45083">
        <ele>358</ele>
        <time>2018-06-19T07:02:33Z</time>
      </trkpt>
      <trkpt lat="43.87649" lon="7.45088">
        <ele>359</ele>
        <time>2018-06-19T07:02:37Z</time>
      </trkpt>
      <trkpt lat="43.87648" lon="7.45096">
        <ele>359</ele>
        <time>2018-06-19T07:02:42Z</time>
      </trkpt>
      <trkpt lat="43.87647" lon="7.45103">
        <ele>360</ele>
        <time>2018-06-19T07:02:47Z</time>
      </trkpt>
      <trkpt lat="43.87648" lon="7.45112">
        <ele>360</ele>
        <time>2018-06-19T07:02:53Z</time>
      </trkpt>
      <trkpt lat="43.87651" lon="7.4512">
        <ele>360</ele>
        <time>2018-06-19T07:03:00Z</time>
      </trkpt>
      <trkpt lat="43.87653" lon="7.45138">
        <ele>360</ele>
        <time>2018-06-19T07:03:13Z</time>
      </trkpt>
      <trkpt lat="43.87654" lon="7.45141">
        <ele>360</ele>
        <time>2018-06-19T07:03:15Z</time>
      </trkpt>
      <trkpt lat="43.87659" lon="7.45161">
        <ele>360</ele>
        <time>2018-06-19T07:03:29Z</time>
      </trkpt>
      <trkpt lat="43.87661" lon="7.45175">
        <ele>360</ele>
        <time>2018-06-19T07:03:38Z</time>
      </trkpt>
      <trkpt lat="43.87661" lon="7.45186">
        <ele>361</ele>
        <time>2018-06-19T07:03:46Z</time>
      </trkpt>
      <trkpt lat="43.87659" lon="7.45189">
        <ele>361</ele>
        <time>2018-06-19T07:03:49Z</time>
      </trkpt>
      <trkpt lat="43.87657" lon="7.45194">
        <ele>361</ele>
        <time>2018-06-19T07:03:54Z</time>
      </trkpt>
      <trkpt lat="43.87652" lon="7.45199">
        <ele>361</ele>
        <time>2018-06-19T07:03:59Z</time>
      </trkpt>
      <trkpt lat="43.87652" lon="7.45207">
        <ele>361</ele>
        <time>2018-06-19T07:04:11Z</time>
      </trkpt>
      <trkpt lat="43.87652" lon="7.45207">
        <ele>361</ele>
        <time>2018-06-19T07:04:12Z</time>
      </trkpt>
      <trkpt lat="43.8764" lon="7.45216">
        <ele>361</ele>
        <time>2018-06-19T07:04:24Z</time>
      </trkpt>
      <trkpt lat="43.87634" lon="7.4522">
        <ele>362</ele>
        <time>2018-06-19T07:04:28Z</time>
      </trkpt>
      <trkpt lat="43.87622" lon="7.45226">
        <ele>362</ele>
        <time>2018-06-19T07:04:38Z</time>
      </trkpt>
      <trkpt lat="43.87615" lon="7.45228">
        <ele>363</ele>
        <time>2018-06-19T07:04:43Z</time>
      </trkpt>
      <trkpt lat="43.87611" lon="7.45229">
        <ele>363</ele>
        <time>2018-06-19T07:04:47Z</time>
      </trkpt>
      <trkpt lat="43.87602" lon="7.45237">
        <ele>364</ele>
        <time>2018-06-19T07:04:58Z</time>
      </trkpt>
      <trkpt lat="43.87596" lon="7.45247">
        <ele>365</ele>
        <time>2018-06-19T07:05:05Z</time>
      </trkpt>
      <trkpt lat="43.87594" lon="7.45248">
        <ele>365</ele>
        <time>2018-06-19T07:05:06Z</time>
      </trkpt>
      <trkpt lat="43.8759" lon="7.45265">
        <ele>365</ele>
        <time>2018-06-19T07:05:15Z</time>
      </trkpt>
      <trkpt lat="43.87588" lon="7.45285">
        <ele>364</ele>
        <time>2018-06-19T07:05:28Z</time>
      </trkpt>
      <trkpt lat="43.87588" lon="7.45286">
        <ele>364</ele>
        <time>2018-06-19T07:05:29Z</time>
      </trkpt>
      <trkpt lat="43.87586" lon="7.45305">
        <ele>364</ele>
        <time>2018-06-19T07:05:42Z</time>
      </trkpt>
      <trkpt lat="43.87582" lon="7.45325">
        <ele>370</ele>
        <time>2018-06-19T07:05:56Z</time>
      </trkpt>
      <trkpt lat="43.8758" lon="7.4534">
        <ele>370</ele>
        <time>2018-06-19T07:06:06Z</time>
      </trkpt>
      <trkpt lat="43.87575" lon="7.4536">
        <ele>373</ele>
        <time>2018-06-19T07:06:17Z</time>
      </trkpt>
      <trkpt lat="43.8757" lon="7.45379">
        <ele>374</ele>
        <time>2018-06-19T07:06:30Z</time>
      </trkpt>
      <trkpt lat="43.87565" lon="7.45398">
        <ele>374</ele>
        <time>2018-06-19T07:06:43Z</time>
      </trkpt>
      <trkpt lat="43.87562" lon="7.45411">
        <ele>373</ele>
        <time>2018-06-19T07:06:54Z</time>
      </trkpt>
      <trkpt lat="43.87562" lon="7.45415">
        <ele>373</ele>
        <time>2018-06-19T07:06:56Z</time>
      </trkpt>
      <trkpt lat="43.87561" lon="7.4542">
        <ele>372</ele>
        <time>2018-06-19T07:07:00Z</time>
      </trkpt>
      <trkpt lat="43.87551" lon="7.45428">
        <ele>374</ele>
        <time>2018-06-19T07:07:13Z</time>
      </trkpt>
      <trkpt lat="43.87539" lon="7.4543">
        <ele>376</ele>
        <time>2018-06-19T07:07:28Z</time>
      </trkpt>
      <trkpt lat="43.87539" lon="7.45428">
        <ele>376</ele>
        <time>2018-06-19T07:07:29Z</time>
      </trkpt>
      <trkpt lat="43.87532" lon="7.45423">
        <ele>378</ele>
        <time>2018-06-19T07:07:41Z</time>
      </trkpt>
      <trkpt lat="43.87525" lon="7.45419">
        <ele>379</ele>
        <time>2018-06-19T07:07:52Z</time>
      </trkpt>
      <trkpt lat="43.87521" lon="7.4542">
        <ele>380</ele>
        <time>2018-06-19T07:08:02Z</time>
      </trkpt>
      <trkpt lat="43.87517" lon="7.45427">
        <ele>381</ele>
        <time>2018-06-19T07:08:12Z</time>
      </trkpt>
      <trkpt lat="43.87513" lon="7.45437">
        <ele>380</ele>
        <time>2018-06-19T07:08:23Z</time>
      </trkpt>
      <trkpt lat="43.87511" lon="7.45455">
        <ele>379</ele>
        <time>2018-06-19T07:08:35Z</time>
      </trkpt>
      <trkpt lat="43.87515" lon="7.45467">
        <ele>379</ele>
        <time>2018-06-19T07:08:45Z</time>
      </trkpt>
      <trkpt lat="43.87515" lon="7.45485">
        <ele>380</ele>
        <time>2018-06-19T07:08:58Z</time>
      </trkpt>
      <trkpt lat="43.87514" lon="7.45497">
        <ele>382</ele>
        <time>2018-06-19T07:09:09Z</time>
      </trkpt>
      <trkpt lat="43.87511" lon="7.45513">
        <ele>380</ele>
        <time>2018-06-19T07:09:22Z</time>
      </trkpt>
      <trkpt lat="43.87506" lon="7.45527">
        <ele>379</ele>
        <time>2018-06-19T07:09:34Z</time>
      </trkpt>
      <trkpt lat="43.87499" lon="7.45541">
        <ele>398</ele>
        <time>2018-06-19T07:09:48Z</time>
      </trkpt>
      <trkpt lat="43.87498" lon="7.45543">
        <ele>398</ele>
        <time>2018-06-19T07:09:51Z</time>
      </trkpt>
      <trkpt lat="43.87497" lon="7.45545">
        <ele>398</ele>
        <time>2018-06-19T07:09:53Z</time>
      </trkpt>
      <trkpt lat="43.87495" lon="7.45551">
        <ele>397</ele>
        <time>2018-06-19T07:09:58Z</time>
      </trkpt>
      <trkpt lat="43.87492" lon="7.45559">
        <ele>396</ele>
        <time>2018-06-19T07:10:06Z</time>
      </trkpt>
      <trkpt lat="43.87487" lon="7.45573">
        <ele>394</ele>
        <time>2018-06-19T07:10:18Z</time>
      </trkpt>
      <trkpt lat="43.87485" lon="7.45586">
        <ele>392</ele>
        <time>2018-06-19T07:10:30Z</time>
      </trkpt>
      <trkpt lat="43.87481" lon="7.456">
        <ele>395</ele>
        <time>2018-06-19T07:10:41Z</time>
      </trkpt>
      <trkpt lat="43.87476" lon="7.45614">
        <ele>397</ele>
        <time>2018-06-19T07:10:54Z</time>
      </trkpt>
      <trkpt lat="43.87474" lon="7.45622">
        <ele>397</ele>
        <time>2018-06-19T07:11:01Z</time>
      </trkpt>
      <trkpt lat="43.87467" lon="7.45637">
        <ele>398</ele>
        <time>2018-06-19T07:11:14Z</time>
      </trkpt>
      <trkpt lat="43.8746" lon="7.45648">
        <ele>399</ele>
        <time>2018-06-19T07:11:25Z</time>
      </trkpt>
      <trkpt lat="43.87456" lon="7.45653">
        <ele>400</ele>
        <time>2018-06-19T07:11:36Z</time>
      </trkpt>
      <trkpt lat="43.87447" lon="7.45662">
        <ele>402</ele>
        <time>2018-06-19T07:11:48Z</time>
      </trkpt>
      <trkpt lat="43.87446" lon="7.45662">
        <ele>403</ele>
        <time>2018-06-19T07:11:49Z</time>
      </trkpt>
      <trkpt lat="43.87443" lon="7.45665">
        <ele>403</ele>
        <time>2018-06-19T07:11:52Z</time>
      </trkpt>
      <trkpt lat="43.87437" lon="7.45676">
        <ele>405</ele>
        <time>2018-06-19T07:12:06Z</time>
      </trkpt>
      <trkpt lat="43.87431" lon="7.45688">
        <ele>405</ele>
        <time>2018-06-19T07:12:18Z</time>
      </trkpt>
      <trkpt lat="43.87431" lon="7.45689">
        <ele>405</ele>
        <time>2018-06-19T07:12:19Z</time>
      </trkpt>
      <trkpt lat="43.87433" lon="7.45699">
        <ele>404</ele>
        <time>2018-06-19T07:12:30Z</time>
      </trkpt>
      <trkpt lat="43.87434" lon="7.45717">
        <ele>404</ele>
        <time>2018-06-19T07:12:44Z</time>
      </trkpt>
      <trkpt lat="43.87439" lon="7.45731">
        <ele>405</ele>
        <time>2018-06-19T07:12:58Z</time>
      </trkpt>
      <trkpt lat="43.87447" lon="7.45743">
        <ele>404</ele>
        <time>2018-06-19T07:13:11Z</time>
      </trkpt>
      <trkpt lat="43.87451" lon="7.45748">
        <ele>403</ele>
        <time>2018-06-19T07:13:17Z</time>
      </trkpt>
      <trkpt lat="43.87454" lon="7.45764">
        <ele>407</ele>
        <time>2018-06-19T07:13:31Z</time>
      </trkpt>
      <trkpt lat="43.87458" lon="7.45776">
        <ele>407</ele>
        <time>2018-06-19T07:13:43Z</time>
      </trkpt>
      <trkpt lat="43.87456" lon="7.45783">
        <ele>407</ele>
        <time>2018-06-19T07:13:47Z</time>
      </trkpt>
      <trkpt lat="43.87455" lon="7.45788">
        <ele>408</ele>
        <time>2018-06-19T07:13:51Z</time>
      </trkpt>
      <trkpt lat="43.87456" lon="7.45804">
        <ele>408</ele>
        <time>2018-06-19T07:14:04Z</time>
      </trkpt>
      <trkpt lat="43.87456" lon="7.45821">
        <ele>409</ele>
        <time>2018-06-19T07:14:16Z</time>
      </trkpt>
      <trkpt lat="43.87456" lon="7.45828">
        <ele>409</ele>
        <time>2018-06-19T07:14:21Z</time>
      </trkpt>
      <trkpt lat="43.87456" lon="7.45842">
        <ele>413</ele>
        <time>2018-06-19T07:14:31Z</time>
      </trkpt>
      <trkpt lat="43.87456" lon="7.45847">
        <ele>414</ele>
        <time>2018-06-19T07:14:34Z</time>
      </trkpt>
      <trkpt lat="43.87454" lon="7.4586">
        <ele>414</ele>
        <time>2018-06-19T07:14:44Z</time>
      </trkpt>
      <trkpt lat="43.87452" lon="7.45879">
        <ele>415</ele>
        <time>2018-06-19T07:14:56Z</time>
      </trkpt>
      <trkpt lat="43.87449" lon="7.45898">
        <ele>416</ele>
        <time>2018-06-19T07:15:09Z</time>
      </trkpt>
      <trkpt lat="43.87447" lon="7.45906">
        <ele>417</ele>
        <time>2018-06-19T07:15:15Z</time>
      </trkpt>
      <trkpt lat="43.87446" lon="7.45914">
        <ele>418</ele>
        <time>2018-06-19T07:15:21Z</time>
      </trkpt>
      <trkpt lat="43.87445" lon="7.45929">
        <ele>419</ele>
        <time>2018-06-19T07:15:32Z</time>
      </trkpt>
      <trkpt lat="43.87442" lon="7.4595">
        <ele>419</ele>
        <time>2018-06-19T07:15:47Z</time>
      </trkpt>
      <trkpt lat="43.87436" lon="7.45966">
        <ele>420</ele>
        <time>2018-06-19T07:16:00Z</time>
      </trkpt>
      <trkpt lat="43.87435" lon="7.45968">
        <ele>420</ele>
        <time>2018-06-19T07:16:02Z</time>
      </trkpt>
      <trkpt lat="43.87424" lon="7.45985">
        <ele>423</ele>
        <time>2018-06-19T07:16:16Z</time>
      </trkpt>
      <trkpt lat="43.87413" lon="7.45995">
        <ele>433</ele>
        <time>2018-06-19T07:16:28Z</time>
      </trkpt>
      <trkpt lat="43.87409" lon="7.45998">
        <ele>434</ele>
        <time>2018-06-19T07:16:33Z</time>
      </trkpt>
      <trkpt lat="43.87399" lon="7.46007">
        <ele>437</ele>
        <time>2018-06-19T07:16:45Z</time>
      </trkpt>
      <trkpt lat="43.87395" lon="7.46013">
        <ele>438</ele>
        <time>2018-06-19T07:16:56Z</time>
      </trkpt>
      <trkpt lat="43.87388" lon="7.46025">
        <ele>440</ele>
        <time>2018-06-19T07:17:10Z</time>
      </trkpt>
      <trkpt lat="43.8738" lon="7.46035">
        <ele>442</ele>
        <time>2018-06-19T07:17:22Z</time>
      </trkpt>
      <trkpt lat="43.87372" lon="7.46045">
        <ele>443</ele>
        <time>2018-06-19T07:17:34Z</time>
      </trkpt>
      <trkpt lat="43.87365" lon="7.46053">
        <ele>444</ele>
        <time>2018-06-19T07:17:48Z</time>
      </trkpt>
      <trkpt lat="43.87361" lon="7.46056">
        <ele>444</ele>
        <time>2018-06-19T07:17:55Z</time>
      </trkpt>
      <trkpt lat="43.87355" lon="7.46061">
        <ele>445</ele>
        <time>2018-06-19T07:18:03Z</time>
      </trkpt>
      <trkpt lat="43.87354" lon="7.46063">
        <ele>445</ele>
        <time>2018-06-19T07:18:05Z</time>
      </trkpt>
      <trkpt lat="43.87347" lon="7.46069">
        <ele>447</ele>
        <time>2018-06-19T07:18:14Z</time>
      </trkpt>
      <trkpt lat="43.87341" lon="7.46072">
        <ele>448</ele>
        <time>2018-06-19T07:18:21Z</time>
      </trkpt>
      <trkpt lat="43.87332" lon="7.46078">
        <ele>455</ele>
        <time>2018-06-19T07:18:35Z</time>
      </trkpt>
      <trkpt lat="43.87328" lon="7.46089">
        <ele>459</ele>
        <time>2018-06-19T07:18:47Z</time>
      </trkpt>
      <trkpt lat="43.87328" lon="7.46093">
        <ele>462</ele>
        <time>2018-06-19T07:18:49Z</time>
      </trkpt>
      <trkpt lat="43.8733" lon="7.46106">
        <ele>468</ele>
        <time>2018-06-19T07:18:59Z</time>
      </trkpt>
      <trkpt lat="43.87338" lon="7.46114">
        <ele>454</ele>
        <time>2018-06-19T07:19:11Z</time>
      </trkpt>
      <trkpt lat="43.87351" lon="7.46123">
        <ele>454</ele>
        <time>2018-06-19T07:19:26Z</time>
      </trkpt>
      <trkpt lat="43.87358" lon="7.46133">
        <ele>455</ele>
        <time>2018-06-19T07:19:40Z</time>
      </trkpt>
      <trkpt lat="43.87368" lon="7.4614">
        <ele>455</ele>
        <time>2018-06-19T07:19:54Z</time>
      </trkpt>
      <trkpt lat="43.87378" lon="7.46142">
        <ele>453</ele>
        <time>2018-06-19T07:20:06Z</time>
      </trkpt>
      <trkpt lat="43.87389" lon="7.46146">
        <ele>452</ele>
        <time>2018-06-19T07:20:20Z</time>
      </trkpt>
      <trkpt lat="43.87399" lon="7.46152">
        <ele>451</ele>
        <time>2018-06-19T07:20:32Z</time>
      </trkpt>
      <trkpt lat="43.87408" lon="7.46163">
        <ele>451</ele>
        <time>2018-06-19T07:20:46Z</time>
      </trkpt>
      <trkpt lat="43.87413" lon="7.46172">
        <ele>456</ele>
        <time>2018-06-19T07:20:58Z</time>
      </trkpt>
      <trkpt lat="43.87413" lon="7.46174">
        <ele>457</ele>
        <time>2018-06-19T07:20:59Z</time>
      </trkpt>
      <trkpt lat="43.87414" lon="7.46186">
        <ele>463</ele>
        <time>2018-06-19T07:21:10Z</time>
      </trkpt>
      <trkpt lat="43.87413" lon="7.46191">
        <ele>465</ele>
        <time>2018-06-19T07:21:15Z</time>
      </trkpt>
      <trkpt lat="43.8741" lon="7.46201">
        <ele>469</ele>
        <time>2018-06-19T07:21:25Z</time>
      </trkpt>
      <trkpt lat="43.87407" lon="7.4622">
        <ele>472</ele>
        <time>2018-06-19T07:21:37Z</time>
      </trkpt>
      <trkpt lat="43.87407" lon="7.46221">
        <ele>472</ele>
        <time>2018-06-19T07:21:38Z</time>
      </trkpt>
      <trkpt lat="43.87407" lon="7.46224">
        <ele>472</ele>
        <time>2018-06-19T07:21:40Z</time>
      </trkpt>
      <trkpt lat="43.87408" lon="7.46246">
        <ele>470</ele>
        <time>2018-06-19T07:21:54Z</time>
      </trkpt>
      <trkpt lat="43.8741" lon="7.46262">
        <ele>479</ele>
        <time>2018-06-19T07:22:07Z</time>
      </trkpt>
      <trkpt lat="43.8741" lon="7.46264">
        <ele>480</ele>
        <time>2018-06-19T07:22:08Z</time>
      </trkpt>
      <trkpt lat="43.87412" lon="7.4628">
        <ele>486</ele>
        <time>2018-06-19T07:22:20Z</time>
      </trkpt>
      <trkpt lat="43.87414" lon="7.463">
        <ele>488</ele>
        <time>2018-06-19T07:22:35Z</time>
      </trkpt>
      <trkpt lat="43.87412" lon="7.46316">
        <ele>487</ele>
        <time>2018-06-19T07:22:47Z</time>
      </trkpt>
      <trkpt lat="43.8741" lon="7.4633">
        <ele>483</ele>
        <time>2018-06-19T07:22:56Z</time>
      </trkpt>
      <trkpt lat="43.8741" lon="7.46335">
        <ele>485</ele>
        <time>2018-06-19T07:22:59Z</time>
      </trkpt>
      <trkpt lat="43.8741" lon="7.46345">
        <ele>490</ele>
        <time>2018-06-19T07:23:06Z</time>
      </trkpt>
      <trkpt lat="43.87411" lon="7.46359">
        <ele>496</ele>
        <time>2018-06-19T07:23:16Z</time>
      </trkpt>
      <trkpt lat="43.87413" lon="7.46377">
        <ele>498</ele>
        <time>2018-06-19T07:23:29Z</time>
      </trkpt>
      <trkpt lat="43.87412" lon="7.46387">
        <ele>498</ele>
        <time>2018-06-19T07:23:37Z</time>
      </trkpt>
      <trkpt lat="43.87409" lon="7.464">
        <ele>496</ele>
        <time>2018-06-19T07:23:48Z</time>
      </trkpt>
      <trkpt lat="43.87404" lon="7.46419">
        <ele>497</ele>
        <time>2018-06-19T07:24:00Z</time>
      </trkpt>
      <trkpt lat="43.87404" lon="7.46425">
        <ele>499</ele>
        <time>2018-06-19T07:24:05Z</time>
      </trkpt>
      <trkpt lat="43.87413" lon="7.46442">
        <ele>503</ele>
        <time>2018-06-19T07:24:20Z</time>
      </trkpt>
      <trkpt lat="43.8742" lon="7.46452">
        <ele>475</ele>
        <time>2018-06-19T07:24:29Z</time>
      </trkpt>
      <trkpt lat="43.87424" lon="7.46462">
        <ele>476</ele>
        <time>2018-06-19T07:24:42Z</time>
      </trkpt>
      <trkpt lat="43.87425" lon="7.46473">
        <ele>478</ele>
        <time>2018-06-19T07:24:54Z</time>
      </trkpt>
      <trkpt lat="43.87429" lon="7.46482">
        <ele>480</ele>
        <time>2018-06-19T07:25:07Z</time>
      </trkpt>
      <trkpt lat="43.87433" lon="7.46491">
        <ele>481</ele>
        <time>2018-06-19T07:25:19Z</time>
      </trkpt>
      <trkpt lat="43.87437" lon="7.46498">
        <ele>480</ele>
        <time>2018-06-19T07:25:26Z</time>
      </trkpt>
      <trkpt lat="43.87439" lon="7.46514">
        <ele>482</ele>
        <time>2018-06-19T07:25:40Z</time>
      </trkpt>
      <trkpt lat="43.87439" lon="7.46518">
        <ele>482</ele>
        <time>2018-06-19T07:25:43Z</time>
      </trkpt>
      <trkpt lat="43.87437" lon="7.4653">
        <ele>482</ele>
        <time>2018-06-19T07:25:56Z</time>
      </trkpt>
      <trkpt lat="43.87434" lon="7.46539">
        <ele>482</ele>
        <time>2018-06-19T07:26:08Z</time>
      </trkpt>
      <trkpt lat="43.87428" lon="7.46549">
        <ele>484</ele>
        <time>2018-06-19T07:26:18Z</time>
      </trkpt>
      <trkpt lat="43.87424" lon="7.46559">
        <ele>487</ele>
        <time>2018-06-19T07:26:30Z</time>
      </trkpt>
      <trkpt lat="43.8742" lon="7.46568">
        <ele>492</ele>
        <time>2018-06-19T07:26:41Z</time>
      </trkpt>
      <trkpt lat="43.87416" lon="7.46575">
        <ele>510</ele>
        <time>2018-06-19T07:26:51Z</time>
      </trkpt>
      <trkpt lat="43.87412" lon="7.46583">
        <ele>508</ele>
        <time>2018-06-19T07:27:03Z</time>
      </trkpt>
      <trkpt lat="43.87409" lon="7.46594">
        <ele>516</ele>
        <time>2018-06-19T07:27:16Z</time>
      </trkpt>
      <trkpt lat="43.87406" lon="7.46598">
        <ele>519</ele>
        <time>2018-06-19T07:27:24Z</time>
      </trkpt>
      <trkpt lat="43.87402" lon="7.46605">
        <ele>523</ele>
        <time>2018-06-19T07:27:38Z</time>
      </trkpt>
      <trkpt lat="43.87398" lon="7.46612">
        <ele>525</ele>
        <time>2018-06-19T07:27:49Z</time>
      </trkpt>
      <trkpt lat="43.87395" lon="7.46617">
        <ele>526</ele>
        <time>2018-06-19T07:28:01Z</time>
      </trkpt>
      <trkpt lat="43.87393" lon="7.46626">
        <ele>527</ele>
        <time>2018-06-19T07:28:15Z</time>
      </trkpt>
      <trkpt lat="43.87393" lon="7.46626">
        <ele>527</ele>
        <time>2018-06-19T07:28:20Z</time>
      </trkpt>
      <trkpt lat="43.87392" lon="7.46632">
        <ele>527</ele>
        <time>2018-06-19T07:28:29Z</time>
      </trkpt>
      <trkpt lat="43.87388" lon="7.46634">
        <ele>528</ele>
        <time>2018-06-19T07:28:32Z</time>
      </trkpt>
      <trkpt lat="43.87385" lon="7.46638">
        <ele>529</ele>
        <time>2018-06-19T07:28:42Z</time>
      </trkpt>
      <trkpt lat="43.87386" lon="7.46644">
        <ele>529</ele>
        <time>2018-06-19T07:28:54Z</time>
      </trkpt>
      <trkpt lat="43.87382" lon="7.4665">
        <ele>530</ele>
        <time>2018-06-19T07:29:05Z</time>
      </trkpt>
      <trkpt lat="43.87378" lon="7.46653">
        <ele>532</ele>
        <time>2018-06-19T07:29:19Z</time>
      </trkpt>
      <trkpt lat="43.87377" lon="7.4666">
        <ele>532</ele>
        <time>2018-06-19T07:29:31Z</time>
      </trkpt>
      <trkpt lat="43.87375" lon="7.46667">
        <ele>533</ele>
        <time>2018-06-19T07:29:41Z</time>
      </trkpt>
      <trkpt lat="43.87372" lon="7.46673">
        <ele>535</ele>
        <time>2018-06-19T07:29:53Z</time>
      </trkpt>
      <trkpt lat="43.87371" lon="7.46681">
        <ele>535</ele>
        <time>2018-06-19T07:30:03Z</time>
      </trkpt>
      <trkpt lat="43.87368" lon="7.46682">
        <ele>536</ele>
        <time>2018-06-19T07:30:15Z</time>
      </trkpt>
      <trkpt lat="43.87366" lon="7.46688">
        <ele>536</ele>
        <time>2018-06-19T07:30:25Z</time>
      </trkpt>
      <trkpt lat="43.87367" lon="7.4669">
        <ele>536</ele>
        <time>2018-06-19T07:30:29Z</time>
      </trkpt>
      <trkpt lat="43.87366" lon="7.46702">
        <ele>536</ele>
        <time>2018-06-19T07:30:43Z</time>
      </trkpt>
      <trkpt lat="43.87362" lon="7.46709">
        <ele>537</ele>
        <time>2018-06-19T07:30:54Z</time>
      </trkpt>
      <trkpt lat="43.87359" lon="7.46717">
        <ele>537</ele>
        <time>2018-06-19T07:31:05Z</time>
      </trkpt>
      <trkpt lat="43.87354" lon="7.46722">
        <ele>539</ele>
        <time>2018-06-19T07:31:15Z</time>
      </trkpt>
      <trkpt lat="43.87348" lon="7.46726">
        <ele>540</ele>
        <time>2018-06-19T07:31:25Z</time>
      </trkpt>
      <trkpt lat="43.87372" lon="7.46736">
        <ele>535</ele>
        <time>2018-06-19T07:31:40Z</time>
      </trkpt>
      <trkpt lat="43.87381" lon="7.4674">
        <ele>533</ele>
        <time>2018-06-19T07:31:55Z</time>
      </trkpt>
      <trkpt lat="43.87379" lon="7.46743">
        <ele>533</ele>
        <time>2018-06-19T07:32:08Z</time>
      </trkpt>
      <trkpt lat="43.87374" lon="7.46749">
        <ele>534</ele>
        <time>2018-06-19T07:32:18Z</time>
      </trkpt>
      <trkpt lat="43.8737" lon="7.46755">
        <ele>538</ele>
        <time>2018-06-19T07:32:30Z</time>
      </trkpt>
      <trkpt lat="43.87358" lon="7.46753">
        <ele>541</ele>
        <time>2018-06-19T07:32:45Z</time>
      </trkpt>
      <trkpt lat="43.87349" lon="7.46756">
        <ele>543</ele>
        <time>2018-06-19T07:32:59Z</time>
      </trkpt>
      <trkpt lat="43.87344" lon="7.46765">
        <ele>543</ele>
        <time>2018-06-19T07:33:13Z</time>
      </trkpt>
      <trkpt lat="43.87344" lon="7.46766">
        <ele>543</ele>
        <time>2018-06-19T07:33:14Z</time>
      </trkpt>
      <trkpt lat="43.8734" lon="7.46775">
        <ele>542</ele>
        <time>2018-06-19T07:33:27Z</time>
      </trkpt>
      <trkpt lat="43.8734" lon="7.46776">
        <ele>542</ele>
        <time>2018-06-19T07:33:38Z</time>
      </trkpt>
      <trkpt lat="43.87338" lon="7.46788">
        <ele>541</ele>
        <time>2018-06-19T07:33:52Z</time>
      </trkpt>
      <trkpt lat="43.87338" lon="7.46791">
        <ele>541</ele>
        <time>2018-06-19T07:33:54Z</time>
      </trkpt>
      <trkpt lat="43.87331" lon="7.46798">
        <ele>554</ele>
        <time>2018-06-19T07:33:58Z</time>
      </trkpt>
      <trkpt lat="43.87327" lon="7.46806">
        <ele>553</ele>
        <time>2018-06-19T07:34:04Z</time>
      </trkpt>
      <trkpt lat="43.87316" lon="7.46824">
        <ele>552</ele>
        <time>2018-06-19T07:34:19Z</time>
      </trkpt>
      <trkpt lat="43.87313" lon="7.46829">
        <ele>553</ele>
        <time>2018-06-19T07:34:23Z</time>
      </trkpt>
      <trkpt lat="43.87312" lon="7.46831">
        <ele>553</ele>
        <time>2018-06-19T07:34:25Z</time>
      </trkpt>
      <trkpt lat="43.87309" lon="7.46835">
        <ele>545</ele>
        <time>2018-06-19T07:34:28Z</time>
      </trkpt>
      <trkpt lat="43.87304" lon="7.46844">
        <ele>546</ele>
        <time>2018-06-19T07:34:40Z</time>
      </trkpt>
      <trkpt lat="43.87297" lon="7.46859">
        <ele>546</ele>
        <time>2018-06-19T07:34:51Z</time>
      </trkpt>
      <trkpt lat="43.87294" lon="7.46862">
        <ele>546</ele>
        <time>2018-06-19T07:34:54Z</time>
      </trkpt>
      <trkpt lat="43.87291" lon="7.46868">
        <ele>546</ele>
        <time>2018-06-19T07:34:59Z</time>
      </trkpt>
      <trkpt lat="43.87283" lon="7.46876">
        <ele>546</ele>
        <time>2018-06-19T07:35:07Z</time>
      </trkpt>
      <trkpt lat="43.8728" lon="7.46878">
        <ele>546</ele>
        <time>2018-06-19T07:35:10Z</time>
      </trkpt>
      <trkpt lat="43.87267" lon="7.46892">
        <ele>545</ele>
        <time>2018-06-19T07:35:24Z</time>
      </trkpt>
      <trkpt lat="43.87266" lon="7.46895">
        <ele>544</ele>
        <time>2018-06-19T07:35:26Z</time>
      </trkpt>
      <trkpt lat="43.87256" lon="7.46903">
        <ele>543</ele>
        <time>2018-06-19T07:35:40Z</time>
      </trkpt>
      <trkpt lat="43.87247" lon="7.46908">
        <ele>550</ele>
        <time>2018-06-19T07:35:51Z</time>
      </trkpt>
      <trkpt lat="43.87244" lon="7.46908">
        <ele>550</ele>
        <time>2018-06-19T07:35:54Z</time>
      </trkpt>
      <trkpt lat="43.87232" lon="7.4691">
        <ele>556</ele>
        <time>2018-06-19T07:36:07Z</time>
      </trkpt>
      <trkpt lat="43.87224" lon="7.4691">
        <ele>559</ele>
        <time>2018-06-19T07:36:19Z</time>
      </trkpt>
      <trkpt lat="43.87216" lon="7.4691">
        <ele>562</ele>
        <time>2018-06-19T07:36:30Z</time>
      </trkpt>
      <trkpt lat="43.87202" lon="7.46914">
        <ele>566</ele>
        <time>2018-06-19T07:36:43Z</time>
      </trkpt>
      <trkpt lat="43.87193" lon="7.46917">
        <ele>567</ele>
        <time>2018-06-19T07:36:56Z</time>
      </trkpt>
      <trkpt lat="43.87188" lon="7.46919">
        <ele>557</ele>
        <time>2018-06-19T07:37:01Z</time>
      </trkpt>
      <trkpt lat="43.87177" lon="7.46924">
        <ele>561</ele>
        <time>2018-06-19T07:37:13Z</time>
      </trkpt>
      <trkpt lat="43.87168" lon="7.46927">
        <ele>562</ele>
        <time>2018-06-19T07:37:24Z</time>
      </trkpt>
      <trkpt lat="43.8716" lon="7.46928">
        <ele>573</ele>
        <time>2018-06-19T07:37:36Z</time>
      </trkpt>
      <trkpt lat="43.87153" lon="7.46932">
        <ele>574</ele>
        <time>2018-06-19T07:37:46Z</time>
      </trkpt>
      <trkpt lat="43.87147" lon="7.46937">
        <ele>576</ele>
        <time>2018-06-19T07:37:55Z</time>
      </trkpt>
      <trkpt lat="43.87141" lon="7.46943">
        <ele>577</ele>
        <time>2018-06-19T07:38:04Z</time>
      </trkpt>
      <trkpt lat="43.8713" lon="7.46953">
        <ele>578</ele>
        <time>2018-06-19T07:38:16Z</time>
      </trkpt>
      <trkpt lat="43.87125" lon="7.46959">
        <ele>579</ele>
        <time>2018-06-19T07:38:25Z</time>
      </trkpt>
      <trkpt lat="43.87122" lon="7.46964">
        <ele>579</ele>
        <time>2018-06-19T07:38:29Z</time>
      </trkpt>
      <trkpt lat="43.87121" lon="7.46977">
        <ele>579</ele>
        <time>2018-06-19T07:38:43Z</time>
      </trkpt>
      <trkpt lat="43.87122" lon="7.46988">
        <ele>578</ele>
        <time>2018-06-19T07:38:56Z</time>
      </trkpt>
      <trkpt lat="43.87122" lon="7.46997">
        <ele>578</ele>
        <time>2018-06-19T07:39:06Z</time>
      </trkpt>
      <trkpt lat="43.87128" lon="7.4701">
        <ele>573</ele>
        <time>2018-06-19T07:39:19Z</time>
      </trkpt>
      <trkpt lat="43.87131" lon="7.47023">
        <ele>573</ele>
        <time>2018-06-19T07:39:32Z</time>
      </trkpt>
      <trkpt lat="43.87128" lon="7.47035">
        <ele>574</ele>
        <time>2018-06-19T07:39:42Z</time>
      </trkpt>
      <trkpt lat="43.87124" lon="7.47049">
        <ele>575</ele>
        <time>2018-06-19T07:39:54Z</time>
      </trkpt>
      <trkpt lat="43.87123" lon="7.47064">
        <ele>576</ele>
        <time>2018-06-19T07:40:07Z</time>
      </trkpt>
      <trkpt lat="43.87124" lon="7.47068">
        <ele>576</ele>
        <time>2018-06-19T07:40:11Z</time>
      </trkpt>
      <trkpt lat="43.87124" lon="7.4709">
        <ele>579</ele>
        <time>2018-06-19T07:40:26Z</time>
      </trkpt>
      <trkpt lat="43.87125" lon="7.47108">
        <ele>579</ele>
        <time>2018-06-19T07:40:39Z</time>
      </trkpt>
      <trkpt lat="43.87128" lon="7.47123">
        <ele>579</ele>
        <time>2018-06-19T07:40:51Z</time>
      </trkpt>
      <trkpt lat="43.87131" lon="7.47139">
        <ele>579</ele>
        <time>2018-06-19T07:41:04Z</time>
      </trkpt>
      <trkpt lat="43.87131" lon="7.47154">
        <ele>579</ele>
        <time>2018-06-19T07:41:16Z</time>
      </trkpt>
      <trkpt lat="43.87131" lon="7.47166">
        <ele>579</ele>
        <time>2018-06-19T07:41:27Z</time>
      </trkpt>
      <trkpt lat="43.87132" lon="7.47176">
        <ele>581</ele>
        <time>2018-06-19T07:41:36Z</time>
      </trkpt>
      <trkpt lat="43.87136" lon="7.4719">
        <ele>581</ele>
        <time>2018-06-19T07:41:49Z</time>
      </trkpt>
      <trkpt lat="43.87136" lon="7.47206">
        <ele>582</ele>
        <time>2018-06-19T07:42:03Z</time>
      </trkpt>
      <trkpt lat="43.87137" lon="7.47218">
        <ele>582</ele>
        <time>2018-06-19T07:42:13Z</time>
      </trkpt>
      <trkpt lat="43.87137" lon="7.47239">
        <ele>581</ele>
        <time>2018-06-19T07:42:31Z</time>
      </trkpt>
      <trkpt lat="43.87137" lon="7.4724">
        <ele>581</ele>
        <time>2018-06-19T07:42:32Z</time>
      </trkpt>
      <trkpt lat="43.87137" lon="7.47254">
        <ele>583</ele>
        <time>2018-06-19T07:42:44Z</time>
      </trkpt>
      <trkpt lat="43.87136" lon="7.47269">
        <ele>584</ele>
        <time>2018-06-19T07:42:57Z</time>
      </trkpt>
      <trkpt lat="43.87134" lon="7.47283">
        <ele>585</ele>
        <time>2018-06-19T07:43:10Z</time>
      </trkpt>
      <trkpt lat="43.87131" lon="7.47298">
        <ele>586</ele>
        <time>2018-06-19T07:43:23Z</time>
      </trkpt>
      <trkpt lat="43.87128" lon="7.47311">
        <ele>587</ele>
        <time>2018-06-19T07:43:33Z</time>
      </trkpt>
      <trkpt lat="43.87119" lon="7.47325">
        <ele>589</ele>
        <time>2018-06-19T07:43:48Z</time>
      </trkpt>
      <trkpt lat="43.87113" lon="7.47332">
        <ele>590</ele>
        <time>2018-06-19T07:43:58Z</time>
      </trkpt>
      <trkpt lat="43.87103" lon="7.47342">
        <ele>594</ele>
        <time>2018-06-19T07:44:11Z</time>
      </trkpt>
      <trkpt lat="43.87103" lon="7.47342">
        <ele>594</ele>
        <time>2018-06-19T07:45:16Z</time>
      </trkpt>
      <trkpt lat="43.87101" lon="7.47349">
        <ele>594</ele>
        <time>2018-06-19T07:45:20Z</time>
      </trkpt>
      <trkpt lat="43.87104" lon="7.47356">
        <ele>593</ele>
        <time>2018-06-19T07:45:32Z</time>
      </trkpt>
      <trkpt lat="43.87104" lon="7.47355">
        <ele>593</ele>
        <time>2018-06-19T07:46:26Z</time>
      </trkpt>
      <trkpt lat="43.87101" lon="7.47351">
        <ele>594</ele>
        <time>2018-06-19T07:46:37Z</time>
      </trkpt>
      <trkpt lat="43.87092" lon="7.47355">
        <ele>594</ele>
        <time>2018-06-19T07:46:48Z</time>
      </trkpt>
      <trkpt lat="43.87083" lon="7.47361">
        <ele>609</ele>
        <time>2018-06-19T07:46:59Z</time>
      </trkpt>
      <trkpt lat="43.87082" lon="7.47361">
        <ele>609</ele>
        <time>2018-06-19T07:47:00Z</time>
      </trkpt>
      <trkpt lat="43.87077" lon="7.47366">
        <ele>610</ele>
        <time>2018-06-19T07:47:16Z</time>
      </trkpt>
      <trkpt lat="43.87077" lon="7.47366">
        <ele>610</ele>
        <time>2018-06-19T07:47:18Z</time>
      </trkpt>
      <trkpt lat="43.87067" lon="7.47369">
        <ele>611</ele>
        <time>2018-06-19T07:47:34Z</time>
      </trkpt>
      <trkpt lat="43.87064" lon="7.47375">
        <ele>612</ele>
        <time>2018-06-19T07:47:47Z</time>
      </trkpt>
      <trkpt lat="43.8706" lon="7.47384">
        <ele>612</ele>
        <time>2018-06-19T07:48:00Z</time>
      </trkpt>
      <trkpt lat="43.87055" lon="7.47392">
        <ele>613</ele>
        <time>2018-06-19T07:48:12Z</time>
      </trkpt>
      <trkpt lat="43.87053" lon="7.47398">
        <ele>613</ele>
        <time>2018-06-19T07:48:25Z</time>
      </trkpt>
      <trkpt lat="43.8705" lon="7.47404">
        <ele>613</ele>
        <time>2018-06-19T07:48:34Z</time>
      </trkpt>
      <trkpt lat="43.87045" lon="7.47414">
        <ele>614</ele>
        <time>2018-06-19T07:48:47Z</time>
      </trkpt>
      <trkpt lat="43.87043" lon="7.47421">
        <ele>615</ele>
        <time>2018-06-19T07:49:01Z</time>
      </trkpt>
      <trkpt lat="43.87037" lon="7.47428">
        <ele>617</ele>
        <time>2018-06-19T07:49:15Z</time>
      </trkpt>
      <trkpt lat="43.87033" lon="7.47438">
        <ele>617</ele>
        <time>2018-06-19T07:49:28Z</time>
      </trkpt>
      <trkpt lat="43.87029" lon="7.47446">
        <ele>618</ele>
        <time>2018-06-19T07:49:42Z</time>
      </trkpt>
      <trkpt lat="43.87027" lon="7.4745">
        <ele>618</ele>
        <time>2018-06-19T07:49:52Z</time>
      </trkpt>
      <trkpt lat="43.87022" lon="7.47453">
        <ele>619</ele>
        <time>2018-06-19T07:50:06Z</time>
      </trkpt>
      <trkpt lat="43.87017" lon="7.47455">
        <ele>619</ele>
        <time>2018-06-19T07:50:18Z</time>
      </trkpt>
      <trkpt lat="43.87014" lon="7.4746">
        <ele>620</ele>
        <time>2018-06-19T07:50:29Z</time>
      </trkpt>
      <trkpt lat="43.87011" lon="7.47468">
        <ele>620</ele>
        <time>2018-06-19T07:50:42Z</time>
      </trkpt>
      <trkpt lat="43.87008" lon="7.47474">
        <ele>621</ele>
        <time>2018-06-19T07:50:55Z</time>
      </trkpt>
      <trkpt lat="43.87003" lon="7.47486">
        <ele>623</ele>
        <time>2018-06-19T07:51:09Z</time>
      </trkpt>
      <trkpt lat="43.86999" lon="7.47495">
        <ele>630</ele>
        <time>2018-06-19T07:51:21Z</time>
      </trkpt>
      <trkpt lat="43.86996" lon="7.47504">
        <ele>626</ele>
        <time>2018-06-19T07:51:32Z</time>
      </trkpt>
      <trkpt lat="43.86986" lon="7.47513">
        <ele>624</ele>
        <time>2018-06-19T07:51:45Z</time>
      </trkpt>
      <trkpt lat="43.86973" lon="7.47513">
        <ele>623</ele>
        <time>2018-06-19T07:52:00Z</time>
      </trkpt>
      <trkpt lat="43.86965" lon="7.47511">
        <ele>623</ele>
        <time>2018-06-19T07:52:11Z</time>
      </trkpt>
      <trkpt lat="43.86963" lon="7.4751">
        <ele>623</ele>
        <time>2018-06-19T07:52:13Z</time>
      </trkpt>
      <trkpt lat="43.86951" lon="7.47508">
        <ele>624</ele>
        <time>2018-06-19T07:52:26Z</time>
      </trkpt>
      <trkpt lat="43.86942" lon="7.47503">
        <ele>626</ele>
        <time>2018-06-19T07:52:39Z</time>
      </trkpt>
      <trkpt lat="43.8693" lon="7.47502">
        <ele>628</ele>
        <time>2018-06-19T07:52:52Z</time>
      </trkpt>
      <trkpt lat="43.86916" lon="7.47503">
        <ele>633</ele>
        <time>2018-06-19T07:53:04Z</time>
      </trkpt>
      <trkpt lat="43.86902" lon="7.47502">
        <ele>633</ele>
        <time>2018-06-19T07:53:19Z</time>
      </trkpt>
      <trkpt lat="43.86901" lon="7.47502">
        <ele>633</ele>
        <time>2018-06-19T07:53:20Z</time>
      </trkpt>
      <trkpt lat="43.86889" lon="7.47502">
        <ele>633</ele>
        <time>2018-06-19T07:53:34Z</time>
      </trkpt>
      <trkpt lat="43.86877" lon="7.47502">
        <ele>634</ele>
        <time>2018-06-19T07:53:48Z</time>
      </trkpt>
      <trkpt lat="43.86869" lon="7.475">
        <ele>636</ele>
        <time>2018-06-19T07:54:00Z</time>
      </trkpt>
      <trkpt lat="43.86862" lon="7.47501">
        <ele>638</ele>
        <time>2018-06-19T07:54:13Z</time>
      </trkpt>
      <trkpt lat="43.86855" lon="7.47501">
        <ele>640</ele>
        <time>2018-06-19T07:54:25Z</time>
      </trkpt>
      <trkpt lat="43.86851" lon="7.475">
        <ele>642</ele>
        <time>2018-06-19T07:54:35Z</time>
      </trkpt>
      <trkpt lat="43.86846" lon="7.47502">
        <ele>644</ele>
        <time>2018-06-19T07:54:46Z</time>
      </trkpt>
      <trkpt lat="43.8684" lon="7.47503">
        <ele>647</ele>
        <time>2018-06-19T07:54:58Z</time>
      </trkpt>
      <trkpt lat="43.86835" lon="7.47502">
        <ele>650</ele>
        <time>2018-06-19T07:55:10Z</time>
      </trkpt>
      <trkpt lat="43.86831" lon="7.47505">
        <ele>654</ele>
        <time>2018-06-19T07:55:22Z</time>
      </trkpt>
      <trkpt lat="43.86825" lon="7.47505">
        <ele>655</ele>
        <time>2018-06-19T07:55:36Z</time>
      </trkpt>
      <trkpt lat="43.86819" lon="7.47506">
        <ele>657</ele>
        <time>2018-06-19T07:55:47Z</time>
      </trkpt>
      <trkpt lat="43.86813" lon="7.47509">
        <ele>658</ele>
        <time>2018-06-19T07:55:58Z</time>
      </trkpt>
      <trkpt lat="43.86806" lon="7.47514">
        <ele>660</ele>
        <time>2018-06-19T07:56:11Z</time>
      </trkpt>
      <trkpt lat="43.868" lon="7.47518">
        <ele>661</ele>
        <time>2018-06-19T07:56:25Z</time>
      </trkpt>
      <trkpt lat="43.86794" lon="7.4752">
        <ele>663</ele>
        <time>2018-06-19T07:56:38Z</time>
      </trkpt>
      <trkpt lat="43.86788" lon="7.47524">
        <ele>664</ele>
        <time>2018-06-19T07:56:50Z</time>
      </trkpt>
      <trkpt lat="43.86782" lon="7.47534">
        <ele>664</ele>
        <time>2018-06-19T07:57:03Z</time>
      </trkpt>
      <trkpt lat="43.86776" lon="7.47543">
        <ele>664</ele>
        <time>2018-06-19T07:57:18Z</time>
      </trkpt>
      <trkpt lat="43.86775" lon="7.47546">
        <ele>664</ele>
        <time>2018-06-19T07:57:32Z</time>
      </trkpt>
      <trkpt lat="43.86772" lon="7.47554">
        <ele>663</ele>
        <time>2018-06-19T07:57:57Z</time>
      </trkpt>
      <trkpt lat="43.86763" lon="7.47563">
        <ele>664</ele>
        <time>2018-06-19T07:58:11Z</time>
      </trkpt>
      <trkpt lat="43.86754" lon="7.47569">
        <ele>665</ele>
        <time>2018-06-19T07:58:23Z</time>
      </trkpt>
      <trkpt lat="43.86747" lon="7.47578">
        <ele>677</ele>
        <time>2018-06-19T07:58:36Z</time>
      </trkpt>
      <trkpt lat="43.86743" lon="7.47582">
        <ele>677</ele>
        <time>2018-06-19T07:58:43Z</time>
      </trkpt>
      <trkpt lat="43.86734" lon="7.47593">
        <ele>673</ele>
        <time>2018-06-19T07:58:56Z</time>
      </trkpt>
      <trkpt lat="43.86726" lon="7.47604">
        <ele>675</ele>
        <time>2018-06-19T07:59:10Z</time>
      </trkpt>
      <trkpt lat="43.86718" lon="7.47614">
        <ele>676</ele>
        <time>2018-06-19T07:59:22Z</time>
      </trkpt>
      <trkpt lat="43.8671" lon="7.47622">
        <ele>677</ele>
        <time>2018-06-19T07:59:35Z</time>
      </trkpt>
      <trkpt lat="43.86704" lon="7.4762">
        <ele>679</ele>
        <time>2018-06-19T07:59:50Z</time>
      </trkpt>
      <trkpt lat="43.86697" lon="7.47625">
        <ele>680</ele>
        <time>2018-06-19T08:00:01Z</time>
      </trkpt>
      <trkpt lat="43.86689" lon="7.47633">
        <ele>680</ele>
        <time>2018-06-19T08:00:14Z</time>
      </trkpt>
      <trkpt lat="43.86686" lon="7.47638">
        <ele>680</ele>
        <time>2018-06-19T08:00:24Z</time>
      </trkpt>
      <trkpt lat="43.86682" lon="7.47639">
        <ele>680</ele>
        <time>2018-06-19T08:00:35Z</time>
      </trkpt>
      <trkpt lat="43.86678" lon="7.47642">
        <ele>681</ele>
        <time>2018-06-19T08:00:46Z</time>
      </trkpt>
      <trkpt lat="43.8667" lon="7.47647">
        <ele>681</ele>
        <time>2018-06-19T08:00:59Z</time>
      </trkpt>
      <trkpt lat="43.86661" lon="7.47649">
        <ele>697</ele>
        <time>2018-06-19T08:01:11Z</time>
      </trkpt>
      <trkpt lat="43.86654" lon="7.4765">
        <ele>698</ele>
        <time>2018-06-19T08:01:22Z</time>
      </trkpt>
      <trkpt lat="43.86648" lon="7.47649">
        <ele>700</ele>
        <time>2018-06-19T08:01:33Z</time>
      </trkpt>
      <trkpt lat="43.86645" lon="7.47648">
        <ele>701</ele>
        <time>2018-06-19T08:01:46Z</time>
      </trkpt>
      <trkpt lat="43.86636" lon="7.4765">
        <ele>703</ele>
        <time>2018-06-19T08:01:59Z</time>
      </trkpt>
      <trkpt lat="43.8663" lon="7.47651">
        <ele>705</ele>
        <time>2018-06-19T08:02:09Z</time>
      </trkpt>
      <trkpt lat="43.86623" lon="7.47651">
        <ele>706</ele>
        <time>2018-06-19T08:02:21Z</time>
      </trkpt>
      <trkpt lat="43.86615" lon="7.47652">
        <ele>707</ele>
        <time>2018-06-19T08:02:35Z</time>
      </trkpt>
      <trkpt lat="43.8661" lon="7.47652">
        <ele>708</ele>
        <time>2018-06-19T08:02:47Z</time>
      </trkpt>
      <trkpt lat="43.86604" lon="7.47651">
        <ele>709</ele>
        <time>2018-06-19T08:02:59Z</time>
      </trkpt>
      <trkpt lat="43.86599" lon="7.47653">
        <ele>709</ele>
        <time>2018-06-19T08:03:10Z</time>
      </trkpt>
      <trkpt lat="43.86596" lon="7.47654">
        <ele>710</ele>
        <time>2018-06-19T08:03:21Z</time>
      </trkpt>
      <trkpt lat="43.86591" lon="7.47657">
        <ele>710</ele>
        <time>2018-06-19T08:03:35Z</time>
      </trkpt>
      <trkpt lat="43.86587" lon="7.47657">
        <ele>710</ele>
        <time>2018-06-19T08:03:47Z</time>
      </trkpt>
      <trkpt lat="43.86583" lon="7.47655">
        <ele>718</ele>
        <time>2018-06-19T08:04:10Z</time>
      </trkpt>
      <trkpt lat="43.86579" lon="7.47656">
        <ele>718</ele>
        <time>2018-06-19T08:04:22Z</time>
      </trkpt>
      <trkpt lat="43.86574" lon="7.47658">
        <ele>719</ele>
        <time>2018-06-19T08:04:29Z</time>
      </trkpt>
      <trkpt lat="43.8657" lon="7.47657">
        <ele>720</ele>
        <time>2018-06-19T08:04:42Z</time>
      </trkpt>
      <trkpt lat="43.8657" lon="7.47654">
        <ele>722</ele>
        <time>2018-06-19T08:04:56Z</time>
      </trkpt>
      <trkpt lat="43.86563" lon="7.4766">
        <ele>723</ele>
        <time>2018-06-19T08:05:08Z</time>
      </trkpt>
      <trkpt lat="43.86561" lon="7.47655">
        <ele>724</ele>
        <time>2018-06-19T08:05:24Z</time>
      </trkpt>
      <trkpt lat="43.86561" lon="7.47651">
        <ele>724</ele>
        <time>2018-06-19T08:05:35Z</time>
      </trkpt>
      <trkpt lat="43.86559" lon="7.47648">
        <ele>726</ele>
        <time>2018-06-19T08:05:47Z</time>
      </trkpt>
      <trkpt lat="43.86553" lon="7.47647">
        <ele>727</ele>
        <time>2018-06-19T08:05:59Z</time>
      </trkpt>
      <trkpt lat="43.86549" lon="7.47649">
        <ele>728</ele>
        <time>2018-06-19T08:06:13Z</time>
      </trkpt>
      <trkpt lat="43.86539" lon="7.47653">
        <ele>729</ele>
        <time>2018-06-19T08:06:29Z</time>
      </trkpt>
      <trkpt lat="43.86533" lon="7.47654">
        <ele>730</ele>
        <time>2018-06-19T08:06:39Z</time>
      </trkpt>
      <trkpt lat="43.86528" lon="7.47659">
        <ele>730</ele>
        <time>2018-06-19T08:06:49Z</time>
      </trkpt>
      <trkpt lat="43.86524" lon="7.47669">
        <ele>728</ele>
        <time>2018-06-19T08:07:03Z</time>
      </trkpt>
      <trkpt lat="43.86521" lon="7.47673">
        <ele>728</ele>
        <time>2018-06-19T08:07:15Z</time>
      </trkpt>
      <trkpt lat="43.8652" lon="7.47674">
        <ele>728</ele>
        <time>2018-06-19T08:07:30Z</time>
      </trkpt>
      <trkpt lat="43.8652" lon="7.47672">
        <ele>728</ele>
        <time>2018-06-19T08:08:22Z</time>
      </trkpt>
      <trkpt lat="43.86519" lon="7.47674">
        <ele>729</ele>
        <time>2018-06-19T08:08:55Z</time>
      </trkpt>
      <trkpt lat="43.86518" lon="7.47675">
        <ele>729</ele>
        <time>2018-06-19T08:10:56Z</time>
      </trkpt>
      <trkpt lat="43.86516" lon="7.47678">
        <ele>729</ele>
        <time>2018-06-19T08:11:01Z</time>
      </trkpt>
      <trkpt lat="43.8651" lon="7.47679">
        <ele>729</ele>
        <time>2018-06-19T08:11:11Z</time>
      </trkpt>
      <trkpt lat="43.86505" lon="7.47682">
        <ele>730</ele>
        <time>2018-06-19T08:11:24Z</time>
      </trkpt>
      <trkpt lat="43.86505" lon="7.47682">
        <ele>730</ele>
        <time>2018-06-19T08:11:25Z</time>
      </trkpt>
      <trkpt lat="43.865" lon="7.47686">
        <ele>742</ele>
        <time>2018-06-19T08:11:37Z</time>
      </trkpt>
      <trkpt lat="43.86496" lon="7.47688">
        <ele>744</ele>
        <time>2018-06-19T08:11:50Z</time>
      </trkpt>
      <trkpt lat="43.86491" lon="7.47692">
        <ele>745</ele>
        <time>2018-06-19T08:12:05Z</time>
      </trkpt>
      <trkpt lat="43.8648" lon="7.47691">
        <ele>747</ele>
        <time>2018-06-19T08:12:19Z</time>
      </trkpt>
      <trkpt lat="43.86477" lon="7.47695">
        <ele>749</ele>
        <time>2018-06-19T08:12:32Z</time>
      </trkpt>
      <trkpt lat="43.86476" lon="7.47695">
        <ele>749</ele>
        <time>2018-06-19T08:12:44Z</time>
      </trkpt>
      <trkpt lat="43.86473" lon="7.47696">
        <ele>750</ele>
        <time>2018-06-19T08:12:56Z</time>
      </trkpt>
      <trkpt lat="43.86466" lon="7.47695">
        <ele>751</ele>
        <time>2018-06-19T08:13:10Z</time>
      </trkpt>
      <trkpt lat="43.86458" lon="7.4769">
        <ele>752</ele>
        <time>2018-06-19T08:13:26Z</time>
      </trkpt>
      <trkpt lat="43.86454" lon="7.4769">
        <ele>753</ele>
        <time>2018-06-19T08:13:41Z</time>
      </trkpt>
      <trkpt lat="43.8645" lon="7.47687">
        <ele>753</ele>
        <time>2018-06-19T08:13:44Z</time>
      </trkpt>
      <trkpt lat="43.86447" lon="7.47685">
        <ele>753</ele>
        <time>2018-06-19T08:13:46Z</time>
      </trkpt>
      <trkpt lat="43.86441" lon="7.47685">
        <ele>754</ele>
        <time>2018-06-19T08:13:59Z</time>
      </trkpt>
      <trkpt lat="43.86437" lon="7.47687">
        <ele>755</ele>
        <time>2018-06-19T08:14:12Z</time>
      </trkpt>
      <trkpt lat="43.86439" lon="7.47693">
        <ele>755</ele>
        <time>2018-06-19T08:14:24Z</time>
      </trkpt>
      <trkpt lat="43.86438" lon="7.47699">
        <ele>756</ele>
        <time>2018-06-19T08:14:37Z</time>
      </trkpt>
      <trkpt lat="43.86438" lon="7.47704">
        <ele>756</ele>
        <time>2018-06-19T08:14:51Z</time>
      </trkpt>
      <trkpt lat="43.86436" lon="7.47709">
        <ele>757</ele>
        <time>2018-06-19T08:15:03Z</time>
      </trkpt>
      <trkpt lat="43.86431" lon="7.47708">
        <ele>758</ele>
        <time>2018-06-19T08:15:17Z</time>
      </trkpt>
      <trkpt lat="43.86425" lon="7.47708">
        <ele>758</ele>
        <time>2018-06-19T08:15:27Z</time>
      </trkpt>
      <trkpt lat="43.8642" lon="7.47707">
        <ele>758</ele>
        <time>2018-06-19T08:15:37Z</time>
      </trkpt>
      <trkpt lat="43.86415" lon="7.47706">
        <ele>775</ele>
        <time>2018-06-19T08:15:58Z</time>
      </trkpt>
      <trkpt lat="43.86409" lon="7.47704">
        <ele>775</ele>
        <time>2018-06-19T08:16:10Z</time>
      </trkpt>
      <trkpt lat="43.86404" lon="7.477">
        <ele>775</ele>
        <time>2018-06-19T08:16:21Z</time>
      </trkpt>
      <trkpt lat="43.86396" lon="7.47696">
        <ele>775</ele>
        <time>2018-06-19T08:16:35Z</time>
      </trkpt>
      <trkpt lat="43.86394" lon="7.47697">
        <ele>776</ele>
        <time>2018-06-19T08:16:48Z</time>
      </trkpt>
      <trkpt lat="43.86392" lon="7.47696">
        <ele>776</ele>
        <time>2018-06-19T08:17:00Z</time>
      </trkpt>
      <trkpt lat="43.86386" lon="7.47695">
        <ele>777</ele>
        <time>2018-06-19T08:17:11Z</time>
      </trkpt>
      <trkpt lat="43.86382" lon="7.47694">
        <ele>777</ele>
        <time>2018-06-19T08:17:24Z</time>
      </trkpt>
      <trkpt lat="43.86378" lon="7.47693">
        <ele>778</ele>
        <time>2018-06-19T08:17:40Z</time>
      </trkpt>
      <trkpt lat="43.86371" lon="7.4769">
        <ele>779</ele>
        <time>2018-06-19T08:17:54Z</time>
      </trkpt>
      <trkpt lat="43.86367" lon="7.47688">
        <ele>780</ele>
        <time>2018-06-19T08:18:08Z</time>
      </trkpt>
      <trkpt lat="43.86363" lon="7.47686">
        <ele>780</ele>
        <time>2018-06-19T08:18:20Z</time>
      </trkpt>
      <trkpt lat="43.86357" lon="7.47683">
        <ele>781</ele>
        <time>2018-06-19T08:18:32Z</time>
      </trkpt>
      <trkpt lat="43.86352" lon="7.47682">
        <ele>782</ele>
        <time>2018-06-19T08:18:45Z</time>
      </trkpt>
      <trkpt lat="43.86347" lon="7.47679">
        <ele>783</ele>
        <time>2018-06-19T08:18:54Z</time>
      </trkpt>
      <trkpt lat="43.86342" lon="7.47679">
        <ele>784</ele>
        <time>2018-06-19T08:19:06Z</time>
      </trkpt>
      <trkpt lat="43.86336" lon="7.47676">
        <ele>785</ele>
        <time>2018-06-19T08:19:18Z</time>
      </trkpt>
      <trkpt lat="43.86335" lon="7.47675">
        <ele>785</ele>
        <time>2018-06-19T08:19:31Z</time>
      </trkpt>
      <trkpt lat="43.86331" lon="7.47672">
        <ele>789</ele>
        <time>2018-06-19T08:19:42Z</time>
      </trkpt>
      <trkpt lat="43.86328" lon="7.47671">
        <ele>789</ele>
        <time>2018-06-19T08:19:54Z</time>
      </trkpt>
      <trkpt lat="43.86326" lon="7.47671">
        <ele>790</ele>
        <time>2018-06-19T08:20:07Z</time>
      </trkpt>
      <trkpt lat="43.86322" lon="7.4767">
        <ele>791</ele>
        <time>2018-06-19T08:20:18Z</time>
      </trkpt>
      <trkpt lat="43.86316" lon="7.47665">
        <ele>795</ele>
        <time>2018-06-19T08:20:32Z</time>
      </trkpt>
      <trkpt lat="43.86312" lon="7.47662">
        <ele>796</ele>
        <time>2018-06-19T08:20:47Z</time>
      </trkpt>
      <trkpt lat="43.86308" lon="7.47663">
        <ele>797</ele>
        <time>2018-06-19T08:21:01Z</time>
      </trkpt>
      <trkpt lat="43.86308" lon="7.47666">
        <ele>797</ele>
        <time>2018-06-19T08:21:16Z</time>
      </trkpt>
      <trkpt lat="43.86312" lon="7.47672">
        <ele>793</ele>
        <time>2018-06-19T08:21:29Z</time>
      </trkpt>
      <trkpt lat="43.86311" lon="7.47677">
        <ele>793</ele>
        <time>2018-06-19T08:21:42Z</time>
      </trkpt>
      <trkpt lat="43.86306" lon="7.47676">
        <ele>794</ele>
        <time>2018-06-19T08:21:55Z</time>
      </trkpt>
      <trkpt lat="43.86303" lon="7.47675">
        <ele>795</ele>
        <time>2018-06-19T08:22:06Z</time>
      </trkpt>
      <trkpt lat="43.86299" lon="7.47675">
        <ele>795</ele>
        <time>2018-06-19T08:22:20Z</time>
      </trkpt>
      <trkpt lat="43.86295" lon="7.47673">
        <ele>796</ele>
        <time>2018-06-19T08:22:32Z</time>
      </trkpt>
      <trkpt lat="43.8629" lon="7.47669">
        <ele>796</ele>
        <time>2018-06-19T08:22:48Z</time>
      </trkpt>
      <trkpt lat="43.86284" lon="7.47666">
        <ele>802</ele>
        <time>2018-06-19T08:23:01Z</time>
      </trkpt>
      <trkpt lat="43.86279" lon="7.47661">
        <ele>803</ele>
        <time>2018-06-19T08:23:14Z</time>
      </trkpt>
      <trkpt lat="43.86275" lon="7.47661">
        <ele>803</ele>
        <time>2018-06-19T08:23:29Z</time>
      </trkpt>
      <trkpt lat="43.86272" lon="7.47658">
        <ele>804</ele>
        <time>2018-06-19T08:23:39Z</time>
      </trkpt>
      <trkpt lat="43.8627" lon="7.47657">
        <ele>804</ele>
        <time>2018-06-19T08:23:50Z</time>
      </trkpt>
      <trkpt lat="43.86266" lon="7.47659">
        <ele>804</ele>
        <time>2018-06-19T08:24:04Z</time>
      </trkpt>
      <trkpt lat="43.86268" lon="7.47667">
        <ele>800</ele>
        <time>2018-06-19T08:24:17Z</time>
      </trkpt>
      <trkpt lat="43.86268" lon="7.47672">
        <ele>800</ele>
        <time>2018-06-19T08:24:28Z</time>
      </trkpt>
      <trkpt lat="43.86268" lon="7.4768">
        <ele>799</ele>
        <time>2018-06-19T08:24:40Z</time>
      </trkpt>
      <trkpt lat="43.86266" lon="7.47688">
        <ele>799</ele>
        <time>2018-06-19T08:24:51Z</time>
      </trkpt>
      <trkpt lat="43.86265" lon="7.47691">
        <ele>799</ele>
        <time>2018-06-19T08:25:04Z</time>
      </trkpt>
      <trkpt lat="43.86264" lon="7.47692">
        <ele>799</ele>
        <time>2018-06-19T08:25:19Z</time>
      </trkpt>
      <trkpt lat="43.86264" lon="7.47692">
        <ele>799</ele>
        <time>2018-06-19T08:26:01Z</time>
      </trkpt>
      <trkpt lat="43.86263" lon="7.47692">
        <ele>799</ele>
        <time>2018-06-19T08:26:44Z</time>
      </trkpt>
      <trkpt lat="43.86259" lon="7.47689">
        <ele>799</ele>
        <time>2018-06-19T08:27:07Z</time>
      </trkpt>
      <trkpt lat="43.8626" lon="7.47694">
        <ele>799</ele>
        <time>2018-06-19T08:27:20Z</time>
      </trkpt>
      <trkpt lat="43.8626" lon="7.47694">
        <ele>799</ele>
        <time>2018-06-19T08:29:01Z</time>
      </trkpt>
      <trkpt lat="43.86257" lon="7.47692">
        <ele>799</ele>
        <time>2018-06-19T08:29:21Z</time>
      </trkpt>
      <trkpt lat="43.86249" lon="7.47696">
        <ele>800</ele>
        <time>2018-06-19T08:29:41Z</time>
      </trkpt>
      <trkpt lat="43.86243" lon="7.47699">
        <ele>800</ele>
        <time>2018-06-19T08:29:53Z</time>
      </trkpt>
      <trkpt lat="43.8623" lon="7.47701">
        <ele>800</ele>
        <time>2018-06-19T08:30:07Z</time>
      </trkpt>
      <trkpt lat="43.8622" lon="7.47706">
        <ele>799</ele>
        <time>2018-06-19T08:30:22Z</time>
      </trkpt>
      <trkpt lat="43.86207" lon="7.47707">
        <ele>799</ele>
        <time>2018-06-19T08:30:37Z</time>
      </trkpt>
      <trkpt lat="43.86195" lon="7.47706">
        <ele>799</ele>
        <time>2018-06-19T08:30:50Z</time>
      </trkpt>
      <trkpt lat="43.8618" lon="7.47708">
        <ele>798</ele>
        <time>2018-06-19T08:31:04Z</time>
      </trkpt>
      <trkpt lat="43.86167" lon="7.47709">
        <ele>798</ele>
        <time>2018-06-19T08:31:18Z</time>
      </trkpt>
      <trkpt lat="43.86154" lon="7.47709">
        <ele>791</ele>
        <time>2018-06-19T08:31:31Z</time>
      </trkpt>
      <trkpt lat="43.86143" lon="7.47708">
        <ele>790</ele>
        <time>2018-06-19T08:31:42Z</time>
      </trkpt>
      <trkpt lat="43.8613" lon="7.47705">
        <ele>789</ele>
        <time>2018-06-19T08:31:55Z</time>
      </trkpt>
      <trkpt lat="43.86119" lon="7.47704">
        <ele>789</ele>
        <time>2018-06-19T08:32:07Z</time>
      </trkpt>
      <trkpt lat="43.86117" lon="7.47704">
        <ele>788</ele>
        <time>2018-06-19T08:32:09Z</time>
      </trkpt>
      <trkpt lat="43.86104" lon="7.47701">
        <ele>788</ele>
        <time>2018-06-19T08:32:23Z</time>
      </trkpt>
      <trkpt lat="43.86094" lon="7.47694">
        <ele>789</ele>
        <time>2018-06-19T08:32:36Z</time>
      </trkpt>
      <trkpt lat="43.86085" lon="7.47684">
        <ele>790</ele>
        <time>2018-06-19T08:32:49Z</time>
      </trkpt>
      <trkpt lat="43.86077" lon="7.47677">
        <ele>784</ele>
        <time>2018-06-19T08:33:00Z</time>
      </trkpt>
      <trkpt lat="43.86074" lon="7.47674">
        <ele>784</ele>
        <time>2018-06-19T08:33:04Z</time>
      </trkpt>
      <trkpt lat="43.86069" lon="7.47668">
        <ele>783</ele>
        <time>2018-06-19T08:33:11Z</time>
      </trkpt>
      <trkpt lat="43.86059" lon="7.47654">
        <ele>791</ele>
        <time>2018-06-19T08:33:27Z</time>
      </trkpt>
      <trkpt lat="43.86051" lon="7.47643">
        <ele>790</ele>
        <time>2018-06-19T08:33:41Z</time>
      </trkpt>
      <trkpt lat="43.86049" lon="7.47637">
        <ele>790</ele>
        <time>2018-06-19T08:33:52Z</time>
      </trkpt>
      <trkpt lat="43.86045" lon="7.47628">
        <ele>791</ele>
        <time>2018-06-19T08:34:04Z</time>
      </trkpt>
      <trkpt lat="43.86036" lon="7.47618">
        <ele>791</ele>
        <time>2018-06-19T08:34:18Z</time>
      </trkpt>
      <trkpt lat="43.86033" lon="7.47613">
        <ele>791</ele>
        <time>2018-06-19T08:34:23Z</time>
      </trkpt>
      <trkpt lat="43.86022" lon="7.47602">
        <ele>790</ele>
        <time>2018-06-19T08:34:36Z</time>
      </trkpt>
      <trkpt lat="43.86007" lon="7.47591">
        <ele>790</ele>
        <time>2018-06-19T08:34:51Z</time>
      </trkpt>
      <trkpt lat="43.85995" lon="7.47581">
        <ele>794</ele>
        <time>2018-06-19T08:35:04Z</time>
      </trkpt>
      <trkpt lat="43.85993" lon="7.47579">
        <ele>796</ele>
        <time>2018-06-19T08:35:07Z</time>
      </trkpt>
      <trkpt lat="43.85989" lon="7.47578">
        <ele>798</ele>
        <time>2018-06-19T08:35:11Z</time>
      </trkpt>
      <trkpt lat="43.85979" lon="7.47576">
        <ele>802</ele>
        <time>2018-06-19T08:35:25Z</time>
      </trkpt>
      <trkpt lat="43.85974" lon="7.47574">
        <ele>804</ele>
        <time>2018-06-19T08:35:33Z</time>
      </trkpt>
      <trkpt lat="43.85967" lon="7.4757">
        <ele>806</ele>
        <time>2018-06-19T08:35:44Z</time>
      </trkpt>
      <trkpt lat="43.85963" lon="7.47567">
        <ele>807</ele>
        <time>2018-06-19T08:35:55Z</time>
      </trkpt>
      <trkpt lat="43.8596" lon="7.47563">
        <ele>808</ele>
        <time>2018-06-19T08:36:06Z</time>
      </trkpt>
      <trkpt lat="43.85957" lon="7.47557">
        <ele>810</ele>
        <time>2018-06-19T08:36:19Z</time>
      </trkpt>
      <trkpt lat="43.85952" lon="7.47558">
        <ele>810</ele>
        <time>2018-06-19T08:36:26Z</time>
      </trkpt>
      <trkpt lat="43.85945" lon="7.4757">
        <ele>808</ele>
        <time>2018-06-19T08:36:41Z</time>
      </trkpt>
      <trkpt lat="43.85939" lon="7.47578">
        <ele>807</ele>
        <time>2018-06-19T08:36:51Z</time>
      </trkpt>
      <trkpt lat="43.85938" lon="7.4758">
        <ele>807</ele>
        <time>2018-06-19T08:36:53Z</time>
      </trkpt>
      <trkpt lat="43.85931" lon="7.47584">
        <ele>794</ele>
        <time>2018-06-19T08:37:00Z</time>
      </trkpt>
      <trkpt lat="43.85921" lon="7.4759">
        <ele>797</ele>
        <time>2018-06-19T08:37:09Z</time>
      </trkpt>
      <trkpt lat="43.85914" lon="7.47594">
        <ele>802</ele>
        <time>2018-06-19T08:37:17Z</time>
      </trkpt>
      <trkpt lat="43.85911" lon="7.47596">
        <ele>802</ele>
        <time>2018-06-19T08:37:21Z</time>
      </trkpt>
      <trkpt lat="43.85902" lon="7.476">
        <ele>802</ele>
        <time>2018-06-19T08:37:33Z</time>
      </trkpt>
      <trkpt lat="43.85893" lon="7.47608">
        <ele>802</ele>
        <time>2018-06-19T08:37:45Z</time>
      </trkpt>
      <trkpt lat="43.85888" lon="7.47612">
        <ele>803</ele>
        <time>2018-06-19T08:37:51Z</time>
      </trkpt>
      <trkpt lat="43.85878" lon="7.47628">
        <ele>801</ele>
        <time>2018-06-19T08:38:06Z</time>
      </trkpt>
      <trkpt lat="43.85873" lon="7.47632">
        <ele>801</ele>
        <time>2018-06-19T08:38:12Z</time>
      </trkpt>
      <trkpt lat="43.85867" lon="7.47635">
        <ele>802</ele>
        <time>2018-06-19T08:38:18Z</time>
      </trkpt>
      <trkpt lat="43.85856" lon="7.47647">
        <ele>801</ele>
        <time>2018-06-19T08:38:32Z</time>
      </trkpt>
      <trkpt lat="43.85853" lon="7.47651">
        <ele>801</ele>
        <time>2018-06-19T08:38:37Z</time>
      </trkpt>
      <trkpt lat="43.85844" lon="7.47654">
        <ele>801</ele>
        <time>2018-06-19T08:38:50Z</time>
      </trkpt>
      <trkpt lat="43.85839" lon="7.47661">
        <ele>800</ele>
        <time>2018-06-19T08:39:01Z</time>
      </trkpt>
      <trkpt lat="43.85832" lon="7.47669">
        <ele>800</ele>
        <time>2018-06-19T08:39:12Z</time>
      </trkpt>
      <trkpt lat="43.85826" lon="7.47676">
        <ele>802</ele>
        <time>2018-06-19T08:39:23Z</time>
      </trkpt>
      <trkpt lat="43.8582" lon="7.47686">
        <ele>804</ele>
        <time>2018-06-19T08:39:36Z</time>
      </trkpt>
      <trkpt lat="43.85812" lon="7.47688">
        <ele>805</ele>
        <time>2018-06-19T08:39:48Z</time>
      </trkpt>
      <trkpt lat="43.85805" lon="7.47696">
        <ele>806</ele>
        <time>2018-06-19T08:40:01Z</time>
      </trkpt>
      <trkpt lat="43.85798" lon="7.47704">
        <ele>807</ele>
        <time>2018-06-19T08:40:12Z</time>
      </trkpt>
      <trkpt lat="43.8579" lon="7.47708">
        <ele>808</ele>
        <time>2018-06-19T08:40:25Z</time>
      </trkpt>
      <trkpt lat="43.85784" lon="7.47716">
        <ele>808</ele>
        <time>2018-06-19T08:40:39Z</time>
      </trkpt>
      <trkpt lat="43.85779" lon="7.47724">
        <ele>808</ele>
        <time>2018-06-19T08:40:51Z</time>
      </trkpt>
      <trkpt lat="43.85772" lon="7.47732">
        <ele>808</ele>
        <time>2018-06-19T08:41:03Z</time>
      </trkpt>
      <trkpt lat="43.85762" lon="7.47742">
        <ele>809</ele>
        <time>2018-06-19T08:41:16Z</time>
      </trkpt>
      <trkpt lat="43.85756" lon="7.47749">
        <ele>810</ele>
        <time>2018-06-19T08:41:25Z</time>
      </trkpt>
      <trkpt lat="43.85753" lon="7.47748">
        <ele>810</ele>
        <time>2018-06-19T08:41:27Z</time>
      </trkpt>
      <trkpt lat="43.85746" lon="7.47756">
        <ele>811</ele>
        <time>2018-06-19T08:41:40Z</time>
      </trkpt>
      <trkpt lat="43.85741" lon="7.4776">
        <ele>811</ele>
        <time>2018-06-19T08:41:45Z</time>
      </trkpt>
      <trkpt lat="43.85733" lon="7.47772">
        <ele>811</ele>
        <time>2018-06-19T08:41:57Z</time>
      </trkpt>
      <trkpt lat="43.85725" lon="7.47787">
        <ele>809</ele>
        <time>2018-06-19T08:42:11Z</time>
      </trkpt>
      <trkpt lat="43.85715" lon="7.47795">
        <ele>810</ele>
        <time>2018-06-19T08:42:24Z</time>
      </trkpt>
      <trkpt lat="43.85705" lon="7.47799">
        <ele>810</ele>
        <time>2018-06-19T08:42:37Z</time>
      </trkpt>
      <trkpt lat="43.85701" lon="7.47802">
        <ele>810</ele>
        <time>2018-06-19T08:42:43Z</time>
      </trkpt>
      <trkpt lat="43.85694" lon="7.4781">
        <ele>810</ele>
        <time>2018-06-19T08:42:54Z</time>
      </trkpt>
      <trkpt lat="43.85685" lon="7.47815">
        <ele>810</ele>
        <time>2018-06-19T08:43:07Z</time>
      </trkpt>
      <trkpt lat="43.85671" lon="7.47817">
        <ele>810</ele>
        <time>2018-06-19T08:43:20Z</time>
      </trkpt>
      <trkpt lat="43.85664" lon="7.47821">
        <ele>818</ele>
        <time>2018-06-19T08:43:33Z</time>
      </trkpt>
      <trkpt lat="43.85663" lon="7.47823">
        <ele>818</ele>
        <time>2018-06-19T08:43:35Z</time>
      </trkpt>
      <trkpt lat="43.85655" lon="7.47825">
        <ele>819</ele>
        <time>2018-06-19T08:43:47Z</time>
      </trkpt>
      <trkpt lat="43.85644" lon="7.47831">
        <ele>823</ele>
        <time>2018-06-19T08:44:00Z</time>
      </trkpt>
      <trkpt lat="43.85637" lon="7.47835">
        <ele>819</ele>
        <time>2018-06-19T08:44:11Z</time>
      </trkpt>
      <trkpt lat="43.85623" lon="7.47837">
        <ele>822</ele>
        <time>2018-06-19T08:44:24Z</time>
      </trkpt>
      <trkpt lat="43.85612" lon="7.47843">
        <ele>824</ele>
        <time>2018-06-19T08:44:36Z</time>
      </trkpt>
      <trkpt lat="43.85604" lon="7.47845">
        <ele>825</ele>
        <time>2018-06-19T08:44:50Z</time>
      </trkpt>
      <trkpt lat="43.85604" lon="7.47845">
        <ele>825</ele>
        <time>2018-06-19T08:44:58Z</time>
      </trkpt>
      <trkpt lat="43.85603" lon="7.47855">
        <ele>825</ele>
        <time>2018-06-19T08:45:09Z</time>
      </trkpt>
      <trkpt lat="43.85607" lon="7.47867">
        <ele>825</ele>
        <time>2018-06-19T08:45:21Z</time>
      </trkpt>
      <trkpt lat="43.85612" lon="7.47876">
        <ele>824</ele>
        <time>2018-06-19T08:45:33Z</time>
      </trkpt>
      <trkpt lat="43.85615" lon="7.47882">
        <ele>824</ele>
        <time>2018-06-19T08:45:47Z</time>
      </trkpt>
      <trkpt lat="43.85615" lon="7.47886">
        <ele>825</ele>
        <time>2018-06-19T08:45:59Z</time>
      </trkpt>
      <trkpt lat="43.85617" lon="7.47897">
        <ele>825</ele>
        <time>2018-06-19T08:46:12Z</time>
      </trkpt>
      <trkpt lat="43.85624" lon="7.47907">
        <ele>824</ele>
        <time>2018-06-19T08:46:26Z</time>
      </trkpt>
      <trkpt lat="43.85629" lon="7.47914">
        <ele>823</ele>
        <time>2018-06-19T08:46:39Z</time>
      </trkpt>
      <trkpt lat="43.85635" lon="7.4792">
        <ele>830</ele>
        <time>2018-06-19T08:46:53Z</time>
      </trkpt>
      <trkpt lat="43.85639" lon="7.47933">
        <ele>831</ele>
        <time>2018-06-19T08:47:07Z</time>
      </trkpt>
      <trkpt lat="43.85641" lon="7.47939">
        <ele>831</ele>
        <time>2018-06-19T08:47:23Z</time>
      </trkpt>
      <trkpt lat="43.8564" lon="7.47942">
        <ele>832</ele>
        <time>2018-06-19T08:47:39Z</time>
      </trkpt>
      <trkpt lat="43.85641" lon="7.47945">
        <ele>832</ele>
        <time>2018-06-19T08:47:54Z</time>
      </trkpt>
      <trkpt lat="43.85645" lon="7.47952">
        <ele>833</ele>
        <time>2018-06-19T08:48:11Z</time>
      </trkpt>
      <trkpt lat="43.85648" lon="7.47957">
        <ele>834</ele>
        <time>2018-06-19T08:48:26Z</time>
      </trkpt>
      <trkpt lat="43.85651" lon="7.47964">
        <ele>834</ele>
        <time>2018-06-19T08:48:41Z</time>
      </trkpt>
      <trkpt lat="43.85658" lon="7.47974">
        <ele>835</ele>
        <time>2018-06-19T08:49:00Z</time>
      </trkpt>
      <trkpt lat="43.85663" lon="7.47982">
        <ele>836</ele>
        <time>2018-06-19T08:49:16Z</time>
      </trkpt>
      <trkpt lat="43.85665" lon="7.47992">
        <ele>836</ele>
        <time>2018-06-19T08:49:32Z</time>
      </trkpt>
      <trkpt lat="43.85663" lon="7.48002">
        <ele>837</ele>
        <time>2018-06-19T08:49:46Z</time>
      </trkpt>
      <trkpt lat="43.85661" lon="7.48003">
        <ele>837</ele>
        <time>2018-06-19T08:50:00Z</time>
      </trkpt>
      <trkpt lat="43.8566" lon="7.48003">
        <ele>838</ele>
        <time>2018-06-19T08:50:51Z</time>
      </trkpt>
      <trkpt lat="43.85657" lon="7.48005">
        <ele>838</ele>
        <time>2018-06-19T08:52:39Z</time>
      </trkpt>
      <trkpt lat="43.85643" lon="7.48019">
        <ele>841</ele>
        <time>2018-06-19T08:52:52Z</time>
      </trkpt>
      <trkpt lat="43.85633" lon="7.48032">
        <ele>841</ele>
        <time>2018-06-19T08:53:06Z</time>
      </trkpt>
      <trkpt lat="43.85621" lon="7.48039">
        <ele>842</ele>
        <time>2018-06-19T08:53:19Z</time>
      </trkpt>
      <trkpt lat="43.8561" lon="7.48046">
        <ele>843</ele>
        <time>2018-06-19T08:53:31Z</time>
      </trkpt>
      <trkpt lat="43.856" lon="7.48045">
        <ele>844</ele>
        <time>2018-06-19T08:53:45Z</time>
      </trkpt>
      <trkpt lat="43.85589" lon="7.4805">
        <ele>844</ele>
        <time>2018-06-19T08:53:56Z</time>
      </trkpt>
      <trkpt lat="43.85577" lon="7.48057">
        <ele>856</ele>
        <time>2018-06-19T08:54:08Z</time>
      </trkpt>
      <trkpt lat="43.85567" lon="7.48067">
        <ele>856</ele>
        <time>2018-06-19T08:54:21Z</time>
      </trkpt>
      <trkpt lat="43.8556" lon="7.4807">
        <ele>857</ele>
        <time>2018-06-19T08:54:30Z</time>
      </trkpt>
      <trkpt lat="43.85557" lon="7.48072">
        <ele>857</ele>
        <time>2018-06-19T08:54:34Z</time>
      </trkpt>
      <trkpt lat="43.85544" lon="7.48076">
        <ele>860</ele>
        <time>2018-06-19T08:54:46Z</time>
      </trkpt>
      <trkpt lat="43.8553" lon="7.4808">
        <ele>862</ele>
        <time>2018-06-19T08:55:00Z</time>
      </trkpt>
      <trkpt lat="43.8552" lon="7.48082">
        <ele>862</ele>
        <time>2018-06-19T08:55:12Z</time>
      </trkpt>
      <trkpt lat="43.85511" lon="7.48091">
        <ele>853</ele>
        <time>2018-06-19T08:55:25Z</time>
      </trkpt>
      <trkpt lat="43.85503" lon="7.48098">
        <ele>853</ele>
        <time>2018-06-19T08:55:35Z</time>
      </trkpt>
      <trkpt lat="43.8549" lon="7.4811">
        <ele>860</ele>
        <time>2018-06-19T08:55:49Z</time>
      </trkpt>
      <trkpt lat="43.85482" lon="7.48116">
        <ele>859</ele>
        <time>2018-06-19T08:56:00Z</time>
      </trkpt>
      <trkpt lat="43.8547" lon="7.48127">
        <ele>859</ele>
        <time>2018-06-19T08:56:14Z</time>
      </trkpt>
      <trkpt lat="43.85463" lon="7.4813">
        <ele>859</ele>
        <time>2018-06-19T08:56:25Z</time>
      </trkpt>
      <trkpt lat="43.85456" lon="7.48131">
        <ele>860</ele>
        <time>2018-06-19T08:56:40Z</time>
      </trkpt>
      <trkpt lat="43.85444" lon="7.48135">
        <ele>861</ele>
        <time>2018-06-19T08:56:57Z</time>
      </trkpt>
      <trkpt lat="43.85437" lon="7.48137">
        <ele>862</ele>
        <time>2018-06-19T08:57:12Z</time>
      </trkpt>
      <trkpt lat="43.8543" lon="7.48138">
        <ele>862</ele>
        <time>2018-06-19T08:57:25Z</time>
      </trkpt>
      <trkpt lat="43.85421" lon="7.48139">
        <ele>862</ele>
        <time>2018-06-19T08:57:38Z</time>
      </trkpt>
      <trkpt lat="43.85418" lon="7.4814">
        <ele>862</ele>
        <time>2018-06-19T08:57:49Z</time>
      </trkpt>
      <trkpt lat="43.85413" lon="7.4814">
        <ele>877</ele>
        <time>2018-06-19T08:58:01Z</time>
      </trkpt>
      <trkpt lat="43.85403" lon="7.48136">
        <ele>880</ele>
        <time>2018-06-19T08:58:14Z</time>
      </trkpt>
      <trkpt lat="43.85395" lon="7.4814">
        <ele>880</ele>
        <time>2018-06-19T08:58:28Z</time>
      </trkpt>
      <trkpt lat="43.85386" lon="7.48142">
        <ele>882</ele>
        <time>2018-06-19T08:58:40Z</time>
      </trkpt>
      <trkpt lat="43.85375" lon="7.48144">
        <ele>884</ele>
        <time>2018-06-19T08:58:51Z</time>
      </trkpt>
      <trkpt lat="43.85371" lon="7.48145">
        <ele>884</ele>
        <time>2018-06-19T08:58:56Z</time>
      </trkpt>
      <trkpt lat="43.8537" lon="7.48149">
        <ele>883</ele>
        <time>2018-06-19T08:59:00Z</time>
      </trkpt>
      <trkpt lat="43.85365" lon="7.48157">
        <ele>883</ele>
        <time>2018-06-19T08:59:12Z</time>
      </trkpt>
      <trkpt lat="43.85364" lon="7.48158">
        <ele>883</ele>
        <time>2018-06-19T08:59:26Z</time>
      </trkpt>
      <trkpt lat="43.85361" lon="7.48163">
        <ele>883</ele>
        <time>2018-06-19T08:59:38Z</time>
      </trkpt>
      <trkpt lat="43.85351" lon="7.48176">
        <ele>871</ele>
        <time>2018-06-19T08:59:51Z</time>
      </trkpt>
      <trkpt lat="43.85341" lon="7.48186">
        <ele>871</ele>
        <time>2018-06-19T09:00:03Z</time>
      </trkpt>
      <trkpt lat="43.85331" lon="7.48196">
        <ele>885</ele>
        <time>2018-06-19T09:00:15Z</time>
      </trkpt>
      <trkpt lat="43.8532" lon="7.48203">
        <ele>886</ele>
        <time>2018-06-19T09:00:27Z</time>
      </trkpt>
      <trkpt lat="43.85309" lon="7.4821">
        <ele>887</ele>
        <time>2018-06-19T09:00:40Z</time>
      </trkpt>
      <trkpt lat="43.85302" lon="7.48213">
        <ele>887</ele>
        <time>2018-06-19T09:00:53Z</time>
      </trkpt>
      <trkpt lat="43.85297" lon="7.48213">
        <ele>888</ele>
        <time>2018-06-19T09:01:06Z</time>
      </trkpt>
      <trkpt lat="43.85289" lon="7.48216">
        <ele>890</ele>
        <time>2018-06-19T09:01:19Z</time>
      </trkpt>
      <trkpt lat="43.85276" lon="7.4822">
        <ele>892</ele>
        <time>2018-06-19T09:01:32Z</time>
      </trkpt>
      <trkpt lat="43.85272" lon="7.4822">
        <ele>893</ele>
        <time>2018-06-19T09:01:44Z</time>
      </trkpt>
      <trkpt lat="43.85262" lon="7.48222">
        <ele>894</ele>
        <time>2018-06-19T09:01:56Z</time>
      </trkpt>
      <trkpt lat="43.85259" lon="7.48225">
        <ele>894</ele>
        <time>2018-06-19T09:02:07Z</time>
      </trkpt>
      <trkpt lat="43.85258" lon="7.48233">
        <ele>894</ele>
        <time>2018-06-19T09:02:20Z</time>
      </trkpt>
      <trkpt lat="43.85256" lon="7.4824">
        <ele>895</ele>
        <time>2018-06-19T09:02:36Z</time>
      </trkpt>
      <trkpt lat="43.85254" lon="7.48245">
        <ele>895</ele>
        <time>2018-06-19T09:02:50Z</time>
      </trkpt>
      <trkpt lat="43.85248" lon="7.48254">
        <ele>902</ele>
        <time>2018-06-19T09:03:05Z</time>
      </trkpt>
      <trkpt lat="43.85241" lon="7.48259">
        <ele>908</ele>
        <time>2018-06-19T09:03:19Z</time>
      </trkpt>
      <trkpt lat="43.85238" lon="7.4826">
        <ele>910</ele>
        <time>2018-06-19T09:03:33Z</time>
      </trkpt>
      <trkpt lat="43.85234" lon="7.48261">
        <ele>912</ele>
        <time>2018-06-19T09:03:49Z</time>
      </trkpt>
      <trkpt lat="43.85231" lon="7.48263">
        <ele>914</ele>
        <time>2018-06-19T09:04:05Z</time>
      </trkpt>
      <trkpt lat="43.85228" lon="7.48255">
        <ele>914</ele>
        <time>2018-06-19T09:04:19Z</time>
      </trkpt>
      <trkpt lat="43.85219" lon="7.48248">
        <ele>918</ele>
        <time>2018-06-19T09:04:33Z</time>
      </trkpt>
      <trkpt lat="43.85216" lon="7.48247">
        <ele>919</ele>
        <time>2018-06-19T09:04:47Z</time>
      </trkpt>
      <trkpt lat="43.85212" lon="7.48244">
        <ele>921</ele>
        <time>2018-06-19T09:05:01Z</time>
      </trkpt>
      <trkpt lat="43.85207" lon="7.48244">
        <ele>923</ele>
        <time>2018-06-19T09:05:14Z</time>
      </trkpt>
      <trkpt lat="43.85205" lon="7.48235">
        <ele>924</ele>
        <time>2018-06-19T09:05:27Z</time>
      </trkpt>
      <trkpt lat="43.85202" lon="7.48234">
        <ele>924</ele>
        <time>2018-06-19T09:05:41Z</time>
      </trkpt>
      <trkpt lat="43.852" lon="7.48232">
        <ele>925</ele>
        <time>2018-06-19T09:05:57Z</time>
      </trkpt>
      <trkpt lat="43.85197" lon="7.48233">
        <ele>926</ele>
        <time>2018-06-19T09:06:09Z</time>
      </trkpt>
      <trkpt lat="43.85196" lon="7.48236">
        <ele>926</ele>
        <time>2018-06-19T09:06:20Z</time>
      </trkpt>
      <trkpt lat="43.85192" lon="7.48239">
        <ele>927</ele>
        <time>2018-06-19T09:06:33Z</time>
      </trkpt>
      <trkpt lat="43.85187" lon="7.48242">
        <ele>928</ele>
        <time>2018-06-19T09:06:44Z</time>
      </trkpt>
      <trkpt lat="43.85183" lon="7.48245">
        <ele>930</ele>
        <time>2018-06-19T09:06:57Z</time>
      </trkpt>
      <trkpt lat="43.85177" lon="7.4825">
        <ele>931</ele>
        <time>2018-06-19T09:07:10Z</time>
      </trkpt>
      <trkpt lat="43.85172" lon="7.48253">
        <ele>933</ele>
        <time>2018-06-19T09:07:22Z</time>
      </trkpt>
      <trkpt lat="43.85166" lon="7.48257">
        <ele>943</ele>
        <time>2018-06-19T09:07:38Z</time>
      </trkpt>
      <trkpt lat="43.85161" lon="7.48261">
        <ele>948</ele>
        <time>2018-06-19T09:07:51Z</time>
      </trkpt>
      <trkpt lat="43.85159" lon="7.48264">
        <ele>951</ele>
        <time>2018-06-19T09:08:03Z</time>
      </trkpt>
      <trkpt lat="43.85159" lon="7.4827">
        <ele>954</ele>
        <time>2018-06-19T09:08:15Z</time>
      </trkpt>
      <trkpt lat="43.85159" lon="7.48273">
        <ele>955</ele>
        <time>2018-06-19T09:08:27Z</time>
      </trkpt>
      <trkpt lat="43.8516" lon="7.48275">
        <ele>956</ele>
        <time>2018-06-19T09:08:40Z</time>
      </trkpt>
      <trkpt lat="43.85164" lon="7.48286">
        <ele>959</ele>
        <time>2018-06-19T09:08:55Z</time>
      </trkpt>
      <trkpt lat="43.85166" lon="7.48292">
        <ele>960</ele>
        <time>2018-06-19T09:09:08Z</time>
      </trkpt>
      <trkpt lat="43.85174" lon="7.48305">
        <ele>936</ele>
        <time>2018-06-19T09:09:20Z</time>
      </trkpt>
      <trkpt lat="43.85178" lon="7.48317">
        <ele>939</ele>
        <time>2018-06-19T09:09:35Z</time>
      </trkpt>
      <trkpt lat="43.85182" lon="7.48325">
        <ele>941</ele>
        <time>2018-06-19T09:09:47Z</time>
      </trkpt>
      <trkpt lat="43.85184" lon="7.48334">
        <ele>951</ele>
        <time>2018-06-19T09:10:00Z</time>
      </trkpt>
      <trkpt lat="43.85188" lon="7.48343">
        <ele>950</ele>
        <time>2018-06-19T09:10:14Z</time>
      </trkpt>
      <trkpt lat="43.8519" lon="7.48354">
        <ele>950</ele>
        <time>2018-06-19T09:10:28Z</time>
      </trkpt>
      <trkpt lat="43.8519" lon="7.4836">
        <ele>950</ele>
        <time>2018-06-19T09:10:40Z</time>
      </trkpt>
      <trkpt lat="43.85194" lon="7.48364">
        <ele>949</ele>
        <time>2018-06-19T09:10:52Z</time>
      </trkpt>
      <trkpt lat="43.85196" lon="7.48372">
        <ele>950</ele>
        <time>2018-06-19T09:11:07Z</time>
      </trkpt>
      <trkpt lat="43.85197" lon="7.48378">
        <ele>951</ele>
        <time>2018-06-19T09:11:19Z</time>
      </trkpt>
      <trkpt lat="43.85199" lon="7.4838">
        <ele>950</ele>
        <time>2018-06-19T09:11:31Z</time>
      </trkpt>
      <trkpt lat="43.85206" lon="7.48391">
        <ele>950</ele>
        <time>2018-06-19T09:11:42Z</time>
      </trkpt>
      <trkpt lat="43.8521" lon="7.484">
        <ele>950</ele>
        <time>2018-06-19T09:11:53Z</time>
      </trkpt>
      <trkpt lat="43.85214" lon="7.48406">
        <ele>949</ele>
        <time>2018-06-19T09:12:06Z</time>
      </trkpt>
      <trkpt lat="43.85215" lon="7.48408">
        <ele>949</ele>
        <time>2018-06-19T09:12:09Z</time>
      </trkpt>
      <trkpt lat="43.8522" lon="7.4842">
        <ele>956</ele>
        <time>2018-06-19T09:12:22Z</time>
      </trkpt>
      <trkpt lat="43.85222" lon="7.48428">
        <ele>956</ele>
        <time>2018-06-19T09:12:36Z</time>
      </trkpt>
      <trkpt lat="43.85222" lon="7.48438">
        <ele>957</ele>
        <time>2018-06-19T09:12:50Z</time>
      </trkpt>
      <trkpt lat="43.85225" lon="7.48449">
        <ele>957</ele>
        <time>2018-06-19T09:13:05Z</time>
      </trkpt>
      <trkpt lat="43.85222" lon="7.48455">
        <ele>958</ele>
        <time>2018-06-19T09:13:21Z</time>
      </trkpt>
      <trkpt lat="43.8522" lon="7.4846">
        <ele>959</ele>
        <time>2018-06-19T09:13:36Z</time>
      </trkpt>
      <trkpt lat="43.85216" lon="7.48467">
        <ele>960</ele>
        <time>2018-06-19T09:13:50Z</time>
      </trkpt>
      <trkpt lat="43.8521" lon="7.48474">
        <ele>961</ele>
        <time>2018-06-19T09:14:03Z</time>
      </trkpt>
      <trkpt lat="43.85204" lon="7.48477">
        <ele>963</ele>
        <time>2018-06-19T09:14:18Z</time>
      </trkpt>
      <trkpt lat="43.85199" lon="7.48482">
        <ele>965</ele>
        <time>2018-06-19T09:14:33Z</time>
      </trkpt>
      <trkpt lat="43.85191" lon="7.48487">
        <ele>969</ele>
        <time>2018-06-19T09:14:47Z</time>
      </trkpt>
      <trkpt lat="43.85186" lon="7.48491">
        <ele>972</ele>
        <time>2018-06-19T09:15:03Z</time>
      </trkpt>
      <trkpt lat="43.85183" lon="7.485">
        <ele>971</ele>
        <time>2018-06-19T09:15:18Z</time>
      </trkpt>
      <trkpt lat="43.85179" lon="7.48506">
        <ele>973</ele>
        <time>2018-06-19T09:15:31Z</time>
      </trkpt>
      <trkpt lat="43.85176" lon="7.48515">
        <ele>970</ele>
        <time>2018-06-19T09:15:45Z</time>
      </trkpt>
      <trkpt lat="43.85173" lon="7.48527">
        <ele>966</ele>
        <time>2018-06-19T09:15:59Z</time>
      </trkpt>
      <trkpt lat="43.85169" lon="7.48533">
        <ele>965</ele>
        <time>2018-06-19T09:16:11Z</time>
      </trkpt>
      <trkpt lat="43.85163" lon="7.48539">
        <ele>992</ele>
        <time>2018-06-19T09:16:24Z</time>
      </trkpt>
      <trkpt lat="43.85156" lon="7.48543">
        <ele>993</ele>
        <time>2018-06-19T09:16:35Z</time>
      </trkpt>
      <trkpt lat="43.85151" lon="7.48549">
        <ele>992</ele>
        <time>2018-06-19T09:16:46Z</time>
      </trkpt>
      <trkpt lat="43.85149" lon="7.48551">
        <ele>992</ele>
        <time>2018-06-19T09:17:00Z</time>
      </trkpt>
      <trkpt lat="43.85146" lon="7.48553">
        <ele>993</ele>
        <time>2018-06-19T09:17:04Z</time>
      </trkpt>
      <trkpt lat="43.85145" lon="7.48554">
        <ele>993</ele>
        <time>2018-06-19T09:17:05Z</time>
      </trkpt>
      <trkpt lat="43.85135" lon="7.48562">
        <ele>994</ele>
        <time>2018-06-19T09:17:19Z</time>
      </trkpt>
      <trkpt lat="43.85125" lon="7.48563">
        <ele>998</ele>
        <time>2018-06-19T09:17:32Z</time>
      </trkpt>
      <trkpt lat="43.85121" lon="7.48565">
        <ele>999</ele>
        <time>2018-06-19T09:17:45Z</time>
      </trkpt>
      <trkpt lat="43.85112" lon="7.48569">
        <ele>1002</ele>
        <time>2018-06-19T09:17:59Z</time>
      </trkpt>
      <trkpt lat="43.85108" lon="7.48572">
        <ele>1003</ele>
        <time>2018-06-19T09:18:10Z</time>
      </trkpt>
      <trkpt lat="43.85107" lon="7.48573">
        <ele>1004</ele>
        <time>2018-06-19T09:18:24Z</time>
      </trkpt>
      <trkpt lat="43.851" lon="7.48576">
        <ele>1006</ele>
        <time>2018-06-19T09:18:40Z</time>
      </trkpt>
      <trkpt lat="43.85094" lon="7.48582">
        <ele>1008</ele>
        <time>2018-06-19T09:18:55Z</time>
      </trkpt>
      <trkpt lat="43.85086" lon="7.48588">
        <ele>1008</ele>
        <time>2018-06-19T09:19:08Z</time>
      </trkpt>
      <trkpt lat="43.85083" lon="7.48594">
        <ele>1018</ele>
        <time>2018-06-19T09:19:18Z</time>
      </trkpt>
      <trkpt lat="43.85081" lon="7.48598">
        <ele>1019</ele>
        <time>2018-06-19T09:19:31Z</time>
      </trkpt>
      <trkpt lat="43.85077" lon="7.48601">
        <ele>1020</ele>
        <time>2018-06-19T09:19:44Z</time>
      </trkpt>
      <trkpt lat="43.85067" lon="7.48609">
        <ele>1023</ele>
        <time>2018-06-19T09:19:59Z</time>
      </trkpt>
      <trkpt lat="43.85063" lon="7.48617">
        <ele>1024</ele>
        <time>2018-06-19T09:20:13Z</time>
      </trkpt>
      <trkpt lat="43.8506" lon="7.48621">
        <ele>1024</ele>
        <time>2018-06-19T09:20:27Z</time>
      </trkpt>
      <trkpt lat="43.85057" lon="7.48624">
        <ele>1024</ele>
        <time>2018-06-19T09:20:37Z</time>
      </trkpt>
      <trkpt lat="43.85054" lon="7.48629">
        <ele>1025</ele>
        <time>2018-06-19T09:20:52Z</time>
      </trkpt>
      <trkpt lat="43.8505" lon="7.48634">
        <ele>1025</ele>
        <time>2018-06-19T09:21:06Z</time>
      </trkpt>
      <trkpt lat="43.85045" lon="7.48641">
        <ele>1025</ele>
        <time>2018-06-19T09:21:23Z</time>
      </trkpt>
      <trkpt lat="43.85042" lon="7.48646">
        <ele>1026</ele>
        <time>2018-06-19T09:21:36Z</time>
      </trkpt>
      <trkpt lat="43.85036" lon="7.48656">
        <ele>1026</ele>
        <time>2018-06-19T09:21:51Z</time>
      </trkpt>
      <trkpt lat="43.85032" lon="7.48662">
        <ele>1027</ele>
        <time>2018-06-19T09:22:04Z</time>
      </trkpt>
      <trkpt lat="43.85027" lon="7.48668">
        <ele>1028</ele>
        <time>2018-06-19T09:22:20Z</time>
      </trkpt>
      <trkpt lat="43.85023" lon="7.4867">
        <ele>1029</ele>
        <time>2018-06-19T09:22:31Z</time>
      </trkpt>
      <trkpt lat="43.85015" lon="7.48672">
        <ele>1030</ele>
        <time>2018-06-19T09:22:43Z</time>
      </trkpt>
      <trkpt lat="43.85007" lon="7.48673">
        <ele>1031</ele>
        <time>2018-06-19T09:22:55Z</time>
      </trkpt>
      <trkpt lat="43.84998" lon="7.48676">
        <ele>1032</ele>
        <time>2018-06-19T09:23:08Z</time>
      </trkpt>
      <trkpt lat="43.84994" lon="7.48665">
        <ele>1035</ele>
        <time>2018-06-19T09:23:20Z</time>
      </trkpt>
      <trkpt lat="43.84993" lon="7.48664">
        <ele>1035</ele>
        <time>2018-06-19T09:23:37Z</time>
      </trkpt>
      <trkpt lat="43.84994" lon="7.48664">
        <ele>1035</ele>
        <time>2018-06-19T09:24:27Z</time>
      </trkpt>
      <trkpt lat="43.84993" lon="7.48663">
        <ele>1035</ele>
        <time>2018-06-19T09:24:47Z</time>
      </trkpt>
      <trkpt lat="43.84994" lon="7.48664">
        <ele>1035</ele>
        <time>2018-06-19T09:26:39Z</time>
      </trkpt>
      <trkpt lat="43.84997" lon="7.48675">
        <ele>1032</ele>
        <time>2018-06-19T09:27:08Z</time>
      </trkpt>
      <trkpt lat="43.84997" lon="7.48676">
        <ele>1032</ele>
        <time>2018-06-19T09:27:09Z</time>
      </trkpt>
      <trkpt lat="43.84993" lon="7.48682">
        <ele>1032</ele>
        <time>2018-06-19T09:27:22Z</time>
      </trkpt>
      <trkpt lat="43.84993" lon="7.48682">
        <ele>1032</ele>
        <time>2018-06-19T09:27:53Z</time>
      </trkpt>
      <trkpt lat="43.84993" lon="7.48683">
        <ele>1032</ele>
        <time>2018-06-19T09:28:07Z</time>
      </trkpt>
      <trkpt lat="43.84994" lon="7.48682">
        <ele>1032</ele>
        <time>2018-06-19T09:28:40Z</time>
      </trkpt>
      <trkpt lat="43.84991" lon="7.48695">
        <ele>1032</ele>
        <time>2018-06-19T09:29:04Z</time>
      </trkpt>
      <trkpt lat="43.84986" lon="7.48713">
        <ele>1032</ele>
        <time>2018-06-19T09:29:18Z</time>
      </trkpt>
      <trkpt lat="43.84984" lon="7.48717">
        <ele>1033</ele>
        <time>2018-06-19T09:29:22Z</time>
      </trkpt>
      <trkpt lat="43.8498" lon="7.48727">
        <ele>1033</ele>
        <time>2018-06-19T09:29:35Z</time>
      </trkpt>
      <trkpt lat="43.84977" lon="7.4874">
        <ele>1034</ele>
        <time>2018-06-19T09:29:49Z</time>
      </trkpt>
      <trkpt lat="43.84973" lon="7.48752">
        <ele>1041</ele>
        <time>2018-06-19T09:30:02Z</time>
      </trkpt>
      <trkpt lat="43.8497" lon="7.48759">
        <ele>1041</ele>
        <time>2018-06-19T09:30:19Z</time>
      </trkpt>
      <trkpt lat="43.8497" lon="7.48759">
        <ele>1041</ele>
        <time>2018-06-19T09:30:24Z</time>
      </trkpt>
      <trkpt lat="43.84965" lon="7.48774">
        <ele>1041</ele>
        <time>2018-06-19T09:30:37Z</time>
      </trkpt>
      <trkpt lat="43.84959" lon="7.48789">
        <ele>1042</ele>
        <time>2018-06-19T09:30:49Z</time>
      </trkpt>
      <trkpt lat="43.84955" lon="7.48805">
        <ele>1044</ele>
        <time>2018-06-19T09:31:01Z</time>
      </trkpt>
      <trkpt lat="43.84954" lon="7.48809">
        <ele>1044</ele>
        <time>2018-06-19T09:31:04Z</time>
      </trkpt>
      <trkpt lat="43.84949" lon="7.48826">
        <ele>1045</ele>
        <time>2018-06-19T09:31:19Z</time>
      </trkpt>
      <trkpt lat="43.84946" lon="7.48833">
        <ele>1045</ele>
        <time>2018-06-19T09:31:27Z</time>
      </trkpt>
      <trkpt lat="43.84941" lon="7.48838">
        <ele>1058</ele>
        <time>2018-06-19T09:31:36Z</time>
      </trkpt>
      <trkpt lat="43.84931" lon="7.48846">
        <ele>1056</ele>
        <time>2018-06-19T09:31:48Z</time>
      </trkpt>
      <trkpt lat="43.84915" lon="7.48856">
        <ele>1041</ele>
        <time>2018-06-19T09:32:01Z</time>
      </trkpt>
      <trkpt lat="43.84908" lon="7.48863">
        <ele>1041</ele>
        <time>2018-06-19T09:32:12Z</time>
      </trkpt>
      <trkpt lat="43.84901" lon="7.4887">
        <ele>1042</ele>
        <time>2018-06-19T09:32:24Z</time>
      </trkpt>
      <trkpt lat="43.84894" lon="7.4888">
        <ele>1042</ele>
        <time>2018-06-19T09:32:38Z</time>
      </trkpt>
      <trkpt lat="43.84887" lon="7.4889">
        <ele>1043</ele>
        <time>2018-06-19T09:32:49Z</time>
      </trkpt>
      <trkpt lat="43.84878" lon="7.48901">
        <ele>1042</ele>
        <time>2018-06-19T09:33:00Z</time>
      </trkpt>
      <trkpt lat="43.84868" lon="7.48914">
        <ele>1041</ele>
        <time>2018-06-19T09:33:15Z</time>
      </trkpt>
      <trkpt lat="43.84865" lon="7.48916">
        <ele>1040</ele>
        <time>2018-06-19T09:33:18Z</time>
      </trkpt>
      <trkpt lat="43.8486" lon="7.48925">
        <ele>1051</ele>
        <time>2018-06-19T09:33:31Z</time>
      </trkpt>
      <trkpt lat="43.84853" lon="7.4893">
        <ele>1050</ele>
        <time>2018-06-19T09:33:40Z</time>
      </trkpt>
      <trkpt lat="43.84842" lon="7.48947">
        <ele>1051</ele>
        <time>2018-06-19T09:33:54Z</time>
      </trkpt>
      <trkpt lat="43.84838" lon="7.48959">
        <ele>1053</ele>
        <time>2018-06-19T09:34:04Z</time>
      </trkpt>
      <trkpt lat="43.84834" lon="7.48964">
        <ele>1053</ele>
        <time>2018-06-19T09:34:12Z</time>
      </trkpt>
      <trkpt lat="43.84823" lon="7.48976">
        <ele>1032</ele>
        <time>2018-06-19T09:34:26Z</time>
      </trkpt>
      <trkpt lat="43.84822" lon="7.48979">
        <ele>1033</ele>
        <time>2018-06-19T09:34:29Z</time>
      </trkpt>
      <trkpt lat="43.84812" lon="7.4899">
        <ele>1032</ele>
        <time>2018-06-19T09:34:43Z</time>
      </trkpt>
      <trkpt lat="43.8481" lon="7.49003">
        <ele>1040</ele>
        <time>2018-06-19T09:34:57Z</time>
      </trkpt>
      <trkpt lat="43.84808" lon="7.49017">
        <ele>1040</ele>
        <time>2018-06-19T09:35:09Z</time>
      </trkpt>
      <trkpt lat="43.84805" lon="7.49025">
        <ele>1039</ele>
        <time>2018-06-19T09:35:17Z</time>
      </trkpt>
      <trkpt lat="43.84795" lon="7.49039">
        <ele>1037</ele>
        <time>2018-06-19T09:35:31Z</time>
      </trkpt>
      <trkpt lat="43.84793" lon="7.4905">
        <ele>1038</ele>
        <time>2018-06-19T09:35:44Z</time>
      </trkpt>
      <trkpt lat="43.84785" lon="7.49057">
        <ele>1037</ele>
        <time>2018-06-19T09:35:56Z</time>
      </trkpt>
      <trkpt lat="43.84781" lon="7.49062">
        <ele>1036</ele>
        <time>2018-06-19T09:36:01Z</time>
      </trkpt>
      <trkpt lat="43.8478" lon="7.49065">
        <ele>1036</ele>
        <time>2018-06-19T09:36:03Z</time>
      </trkpt>
      <trkpt lat="43.84771" lon="7.4908">
        <ele>1034</ele>
        <time>2018-06-19T09:36:18Z</time>
      </trkpt>
      <trkpt lat="43.8477" lon="7.49086">
        <ele>1040</ele>
        <time>2018-06-19T09:36:32Z</time>
      </trkpt>
      <trkpt lat="43.84767" lon="7.491">
        <ele>1040</ele>
        <time>2018-06-19T09:36:43Z</time>
      </trkpt>
      <trkpt lat="43.84758" lon="7.49112">
        <ele>1041</ele>
        <time>2018-06-19T09:36:56Z</time>
      </trkpt>
      <trkpt lat="43.84757" lon="7.49114">
        <ele>1042</ele>
        <time>2018-06-19T09:36:58Z</time>
      </trkpt>
      <trkpt lat="43.84753" lon="7.49125">
        <ele>1043</ele>
        <time>2018-06-19T09:37:10Z</time>
      </trkpt>
      <trkpt lat="43.84748" lon="7.49134">
        <ele>1024</ele>
        <time>2018-06-19T09:37:21Z</time>
      </trkpt>
      <trkpt lat="43.84744" lon="7.4914">
        <ele>1025</ele>
        <time>2018-06-19T09:37:26Z</time>
      </trkpt>
      <trkpt lat="43.84733" lon="7.49157">
        <ele>1026</ele>
        <time>2018-06-19T09:37:41Z</time>
      </trkpt>
      <trkpt lat="43.84724" lon="7.49165">
        <ele>1024</ele>
        <time>2018-06-19T09:37:54Z</time>
      </trkpt>
      <trkpt lat="43.84719" lon="7.49172">
        <ele>1026</ele>
        <time>2018-06-19T09:38:07Z</time>
      </trkpt>
      <trkpt lat="43.84716" lon="7.49181">
        <ele>1025</ele>
        <time>2018-06-19T09:38:20Z</time>
      </trkpt>
      <trkpt lat="43.84717" lon="7.49184">
        <ele>1025</ele>
        <time>2018-06-19T09:38:41Z</time>
      </trkpt>
      <trkpt lat="43.84718" lon="7.49185">
        <ele>1025</ele>
        <time>2018-06-19T09:39:09Z</time>
      </trkpt>
      <trkpt lat="43.84717" lon="7.49186">
        <ele>1025</ele>
        <time>2018-06-19T09:40:03Z</time>
      </trkpt>
      <trkpt lat="43.84718" lon="7.49189">
        <ele>1025</ele>
        <time>2018-06-19T09:40:19Z</time>
      </trkpt>
      <trkpt lat="43.84718" lon="7.49192">
        <ele>1025</ele>
        <time>2018-06-19T09:40:48Z</time>
      </trkpt>
      <trkpt lat="43.84718" lon="7.49195">
        <ele>1025</ele>
        <time>2018-06-19T09:42:24Z</time>
      </trkpt>
      <trkpt lat="43.84717" lon="7.49204">
        <ele>1024</ele>
        <time>2018-06-19T09:42:36Z</time>
      </trkpt>
      <trkpt lat="43.8472" lon="7.4922">
        <ele>1025</ele>
        <time>2018-06-19T09:42:49Z</time>
      </trkpt>
      <trkpt lat="43.8472" lon="7.49225">
        <ele>1025</ele>
        <time>2018-06-19T09:42:53Z</time>
      </trkpt>
      <trkpt lat="43.84722" lon="7.49227">
        <ele>1025</ele>
        <time>2018-06-19T09:42:55Z</time>
      </trkpt>
      <trkpt lat="43.84723" lon="7.49244">
        <ele>1026</ele>
        <time>2018-06-19T09:43:10Z</time>
      </trkpt>
      <trkpt lat="43.84719" lon="7.4925">
        <ele>1025</ele>
        <time>2018-06-19T09:43:17Z</time>
      </trkpt>
      <trkpt lat="43.84711" lon="7.49263">
        <ele>1026</ele>
        <time>2018-06-19T09:43:30Z</time>
      </trkpt>
      <trkpt lat="43.84711" lon="7.49266">
        <ele>1026</ele>
        <time>2018-06-19T09:43:32Z</time>
      </trkpt>
      <trkpt lat="43.84704" lon="7.49282">
        <ele>1025</ele>
        <time>2018-06-19T09:43:45Z</time>
      </trkpt>
      <trkpt lat="43.84699" lon="7.49288">
        <ele>1024</ele>
        <time>2018-06-19T09:43:51Z</time>
      </trkpt>
      <trkpt lat="43.84698" lon="7.49292">
        <ele>1024</ele>
        <time>2018-06-19T09:43:54Z</time>
      </trkpt>
      <trkpt lat="43.84695" lon="7.49296">
        <ele>1024</ele>
        <time>2018-06-19T09:43:58Z</time>
      </trkpt>
      <trkpt lat="43.84693" lon="7.49303">
        <ele>1024</ele>
        <time>2018-06-19T09:44:03Z</time>
      </trkpt>
      <trkpt lat="43.84685" lon="7.49319">
        <ele>1023</ele>
        <time>2018-06-19T09:44:15Z</time>
      </trkpt>
      <trkpt lat="43.84675" lon="7.49325">
        <ele>1021</ele>
        <time>2018-06-19T09:44:24Z</time>
      </trkpt>
      <trkpt lat="43.84662" lon="7.4934">
        <ele>1018</ele>
        <time>2018-06-19T09:44:39Z</time>
      </trkpt>
      <trkpt lat="43.84661" lon="7.49341">
        <ele>1018</ele>
        <time>2018-06-19T09:44:40Z</time>
      </trkpt>
      <trkpt lat="43.84655" lon="7.49347">
        <ele>1018</ele>
        <time>2018-06-19T09:44:47Z</time>
      </trkpt>
      <trkpt lat="43.84648" lon="7.4935">
        <ele>1018</ele>
        <time>2018-06-19T09:44:52Z</time>
      </trkpt>
      <trkpt lat="43.84647" lon="7.49351">
        <ele>1018</ele>
        <time>2018-06-19T09:44:54Z</time>
      </trkpt>
      <trkpt lat="43.8464" lon="7.49354">
        <ele>1017</ele>
        <time>2018-06-19T09:45:01Z</time>
      </trkpt>
      <trkpt lat="43.84639" lon="7.49354">
        <ele>1017</ele>
        <time>2018-06-19T09:45:02Z</time>
      </trkpt>
      <trkpt lat="43.84635" lon="7.49357">
        <ele>1017</ele>
        <time>2018-06-19T09:45:07Z</time>
      </trkpt>
      <trkpt lat="43.84621" lon="7.49367">
        <ele>1016</ele>
        <time>2018-06-19T09:45:21Z</time>
      </trkpt>
      <trkpt lat="43.84611" lon="7.49376">
        <ele>1015</ele>
        <time>2018-06-19T09:45:35Z</time>
      </trkpt>
      <trkpt lat="43.84607" lon="7.49384">
        <ele>1016</ele>
        <time>2018-06-19T09:45:44Z</time>
      </trkpt>
      <trkpt lat="43.84605" lon="7.49386">
        <ele>1016</ele>
        <time>2018-06-19T09:45:47Z</time>
      </trkpt>
      <trkpt lat="43.84603" lon="7.49395">
        <ele>1016</ele>
        <time>2018-06-19T09:46:02Z</time>
      </trkpt>
      <trkpt lat="43.846" lon="7.49401">
        <ele>1016</ele>
        <time>2018-06-19T09:46:12Z</time>
      </trkpt>
      <trkpt lat="43.84598" lon="7.49415">
        <ele>1016</ele>
        <time>2018-06-19T09:46:26Z</time>
      </trkpt>
      <trkpt lat="43.84596" lon="7.49425">
        <ele>1025</ele>
        <time>2018-06-19T09:46:39Z</time>
      </trkpt>
      <trkpt lat="43.84594" lon="7.49437">
        <ele>1029</ele>
        <time>2018-06-19T09:46:53Z</time>
      </trkpt>
      <trkpt lat="43.84591" lon="7.49449">
        <ele>1032</ele>
        <time>2018-06-19T09:47:06Z</time>
      </trkpt>
      <trkpt lat="43.84588" lon="7.49453">
        <ele>1033</ele>
        <time>2018-06-19T09:47:10Z</time>
      </trkpt>
      <trkpt lat="43.84585" lon="7.49468">
        <ele>1035</ele>
        <time>2018-06-19T09:47:26Z</time>
      </trkpt>
      <trkpt lat="43.84583" lon="7.49477">
        <ele>1015</ele>
        <time>2018-06-19T09:47:37Z</time>
      </trkpt>
      <trkpt lat="43.84582" lon="7.49489">
        <ele>1021</ele>
        <time>2018-06-19T09:47:50Z</time>
      </trkpt>
      <trkpt lat="43.84582" lon="7.49496">
        <ele>1025</ele>
        <time>2018-06-19T09:48:03Z</time>
      </trkpt>
      <trkpt lat="43.84581" lon="7.49508">
        <ele>1027</ele>
        <time>2018-06-19T09:48:18Z</time>
      </trkpt>
      <trkpt lat="43.84574" lon="7.49526">
        <ele>1024</ele>
        <time>2018-06-19T09:48:33Z</time>
      </trkpt>
      <trkpt lat="43.84572" lon="7.49532">
        <ele>1024</ele>
        <time>2018-06-19T09:48:38Z</time>
      </trkpt>
      <trkpt lat="43.8457" lon="7.49544">
        <ele>1025</ele>
        <time>2018-06-19T09:48:49Z</time>
      </trkpt>
      <trkpt lat="43.84566" lon="7.49558">
        <ele>1027</ele>
        <time>2018-06-19T09:49:01Z</time>
      </trkpt>
      <trkpt lat="43.84566" lon="7.4956">
        <ele>1028</ele>
        <time>2018-06-19T09:49:03Z</time>
      </trkpt>
      <trkpt lat="43.84564" lon="7.49565">
        <ele>1028</ele>
        <time>2018-06-19T09:49:07Z</time>
      </trkpt>
      <trkpt lat="43.84563" lon="7.49571">
        <ele>1029</ele>
        <time>2018-06-19T09:49:11Z</time>
      </trkpt>
      <trkpt lat="43.84561" lon="7.49573">
        <ele>1028</ele>
        <time>2018-06-19T09:49:13Z</time>
      </trkpt>
      <trkpt lat="43.84555" lon="7.49591">
        <ele>1038</ele>
        <time>2018-06-19T09:49:26Z</time>
      </trkpt>
      <trkpt lat="43.84554" lon="7.49596">
        <ele>1038</ele>
        <time>2018-06-19T09:49:30Z</time>
      </trkpt>
      <trkpt lat="43.84553" lon="7.49599">
        <ele>1038</ele>
        <time>2018-06-19T09:49:32Z</time>
      </trkpt>
      <trkpt lat="43.8455" lon="7.49606">
        <ele>1037</ele>
        <time>2018-06-19T09:49:47Z</time>
      </trkpt>
      <trkpt lat="43.84548" lon="7.49611">
        <ele>1037</ele>
        <time>2018-06-19T09:50:13Z</time>
      </trkpt>
      <trkpt lat="43.84541" lon="7.49619">
        <ele>1037</ele>
        <time>2018-06-19T09:50:22Z</time>
      </trkpt>
      <trkpt lat="43.84535" lon="7.49628">
        <ele>1037</ele>
        <time>2018-06-19T09:50:29Z</time>
      </trkpt>
      <trkpt lat="43.84533" lon="7.49633">
        <ele>1037</ele>
        <time>2018-06-19T09:50:33Z</time>
      </trkpt>
      <trkpt lat="43.84525" lon="7.49649">
        <ele>1037</ele>
        <time>2018-06-19T09:50:47Z</time>
      </trkpt>
      <trkpt lat="43.84521" lon="7.49654">
        <ele>1036</ele>
        <time>2018-06-19T09:50:52Z</time>
      </trkpt>
      <trkpt lat="43.84514" lon="7.49664">
        <ele>1035</ele>
        <time>2018-06-19T09:51:04Z</time>
      </trkpt>
      <trkpt lat="43.84509" lon="7.49671">
        <ele>1041</ele>
        <time>2018-06-19T09:51:12Z</time>
      </trkpt>
      <trkpt lat="43.84502" lon="7.49677">
        <ele>1041</ele>
        <time>2018-06-19T09:51:21Z</time>
      </trkpt>
      <trkpt lat="43.84501" lon="7.4968">
        <ele>1043</ele>
        <time>2018-06-19T09:51:25Z</time>
      </trkpt>
      <trkpt lat="43.84497" lon="7.49693">
        <ele>1038</ele>
        <time>2018-06-19T09:51:39Z</time>
      </trkpt>
      <trkpt lat="43.84496" lon="7.49703">
        <ele>1040</ele>
        <time>2018-06-19T09:51:55Z</time>
      </trkpt>
      <trkpt lat="43.84493" lon="7.49712">
        <ele>1042</ele>
        <time>2018-06-19T09:52:08Z</time>
      </trkpt>
      <trkpt lat="43.84492" lon="7.49722">
        <ele>1044</ele>
        <time>2018-06-19T09:52:21Z</time>
      </trkpt>
      <trkpt lat="43.84489" lon="7.49731">
        <ele>1046</ele>
        <time>2018-06-19T09:52:33Z</time>
      </trkpt>
      <trkpt lat="43.84486" lon="7.49735">
        <ele>1047</ele>
        <time>2018-06-19T09:52:38Z</time>
      </trkpt>
      <trkpt lat="43.8448" lon="7.49743">
        <ele>1047</ele>
        <time>2018-06-19T09:52:49Z</time>
      </trkpt>
      <trkpt lat="43.84476" lon="7.49749">
        <ele>1047</ele>
        <time>2018-06-19T09:52:59Z</time>
      </trkpt>
      <trkpt lat="43.8447" lon="7.49759">
        <ele>1060</ele>
        <time>2018-06-19T09:53:11Z</time>
      </trkpt>
      <trkpt lat="43.84466" lon="7.49766">
        <ele>1061</ele>
        <time>2018-06-19T09:53:22Z</time>
      </trkpt>
      <trkpt lat="43.84465" lon="7.49769">
        <ele>1061</ele>
        <time>2018-06-19T09:53:24Z</time>
      </trkpt>
      <trkpt lat="43.8446" lon="7.49781">
        <ele>1063</ele>
        <time>2018-06-19T09:53:36Z</time>
      </trkpt>
      <trkpt lat="43.84452" lon="7.4979">
        <ele>1063</ele>
        <time>2018-06-19T09:53:47Z</time>
      </trkpt>
      <trkpt lat="43.84448" lon="7.49802">
        <ele>1065</ele>
        <time>2018-06-19T09:54:00Z</time>
      </trkpt>
      <trkpt lat="43.84449" lon="7.49809">
        <ele>1066</ele>
        <time>2018-06-19T09:54:11Z</time>
      </trkpt>
      <trkpt lat="43.84445" lon="7.49819">
        <ele>1066</ele>
        <time>2018-06-19T09:54:23Z</time>
      </trkpt>
      <trkpt lat="43.84445" lon="7.49828">
        <ele>1067</ele>
        <time>2018-06-19T09:54:34Z</time>
      </trkpt>
      <trkpt lat="43.84446" lon="7.49836">
        <ele>1078</ele>
        <time>2018-06-19T09:54:48Z</time>
      </trkpt>
      <trkpt lat="43.84443" lon="7.49839">
        <ele>1077</ele>
        <time>2018-06-19T09:54:58Z</time>
      </trkpt>
      <trkpt lat="43.8444" lon="7.4985">
        <ele>1078</ele>
        <time>2018-06-19T09:55:10Z</time>
      </trkpt>
      <trkpt lat="43.8444" lon="7.49851">
        <ele>1078</ele>
        <time>2018-06-19T09:55:11Z</time>
      </trkpt>
      <trkpt lat="43.8444" lon="7.49856">
        <ele>1078</ele>
        <time>2018-06-19T09:55:15Z</time>
      </trkpt>
      <trkpt lat="43.84435" lon="7.49869">
        <ele>1079</ele>
        <time>2018-06-19T09:55:27Z</time>
      </trkpt>
      <trkpt lat="43.84434" lon="7.49879">
        <ele>1080</ele>
        <time>2018-06-19T09:55:33Z</time>
      </trkpt>
      <trkpt lat="43.84431" lon="7.49887">
        <ele>1080</ele>
        <time>2018-06-19T09:55:39Z</time>
      </trkpt>
      <trkpt lat="43.8443" lon="7.49894">
        <ele>1081</ele>
        <time>2018-06-19T09:55:47Z</time>
      </trkpt>
      <trkpt lat="43.84429" lon="7.49897">
        <ele>1081</ele>
        <time>2018-06-19T09:55:49Z</time>
      </trkpt>
      <trkpt lat="43.84425" lon="7.49915">
        <ele>1080</ele>
        <time>2018-06-19T09:56:02Z</time>
      </trkpt>
      <trkpt lat="43.84424" lon="7.49923">
        <ele>1082</ele>
        <time>2018-06-19T09:56:08Z</time>
      </trkpt>
      <trkpt lat="43.8442" lon="7.49933">
        <ele>1083</ele>
        <time>2018-06-19T09:56:19Z</time>
      </trkpt>
      <trkpt lat="43.84418" lon="7.49939">
        <ele>1084</ele>
        <time>2018-06-19T09:56:31Z</time>
      </trkpt>
      <trkpt lat="43.84416" lon="7.49943">
        <ele>1087</ele>
        <time>2018-06-19T09:56:40Z</time>
      </trkpt>
      <trkpt lat="43.84412" lon="7.49951">
        <ele>1088</ele>
        <time>2018-06-19T09:56:51Z</time>
      </trkpt>
      <trkpt lat="43.84409" lon="7.49957">
        <ele>1088</ele>
        <time>2018-06-19T09:57:05Z</time>
      </trkpt>
      <trkpt lat="43.8441" lon="7.49958">
        <ele>1088</ele>
        <time>2018-06-19T09:57:06Z</time>
      </trkpt>
      <trkpt lat="43.84406" lon="7.49965">
        <ele>1089</ele>
        <time>2018-06-19T09:57:16Z</time>
      </trkpt>
      <trkpt lat="43.84402" lon="7.49968">
        <ele>1089</ele>
        <time>2018-06-19T09:57:28Z</time>
      </trkpt>
      <trkpt lat="43.84399" lon="7.49969">
        <ele>1089</ele>
        <time>2018-06-19T09:57:41Z</time>
      </trkpt>
      <trkpt lat="43.84399" lon="7.49969">
        <ele>1089</ele>
        <time>2018-06-19T09:57:44Z</time>
      </trkpt>
      <trkpt lat="43.84393" lon="7.49973">
        <ele>1090</ele>
        <time>2018-06-19T09:57:56Z</time>
      </trkpt>
      <trkpt lat="43.84384" lon="7.49983">
        <ele>1091</ele>
        <time>2018-06-19T09:58:07Z</time>
      </trkpt>
      <trkpt lat="43.84378" lon="7.49992">
        <ele>1092</ele>
        <time>2018-06-19T09:58:17Z</time>
      </trkpt>
      <trkpt lat="43.84377" lon="7.49995">
        <ele>1092</ele>
        <time>2018-06-19T09:58:21Z</time>
      </trkpt>
      <trkpt lat="43.84372" lon="7.50004">
        <ele>1093</ele>
        <time>2018-06-19T09:58:32Z</time>
      </trkpt>
      <trkpt lat="43.84367" lon="7.5001">
        <ele>1094</ele>
        <time>2018-06-19T09:58:42Z</time>
      </trkpt>
      <trkpt lat="43.84363" lon="7.50015">
        <ele>1094</ele>
        <time>2018-06-19T09:58:54Z</time>
      </trkpt>
      <trkpt lat="43.84359" lon="7.5002">
        <ele>1095</ele>
        <time>2018-06-19T09:59:06Z</time>
      </trkpt>
      <trkpt lat="43.84354" lon="7.50024">
        <ele>1095</ele>
        <time>2018-06-19T09:59:22Z</time>
      </trkpt>
      <trkpt lat="43.84349" lon="7.5003">
        <ele>1095</ele>
        <time>2018-06-19T09:59:34Z</time>
      </trkpt>
      <trkpt lat="43.84344" lon="7.50034">
        <ele>1095</ele>
        <time>2018-06-19T09:59:45Z</time>
      </trkpt>
      <trkpt lat="43.84337" lon="7.50037">
        <ele>1095</ele>
        <time>2018-06-19T09:59:56Z</time>
      </trkpt>
      <trkpt lat="43.84334" lon="7.50038">
        <ele>1095</ele>
        <time>2018-06-19T10:00:08Z</time>
      </trkpt>
      <trkpt lat="43.84331" lon="7.5004">
        <ele>1107</ele>
        <time>2018-06-19T10:00:19Z</time>
      </trkpt>
      <trkpt lat="43.84324" lon="7.50045">
        <ele>1107</ele>
        <time>2018-06-19T10:00:32Z</time>
      </trkpt>
      <trkpt lat="43.84316" lon="7.50052">
        <ele>1107</ele>
        <time>2018-06-19T10:00:43Z</time>
      </trkpt>
      <trkpt lat="43.84311" lon="7.50056">
        <ele>1107</ele>
        <time>2018-06-19T10:00:55Z</time>
      </trkpt>
      <trkpt lat="43.84307" lon="7.50058">
        <ele>1107</ele>
        <time>2018-06-19T10:01:06Z</time>
      </trkpt>
      <trkpt lat="43.84302" lon="7.50064">
        <ele>1108</ele>
        <time>2018-06-19T10:01:19Z</time>
      </trkpt>
      <trkpt lat="43.84298" lon="7.50069">
        <ele>1108</ele>
        <time>2018-06-19T10:01:30Z</time>
      </trkpt>
      <trkpt lat="43.84289" lon="7.50077">
        <ele>1109</ele>
        <time>2018-06-19T10:01:42Z</time>
      </trkpt>
      <trkpt lat="43.84284" lon="7.50083">
        <ele>1110</ele>
        <time>2018-06-19T10:01:55Z</time>
      </trkpt>
      <trkpt lat="43.84281" lon="7.50087">
        <ele>1108</ele>
        <time>2018-06-19T10:02:07Z</time>
      </trkpt>
      <trkpt lat="43.8428" lon="7.50087">
        <ele>1108</ele>
        <time>2018-06-19T10:02:09Z</time>
      </trkpt>
      <trkpt lat="43.8428" lon="7.50092">
        <ele>1108</ele>
        <time>2018-06-19T10:02:20Z</time>
      </trkpt>
      <trkpt lat="43.84274" lon="7.50101">
        <ele>1108</ele>
        <time>2018-06-19T10:02:30Z</time>
      </trkpt>
      <trkpt lat="43.84268" lon="7.50112">
        <ele>1109</ele>
        <time>2018-06-19T10:02:45Z</time>
      </trkpt>
      <trkpt lat="43.84265" lon="7.50117">
        <ele>1109</ele>
        <time>2018-06-19T10:02:50Z</time>
      </trkpt>
      <trkpt lat="43.84259" lon="7.50125">
        <ele>1109</ele>
        <time>2018-06-19T10:03:02Z</time>
      </trkpt>
      <trkpt lat="43.84253" lon="7.50131">
        <ele>1109</ele>
        <time>2018-06-19T10:03:14Z</time>
      </trkpt>
      <trkpt lat="43.84249" lon="7.50134">
        <ele>1110</ele>
        <time>2018-06-19T10:03:25Z</time>
      </trkpt>
      <trkpt lat="43.84248" lon="7.50134">
        <ele>1110</ele>
        <time>2018-06-19T10:03:38Z</time>
      </trkpt>
      <trkpt lat="43.84249" lon="7.50135">
        <ele>1110</ele>
        <time>2018-06-19T10:04:55Z</time>
      </trkpt>
      <trkpt lat="43.84249" lon="7.50135">
        <ele>1110</ele>
        <time>2018-06-19T10:05:19Z</time>
      </trkpt>
      <trkpt lat="43.84248" lon="7.50136">
        <ele>1110</ele>
        <time>2018-06-19T10:05:42Z</time>
      </trkpt>
      <trkpt lat="43.84239" lon="7.50144">
        <ele>1110</ele>
        <time>2018-06-19T10:05:55Z</time>
      </trkpt>
      <trkpt lat="43.84235" lon="7.50143">
        <ele>1110</ele>
        <time>2018-06-19T10:06:08Z</time>
      </trkpt>
      <trkpt lat="43.84224" lon="7.50147">
        <ele>1110</ele>
        <time>2018-06-19T10:06:23Z</time>
      </trkpt>
      <trkpt lat="43.84213" lon="7.5015">
        <ele>1109</ele>
        <time>2018-06-19T10:06:35Z</time>
      </trkpt>
      <trkpt lat="43.84212" lon="7.50151">
        <ele>1109</ele>
        <time>2018-06-19T10:06:36Z</time>
      </trkpt>
      <trkpt lat="43.84203" lon="7.50155">
        <ele>1109</ele>
        <time>2018-06-19T10:06:49Z</time>
      </trkpt>
      <trkpt lat="43.84194" lon="7.50157">
        <ele>1108</ele>
        <time>2018-06-19T10:07:01Z</time>
      </trkpt>
      <trkpt lat="43.84189" lon="7.50158">
        <ele>1108</ele>
        <time>2018-06-19T10:07:07Z</time>
      </trkpt>
      <trkpt lat="43.84179" lon="7.50158">
        <ele>1107</ele>
        <time>2018-06-19T10:07:20Z</time>
      </trkpt>
      <trkpt lat="43.84176" lon="7.5016">
        <ele>1106</ele>
        <time>2018-06-19T10:07:24Z</time>
      </trkpt>
      <trkpt lat="43.84171" lon="7.50162">
        <ele>1105</ele>
        <time>2018-06-19T10:07:29Z</time>
      </trkpt>
      <trkpt lat="43.84168" lon="7.50163">
        <ele>1104</ele>
        <time>2018-06-19T10:07:32Z</time>
      </trkpt>
      <trkpt lat="43.84156" lon="7.50166">
        <ele>1102</ele>
        <time>2018-06-19T10:07:46Z</time>
      </trkpt>
      <trkpt lat="43.84147" lon="7.50166">
        <ele>1101</ele>
        <time>2018-06-19T10:07:58Z</time>
      </trkpt>
      <trkpt lat="43.8414" lon="7.50164">
        <ele>1101</ele>
        <time>2018-06-19T10:08:08Z</time>
      </trkpt>
      <trkpt lat="43.84131" lon="7.50165">
        <ele>1099</ele>
        <time>2018-06-19T10:08:21Z</time>
      </trkpt>
      <trkpt lat="43.84128" lon="7.50164">
        <ele>1099</ele>
        <time>2018-06-19T10:08:25Z</time>
      </trkpt>
      <trkpt lat="43.84123" lon="7.50163">
        <ele>1098</ele>
        <time>2018-06-19T10:08:31Z</time>
      </trkpt>
      <trkpt lat="43.84116" lon="7.5016">
        <ele>1097</ele>
        <time>2018-06-19T10:08:43Z</time>
      </trkpt>
      <trkpt lat="43.84107" lon="7.50161">
        <ele>1095</ele>
        <time>2018-06-19T10:08:55Z</time>
      </trkpt>
      <trkpt lat="43.84095" lon="7.50165">
        <ele>1092</ele>
        <time>2018-06-19T10:09:08Z</time>
      </trkpt>
      <trkpt lat="43.8409" lon="7.50164">
        <ele>1090</ele>
        <time>2018-06-19T10:09:19Z</time>
      </trkpt>
      <trkpt lat="43.8408" lon="7.50164">
        <ele>1085</ele>
        <time>2018-06-19T10:09:33Z</time>
      </trkpt>
      <trkpt lat="43.84073" lon="7.50162">
        <ele>1084</ele>
        <time>2018-06-19T10:09:45Z</time>
      </trkpt>
      <trkpt lat="43.8407" lon="7.50163">
        <ele>1084</ele>
        <time>2018-06-19T10:09:49Z</time>
      </trkpt>
      <trkpt lat="43.84057" lon="7.50169">
        <ele>1083</ele>
        <time>2018-06-19T10:10:02Z</time>
      </trkpt>
      <trkpt lat="43.84049" lon="7.50172">
        <ele>1082</ele>
        <time>2018-06-19T10:10:10Z</time>
      </trkpt>
      <trkpt lat="43.84034" lon="7.50182">
        <ele>1080</ele>
        <time>2018-06-19T10:10:26Z</time>
      </trkpt>
      <trkpt lat="43.84031" lon="7.50185">
        <ele>1080</ele>
        <time>2018-06-19T10:10:30Z</time>
      </trkpt>
      <trkpt lat="43.84029" lon="7.50188">
        <ele>1080</ele>
        <time>2018-06-19T10:10:33Z</time>
      </trkpt>
      <trkpt lat="43.8402" lon="7.50194">
        <ele>1079</ele>
        <time>2018-06-19T10:10:44Z</time>
      </trkpt>
      <trkpt lat="43.84011" lon="7.50196">
        <ele>1079</ele>
        <time>2018-06-19T10:10:52Z</time>
      </trkpt>
      <trkpt lat="43.83996" lon="7.50203">
        <ele>1066</ele>
        <time>2018-06-19T10:11:05Z</time>
      </trkpt>
      <trkpt lat="43.83994" lon="7.50205">
        <ele>1066</ele>
        <time>2018-06-19T10:11:08Z</time>
      </trkpt>
      <trkpt lat="43.83978" lon="7.50216">
        <ele>1066</ele>
        <time>2018-06-19T10:11:23Z</time>
      </trkpt>
      <trkpt lat="43.83972" lon="7.50221">
        <ele>1066</ele>
        <time>2018-06-19T10:11:34Z</time>
      </trkpt>
      <trkpt lat="43.83968" lon="7.50225">
        <ele>1066</ele>
        <time>2018-06-19T10:11:38Z</time>
      </trkpt>
      <trkpt lat="43.83965" lon="7.50229">
        <ele>1065</ele>
        <time>2018-06-19T10:11:42Z</time>
      </trkpt>
      <trkpt lat="43.83952" lon="7.5024">
        <ele>1064</ele>
        <time>2018-06-19T10:11:55Z</time>
      </trkpt>
      <trkpt lat="43.83943" lon="7.5025">
        <ele>1075</ele>
        <time>2018-06-19T10:12:06Z</time>
      </trkpt>
      <trkpt lat="43.83938" lon="7.50254">
        <ele>1074</ele>
        <time>2018-06-19T10:12:11Z</time>
      </trkpt>
      <trkpt lat="43.83937" lon="7.50255">
        <ele>1073</ele>
        <time>2018-06-19T10:12:13Z</time>
      </trkpt>
      <trkpt lat="43.83926" lon="7.50268">
        <ele>1073</ele>
        <time>2018-06-19T10:12:28Z</time>
      </trkpt>
      <trkpt lat="43.8392" lon="7.50273">
        <ele>1074</ele>
        <time>2018-06-19T10:12:54Z</time>
      </trkpt>
      <trkpt lat="43.83909" lon="7.50277">
        <ele>1062</ele>
        <time>2018-06-19T10:13:06Z</time>
      </trkpt>
      <trkpt lat="43.83895" lon="7.50278">
        <ele>1061</ele>
        <time>2018-06-19T10:13:21Z</time>
      </trkpt>
      <trkpt lat="43.8389" lon="7.50279">
        <ele>1060</ele>
        <time>2018-06-19T10:13:27Z</time>
      </trkpt>
      <trkpt lat="43.83877" lon="7.50279">
        <ele>1059</ele>
        <time>2018-06-19T10:13:41Z</time>
      </trkpt>
      <trkpt lat="43.83876" lon="7.50279">
        <ele>1058</ele>
        <time>2018-06-19T10:13:42Z</time>
      </trkpt>
      <trkpt lat="43.83873" lon="7.50279">
        <ele>1058</ele>
        <time>2018-06-19T10:13:45Z</time>
      </trkpt>
      <trkpt lat="43.83866" lon="7.50281">
        <ele>1057</ele>
        <time>2018-06-19T10:13:53Z</time>
      </trkpt>
      <trkpt lat="43.83856" lon="7.50283">
        <ele>1056</ele>
        <time>2018-06-19T10:14:05Z</time>
      </trkpt>
      <trkpt lat="43.83845" lon="7.50285">
        <ele>1055</ele>
        <time>2018-06-19T10:14:19Z</time>
      </trkpt>
      <trkpt lat="43.83836" lon="7.50286">
        <ele>1054</ele>
        <time>2018-06-19T10:14:31Z</time>
      </trkpt>
      <trkpt lat="43.83836" lon="7.50287">
        <ele>1054</ele>
        <time>2018-06-19T10:14:32Z</time>
      </trkpt>
      <trkpt lat="43.83824" lon="7.5029">
        <ele>1039</ele>
        <time>2018-06-19T10:14:45Z</time>
      </trkpt>
      <trkpt lat="43.83816" lon="7.50293">
        <ele>1038</ele>
        <time>2018-06-19T10:14:53Z</time>
      </trkpt>
      <trkpt lat="43.83808" lon="7.50296">
        <ele>1038</ele>
        <time>2018-06-19T10:15:02Z</time>
      </trkpt>
      <trkpt lat="43.83806" lon="7.50297">
        <ele>1038</ele>
        <time>2018-06-19T10:15:04Z</time>
      </trkpt>
      <trkpt lat="43.83793" lon="7.50302">
        <ele>1037</ele>
        <time>2018-06-19T10:15:18Z</time>
      </trkpt>
      <trkpt lat="43.83784" lon="7.50306">
        <ele>1036</ele>
        <time>2018-06-19T10:15:29Z</time>
      </trkpt>
      <trkpt lat="43.83773" lon="7.50312">
        <ele>1035</ele>
        <time>2018-06-19T10:15:41Z</time>
      </trkpt>
      <trkpt lat="43.83768" lon="7.50312">
        <ele>1035</ele>
        <time>2018-06-19T10:15:46Z</time>
      </trkpt>
      <trkpt lat="43.83756" lon="7.50315">
        <ele>1035</ele>
        <time>2018-06-19T10:15:59Z</time>
      </trkpt>
      <trkpt lat="43.83748" lon="7.50317">
        <ele>1024</ele>
        <time>2018-06-19T10:16:08Z</time>
      </trkpt>
      <trkpt lat="43.83735" lon="7.50321">
        <ele>1022</ele>
        <time>2018-06-19T10:16:21Z</time>
      </trkpt>
      <trkpt lat="43.83725" lon="7.50323">
        <ele>1019</ele>
        <time>2018-06-19T10:16:33Z</time>
      </trkpt>
      <trkpt lat="43.83718" lon="7.50327">
        <ele>1017</ele>
        <time>2018-06-19T10:16:43Z</time>
      </trkpt>
      <trkpt lat="43.8371" lon="7.5033">
        <ele>1015</ele>
        <time>2018-06-19T10:16:53Z</time>
      </trkpt>
      <trkpt lat="43.83701" lon="7.50334">
        <ele>1031</ele>
        <time>2018-06-19T10:17:05Z</time>
      </trkpt>
      <trkpt lat="43.83697" lon="7.50336">
        <ele>1030</ele>
        <time>2018-06-19T10:17:08Z</time>
      </trkpt>
      <trkpt lat="43.83694" lon="7.50338">
        <ele>1029</ele>
        <time>2018-06-19T10:17:11Z</time>
      </trkpt>
      <trkpt lat="43.83691" lon="7.50338">
        <ele>1028</ele>
        <time>2018-06-19T10:17:13Z</time>
      </trkpt>
      <trkpt lat="43.83686" lon="7.5034">
        <ele>1026</ele>
        <time>2018-06-19T10:17:19Z</time>
      </trkpt>
      <trkpt lat="43.83676" lon="7.50344">
        <ele>1023</ele>
        <time>2018-06-19T10:17:28Z</time>
      </trkpt>
      <trkpt lat="43.83671" lon="7.50347">
        <ele>1023</ele>
        <time>2018-06-19T10:17:33Z</time>
      </trkpt>
      <trkpt lat="43.83663" lon="7.50355">
        <ele>1015</ele>
        <time>2018-06-19T10:17:44Z</time>
      </trkpt>
      <trkpt lat="43.83653" lon="7.5035">
        <ele>1014</ele>
        <time>2018-06-19T10:17:55Z</time>
      </trkpt>
      <trkpt lat="43.83641" lon="7.50354">
        <ele>1014</ele>
        <time>2018-06-19T10:18:05Z</time>
      </trkpt>
      <trkpt lat="43.83638" lon="7.50355">
        <ele>1014</ele>
        <time>2018-06-19T10:18:08Z</time>
      </trkpt>
      <trkpt lat="43.83624" lon="7.50359">
        <ele>1013</ele>
        <time>2018-06-19T10:18:22Z</time>
      </trkpt>
      <trkpt lat="43.83614" lon="7.50364">
        <ele>1013</ele>
        <time>2018-06-19T10:18:34Z</time>
      </trkpt>
      <trkpt lat="43.83613" lon="7.50364">
        <ele>1012</ele>
        <time>2018-06-19T10:18:35Z</time>
      </trkpt>
      <trkpt lat="43.83604" lon="7.50362">
        <ele>1010</ele>
        <time>2018-06-19T10:18:44Z</time>
      </trkpt>
      <trkpt lat="43.83588" lon="7.50355">
        <ele>1005</ele>
        <time>2018-06-19T10:18:58Z</time>
      </trkpt>
      <trkpt lat="43.83583" lon="7.50353">
        <ele>996</ele>
        <time>2018-06-19T10:19:04Z</time>
      </trkpt>
      <trkpt lat="43.83572" lon="7.50354">
        <ele>997</ele>
        <time>2018-06-19T10:19:16Z</time>
      </trkpt>
      <trkpt lat="43.83561" lon="7.50363">
        <ele>1000</ele>
        <time>2018-06-19T10:19:26Z</time>
      </trkpt>
      <trkpt lat="43.83555" lon="7.50367">
        <ele>1000</ele>
        <time>2018-06-19T10:19:32Z</time>
      </trkpt>
      <trkpt lat="43.83546" lon="7.50368">
        <ele>1000</ele>
        <time>2018-06-19T10:19:40Z</time>
      </trkpt>
      <trkpt lat="43.83542" lon="7.50368">
        <ele>1000</ele>
        <time>2018-06-19T10:19:43Z</time>
      </trkpt>
      <trkpt lat="43.83534" lon="7.5037">
        <ele>1000</ele>
        <time>2018-06-19T10:19:50Z</time>
      </trkpt>
      <trkpt lat="43.83521" lon="7.50374">
        <ele>1000</ele>
        <time>2018-06-19T10:19:57Z</time>
      </trkpt>
      <trkpt lat="43.83508" lon="7.50378">
        <ele>1001</ele>
        <time>2018-06-19T10:20:07Z</time>
      </trkpt>
      <trkpt lat="43.83504" lon="7.50376">
        <ele>1000</ele>
        <time>2018-06-19T10:20:10Z</time>
      </trkpt>
      <trkpt lat="43.83494" lon="7.50372">
        <ele>994</ele>
        <time>2018-06-19T10:20:20Z</time>
      </trkpt>
      <trkpt lat="43.83482" lon="7.5037">
        <ele>994</ele>
        <time>2018-06-19T10:20:32Z</time>
      </trkpt>
      <trkpt lat="43.8348" lon="7.5037">
        <ele>994</ele>
        <time>2018-06-19T10:20:41Z</time>
      </trkpt>
      <trkpt lat="43.83473" lon="7.50369">
        <ele>994</ele>
        <time>2018-06-19T10:20:45Z</time>
      </trkpt>
      <trkpt lat="43.83462" lon="7.50366">
        <ele>993</ele>
        <time>2018-06-19T10:20:53Z</time>
      </trkpt>
      <trkpt lat="43.83458" lon="7.50365">
        <ele>993</ele>
        <time>2018-06-19T10:20:56Z</time>
      </trkpt>
      <trkpt lat="43.83435" lon="7.50354">
        <ele>989</ele>
        <time>2018-06-19T10:21:11Z</time>
      </trkpt>
      <trkpt lat="43.83425" lon="7.50349">
        <ele>987</ele>
        <time>2018-06-19T10:21:21Z</time>
      </trkpt>
      <trkpt lat="43.83413" lon="7.50342">
        <ele>982</ele>
        <time>2018-06-19T10:21:32Z</time>
      </trkpt>
      <trkpt lat="43.83403" lon="7.50341">
        <ele>983</ele>
        <time>2018-06-19T10:21:44Z</time>
      </trkpt>
      <trkpt lat="43.83388" lon="7.50341">
        <ele>985</ele>
        <time>2018-06-19T10:21:54Z</time>
      </trkpt>
      <trkpt lat="43.83387" lon="7.50338">
        <ele>984</ele>
        <time>2018-06-19T10:21:58Z</time>
      </trkpt>
      <trkpt lat="43.83381" lon="7.50336">
        <ele>984</ele>
        <time>2018-06-19T10:22:04Z</time>
      </trkpt>
      <trkpt lat="43.83369" lon="7.50336">
        <ele>984</ele>
        <time>2018-06-19T10:22:12Z</time>
      </trkpt>
      <trkpt lat="43.83362" lon="7.50332">
        <ele>975</ele>
        <time>2018-06-19T10:22:19Z</time>
      </trkpt>
      <trkpt lat="43.83353" lon="7.50326">
        <ele>975</ele>
        <time>2018-06-19T10:22:31Z</time>
      </trkpt>
      <trkpt lat="43.83348" lon="7.50325">
        <ele>975</ele>
        <time>2018-06-19T10:22:38Z</time>
      </trkpt>
      <trkpt lat="43.83335" lon="7.50323">
        <ele>975</ele>
        <time>2018-06-19T10:22:47Z</time>
      </trkpt>
      <trkpt lat="43.83328" lon="7.50326">
        <ele>976</ele>
        <time>2018-06-19T10:22:51Z</time>
      </trkpt>
      <trkpt lat="43.83314" lon="7.50334">
        <ele>977</ele>
        <time>2018-06-19T10:23:04Z</time>
      </trkpt>
      <trkpt lat="43.83313" lon="7.50335">
        <ele>977</ele>
        <time>2018-06-19T10:23:07Z</time>
      </trkpt>
      <trkpt lat="43.83308" lon="7.50338">
        <ele>977</ele>
        <time>2018-06-19T10:23:11Z</time>
      </trkpt>
      <trkpt lat="43.83301" lon="7.50334">
        <ele>977</ele>
        <time>2018-06-19T10:23:17Z</time>
      </trkpt>
      <trkpt lat="43.83298" lon="7.50332">
        <ele>978</ele>
        <time>2018-06-19T10:23:29Z</time>
      </trkpt>
      <trkpt lat="43.833" lon="7.50329">
        <ele>978</ele>
        <time>2018-06-19T10:23:49Z</time>
      </trkpt>
      <trkpt lat="43.83291" lon="7.50333">
        <ele>978</ele>
        <time>2018-06-19T10:24:14Z</time>
      </trkpt>
      <trkpt lat="43.83291" lon="7.50334">
        <ele>978</ele>
        <time>2018-06-19T10:24:38Z</time>
      </trkpt>
      <trkpt lat="43.83291" lon="7.50334">
        <ele>978</ele>
        <time>2018-06-19T10:25:16Z</time>
      </trkpt>
      <trkpt lat="43.83291" lon="7.50333">
        <ele>978</ele>
        <time>2018-06-19T10:26:19Z</time>
      </trkpt>
      <trkpt lat="43.83287" lon="7.50322">
        <ele>979</ele>
        <time>2018-06-19T10:26:30Z</time>
      </trkpt>
      <trkpt lat="43.83283" lon="7.50316">
        <ele>979</ele>
        <time>2018-06-19T10:26:36Z</time>
      </trkpt>
      <trkpt lat="43.83273" lon="7.50308">
        <ele>979</ele>
        <time>2018-06-19T10:26:47Z</time>
      </trkpt>
      <trkpt lat="43.83272" lon="7.50307">
        <ele>980</ele>
        <time>2018-06-19T10:26:51Z</time>
      </trkpt>
      <trkpt lat="43.8326" lon="7.50313">
        <ele>979</ele>
        <time>2018-06-19T10:27:02Z</time>
      </trkpt>
      <trkpt lat="43.83246" lon="7.50315">
        <ele>979</ele>
        <time>2018-06-19T10:27:12Z</time>
      </trkpt>
      <trkpt lat="43.83238" lon="7.50318">
        <ele>978</ele>
        <time>2018-06-19T10:27:20Z</time>
      </trkpt>
      <trkpt lat="43.83228" lon="7.5032">
        <ele>979</ele>
        <time>2018-06-19T10:27:29Z</time>
      </trkpt>
      <trkpt lat="43.83217" lon="7.50324">
        <ele>978</ele>
        <time>2018-06-19T10:27:39Z</time>
      </trkpt>
      <trkpt lat="43.83214" lon="7.50325">
        <ele>978</ele>
        <time>2018-06-19T10:27:43Z</time>
      </trkpt>
      <trkpt lat="43.83211" lon="7.50329">
        <ele>978</ele>
        <time>2018-06-19T10:27:48Z</time>
      </trkpt>
      <trkpt lat="43.8321" lon="7.50332">
        <ele>978</ele>
        <time>2018-06-19T10:27:52Z</time>
      </trkpt>
      <trkpt lat="43.83206" lon="7.50339">
        <ele>967</ele>
        <time>2018-06-19T10:28:03Z</time>
      </trkpt>
      <trkpt lat="43.83199" lon="7.50337">
        <ele>967</ele>
        <time>2018-06-19T10:28:12Z</time>
      </trkpt>
      <trkpt lat="43.83199" lon="7.50338">
        <ele>967</ele>
        <time>2018-06-19T10:28:14Z</time>
      </trkpt>
      <trkpt lat="43.83197" lon="7.50338">
        <ele>967</ele>
        <time>2018-06-19T10:28:16Z</time>
      </trkpt>
      <trkpt lat="43.83192" lon="7.50339">
        <ele>967</ele>
        <time>2018-06-19T10:28:26Z</time>
      </trkpt>
      <trkpt lat="43.83188" lon="7.50339">
        <ele>967</ele>
        <time>2018-06-19T10:28:30Z</time>
      </trkpt>
      <trkpt lat="43.83169" lon="7.50342">
        <ele>967</ele>
        <time>2018-06-19T10:28:42Z</time>
      </trkpt>
      <trkpt lat="43.83156" lon="7.50339">
        <ele>959</ele>
        <time>2018-06-19T10:28:52Z</time>
      </trkpt>
      <trkpt lat="43.83152" lon="7.50337">
        <ele>958</ele>
        <time>2018-06-19T10:29:05Z</time>
      </trkpt>
      <trkpt lat="43.83149" lon="7.50337">
        <ele>956</ele>
        <time>2018-06-19T10:29:15Z</time>
      </trkpt>
      <trkpt lat="43.83139" lon="7.50336">
        <ele>953</ele>
        <time>2018-06-19T10:29:26Z</time>
      </trkpt>
      <trkpt lat="43.83131" lon="7.50336">
        <ele>950</ele>
        <time>2018-06-19T10:29:39Z</time>
      </trkpt>
      <trkpt lat="43.8312" lon="7.50334">
        <ele>948</ele>
        <time>2018-06-19T10:29:51Z</time>
      </trkpt>
      <trkpt lat="43.83117" lon="7.50336">
        <ele>947</ele>
        <time>2018-06-19T10:30:01Z</time>
      </trkpt>
      <trkpt lat="43.83113" lon="7.50339">
        <ele>946</ele>
        <time>2018-06-19T10:30:14Z</time>
      </trkpt>
      <trkpt lat="43.83107" lon="7.50341">
        <ele>945</ele>
        <time>2018-06-19T10:30:27Z</time>
      </trkpt>
      <trkpt lat="43.83106" lon="7.50341">
        <ele>945</ele>
        <time>2018-06-19T10:30:28Z</time>
      </trkpt>
      <trkpt lat="43.83097" lon="7.50342">
        <ele>944</ele>
        <time>2018-06-19T10:30:39Z</time>
      </trkpt>
      <trkpt lat="43.8309" lon="7.50342">
        <ele>944</ele>
        <time>2018-06-19T10:30:51Z</time>
      </trkpt>
      <trkpt lat="43.83088" lon="7.50343">
        <ele>943</ele>
        <time>2018-06-19T10:30:55Z</time>
      </trkpt>
      <trkpt lat="43.83086" lon="7.50344">
        <ele>943</ele>
        <time>2018-06-19T10:30:57Z</time>
      </trkpt>
      <trkpt lat="43.83073" lon="7.50346">
        <ele>935</ele>
        <time>2018-06-19T10:31:07Z</time>
      </trkpt>
      <trkpt lat="43.83068" lon="7.50343">
        <ele>935</ele>
        <time>2018-06-19T10:31:19Z</time>
      </trkpt>
      <trkpt lat="43.8306" lon="7.50344">
        <ele>933</ele>
        <time>2018-06-19T10:31:32Z</time>
      </trkpt>
      <trkpt lat="43.83049" lon="7.50346">
        <ele>931</ele>
        <time>2018-06-19T10:31:44Z</time>
      </trkpt>
      <trkpt lat="43.83036" lon="7.50353">
        <ele>929</ele>
        <time>2018-06-19T10:31:58Z</time>
      </trkpt>
      <trkpt lat="43.8303" lon="7.50355">
        <ele>929</ele>
        <time>2018-06-19T10:32:09Z</time>
      </trkpt>
      <trkpt lat="43.83025" lon="7.50359">
        <ele>928</ele>
        <time>2018-06-19T10:32:23Z</time>
      </trkpt>
      <trkpt lat="43.83022" lon="7.5036">
        <ele>928</ele>
        <time>2018-06-19T10:32:26Z</time>
      </trkpt>
      <trkpt lat="43.83018" lon="7.50361">
        <ele>928</ele>
        <time>2018-06-19T10:32:30Z</time>
      </trkpt>
      <trkpt lat="43.83016" lon="7.50363">
        <ele>927</ele>
        <time>2018-06-19T10:32:33Z</time>
      </trkpt>
      <trkpt lat="43.83007" lon="7.50363">
        <ele>927</ele>
        <time>2018-06-19T10:32:47Z</time>
      </trkpt>
      <trkpt lat="43.82998" lon="7.50365">
        <ele>917</ele>
        <time>2018-06-19T10:32:59Z</time>
      </trkpt>
      <trkpt lat="43.82993" lon="7.50368">
        <ele>916</ele>
        <time>2018-06-19T10:33:11Z</time>
      </trkpt>
      <trkpt lat="43.82986" lon="7.50371">
        <ele>915</ele>
        <time>2018-06-19T10:33:21Z</time>
      </trkpt>
      <trkpt lat="43.82979" lon="7.50375">
        <ele>913</ele>
        <time>2018-06-19T10:33:35Z</time>
      </trkpt>
      <trkpt lat="43.82975" lon="7.50375">
        <ele>913</ele>
        <time>2018-06-19T10:33:43Z</time>
      </trkpt>
      <trkpt lat="43.82966" lon="7.50376">
        <ele>912</ele>
        <time>2018-06-19T10:33:54Z</time>
      </trkpt>
      <trkpt lat="43.82962" lon="7.50376">
        <ele>911</ele>
        <time>2018-06-19T10:34:00Z</time>
      </trkpt>
      <trkpt lat="43.82957" lon="7.50374">
        <ele>911</ele>
        <time>2018-06-19T10:34:04Z</time>
      </trkpt>
      <trkpt lat="43.82946" lon="7.50378">
        <ele>909</ele>
        <time>2018-06-19T10:34:18Z</time>
      </trkpt>
      <trkpt lat="43.82942" lon="7.50383">
        <ele>908</ele>
        <time>2018-06-19T10:34:32Z</time>
      </trkpt>
      <trkpt lat="43.82939" lon="7.50386">
        <ele>907</ele>
        <time>2018-06-19T10:34:44Z</time>
      </trkpt>
      <trkpt lat="43.82932" lon="7.5039">
        <ele>905</ele>
        <time>2018-06-19T10:34:53Z</time>
      </trkpt>
      <trkpt lat="43.82923" lon="7.50393">
        <ele>904</ele>
        <time>2018-06-19T10:35:03Z</time>
      </trkpt>
      <trkpt lat="43.82915" lon="7.50398">
        <ele>890</ele>
        <time>2018-06-19T10:35:14Z</time>
      </trkpt>
      <trkpt lat="43.82904" lon="7.50404">
        <ele>889</ele>
        <time>2018-06-19T10:35:25Z</time>
      </trkpt>
      <trkpt lat="43.82892" lon="7.50406">
        <ele>887</ele>
        <time>2018-06-19T10:35:36Z</time>
      </trkpt>
      <trkpt lat="43.82886" lon="7.50407">
        <ele>886</ele>
        <time>2018-06-19T10:35:46Z</time>
      </trkpt>
      <trkpt lat="43.82883" lon="7.50409">
        <ele>885</ele>
        <time>2018-06-19T10:35:50Z</time>
      </trkpt>
      <trkpt lat="43.82878" lon="7.50411">
        <ele>884</ele>
        <time>2018-06-19T10:36:02Z</time>
      </trkpt>
      <trkpt lat="43.82873" lon="7.50412">
        <ele>883</ele>
        <time>2018-06-19T10:36:12Z</time>
      </trkpt>
      <trkpt lat="43.8287" lon="7.50412">
        <ele>882</ele>
        <time>2018-06-19T10:36:15Z</time>
      </trkpt>
      <trkpt lat="43.82868" lon="7.50413">
        <ele>882</ele>
        <time>2018-06-19T10:36:26Z</time>
      </trkpt>
      <trkpt lat="43.82863" lon="7.50413">
        <ele>881</ele>
        <time>2018-06-19T10:36:38Z</time>
      </trkpt>
      <trkpt lat="43.82858" lon="7.50417">
        <ele>877</ele>
        <time>2018-06-19T10:36:49Z</time>
      </trkpt>
      <trkpt lat="43.82853" lon="7.5042">
        <ele>876</ele>
        <time>2018-06-19T10:37:01Z</time>
      </trkpt>
      <trkpt lat="43.82845" lon="7.50419">
        <ele>874</ele>
        <time>2018-06-19T10:37:14Z</time>
      </trkpt>
      <trkpt lat="43.82844" lon="7.50422">
        <ele>874</ele>
        <time>2018-06-19T10:37:25Z</time>
      </trkpt>
      <trkpt lat="43.82843" lon="7.50422">
        <ele>874</ele>
        <time>2018-06-19T10:37:38Z</time>
      </trkpt>
      <trkpt lat="43.82843" lon="7.50422">
        <ele>874</ele>
        <time>2018-06-19T10:37:53Z</time>
      </trkpt>
      <trkpt lat="43.8284" lon="7.50422">
        <ele>874</ele>
        <time>2018-06-19T10:38:15Z</time>
      </trkpt>
      <trkpt lat="43.82837" lon="7.50422">
        <ele>873</ele>
        <time>2018-06-19T10:38:38Z</time>
      </trkpt>
      <trkpt lat="43.82835" lon="7.50421">
        <ele>873</ele>
        <time>2018-06-19T10:39:44Z</time>
      </trkpt>
      <trkpt lat="43.82833" lon="7.50422">
        <ele>869</ele>
        <time>2018-06-19T10:40:06Z</time>
      </trkpt>
      <trkpt lat="43.8283" lon="7.50421">
        <ele>868</ele>
        <time>2018-06-19T10:42:11Z</time>
      </trkpt>
      <trkpt lat="43.82829" lon="7.50421">
        <ele>868</ele>
        <time>2018-06-19T10:42:44Z</time>
      </trkpt>
      <trkpt lat="43.82833" lon="7.50421">
        <ele>873</ele>
        <time>2018-06-19T10:44:33Z</time>
      </trkpt>
      <trkpt lat="43.82833" lon="7.50421">
        <ele>869</ele>
        <time>2018-06-19T10:45:13Z</time>
      </trkpt>
      <trkpt lat="43.82832" lon="7.50422">
        <ele>869</ele>
        <time>2018-06-19T10:45:41Z</time>
      </trkpt>
      <trkpt lat="43.82831" lon="7.50422">
        <ele>868</ele>
        <time>2018-06-19T10:46:02Z</time>
      </trkpt>
      <trkpt lat="43.82825" lon="7.50422">
        <ele>866</ele>
        <time>2018-06-19T10:46:28Z</time>
      </trkpt>
      <trkpt lat="43.82826" lon="7.50422">
        <ele>866</ele>
        <time>2018-06-19T10:47:44Z</time>
      </trkpt>
      <trkpt lat="43.82826" lon="7.50422">
        <ele>867</ele>
        <time>2018-06-19T10:51:01Z</time>
      </trkpt>
      <trkpt lat="43.8282" lon="7.50419">
        <ele>864</ele>
        <time>2018-06-19T10:51:30Z</time>
      </trkpt>
      <trkpt lat="43.82826" lon="7.5042">
        <ele>867</ele>
        <time>2018-06-19T10:53:47Z</time>
      </trkpt>
      <trkpt lat="43.82828" lon="7.5042">
        <ele>868</ele>
        <time>2018-06-19T10:56:37Z</time>
      </trkpt>
      <trkpt lat="43.8282" lon="7.50422">
        <ele>864</ele>
        <time>2018-06-19T10:58:38Z</time>
      </trkpt>
      <trkpt lat="43.82821" lon="7.50421">
        <ele>865</ele>
        <time>2018-06-19T10:58:59Z</time>
      </trkpt>
      <trkpt lat="43.82821" lon="7.50421">
        <ele>865</ele>
        <time>2018-06-19T10:59:41Z</time>
      </trkpt>
      <trkpt lat="43.82827" lon="7.50422">
        <ele>867</ele>
        <time>2018-06-19T11:00:30Z</time>
      </trkpt>
      <trkpt lat="43.82834" lon="7.50424">
        <ele>873</ele>
        <time>2018-06-19T11:00:51Z</time>
      </trkpt>
      <trkpt lat="43.82833" lon="7.50425">
        <ele>867</ele>
        <time>2018-06-19T11:01:15Z</time>
      </trkpt>
      <trkpt lat="43.82828" lon="7.50424">
        <ele>866</ele>
        <time>2018-06-19T11:01:43Z</time>
      </trkpt>
      <trkpt lat="43.8282" lon="7.50421">
        <ele>864</ele>
        <time>2018-06-19T11:02:25Z</time>
      </trkpt>
      <trkpt lat="43.82819" lon="7.5042">
        <ele>864</ele>
        <time>2018-06-19T11:02:52Z</time>
      </trkpt>
      <trkpt lat="43.8282" lon="7.50421">
        <ele>864</ele>
        <time>2018-06-19T11:03:20Z</time>
      </trkpt>
      <trkpt lat="43.82821" lon="7.50421">
        <ele>865</ele>
        <time>2018-06-19T11:03:51Z</time>
      </trkpt>
      <trkpt lat="43.82821" lon="7.5042">
        <ele>865</ele>
        <time>2018-06-19T11:04:15Z</time>
      </trkpt>
      <trkpt lat="43.8283" lon="7.5042">
        <ele>869</ele>
        <time>2018-06-19T11:06:57Z</time>
      </trkpt>
      <trkpt lat="43.8283" lon="7.50419">
        <ele>869</ele>
        <time>2018-06-19T11:07:23Z</time>
      </trkpt>
      <trkpt lat="43.82832" lon="7.50418">
        <ele>870</ele>
        <time>2018-06-19T11:07:42Z</time>
      </trkpt>
      <trkpt lat="43.82836" lon="7.50418">
        <ele>873</ele>
        <time>2018-06-19T11:07:50Z</time>
      </trkpt>
      <trkpt lat="43.82839" lon="7.50421">
        <ele>873</ele>
        <time>2018-06-19T11:08:02Z</time>
      </trkpt>
      <trkpt lat="43.82842" lon="7.50423">
        <ele>874</ele>
        <time>2018-06-19T11:08:14Z</time>
      </trkpt>
      <trkpt lat="43.82843" lon="7.50423">
        <ele>874</ele>
        <time>2018-06-19T11:08:15Z</time>
      </trkpt>
      <trkpt lat="43.82844" lon="7.50424">
        <ele>874</ele>
        <time>2018-06-19T11:08:31Z</time>
      </trkpt>
      <trkpt lat="43.82844" lon="7.50423">
        <ele>874</ele>
        <time>2018-06-19T11:09:23Z</time>
      </trkpt>
      <trkpt lat="43.82836" lon="7.50422">
        <ele>873</ele>
        <time>2018-06-19T11:09:35Z</time>
      </trkpt>
      <trkpt lat="43.8283" lon="7.50419">
        <ele>869</ele>
        <time>2018-06-19T11:09:46Z</time>
      </trkpt>
      <trkpt lat="43.82829" lon="7.50419">
        <ele>869</ele>
        <time>2018-06-19T11:09:50Z</time>
      </trkpt>
      <trkpt lat="43.82827" lon="7.50424">
        <ele>866</ele>
        <time>2018-06-19T11:09:57Z</time>
      </trkpt>
      <trkpt lat="43.82829" lon="7.50426">
        <ele>866</ele>
        <time>2018-06-19T11:10:10Z</time>
      </trkpt>
      <trkpt lat="43.82827" lon="7.50431">
        <ele>864</ele>
        <time>2018-06-19T11:10:21Z</time>
      </trkpt>
      <trkpt lat="43.82817" lon="7.50429">
        <ele>862</ele>
        <time>2018-06-19T11:10:34Z</time>
      </trkpt>
      <trkpt lat="43.82808" lon="7.50429">
        <ele>859</ele>
        <time>2018-06-19T11:10:45Z</time>
      </trkpt>
      <trkpt lat="43.82806" lon="7.50433">
        <ele>858</ele>
        <time>2018-06-19T11:10:55Z</time>
      </trkpt>
      <trkpt lat="43.82799" lon="7.50431">
        <ele>857</ele>
        <time>2018-06-19T11:11:05Z</time>
      </trkpt>
      <trkpt lat="43.82794" lon="7.50433">
        <ele>856</ele>
        <time>2018-06-19T11:11:16Z</time>
      </trkpt>
      <trkpt lat="43.8279" lon="7.50434">
        <ele>855</ele>
        <time>2018-06-19T11:11:26Z</time>
      </trkpt>
      <trkpt lat="43.82786" lon="7.50434">
        <ele>854</ele>
        <time>2018-06-19T11:11:38Z</time>
      </trkpt>
      <trkpt lat="43.82781" lon="7.50432">
        <ele>853</ele>
        <time>2018-06-19T11:11:49Z</time>
      </trkpt>
      <trkpt lat="43.82773" lon="7.50432">
        <ele>851</ele>
        <time>2018-06-19T11:12:00Z</time>
      </trkpt>
      <trkpt lat="43.82774" lon="7.50435">
        <ele>852</ele>
        <time>2018-06-19T11:12:08Z</time>
      </trkpt>
      <trkpt lat="43.82777" lon="7.50439">
        <ele>852</ele>
        <time>2018-06-19T11:12:14Z</time>
      </trkpt>
      <trkpt lat="43.82768" lon="7.5044">
        <ele>851</ele>
        <time>2018-06-19T11:12:27Z</time>
      </trkpt>
      <trkpt lat="43.82769" lon="7.50442">
        <ele>851</ele>
        <time>2018-06-19T11:12:37Z</time>
      </trkpt>
      <trkpt lat="43.82774" lon="7.50448">
        <ele>852</ele>
        <time>2018-06-19T11:12:47Z</time>
      </trkpt>
      <trkpt lat="43.82777" lon="7.50457">
        <ele>852</ele>
        <time>2018-06-19T11:13:01Z</time>
      </trkpt>
      <trkpt lat="43.82783" lon="7.50468">
        <ele>853</ele>
        <time>2018-06-19T11:13:11Z</time>
      </trkpt>
      <trkpt lat="43.82785" lon="7.50474">
        <ele>853</ele>
        <time>2018-06-19T11:13:22Z</time>
      </trkpt>
      <trkpt lat="43.82788" lon="7.50476">
        <ele>853</ele>
        <time>2018-06-19T11:13:52Z</time>
      </trkpt>
      <trkpt lat="43.82789" lon="7.50476">
        <ele>853</ele>
        <time>2018-06-19T11:14:21Z</time>
      </trkpt>
      <trkpt lat="43.82791" lon="7.50478">
        <ele>853</ele>
        <time>2018-06-19T11:16:09Z</time>
      </trkpt>
      <trkpt lat="43.82791" lon="7.50479">
        <ele>853</ele>
        <time>2018-06-19T11:16:12Z</time>
      </trkpt>
      <trkpt lat="43.82787" lon="7.50479">
        <ele>853</ele>
        <time>2018-06-19T11:16:25Z</time>
      </trkpt>
      <trkpt lat="43.82785" lon="7.50478">
        <ele>852</ele>
        <time>2018-06-19T11:16:29Z</time>
      </trkpt>
      <trkpt lat="43.82779" lon="7.50477">
        <ele>851</ele>
        <time>2018-06-19T11:16:38Z</time>
      </trkpt>
      <trkpt lat="43.82773" lon="7.50477">
        <ele>851</ele>
        <time>2018-06-19T11:16:48Z</time>
      </trkpt>
      <trkpt lat="43.82765" lon="7.50475">
        <ele>850</ele>
        <time>2018-06-19T11:16:58Z</time>
      </trkpt>
      <trkpt lat="43.82761" lon="7.50473">
        <ele>849</ele>
        <time>2018-06-19T11:17:09Z</time>
      </trkpt>
      <trkpt lat="43.82761" lon="7.50473">
        <ele>849</ele>
        <time>2018-06-19T11:17:10Z</time>
      </trkpt>
      <trkpt lat="43.82756" lon="7.5047">
        <ele>849</ele>
        <time>2018-06-19T11:17:20Z</time>
      </trkpt>
      <trkpt lat="43.82752" lon="7.50468">
        <ele>849</ele>
        <time>2018-06-19T11:17:30Z</time>
      </trkpt>
      <trkpt lat="43.82751" lon="7.50464">
        <ele>849</ele>
        <time>2018-06-19T11:17:41Z</time>
      </trkpt>
      <trkpt lat="43.82748" lon="7.50459">
        <ele>834</ele>
        <time>2018-06-19T11:17:52Z</time>
      </trkpt>
      <trkpt lat="43.82748" lon="7.50459">
        <ele>834</ele>
        <time>2018-06-19T11:17:53Z</time>
      </trkpt>
      <trkpt lat="43.82735" lon="7.50452">
        <ele>833</ele>
        <time>2018-06-19T11:18:03Z</time>
      </trkpt>
      <trkpt lat="43.82724" lon="7.50443">
        <ele>832</ele>
        <time>2018-06-19T11:18:13Z</time>
      </trkpt>
      <trkpt lat="43.82714" lon="7.50437">
        <ele>830</ele>
        <time>2018-06-19T11:18:25Z</time>
      </trkpt>
      <trkpt lat="43.82706" lon="7.50424">
        <ele>829</ele>
        <time>2018-06-19T11:18:37Z</time>
      </trkpt>
      <trkpt lat="43.82704" lon="7.50421">
        <ele>828</ele>
        <time>2018-06-19T11:18:45Z</time>
      </trkpt>
      <trkpt lat="43.82702" lon="7.50419">
        <ele>827</ele>
        <time>2018-06-19T11:18:59Z</time>
      </trkpt>
      <trkpt lat="43.82696" lon="7.5041">
        <ele>822</ele>
        <time>2018-06-19T11:19:12Z</time>
      </trkpt>
      <trkpt lat="43.82696" lon="7.5041">
        <ele>822</ele>
        <time>2018-06-19T11:19:16Z</time>
      </trkpt>
      <trkpt lat="43.82692" lon="7.50411">
        <ele>821</ele>
        <time>2018-06-19T11:19:28Z</time>
      </trkpt>
      <trkpt lat="43.82693" lon="7.50418">
        <ele>825</ele>
        <time>2018-06-19T11:19:38Z</time>
      </trkpt>
      <trkpt lat="43.82688" lon="7.5042">
        <ele>824</ele>
        <time>2018-06-19T11:19:50Z</time>
      </trkpt>
      <trkpt lat="43.82686" lon="7.50419">
        <ele>823</ele>
        <time>2018-06-19T11:19:52Z</time>
      </trkpt>
      <trkpt lat="43.82677" lon="7.50416">
        <ele>818</ele>
        <time>2018-06-19T11:20:05Z</time>
      </trkpt>
      <trkpt lat="43.82675" lon="7.50418">
        <ele>819</ele>
        <time>2018-06-19T11:20:17Z</time>
      </trkpt>
      <trkpt lat="43.82674" lon="7.50428">
        <ele>821</ele>
        <time>2018-06-19T11:20:29Z</time>
      </trkpt>
      <trkpt lat="43.82675" lon="7.50436">
        <ele>823</ele>
        <time>2018-06-19T11:20:36Z</time>
      </trkpt>
      <trkpt lat="43.82678" lon="7.50446">
        <ele>824</ele>
        <time>2018-06-19T11:20:44Z</time>
      </trkpt>
      <trkpt lat="43.82673" lon="7.50456">
        <ele>825</ele>
        <time>2018-06-19T11:20:54Z</time>
      </trkpt>
      <trkpt lat="43.82668" lon="7.50469">
        <ele>824</ele>
        <time>2018-06-19T11:21:02Z</time>
      </trkpt>
      <trkpt lat="43.82661" lon="7.50489">
        <ele>814</ele>
        <time>2018-06-19T11:21:16Z</time>
      </trkpt>
      <trkpt lat="43.82654" lon="7.50505">
        <ele>819</ele>
        <time>2018-06-19T11:21:28Z</time>
      </trkpt>
      <trkpt lat="43.82652" lon="7.50509">
        <ele>819</ele>
        <time>2018-06-19T11:21:32Z</time>
      </trkpt>
      <trkpt lat="43.8264" lon="7.50526">
        <ele>820</ele>
        <time>2018-06-19T11:21:48Z</time>
      </trkpt>
      <trkpt lat="43.82633" lon="7.50531">
        <ele>820</ele>
        <time>2018-06-19T11:21:56Z</time>
      </trkpt>
      <trkpt lat="43.82629" lon="7.50533">
        <ele>820</ele>
        <time>2018-06-19T11:21:59Z</time>
      </trkpt>
      <trkpt lat="43.82625" lon="7.50534">
        <ele>820</ele>
        <time>2018-06-19T11:22:02Z</time>
      </trkpt>
      <trkpt lat="43.82615" lon="7.50538">
        <ele>820</ele>
        <time>2018-06-19T11:22:11Z</time>
      </trkpt>
      <trkpt lat="43.82602" lon="7.50546">
        <ele>820</ele>
        <time>2018-06-19T11:22:25Z</time>
      </trkpt>
      <trkpt lat="43.8259" lon="7.50554">
        <ele>821</ele>
        <time>2018-06-19T11:22:37Z</time>
      </trkpt>
      <trkpt lat="43.82577" lon="7.50563">
        <ele>817</ele>
        <time>2018-06-19T11:22:50Z</time>
      </trkpt>
      <trkpt lat="43.82571" lon="7.50567">
        <ele>817</ele>
        <time>2018-06-19T11:22:56Z</time>
      </trkpt>
      <trkpt lat="43.82569" lon="7.50569">
        <ele>817</ele>
        <time>2018-06-19T11:23:00Z</time>
      </trkpt>
      <trkpt lat="43.82563" lon="7.50567">
        <ele>816</ele>
        <time>2018-06-19T11:23:04Z</time>
      </trkpt>
      <trkpt lat="43.82561" lon="7.50567">
        <ele>815</ele>
        <time>2018-06-19T11:23:06Z</time>
      </trkpt>
      <trkpt lat="43.82549" lon="7.5057">
        <ele>814</ele>
        <time>2018-06-19T11:23:19Z</time>
      </trkpt>
      <trkpt lat="43.82539" lon="7.50579">
        <ele>813</ele>
        <time>2018-06-19T11:23:31Z</time>
      </trkpt>
      <trkpt lat="43.82531" lon="7.5058">
        <ele>813</ele>
        <time>2018-06-19T11:23:39Z</time>
      </trkpt>
      <trkpt lat="43.82525" lon="7.50582">
        <ele>813</ele>
        <time>2018-06-19T11:23:47Z</time>
      </trkpt>
      <trkpt lat="43.8251" lon="7.50588">
        <ele>822</ele>
        <time>2018-06-19T11:23:57Z</time>
      </trkpt>
      <trkpt lat="43.82502" lon="7.50587">
        <ele>818</ele>
        <time>2018-06-19T11:24:04Z</time>
      </trkpt>
      <trkpt lat="43.82489" lon="7.5059">
        <ele>819</ele>
        <time>2018-06-19T11:24:15Z</time>
      </trkpt>
      <trkpt lat="43.82475" lon="7.50588">
        <ele>821</ele>
        <time>2018-06-19T11:24:27Z</time>
      </trkpt>
      <trkpt lat="43.82462" lon="7.50595">
        <ele>821</ele>
        <time>2018-06-19T11:24:40Z</time>
      </trkpt>
      <trkpt lat="43.8245" lon="7.50606">
        <ele>822</ele>
        <time>2018-06-19T11:24:52Z</time>
      </trkpt>
      <trkpt lat="43.82447" lon="7.50608">
        <ele>822</ele>
        <time>2018-06-19T11:24:55Z</time>
      </trkpt>
      <trkpt lat="43.82438" lon="7.50614">
        <ele>822</ele>
        <time>2018-06-19T11:25:02Z</time>
      </trkpt>
      <trkpt lat="43.82432" lon="7.50615">
        <ele>822</ele>
        <time>2018-06-19T11:25:08Z</time>
      </trkpt>
      <trkpt lat="43.82428" lon="7.50617">
        <ele>823</ele>
        <time>2018-06-19T11:25:12Z</time>
      </trkpt>
      <trkpt lat="43.82424" lon="7.50619">
        <ele>823</ele>
        <time>2018-06-19T11:25:16Z</time>
      </trkpt>
      <trkpt lat="43.82413" lon="7.50626">
        <ele>823</ele>
        <time>2018-06-19T11:25:27Z</time>
      </trkpt>
      <trkpt lat="43.82399" lon="7.50632">
        <ele>825</ele>
        <time>2018-06-19T11:25:39Z</time>
      </trkpt>
      <trkpt lat="43.8239" lon="7.50636">
        <ele>825</ele>
        <time>2018-06-19T11:25:52Z</time>
      </trkpt>
      <trkpt lat="43.82388" lon="7.50636">
        <ele>825</ele>
        <time>2018-06-19T11:25:56Z</time>
      </trkpt>
      <trkpt lat="43.82381" lon="7.50638">
        <ele>826</ele>
        <time>2018-06-19T11:26:08Z</time>
      </trkpt>
      <trkpt lat="43.82368" lon="7.50632">
        <ele>825</ele>
        <time>2018-06-19T11:26:23Z</time>
      </trkpt>
      <trkpt lat="43.8236" lon="7.50628">
        <ele>825</ele>
        <time>2018-06-19T11:26:37Z</time>
      </trkpt>
      <trkpt lat="43.82356" lon="7.50624">
        <ele>824</ele>
        <time>2018-06-19T11:26:46Z</time>
      </trkpt>
      <trkpt lat="43.82351" lon="7.5062">
        <ele>824</ele>
        <time>2018-06-19T11:26:51Z</time>
      </trkpt>
      <trkpt lat="43.82347" lon="7.50619">
        <ele>824</ele>
        <time>2018-06-19T11:26:54Z</time>
      </trkpt>
      <trkpt lat="43.82333" lon="7.50611">
        <ele>826</ele>
        <time>2018-06-19T11:27:08Z</time>
      </trkpt>
      <trkpt lat="43.82324" lon="7.50602">
        <ele>824</ele>
        <time>2018-06-19T11:27:18Z</time>
      </trkpt>
      <trkpt lat="43.82319" lon="7.50597">
        <ele>823</ele>
        <time>2018-06-19T11:27:24Z</time>
      </trkpt>
      <trkpt lat="43.82304" lon="7.50585">
        <ele>825</ele>
        <time>2018-06-19T11:27:39Z</time>
      </trkpt>
      <trkpt lat="43.82299" lon="7.5058">
        <ele>814</ele>
        <time>2018-06-19T11:27:45Z</time>
      </trkpt>
      <trkpt lat="43.82294" lon="7.50577">
        <ele>814</ele>
        <time>2018-06-19T11:27:50Z</time>
      </trkpt>
      <trkpt lat="43.82291" lon="7.50574">
        <ele>815</ele>
        <time>2018-06-19T11:27:53Z</time>
      </trkpt>
      <trkpt lat="43.82288" lon="7.50573">
        <ele>815</ele>
        <time>2018-06-19T11:27:56Z</time>
      </trkpt>
      <trkpt lat="43.8228" lon="7.50564">
        <ele>815</ele>
        <time>2018-06-19T11:28:06Z</time>
      </trkpt>
      <trkpt lat="43.82269" lon="7.50553">
        <ele>815</ele>
        <time>2018-06-19T11:28:20Z</time>
      </trkpt>
      <trkpt lat="43.82265" lon="7.50549">
        <ele>814</ele>
        <time>2018-06-19T11:28:25Z</time>
      </trkpt>
      <trkpt lat="43.82256" lon="7.50534">
        <ele>813</ele>
        <time>2018-06-19T11:28:41Z</time>
      </trkpt>
      <trkpt lat="43.82249" lon="7.50523">
        <ele>815</ele>
        <time>2018-06-19T11:28:54Z</time>
      </trkpt>
      <trkpt lat="43.82242" lon="7.50511">
        <ele>813</ele>
        <time>2018-06-19T11:29:08Z</time>
      </trkpt>
      <trkpt lat="43.82233" lon="7.50496">
        <ele>806</ele>
        <time>2018-06-19T11:29:22Z</time>
      </trkpt>
      <trkpt lat="43.82228" lon="7.50486">
        <ele>805</ele>
        <time>2018-06-19T11:29:30Z</time>
      </trkpt>
      <trkpt lat="43.82224" lon="7.5048">
        <ele>804</ele>
        <time>2018-06-19T11:29:36Z</time>
      </trkpt>
      <trkpt lat="43.82221" lon="7.50473">
        <ele>803</ele>
        <time>2018-06-19T11:29:41Z</time>
      </trkpt>
      <trkpt lat="43.82213" lon="7.50462">
        <ele>802</ele>
        <time>2018-06-19T11:29:51Z</time>
      </trkpt>
      <trkpt lat="43.82202" lon="7.50449">
        <ele>801</ele>
        <time>2018-06-19T11:30:05Z</time>
      </trkpt>
      <trkpt lat="43.82196" lon="7.50444">
        <ele>800</ele>
        <time>2018-06-19T11:30:11Z</time>
      </trkpt>
      <trkpt lat="43.82194" lon="7.50442">
        <ele>800</ele>
        <time>2018-06-19T11:30:13Z</time>
      </trkpt>
      <trkpt lat="43.82188" lon="7.50433">
        <ele>799</ele>
        <time>2018-06-19T11:30:24Z</time>
      </trkpt>
      <trkpt lat="43.82187" lon="7.50433">
        <ele>798</ele>
        <time>2018-06-19T11:31:06Z</time>
      </trkpt>
      <trkpt lat="43.82187" lon="7.50435">
        <ele>799</ele>
        <time>2018-06-19T11:31:37Z</time>
      </trkpt>
      <trkpt lat="43.82183" lon="7.5045">
        <ele>800</ele>
        <time>2018-06-19T11:31:51Z</time>
      </trkpt>
      <trkpt lat="43.82181" lon="7.50459">
        <ele>801</ele>
        <time>2018-06-19T11:32:03Z</time>
      </trkpt>
      <trkpt lat="43.8218" lon="7.50466">
        <ele>802</ele>
        <time>2018-06-19T11:32:15Z</time>
      </trkpt>
      <trkpt lat="43.82177" lon="7.50473">
        <ele>803</ele>
        <time>2018-06-19T11:32:26Z</time>
      </trkpt>
      <trkpt lat="43.82177" lon="7.50474">
        <ele>803</ele>
        <time>2018-06-19T11:32:27Z</time>
      </trkpt>
      <trkpt lat="43.82176" lon="7.50481">
        <ele>804</ele>
        <time>2018-06-19T11:32:38Z</time>
      </trkpt>
      <trkpt lat="43.82178" lon="7.50486">
        <ele>805</ele>
        <time>2018-06-19T11:32:50Z</time>
      </trkpt>
      <trkpt lat="43.82178" lon="7.50494">
        <ele>805</ele>
        <time>2018-06-19T11:33:03Z</time>
      </trkpt>
      <trkpt lat="43.82177" lon="7.50502">
        <ele>811</ele>
        <time>2018-06-19T11:33:17Z</time>
      </trkpt>
      <trkpt lat="43.82171" lon="7.50508">
        <ele>811</ele>
        <time>2018-06-19T11:33:24Z</time>
      </trkpt>
      <trkpt lat="43.82169" lon="7.50525">
        <ele>814</ele>
        <time>2018-06-19T11:33:38Z</time>
      </trkpt>
      <trkpt lat="43.8217" lon="7.50535">
        <ele>816</ele>
        <time>2018-06-19T11:33:49Z</time>
      </trkpt>
      <trkpt lat="43.82175" lon="7.50545">
        <ele>817</ele>
        <time>2018-06-19T11:33:58Z</time>
      </trkpt>
      <trkpt lat="43.82174" lon="7.50549">
        <ele>818</ele>
        <time>2018-06-19T11:34:02Z</time>
      </trkpt>
      <trkpt lat="43.82177" lon="7.50559">
        <ele>819</ele>
        <time>2018-06-19T11:34:10Z</time>
      </trkpt>
      <trkpt lat="43.82174" lon="7.5057">
        <ele>821</ele>
        <time>2018-06-19T11:34:22Z</time>
      </trkpt>
      <trkpt lat="43.82173" lon="7.50571">
        <ele>821</ele>
        <time>2018-06-19T11:34:24Z</time>
      </trkpt>
      <trkpt lat="43.82166" lon="7.5058">
        <ele>823</ele>
        <time>2018-06-19T11:34:36Z</time>
      </trkpt>
      <trkpt lat="43.82158" lon="7.50589">
        <ele>829</ele>
        <time>2018-06-19T11:34:46Z</time>
      </trkpt>
      <trkpt lat="43.82149" lon="7.50598">
        <ele>832</ele>
        <time>2018-06-19T11:34:58Z</time>
      </trkpt>
      <trkpt lat="43.82145" lon="7.50601">
        <ele>834</ele>
        <time>2018-06-19T11:35:08Z</time>
      </trkpt>
      <trkpt lat="43.82139" lon="7.50608">
        <ele>835</ele>
        <time>2018-06-19T11:35:24Z</time>
      </trkpt>
      <trkpt lat="43.82135" lon="7.50609">
        <ele>836</ele>
        <time>2018-06-19T11:35:37Z</time>
      </trkpt>
      <trkpt lat="43.82131" lon="7.50605">
        <ele>835</ele>
        <time>2018-06-19T11:35:49Z</time>
      </trkpt>
      <trkpt lat="43.82127" lon="7.50594">
        <ele>835</ele>
        <time>2018-06-19T11:36:02Z</time>
      </trkpt>
      <trkpt lat="43.82121" lon="7.50588">
        <ele>835</ele>
        <time>2018-06-19T11:36:14Z</time>
      </trkpt>
      <trkpt lat="43.82113" lon="7.50587">
        <ele>835</ele>
        <time>2018-06-19T11:36:27Z</time>
      </trkpt>
      <trkpt lat="43.82105" lon="7.50591">
        <ele>835</ele>
        <time>2018-06-19T11:36:39Z</time>
      </trkpt>
      <trkpt lat="43.82101" lon="7.50598">
        <ele>836</ele>
        <time>2018-06-19T11:36:53Z</time>
      </trkpt>
      <trkpt lat="43.82093" lon="7.50605">
        <ele>836</ele>
        <time>2018-06-19T11:37:05Z</time>
      </trkpt>
      <trkpt lat="43.82085" lon="7.50612">
        <ele>838</ele>
        <time>2018-06-19T11:37:18Z</time>
      </trkpt>
      <trkpt lat="43.82077" lon="7.50613">
        <ele>844</ele>
        <time>2018-06-19T11:37:30Z</time>
      </trkpt>
      <trkpt lat="43.82067" lon="7.50614">
        <ele>845</ele>
        <time>2018-06-19T11:37:45Z</time>
      </trkpt>
      <trkpt lat="43.82062" lon="7.50617">
        <ele>846</ele>
        <time>2018-06-19T11:37:57Z</time>
      </trkpt>
      <trkpt lat="43.82056" lon="7.5062">
        <ele>847</ele>
        <time>2018-06-19T11:38:12Z</time>
      </trkpt>
      <trkpt lat="43.82049" lon="7.50621">
        <ele>848</ele>
        <time>2018-06-19T11:38:24Z</time>
      </trkpt>
      <trkpt lat="43.8204" lon="7.50622">
        <ele>848</ele>
        <time>2018-06-19T11:38:38Z</time>
      </trkpt>
      <trkpt lat="43.82033" lon="7.50629">
        <ele>849</ele>
        <time>2018-06-19T11:38:53Z</time>
      </trkpt>
      <trkpt lat="43.82026" lon="7.50632">
        <ele>850</ele>
        <time>2018-06-19T11:39:05Z</time>
      </trkpt>
      <trkpt lat="43.8202" lon="7.50638">
        <ele>851</ele>
        <time>2018-06-19T11:39:17Z</time>
      </trkpt>
      <trkpt lat="43.82015" lon="7.50642">
        <ele>852</ele>
        <time>2018-06-19T11:39:26Z</time>
      </trkpt>
      <trkpt lat="43.82008" lon="7.50643">
        <ele>853</ele>
        <time>2018-06-19T11:39:38Z</time>
      </trkpt>
      <trkpt lat="43.82003" lon="7.50643">
        <ele>853</ele>
        <time>2018-06-19T11:39:52Z</time>
      </trkpt>
      <trkpt lat="43.81997" lon="7.50641">
        <ele>855</ele>
        <time>2018-06-19T11:40:02Z</time>
      </trkpt>
      <trkpt lat="43.8199" lon="7.50641">
        <ele>855</ele>
        <time>2018-06-19T11:40:12Z</time>
      </trkpt>
      <trkpt lat="43.81984" lon="7.50647">
        <ele>855</ele>
        <time>2018-06-19T11:40:23Z</time>
      </trkpt>
      <trkpt lat="43.81983" lon="7.50652">
        <ele>856</ele>
        <time>2018-06-19T11:40:34Z</time>
      </trkpt>
      <trkpt lat="43.81983" lon="7.50657">
        <ele>857</ele>
        <time>2018-06-19T11:40:46Z</time>
      </trkpt>
      <trkpt lat="43.81984" lon="7.50665">
        <ele>857</ele>
        <time>2018-06-19T11:40:58Z</time>
      </trkpt>
      <trkpt lat="43.81986" lon="7.50673">
        <ele>865</ele>
        <time>2018-06-19T11:41:11Z</time>
      </trkpt>
      <trkpt lat="43.81986" lon="7.5068">
        <ele>866</ele>
        <time>2018-06-19T11:41:23Z</time>
      </trkpt>
      <trkpt lat="43.81986" lon="7.50686">
        <ele>866</ele>
        <time>2018-06-19T11:41:33Z</time>
      </trkpt>
      <trkpt lat="43.81982" lon="7.50691">
        <ele>867</ele>
        <time>2018-06-19T11:41:43Z</time>
      </trkpt>
      <trkpt lat="43.81981" lon="7.50698">
        <ele>868</ele>
        <time>2018-06-19T11:41:55Z</time>
      </trkpt>
      <trkpt lat="43.81981" lon="7.50702">
        <ele>869</ele>
        <time>2018-06-19T11:42:09Z</time>
      </trkpt>
      <trkpt lat="43.81982" lon="7.50705">
        <ele>869</ele>
        <time>2018-06-19T11:42:13Z</time>
      </trkpt>
      <trkpt lat="43.81985" lon="7.50713">
        <ele>870</ele>
        <time>2018-06-19T11:42:24Z</time>
      </trkpt>
      <trkpt lat="43.81985" lon="7.50719">
        <ele>871</ele>
        <time>2018-06-19T11:42:35Z</time>
      </trkpt>
      <trkpt lat="43.81985" lon="7.50726">
        <ele>872</ele>
        <time>2018-06-19T11:42:47Z</time>
      </trkpt>
      <trkpt lat="43.81984" lon="7.50733">
        <ele>873</ele>
        <time>2018-06-19T11:42:57Z</time>
      </trkpt>
      <trkpt lat="43.81985" lon="7.50741">
        <ele>874</ele>
        <time>2018-06-19T11:43:10Z</time>
      </trkpt>
      <trkpt lat="43.81982" lon="7.50743">
        <ele>874</ele>
        <time>2018-06-19T11:43:28Z</time>
      </trkpt>
      <trkpt lat="43.81974" lon="7.5074">
        <ele>873</ele>
        <time>2018-06-19T11:43:41Z</time>
      </trkpt>
      <trkpt lat="43.81968" lon="7.50739">
        <ele>873</ele>
        <time>2018-06-19T11:43:55Z</time>
      </trkpt>
      <trkpt lat="43.81964" lon="7.50743">
        <ele>873</ele>
        <time>2018-06-19T11:44:08Z</time>
      </trkpt>
      <trkpt lat="43.81958" lon="7.50743">
        <ele>873</ele>
        <time>2018-06-19T11:44:21Z</time>
      </trkpt>
      <trkpt lat="43.81957" lon="7.50749">
        <ele>873</ele>
        <time>2018-06-19T11:44:32Z</time>
      </trkpt>
      <trkpt lat="43.81957" lon="7.50758">
        <ele>885</ele>
        <time>2018-06-19T11:44:46Z</time>
      </trkpt>
      <trkpt lat="43.81956" lon="7.50768">
        <ele>885</ele>
        <time>2018-06-19T11:44:58Z</time>
      </trkpt>
      <trkpt lat="43.81952" lon="7.50781">
        <ele>887</ele>
        <time>2018-06-19T11:45:10Z</time>
      </trkpt>
      <trkpt lat="43.81946" lon="7.5079">
        <ele>888</ele>
        <time>2018-06-19T11:45:23Z</time>
      </trkpt>
      <trkpt lat="43.81939" lon="7.50795">
        <ele>888</ele>
        <time>2018-06-19T11:45:35Z</time>
      </trkpt>
      <trkpt lat="43.81936" lon="7.50798">
        <ele>889</ele>
        <time>2018-06-19T11:45:47Z</time>
      </trkpt>
      <trkpt lat="43.81933" lon="7.50807">
        <ele>890</ele>
        <time>2018-06-19T11:45:59Z</time>
      </trkpt>
      <trkpt lat="43.81926" lon="7.50813">
        <ele>892</ele>
        <time>2018-06-19T11:46:12Z</time>
      </trkpt>
      <trkpt lat="43.81923" lon="7.50817">
        <ele>893</ele>
        <time>2018-06-19T11:46:23Z</time>
      </trkpt>
      <trkpt lat="43.81924" lon="7.50822">
        <ele>894</ele>
        <time>2018-06-19T11:46:35Z</time>
      </trkpt>
      <trkpt lat="43.81922" lon="7.50828">
        <ele>895</ele>
        <time>2018-06-19T11:46:48Z</time>
      </trkpt>
      <trkpt lat="43.81924" lon="7.50835">
        <ele>900</ele>
        <time>2018-06-19T11:47:01Z</time>
      </trkpt>
      <trkpt lat="43.81923" lon="7.50841">
        <ele>901</ele>
        <time>2018-06-19T11:47:13Z</time>
      </trkpt>
      <trkpt lat="43.81922" lon="7.50843">
        <ele>901</ele>
        <time>2018-06-19T11:47:25Z</time>
      </trkpt>
      <trkpt lat="43.81918" lon="7.50847">
        <ele>902</ele>
        <time>2018-06-19T11:47:38Z</time>
      </trkpt>
      <trkpt lat="43.81915" lon="7.50846">
        <ele>902</ele>
        <time>2018-06-19T11:47:46Z</time>
      </trkpt>
      <trkpt lat="43.81911" lon="7.50849">
        <ele>903</ele>
        <time>2018-06-19T11:47:58Z</time>
      </trkpt>
      <trkpt lat="43.81911" lon="7.50854">
        <ele>905</ele>
        <time>2018-06-19T11:48:10Z</time>
      </trkpt>
      <trkpt lat="43.81906" lon="7.50859">
        <ele>906</ele>
        <time>2018-06-19T11:48:20Z</time>
      </trkpt>
      <trkpt lat="43.81907" lon="7.50864">
        <ele>906</ele>
        <time>2018-06-19T11:48:32Z</time>
      </trkpt>
      <trkpt lat="43.81906" lon="7.50867">
        <ele>907</ele>
        <time>2018-06-19T11:48:45Z</time>
      </trkpt>
      <trkpt lat="43.81904" lon="7.50877">
        <ele>909</ele>
        <time>2018-06-19T11:48:57Z</time>
      </trkpt>
      <trkpt lat="43.819" lon="7.50879">
        <ele>909</ele>
        <time>2018-06-19T11:49:10Z</time>
      </trkpt>
      <trkpt lat="43.81894" lon="7.50883">
        <ele>909</ele>
        <time>2018-06-19T11:49:25Z</time>
      </trkpt>
      <trkpt lat="43.81891" lon="7.50886">
        <ele>910</ele>
        <time>2018-06-19T11:49:52Z</time>
      </trkpt>
      <trkpt lat="43.81888" lon="7.50894">
        <ele>911</ele>
        <time>2018-06-19T11:50:05Z</time>
      </trkpt>
      <trkpt lat="43.81884" lon="7.509">
        <ele>911</ele>
        <time>2018-06-19T11:50:18Z</time>
      </trkpt>
      <trkpt lat="43.81883" lon="7.50909">
        <ele>912</ele>
        <time>2018-06-19T11:50:31Z</time>
      </trkpt>
      <trkpt lat="43.81879" lon="7.50916">
        <ele>912</ele>
        <time>2018-06-19T11:50:43Z</time>
      </trkpt>
      <trkpt lat="43.81874" lon="7.50924">
        <ele>925</ele>
        <time>2018-06-19T11:50:56Z</time>
      </trkpt>
      <trkpt lat="43.81866" lon="7.50932">
        <ele>926</ele>
        <time>2018-06-19T11:51:09Z</time>
      </trkpt>
      <trkpt lat="43.81866" lon="7.50933">
        <ele>926</ele>
        <time>2018-06-19T11:51:10Z</time>
      </trkpt>
      <trkpt lat="43.81864" lon="7.50934">
        <ele>926</ele>
        <time>2018-06-19T11:51:29Z</time>
      </trkpt>
      <trkpt lat="43.81863" lon="7.50935">
        <ele>926</ele>
        <time>2018-06-19T11:52:57Z</time>
      </trkpt>
      <trkpt lat="43.81862" lon="7.50944">
        <ele>927</ele>
        <time>2018-06-19T11:53:40Z</time>
      </trkpt>
      <trkpt lat="43.81857" lon="7.50953">
        <ele>929</ele>
        <time>2018-06-19T11:53:54Z</time>
      </trkpt>
      <trkpt lat="43.81857" lon="7.5096">
        <ele>930</ele>
        <time>2018-06-19T11:54:09Z</time>
      </trkpt>
      <trkpt lat="43.81855" lon="7.50969">
        <ele>931</ele>
        <time>2018-06-19T11:54:23Z</time>
      </trkpt>
      <trkpt lat="43.81848" lon="7.50977">
        <ele>933</ele>
        <time>2018-06-19T11:54:36Z</time>
      </trkpt>
      <trkpt lat="43.81844" lon="7.50983">
        <ele>935</ele>
        <time>2018-06-19T11:54:49Z</time>
      </trkpt>
      <trkpt lat="43.81838" lon="7.50986">
        <ele>936</ele>
        <time>2018-06-19T11:55:01Z</time>
      </trkpt>
      <trkpt lat="43.81831" lon="7.50987">
        <ele>939</ele>
        <time>2018-06-19T11:55:15Z</time>
      </trkpt>
      <trkpt lat="43.81826" lon="7.50994">
        <ele>940</ele>
        <time>2018-06-19T11:55:28Z</time>
      </trkpt>
      <trkpt lat="43.81819" lon="7.50998">
        <ele>940</ele>
        <time>2018-06-19T11:55:41Z</time>
      </trkpt>
      <trkpt lat="43.81807" lon="7.51002">
        <ele>953</ele>
        <time>2018-06-19T11:55:55Z</time>
      </trkpt>
      <trkpt lat="43.81796" lon="7.51001">
        <ele>954</ele>
        <time>2018-06-19T11:56:09Z</time>
      </trkpt>
      <trkpt lat="43.81789" lon="7.51008">
        <ele>955</ele>
        <time>2018-06-19T11:56:21Z</time>
      </trkpt>
      <trkpt lat="43.81788" lon="7.51011">
        <ele>956</ele>
        <time>2018-06-19T11:56:34Z</time>
      </trkpt>
      <trkpt lat="43.81786" lon="7.51015">
        <ele>956</ele>
        <time>2018-06-19T11:56:48Z</time>
      </trkpt>
      <trkpt lat="43.81785" lon="7.51019">
        <ele>957</ele>
        <time>2018-06-19T11:57:02Z</time>
      </trkpt>
      <trkpt lat="43.81784" lon="7.51023">
        <ele>957</ele>
        <time>2018-06-19T11:57:16Z</time>
      </trkpt>
      <trkpt lat="43.81788" lon="7.51024">
        <ele>957</ele>
        <time>2018-06-19T11:57:31Z</time>
      </trkpt>
      <trkpt lat="43.81791" lon="7.51024">
        <ele>957</ele>
        <time>2018-06-19T11:57:43Z</time>
      </trkpt>
      <trkpt lat="43.81794" lon="7.51027">
        <ele>957</ele>
        <time>2018-06-19T11:57:53Z</time>
      </trkpt>
      <trkpt lat="43.818" lon="7.51034">
        <ele>958</ele>
        <time>2018-06-19T11:58:05Z</time>
      </trkpt>
      <trkpt lat="43.81803" lon="7.51039">
        <ele>958</ele>
        <time>2018-06-19T11:58:17Z</time>
      </trkpt>
      <trkpt lat="43.81806" lon="7.51042">
        <ele>959</ele>
        <time>2018-06-19T11:58:33Z</time>
      </trkpt>
      <trkpt lat="43.8181" lon="7.51046">
        <ele>959</ele>
        <time>2018-06-19T11:58:45Z</time>
      </trkpt>
      <trkpt lat="43.81811" lon="7.51054">
        <ele>961</ele>
        <time>2018-06-19T11:58:59Z</time>
      </trkpt>
      <trkpt lat="43.81815" lon="7.51059">
        <ele>962</ele>
        <time>2018-06-19T11:59:17Z</time>
      </trkpt>
      <trkpt lat="43.81819" lon="7.51066">
        <ele>963</ele>
        <time>2018-06-19T11:59:31Z</time>
      </trkpt>
      <trkpt lat="43.81823" lon="7.51075">
        <ele>965</ele>
        <time>2018-06-19T11:59:46Z</time>
      </trkpt>
      <trkpt lat="43.81824" lon="7.51079">
        <ele>966</ele>
        <time>2018-06-19T11:59:58Z</time>
      </trkpt>
      <trkpt lat="43.81826" lon="7.51084">
        <ele>974</ele>
        <time>2018-06-19T12:00:10Z</time>
      </trkpt>
      <trkpt lat="43.81831" lon="7.51091">
        <ele>974</ele>
        <time>2018-06-19T12:00:23Z</time>
      </trkpt>
      <trkpt lat="43.81835" lon="7.51098">
        <ele>975</ele>
        <time>2018-06-19T12:00:44Z</time>
      </trkpt>
      <trkpt lat="43.81838" lon="7.51102">
        <ele>976</ele>
        <time>2018-06-19T12:00:56Z</time>
      </trkpt>
      <trkpt lat="43.8184" lon="7.51107">
        <ele>978</ele>
        <time>2018-06-19T12:01:12Z</time>
      </trkpt>
      <trkpt lat="43.81845" lon="7.51114">
        <ele>980</ele>
        <time>2018-06-19T12:01:25Z</time>
      </trkpt>
      <trkpt lat="43.81846" lon="7.51119">
        <ele>982</ele>
        <time>2018-06-19T12:01:39Z</time>
      </trkpt>
      <trkpt lat="43.8185" lon="7.51122">
        <ele>982</ele>
        <time>2018-06-19T12:01:59Z</time>
      </trkpt>
      <trkpt lat="43.81856" lon="7.51132">
        <ele>984</ele>
        <time>2018-06-19T12:02:13Z</time>
      </trkpt>
      <trkpt lat="43.81861" lon="7.51137">
        <ele>985</ele>
        <time>2018-06-19T12:02:26Z</time>
      </trkpt>
      <trkpt lat="43.81866" lon="7.51142">
        <ele>986</ele>
        <time>2018-06-19T12:02:38Z</time>
      </trkpt>
      <trkpt lat="43.81869" lon="7.51145">
        <ele>986</ele>
        <time>2018-06-19T12:02:51Z</time>
      </trkpt>
      <trkpt lat="43.81871" lon="7.51148">
        <ele>987</ele>
        <time>2018-06-19T12:03:02Z</time>
      </trkpt>
      <trkpt lat="43.81871" lon="7.51148">
        <ele>987</ele>
        <time>2018-06-19T12:03:15Z</time>
      </trkpt>
      <trkpt lat="43.81866" lon="7.51153">
        <ele>988</ele>
        <time>2018-06-19T12:03:27Z</time>
      </trkpt>
      <trkpt lat="43.81865" lon="7.5116">
        <ele>989</ele>
        <time>2018-06-19T12:03:39Z</time>
      </trkpt>
      <trkpt lat="43.81863" lon="7.51165">
        <ele>989</ele>
        <time>2018-06-19T12:03:56Z</time>
      </trkpt>
      <trkpt lat="43.81865" lon="7.51167">
        <ele>1009</ele>
        <time>2018-06-19T12:04:09Z</time>
      </trkpt>
      <trkpt lat="43.81864" lon="7.51172">
        <ele>1010</ele>
        <time>2018-06-19T12:04:22Z</time>
      </trkpt>
      <trkpt lat="43.81861" lon="7.51177">
        <ele>1010</ele>
        <time>2018-06-19T12:04:34Z</time>
      </trkpt>
      <trkpt lat="43.81859" lon="7.51183">
        <ele>1011</ele>
        <time>2018-06-19T12:04:48Z</time>
      </trkpt>
      <trkpt lat="43.81857" lon="7.5119">
        <ele>1012</ele>
        <time>2018-06-19T12:05:01Z</time>
      </trkpt>
      <trkpt lat="43.81855" lon="7.51192">
        <ele>1012</ele>
        <time>2018-06-19T12:05:15Z</time>
      </trkpt>
      <trkpt lat="43.81848" lon="7.51194">
        <ele>1012</ele>
        <time>2018-06-19T12:05:48Z</time>
      </trkpt>
      <trkpt lat="43.81839" lon="7.51197">
        <ele>1012</ele>
        <time>2018-06-19T12:06:00Z</time>
      </trkpt>
      <trkpt lat="43.81831" lon="7.51203">
        <ele>1013</ele>
        <time>2018-06-19T12:06:13Z</time>
      </trkpt>
      <trkpt lat="43.81828" lon="7.5121">
        <ele>1014</ele>
        <time>2018-06-19T12:06:23Z</time>
      </trkpt>
      <trkpt lat="43.81819" lon="7.51215">
        <ele>1016</ele>
        <time>2018-06-19T12:06:35Z</time>
      </trkpt>
      <trkpt lat="43.8181" lon="7.51217">
        <ele>1016</ele>
        <time>2018-06-19T12:06:47Z</time>
      </trkpt>
      <trkpt lat="43.81806" lon="7.51219">
        <ele>1016</ele>
        <time>2018-06-19T12:06:57Z</time>
      </trkpt>
      <trkpt lat="43.81799" lon="7.51221">
        <ele>1017</ele>
        <time>2018-06-19T12:07:07Z</time>
      </trkpt>
      <trkpt lat="43.81793" lon="7.51227">
        <ele>1018</ele>
        <time>2018-06-19T12:07:19Z</time>
      </trkpt>
      <trkpt lat="43.81785" lon="7.51225">
        <ele>1017</ele>
        <time>2018-06-19T12:07:30Z</time>
      </trkpt>
      <trkpt lat="43.81779" lon="7.51223">
        <ele>1017</ele>
        <time>2018-06-19T12:07:37Z</time>
      </trkpt>
      <trkpt lat="43.81767" lon="7.51221">
        <ele>1018</ele>
        <time>2018-06-19T12:07:50Z</time>
      </trkpt>
      <trkpt lat="43.81759" lon="7.51225">
        <ele>1019</ele>
        <time>2018-06-19T12:08:02Z</time>
      </trkpt>
      <trkpt lat="43.81757" lon="7.51226">
        <ele>1020</ele>
        <time>2018-06-19T12:08:17Z</time>
      </trkpt>
      <trkpt lat="43.81756" lon="7.51233">
        <ele>1022</ele>
        <time>2018-06-19T12:08:32Z</time>
      </trkpt>
      <trkpt lat="43.81754" lon="7.51233">
        <ele>1022</ele>
        <time>2018-06-19T12:08:45Z</time>
      </trkpt>
      <trkpt lat="43.81754" lon="7.51233">
        <ele>1022</ele>
        <time>2018-06-19T12:10:14Z</time>
      </trkpt>
      <trkpt lat="43.81751" lon="7.51235">
        <ele>1023</ele>
        <time>2018-06-19T12:10:31Z</time>
      </trkpt>
      <trkpt lat="43.81746" lon="7.51242">
        <ele>1027</ele>
        <time>2018-06-19T12:10:43Z</time>
      </trkpt>
      <trkpt lat="43.81745" lon="7.51247">
        <ele>1028</ele>
        <time>2018-06-19T12:10:57Z</time>
      </trkpt>
      <trkpt lat="43.81744" lon="7.51251">
        <ele>1034</ele>
        <time>2018-06-19T12:11:10Z</time>
      </trkpt>
      <trkpt lat="43.81739" lon="7.51251">
        <ele>1037</ele>
        <time>2018-06-19T12:11:21Z</time>
      </trkpt>
      <trkpt lat="43.81735" lon="7.51255">
        <ele>1039</ele>
        <time>2018-06-19T12:11:32Z</time>
      </trkpt>
      <trkpt lat="43.81727" lon="7.51258">
        <ele>1042</ele>
        <time>2018-06-19T12:11:44Z</time>
      </trkpt>
      <trkpt lat="43.81718" lon="7.51259">
        <ele>1044</ele>
        <time>2018-06-19T12:11:57Z</time>
      </trkpt>
      <trkpt lat="43.81709" lon="7.51258">
        <ele>1044</ele>
        <time>2018-06-19T12:12:11Z</time>
      </trkpt>
      <trkpt lat="43.81703" lon="7.51262">
        <ele>1045</ele>
        <time>2018-06-19T12:12:22Z</time>
      </trkpt>
      <trkpt lat="43.81697" lon="7.51262">
        <ele>1045</ele>
        <time>2018-06-19T12:12:32Z</time>
      </trkpt>
      <trkpt lat="43.81689" lon="7.51264">
        <ele>1044</ele>
        <time>2018-06-19T12:12:44Z</time>
      </trkpt>
      <trkpt lat="43.81678" lon="7.51267">
        <ele>1044</ele>
        <time>2018-06-19T12:12:57Z</time>
      </trkpt>
      <trkpt lat="43.81672" lon="7.51271">
        <ele>1044</ele>
        <time>2018-06-19T12:13:06Z</time>
      </trkpt>
      <trkpt lat="43.81666" lon="7.51274">
        <ele>1052</ele>
        <time>2018-06-19T12:13:18Z</time>
      </trkpt>
      <trkpt lat="43.81657" lon="7.51275">
        <ele>1054</ele>
        <time>2018-06-19T12:13:30Z</time>
      </trkpt>
      <trkpt lat="43.81653" lon="7.51275">
        <ele>1054</ele>
        <time>2018-06-19T12:13:35Z</time>
      </trkpt>
      <trkpt lat="43.81647" lon="7.51272">
        <ele>1054</ele>
        <time>2018-06-19T12:13:42Z</time>
      </trkpt>
      <trkpt lat="43.81644" lon="7.5127">
        <ele>1054</ele>
        <time>2018-06-19T12:13:45Z</time>
      </trkpt>
      <trkpt lat="43.81633" lon="7.51267">
        <ele>1056</ele>
        <time>2018-06-19T12:14:01Z</time>
      </trkpt>
      <trkpt lat="43.81626" lon="7.51264">
        <ele>1057</ele>
        <time>2018-06-19T12:14:14Z</time>
      </trkpt>
      <trkpt lat="43.81621" lon="7.51266">
        <ele>1058</ele>
        <time>2018-06-19T12:14:25Z</time>
      </trkpt>
      <trkpt lat="43.81613" lon="7.51268">
        <ele>1060</ele>
        <time>2018-06-19T12:14:38Z</time>
      </trkpt>
      <trkpt lat="43.81609" lon="7.51268">
        <ele>1060</ele>
        <time>2018-06-19T12:14:45Z</time>
      </trkpt>
      <trkpt lat="43.81609" lon="7.51268">
        <ele>1060</ele>
        <time>2018-06-19T12:14:46Z</time>
      </trkpt>
      <trkpt lat="43.81608" lon="7.51268">
        <ele>1060</ele>
        <time>2018-06-19T12:14:47Z</time>
      </trkpt>
      <trkpt lat="43.81603" lon="7.51271">
        <ele>1061</ele>
        <time>2018-06-19T12:15:02Z</time>
      </trkpt>
      <trkpt lat="43.81602" lon="7.51272">
        <ele>1061</ele>
        <time>2018-06-19T12:15:06Z</time>
      </trkpt>
      <trkpt lat="43.81598" lon="7.5127">
        <ele>1061</ele>
        <time>2018-06-19T12:15:24Z</time>
      </trkpt>
      <trkpt lat="43.81593" lon="7.51268">
        <ele>1061</ele>
        <time>2018-06-19T12:15:41Z</time>
      </trkpt>
      <trkpt lat="43.81593" lon="7.51272">
        <ele>1061</ele>
        <time>2018-06-19T12:15:46Z</time>
      </trkpt>
      <trkpt lat="43.81594" lon="7.51279">
        <ele>1062</ele>
        <time>2018-06-19T12:15:57Z</time>
      </trkpt>
      <trkpt lat="43.81595" lon="7.5128">
        <ele>1063</ele>
        <time>2018-06-19T12:16:14Z</time>
      </trkpt>
      <trkpt lat="43.81587" lon="7.51282">
        <ele>1063</ele>
        <time>2018-06-19T12:16:28Z</time>
      </trkpt>
      <trkpt lat="43.81584" lon="7.51277">
        <ele>1062</ele>
        <time>2018-06-19T12:16:40Z</time>
      </trkpt>
      <trkpt lat="43.81582" lon="7.5127">
        <ele>1072</ele>
        <time>2018-06-19T12:16:57Z</time>
      </trkpt>
      <trkpt lat="43.81577" lon="7.5126">
        <ele>1068</ele>
        <time>2018-06-19T12:17:09Z</time>
      </trkpt>
      <trkpt lat="43.81574" lon="7.51259">
        <ele>1068</ele>
        <time>2018-06-19T12:17:23Z</time>
      </trkpt>
      <trkpt lat="43.81574" lon="7.51264">
        <ele>1071</ele>
        <time>2018-06-19T12:17:38Z</time>
      </trkpt>
      <trkpt lat="43.8157" lon="7.51265">
        <ele>1073</ele>
        <time>2018-06-19T12:17:51Z</time>
      </trkpt>
      <trkpt lat="43.81566" lon="7.5127">
        <ele>1075</ele>
        <time>2018-06-19T12:18:05Z</time>
      </trkpt>
      <trkpt lat="43.81563" lon="7.51272">
        <ele>1076</ele>
        <time>2018-06-19T12:18:20Z</time>
      </trkpt>
      <trkpt lat="43.81561" lon="7.51273">
        <ele>1077</ele>
        <time>2018-06-19T12:18:32Z</time>
      </trkpt>
      <trkpt lat="43.81555" lon="7.51268">
        <ele>1078</ele>
        <time>2018-06-19T12:18:51Z</time>
      </trkpt>
      <trkpt lat="43.81554" lon="7.51276">
        <ele>1079</ele>
        <time>2018-06-19T12:19:05Z</time>
      </trkpt>
      <trkpt lat="43.81548" lon="7.51277">
        <ele>1080</ele>
        <time>2018-06-19T12:19:16Z</time>
      </trkpt>
      <trkpt lat="43.81548" lon="7.51277">
        <ele>1081</ele>
        <time>2018-06-19T12:19:30Z</time>
      </trkpt>
      <trkpt lat="43.81544" lon="7.51287">
        <ele>1082</ele>
        <time>2018-06-19T12:19:43Z</time>
      </trkpt>
      <trkpt lat="43.81542" lon="7.51296">
        <ele>1083</ele>
        <time>2018-06-19T12:19:57Z</time>
      </trkpt>
      <trkpt lat="43.81537" lon="7.51301">
        <ele>1084</ele>
        <time>2018-06-19T12:20:09Z</time>
      </trkpt>
      <trkpt lat="43.8153" lon="7.51301">
        <ele>1085</ele>
        <time>2018-06-19T12:20:22Z</time>
      </trkpt>
      <trkpt lat="43.81515" lon="7.51299">
        <ele>1087</ele>
        <time>2018-06-19T12:20:35Z</time>
      </trkpt>
      <trkpt lat="43.81506" lon="7.51299">
        <ele>1088</ele>
        <time>2018-06-19T12:20:47Z</time>
      </trkpt>
      <trkpt lat="43.81496" lon="7.51299">
        <ele>1087</ele>
        <time>2018-06-19T12:21:01Z</time>
      </trkpt>
      <trkpt lat="43.81493" lon="7.513">
        <ele>1087</ele>
        <time>2018-06-19T12:21:16Z</time>
      </trkpt>
      <trkpt lat="43.8149" lon="7.51303">
        <ele>1086</ele>
        <time>2018-06-19T12:21:49Z</time>
      </trkpt>
      <trkpt lat="43.81484" lon="7.51306">
        <ele>1086</ele>
        <time>2018-06-19T12:22:02Z</time>
      </trkpt>
      <trkpt lat="43.81481" lon="7.51303">
        <ele>1085</ele>
        <time>2018-06-19T12:22:17Z</time>
      </trkpt>
      <trkpt lat="43.8148" lon="7.51302">
        <ele>1085</ele>
        <time>2018-06-19T12:22:46Z</time>
      </trkpt>
      <trkpt lat="43.8148" lon="7.51302">
        <ele>1085</ele>
        <time>2018-06-19T12:25:07Z</time>
      </trkpt>
      <trkpt lat="43.81478" lon="7.513">
        <ele>1085</ele>
        <time>2018-06-19T12:30:16Z</time>
      </trkpt>
      <trkpt lat="43.81478" lon="7.51301">
        <ele>1085</ele>
        <time>2018-06-19T12:30:34Z</time>
      </trkpt>
      <trkpt lat="43.81477" lon="7.51296">
        <ele>1085</ele>
        <time>2018-06-19T12:31:21Z</time>
      </trkpt>
      <trkpt lat="43.81475" lon="7.5129">
        <ele>1085</ele>
        <time>2018-06-19T12:31:34Z</time>
      </trkpt>
      <trkpt lat="43.8147" lon="7.51284">
        <ele>1084</ele>
        <time>2018-06-19T12:31:46Z</time>
      </trkpt>
      <trkpt lat="43.81464" lon="7.51278">
        <ele>1084</ele>
        <time>2018-06-19T12:32:00Z</time>
      </trkpt>
      <trkpt lat="43.81456" lon="7.51278">
        <ele>1083</ele>
        <time>2018-06-19T12:32:13Z</time>
      </trkpt>
      <trkpt lat="43.81452" lon="7.51275">
        <ele>1082</ele>
        <time>2018-06-19T12:32:30Z</time>
      </trkpt>
      <trkpt lat="43.81449" lon="7.51278">
        <ele>1082</ele>
        <time>2018-06-19T12:32:46Z</time>
      </trkpt>
      <trkpt lat="43.81447" lon="7.51278">
        <ele>1081</ele>
        <time>2018-06-19T12:33:01Z</time>
      </trkpt>
      <trkpt lat="43.8144" lon="7.51278">
        <ele>1081</ele>
        <time>2018-06-19T12:33:14Z</time>
      </trkpt>
      <trkpt lat="43.81435" lon="7.51276">
        <ele>1080</ele>
        <time>2018-06-19T12:33:24Z</time>
      </trkpt>
      <trkpt lat="43.8143" lon="7.51274">
        <ele>1080</ele>
        <time>2018-06-19T12:33:35Z</time>
      </trkpt>
      <trkpt lat="43.81424" lon="7.51275">
        <ele>1080</ele>
        <time>2018-06-19T12:33:47Z</time>
      </trkpt>
      <trkpt lat="43.81415" lon="7.51269">
        <ele>1062</ele>
        <time>2018-06-19T12:34:01Z</time>
      </trkpt>
      <trkpt lat="43.81411" lon="7.5127">
        <ele>1061</ele>
        <time>2018-06-19T12:34:14Z</time>
      </trkpt>
      <trkpt lat="43.81407" lon="7.51269">
        <ele>1061</ele>
        <time>2018-06-19T12:34:26Z</time>
      </trkpt>
      <trkpt lat="43.814" lon="7.51268">
        <ele>1059</ele>
        <time>2018-06-19T12:34:37Z</time>
      </trkpt>
      <trkpt lat="43.81396" lon="7.51265">
        <ele>1057</ele>
        <time>2018-06-19T12:34:50Z</time>
      </trkpt>
      <trkpt lat="43.81393" lon="7.51269">
        <ele>1055</ele>
        <time>2018-06-19T12:35:06Z</time>
      </trkpt>
      <trkpt lat="43.81388" lon="7.5127">
        <ele>1053</ele>
        <time>2018-06-19T12:35:18Z</time>
      </trkpt>
      <trkpt lat="43.81382" lon="7.51269">
        <ele>1051</ele>
        <time>2018-06-19T12:35:29Z</time>
      </trkpt>
      <trkpt lat="43.81376" lon="7.51264">
        <ele>1049</ele>
        <time>2018-06-19T12:35:44Z</time>
      </trkpt>
      <trkpt lat="43.81374" lon="7.5127">
        <ele>1048</ele>
        <time>2018-06-19T12:35:56Z</time>
      </trkpt>
      <trkpt lat="43.81371" lon="7.51273">
        <ele>1046</ele>
        <time>2018-06-19T12:36:08Z</time>
      </trkpt>
      <trkpt lat="43.81372" lon="7.51273">
        <ele>1047</ele>
        <time>2018-06-19T12:36:22Z</time>
      </trkpt>
      <trkpt lat="43.81373" lon="7.51287">
        <ele>1045</ele>
        <time>2018-06-19T12:36:34Z</time>
      </trkpt>
      <trkpt lat="43.81376" lon="7.51298">
        <ele>1045</ele>
        <time>2018-06-19T12:36:47Z</time>
      </trkpt>
      <trkpt lat="43.81375" lon="7.51309">
        <ele>1044</ele>
        <time>2018-06-19T12:36:59Z</time>
      </trkpt>
      <trkpt lat="43.81375" lon="7.51313">
        <ele>1043</ele>
        <time>2018-06-19T12:37:02Z</time>
      </trkpt>
      <trkpt lat="43.81375" lon="7.51324">
        <ele>1042</ele>
        <time>2018-06-19T12:37:14Z</time>
      </trkpt>
      <trkpt lat="43.81376" lon="7.51335">
        <ele>1039</ele>
        <time>2018-06-19T12:37:21Z</time>
      </trkpt>
      <trkpt lat="43.81374" lon="7.51351">
        <ele>1038</ele>
        <time>2018-06-19T12:37:33Z</time>
      </trkpt>
      <trkpt lat="43.8137" lon="7.51362">
        <ele>1038</ele>
        <time>2018-06-19T12:37:44Z</time>
      </trkpt>
      <trkpt lat="43.81366" lon="7.51372">
        <ele>1037</ele>
        <time>2018-06-19T12:37:56Z</time>
      </trkpt>
      <trkpt lat="43.8136" lon="7.5138">
        <ele>1036</ele>
        <time>2018-06-19T12:38:08Z</time>
      </trkpt>
      <trkpt lat="43.81354" lon="7.51394">
        <ele>1033</ele>
        <time>2018-06-19T12:38:21Z</time>
      </trkpt>
      <trkpt lat="43.81347" lon="7.51399">
        <ele>1030</ele>
        <time>2018-06-19T12:38:34Z</time>
      </trkpt>
      <trkpt lat="43.8134" lon="7.51408">
        <ele>1025</ele>
        <time>2018-06-19T12:38:47Z</time>
      </trkpt>
      <trkpt lat="43.81336" lon="7.51407">
        <ele>1023</ele>
        <time>2018-06-19T12:38:54Z</time>
      </trkpt>
      <trkpt lat="43.81334" lon="7.51407">
        <ele>1023</ele>
        <time>2018-06-19T12:39:15Z</time>
      </trkpt>
      <trkpt lat="43.81328" lon="7.51412">
        <ele>1010</ele>
        <time>2018-06-19T12:39:51Z</time>
      </trkpt>
      <trkpt lat="43.81323" lon="7.51415">
        <ele>1008</ele>
        <time>2018-06-19T12:40:05Z</time>
      </trkpt>
      <trkpt lat="43.81318" lon="7.51419">
        <ele>1007</ele>
        <time>2018-06-19T12:40:19Z</time>
      </trkpt>
      <trkpt lat="43.81315" lon="7.5141">
        <ele>1002</ele>
        <time>2018-06-19T12:40:31Z</time>
      </trkpt>
      <trkpt lat="43.81314" lon="7.51402">
        <ele>1001</ele>
        <time>2018-06-19T12:40:44Z</time>
      </trkpt>
      <trkpt lat="43.81308" lon="7.51407">
        <ele>999</ele>
        <time>2018-06-19T12:41:01Z</time>
      </trkpt>
      <trkpt lat="43.81302" lon="7.51412">
        <ele>996</ele>
        <time>2018-06-19T12:41:15Z</time>
      </trkpt>
      <trkpt lat="43.81294" lon="7.51418">
        <ele>997</ele>
        <time>2018-06-19T12:41:28Z</time>
      </trkpt>
      <trkpt lat="43.81289" lon="7.51424">
        <ele>995</ele>
        <time>2018-06-19T12:41:42Z</time>
      </trkpt>
      <trkpt lat="43.81284" lon="7.51425">
        <ele>993</ele>
        <time>2018-06-19T12:41:55Z</time>
      </trkpt>
      <trkpt lat="43.81279" lon="7.5143">
        <ele>991</ele>
        <time>2018-06-19T12:42:08Z</time>
      </trkpt>
      <trkpt lat="43.81278" lon="7.51432">
        <ele>991</ele>
        <time>2018-06-19T12:42:11Z</time>
      </trkpt>
      <trkpt lat="43.81271" lon="7.51439">
        <ele>990</ele>
        <time>2018-06-19T12:42:24Z</time>
      </trkpt>
      <trkpt lat="43.81269" lon="7.51433">
        <ele>987</ele>
        <time>2018-06-19T12:42:38Z</time>
      </trkpt>
      <trkpt lat="43.81267" lon="7.51424">
        <ele>983</ele>
        <time>2018-06-19T12:42:51Z</time>
      </trkpt>
      <trkpt lat="43.81266" lon="7.5141">
        <ele>979</ele>
        <time>2018-06-19T12:43:08Z</time>
      </trkpt>
      <trkpt lat="43.81263" lon="7.51406">
        <ele>978</ele>
        <time>2018-06-19T12:43:24Z</time>
      </trkpt>
      <trkpt lat="43.81258" lon="7.51408">
        <ele>975</ele>
        <time>2018-06-19T12:43:36Z</time>
      </trkpt>
      <trkpt lat="43.81256" lon="7.51398">
        <ele>979</ele>
        <time>2018-06-19T12:43:50Z</time>
      </trkpt>
      <trkpt lat="43.8125" lon="7.51401">
        <ele>959</ele>
        <time>2018-06-19T12:44:03Z</time>
      </trkpt>
      <trkpt lat="43.81249" lon="7.51389">
        <ele>957</ele>
        <time>2018-06-19T12:44:18Z</time>
      </trkpt>
      <trkpt lat="43.81243" lon="7.51396">
        <ele>957</ele>
        <time>2018-06-19T12:44:33Z</time>
      </trkpt>
      <trkpt lat="43.81237" lon="7.51404">
        <ele>957</ele>
        <time>2018-06-19T12:44:47Z</time>
      </trkpt>
      <trkpt lat="43.81233" lon="7.51408">
        <ele>956</ele>
        <time>2018-06-19T12:45:00Z</time>
      </trkpt>
      <trkpt lat="43.81226" lon="7.51415">
        <ele>954</ele>
        <time>2018-06-19T12:45:12Z</time>
      </trkpt>
      <trkpt lat="43.81222" lon="7.51423">
        <ele>953</ele>
        <time>2018-06-19T12:45:24Z</time>
      </trkpt>
      <trkpt lat="43.81219" lon="7.51418">
        <ele>951</ele>
        <time>2018-06-19T12:45:37Z</time>
      </trkpt>
      <trkpt lat="43.81215" lon="7.51413">
        <ele>950</ele>
        <time>2018-06-19T12:45:52Z</time>
      </trkpt>
      <trkpt lat="43.81211" lon="7.51425">
        <ele>949</ele>
        <time>2018-06-19T12:46:06Z</time>
      </trkpt>
      <trkpt lat="43.81207" lon="7.51422">
        <ele>947</ele>
        <time>2018-06-19T12:46:20Z</time>
      </trkpt>
      <trkpt lat="43.81202" lon="7.51421">
        <ele>945</ele>
        <time>2018-06-19T12:46:33Z</time>
      </trkpt>
      <trkpt lat="43.81196" lon="7.51426">
        <ele>943</ele>
        <time>2018-06-19T12:46:46Z</time>
      </trkpt>
      <trkpt lat="43.8119" lon="7.51422">
        <ele>939</ele>
        <time>2018-06-19T12:46:59Z</time>
      </trkpt>
      <trkpt lat="43.81189" lon="7.51426">
        <ele>939</ele>
        <time>2018-06-19T12:47:03Z</time>
      </trkpt>
      <trkpt lat="43.81182" lon="7.51435">
        <ele>939</ele>
        <time>2018-06-19T12:47:17Z</time>
      </trkpt>
      <trkpt lat="43.81175" lon="7.51438">
        <ele>937</ele>
        <time>2018-06-19T12:47:29Z</time>
      </trkpt>
      <trkpt lat="43.81169" lon="7.51441">
        <ele>937</ele>
        <time>2018-06-19T12:47:40Z</time>
      </trkpt>
      <trkpt lat="43.81164" lon="7.51444">
        <ele>912</ele>
        <time>2018-06-19T12:47:54Z</time>
      </trkpt>
      <trkpt lat="43.81159" lon="7.51437">
        <ele>913</ele>
        <time>2018-06-19T12:48:07Z</time>
      </trkpt>
      <trkpt lat="43.81159" lon="7.51428">
        <ele>915</ele>
        <time>2018-06-19T12:48:20Z</time>
      </trkpt>
      <trkpt lat="43.81156" lon="7.51429">
        <ele>913</ele>
        <time>2018-06-19T12:48:32Z</time>
      </trkpt>
      <trkpt lat="43.81149" lon="7.51434">
        <ele>911</ele>
        <time>2018-06-19T12:48:47Z</time>
      </trkpt>
      <trkpt lat="43.81142" lon="7.51443">
        <ele>908</ele>
        <time>2018-06-19T12:49:02Z</time>
      </trkpt>
      <trkpt lat="43.81137" lon="7.51433">
        <ele>907</ele>
        <time>2018-06-19T12:49:15Z</time>
      </trkpt>
      <trkpt lat="43.81135" lon="7.51421">
        <ele>906</ele>
        <time>2018-06-19T12:49:28Z</time>
      </trkpt>
      <trkpt lat="43.81134" lon="7.51412">
        <ele>908</ele>
        <time>2018-06-19T12:49:38Z</time>
      </trkpt>
      <trkpt lat="43.81129" lon="7.51419">
        <ele>904</ele>
        <time>2018-06-19T12:49:52Z</time>
      </trkpt>
      <trkpt lat="43.81124" lon="7.51424">
        <ele>902</ele>
        <time>2018-06-19T12:50:02Z</time>
      </trkpt>
      <trkpt lat="43.81117" lon="7.5143">
        <ele>899</ele>
        <time>2018-06-19T12:50:17Z</time>
      </trkpt>
      <trkpt lat="43.81116" lon="7.51431">
        <ele>899</ele>
        <time>2018-06-19T12:50:19Z</time>
      </trkpt>
      <trkpt lat="43.81108" lon="7.51437">
        <ele>897</ele>
        <time>2018-06-19T12:50:32Z</time>
      </trkpt>
      <trkpt lat="43.81105" lon="7.51438">
        <ele>896</ele>
        <time>2018-06-19T12:50:47Z</time>
      </trkpt>
      <trkpt lat="43.81105" lon="7.51438">
        <ele>896</ele>
        <time>2018-06-19T12:51:25Z</time>
      </trkpt>
      <trkpt lat="43.81104" lon="7.51433">
        <ele>895</ele>
        <time>2018-06-19T12:52:27Z</time>
      </trkpt>
      <trkpt lat="43.811" lon="7.51425">
        <ele>891</ele>
        <time>2018-06-19T12:52:40Z</time>
      </trkpt>
      <trkpt lat="43.81095" lon="7.51422">
        <ele>887</ele>
        <time>2018-06-19T12:52:55Z</time>
      </trkpt>
      <trkpt lat="43.81095" lon="7.51419">
        <ele>887</ele>
        <time>2018-06-19T12:53:10Z</time>
      </trkpt>
      <trkpt lat="43.81092" lon="7.51415">
        <ele>885</ele>
        <time>2018-06-19T12:53:22Z</time>
      </trkpt>
      <trkpt lat="43.81092" lon="7.51415">
        <ele>885</ele>
        <time>2018-06-19T12:53:37Z</time>
      </trkpt>
      <trkpt lat="43.81082" lon="7.5142">
        <ele>874</ele>
        <time>2018-06-19T12:53:49Z</time>
      </trkpt>
      <trkpt lat="43.81073" lon="7.51433">
        <ele>867</ele>
        <time>2018-06-19T12:54:01Z</time>
      </trkpt>
      <trkpt lat="43.81069" lon="7.51438">
        <ele>866</ele>
        <time>2018-06-19T12:54:13Z</time>
      </trkpt>
      <trkpt lat="43.81061" lon="7.51448">
        <ele>863</ele>
        <time>2018-06-19T12:54:26Z</time>
      </trkpt>
      <trkpt lat="43.81057" lon="7.51445">
        <ele>862</ele>
        <time>2018-06-19T12:54:40Z</time>
      </trkpt>
      <trkpt lat="43.81057" lon="7.51445">
        <ele>862</ele>
        <time>2018-06-19T12:54:53Z</time>
      </trkpt>
      <trkpt lat="43.81057" lon="7.51445">
        <ele>862</ele>
        <time>2018-06-19T12:55:08Z</time>
      </trkpt>
      <trkpt lat="43.81057" lon="7.51445">
        <ele>862</ele>
        <time>2018-06-19T12:55:11Z</time>
      </trkpt>
      <trkpt lat="43.81055" lon="7.51444">
        <ele>862</ele>
        <time>2018-06-19T12:55:13Z</time>
      </trkpt>
      <trkpt lat="43.81046" lon="7.51436">
        <ele>859</ele>
        <time>2018-06-19T12:55:28Z</time>
      </trkpt>
      <trkpt lat="43.81044" lon="7.51434">
        <ele>858</ele>
        <time>2018-06-19T12:55:45Z</time>
      </trkpt>
      <trkpt lat="43.81044" lon="7.51434">
        <ele>858</ele>
        <time>2018-06-19T12:56:00Z</time>
      </trkpt>
      <trkpt lat="43.81044" lon="7.51434">
        <ele>858</ele>
        <time>2018-06-19T12:56:13Z</time>
      </trkpt>
      <trkpt lat="43.81044" lon="7.51434">
        <ele>858</ele>
        <time>2018-06-19T12:56:28Z</time>
      </trkpt>
      <trkpt lat="43.81044" lon="7.51435">
        <ele>858</ele>
        <time>2018-06-19T12:57:08Z</time>
      </trkpt>
      <trkpt lat="43.81044" lon="7.51435">
        <ele>858</ele>
        <time>2018-06-19T12:58:05Z</time>
      </trkpt>
      <trkpt lat="43.8104" lon="7.51438">
        <ele>857</ele>
        <time>2018-06-19T12:59:23Z</time>
      </trkpt>
      <trkpt lat="43.81034" lon="7.51441">
        <ele>855</ele>
        <time>2018-06-19T12:59:34Z</time>
      </trkpt>
      <trkpt lat="43.81027" lon="7.51445">
        <ele>854</ele>
        <time>2018-06-19T12:59:49Z</time>
      </trkpt>
      <trkpt lat="43.81027" lon="7.51445">
        <ele>854</ele>
        <time>2018-06-19T13:00:06Z</time>
      </trkpt>
      <trkpt lat="43.81021" lon="7.51446">
        <ele>852</ele>
        <time>2018-06-19T13:00:19Z</time>
      </trkpt>
      <trkpt lat="43.81017" lon="7.51446">
        <ele>851</ele>
        <time>2018-06-19T13:00:31Z</time>
      </trkpt>
      <trkpt lat="43.81006" lon="7.51454">
        <ele>850</ele>
        <time>2018-06-19T13:00:44Z</time>
      </trkpt>
      <trkpt lat="43.81006" lon="7.51454">
        <ele>850</ele>
        <time>2018-06-19T13:00:57Z</time>
      </trkpt>
      <trkpt lat="43.8099" lon="7.51462">
        <ele>823</ele>
        <time>2018-06-19T13:01:09Z</time>
      </trkpt>
      <trkpt lat="43.80975" lon="7.5147">
        <ele>821</ele>
        <time>2018-06-19T13:01:21Z</time>
      </trkpt>
      <trkpt lat="43.80967" lon="7.51477">
        <ele>819</ele>
        <time>2018-06-19T13:01:35Z</time>
      </trkpt>
      <trkpt lat="43.80961" lon="7.51482">
        <ele>817</ele>
        <time>2018-06-19T13:01:51Z</time>
      </trkpt>
      <trkpt lat="43.80958" lon="7.51485">
        <ele>816</ele>
        <time>2018-06-19T13:01:54Z</time>
      </trkpt>
      <trkpt lat="43.80955" lon="7.51487">
        <ele>815</ele>
        <time>2018-06-19T13:01:57Z</time>
      </trkpt>
      <trkpt lat="43.80944" lon="7.51494">
        <ele>811</ele>
        <time>2018-06-19T13:02:10Z</time>
      </trkpt>
      <trkpt lat="43.80933" lon="7.51495">
        <ele>807</ele>
        <time>2018-06-19T13:02:25Z</time>
      </trkpt>
      <trkpt lat="43.80922" lon="7.51496">
        <ele>801</ele>
        <time>2018-06-19T13:02:37Z</time>
      </trkpt>
      <trkpt lat="43.80916" lon="7.51494">
        <ele>793</ele>
        <time>2018-06-19T13:02:43Z</time>
      </trkpt>
      <trkpt lat="43.80908" lon="7.51502">
        <ele>794</ele>
        <time>2018-06-19T13:02:56Z</time>
      </trkpt>
      <trkpt lat="43.809" lon="7.51508">
        <ele>792</ele>
        <time>2018-06-19T13:03:09Z</time>
      </trkpt>
      <trkpt lat="43.80893" lon="7.51515">
        <ele>790</ele>
        <time>2018-06-19T13:03:22Z</time>
      </trkpt>
      <trkpt lat="43.80886" lon="7.51513">
        <ele>789</ele>
        <time>2018-06-19T13:03:38Z</time>
      </trkpt>
      <trkpt lat="43.80884" lon="7.51511">
        <ele>788</ele>
        <time>2018-06-19T13:03:50Z</time>
      </trkpt>
      <trkpt lat="43.80878" lon="7.51505">
        <ele>786</ele>
        <time>2018-06-19T13:04:03Z</time>
      </trkpt>
      <trkpt lat="43.80874" lon="7.51506">
        <ele>785</ele>
        <time>2018-06-19T13:04:14Z</time>
      </trkpt>
      <trkpt lat="43.80866" lon="7.51505">
        <ele>782</ele>
        <time>2018-06-19T13:04:29Z</time>
      </trkpt>
      <trkpt lat="43.80865" lon="7.51506">
        <ele>782</ele>
        <time>2018-06-19T13:04:31Z</time>
      </trkpt>
      <trkpt lat="43.80861" lon="7.51505">
        <ele>780</ele>
        <time>2018-06-19T13:04:44Z</time>
      </trkpt>
      <trkpt lat="43.80856" lon="7.51505">
        <ele>778</ele>
        <time>2018-06-19T13:05:01Z</time>
      </trkpt>
      <trkpt lat="43.80855" lon="7.51505">
        <ele>778</ele>
        <time>2018-06-19T13:05:14Z</time>
      </trkpt>
      <trkpt lat="43.80853" lon="7.51508">
        <ele>777</ele>
        <time>2018-06-19T13:05:50Z</time>
      </trkpt>
      <trkpt lat="43.80852" lon="7.51508">
        <ele>776</ele>
        <time>2018-06-19T13:06:02Z</time>
      </trkpt>
      <trkpt lat="43.80851" lon="7.51507">
        <ele>776</ele>
        <time>2018-06-19T13:06:52Z</time>
      </trkpt>
      <trkpt lat="43.8085" lon="7.51508">
        <ele>776</ele>
        <time>2018-06-19T13:13:16Z</time>
      </trkpt>
      <trkpt lat="43.80849" lon="7.51508">
        <ele>775</ele>
        <time>2018-06-19T13:14:00Z</time>
      </trkpt>
      <trkpt lat="43.80849" lon="7.51508">
        <ele>775</ele>
        <time>2018-06-19T13:14:40Z</time>
      </trkpt>
      <trkpt lat="43.80843" lon="7.51508">
        <ele>772</ele>
        <time>2018-06-19T13:15:16Z</time>
      </trkpt>
      <trkpt lat="43.80839" lon="7.51506">
        <ele>770</ele>
        <time>2018-06-19T13:15:32Z</time>
      </trkpt>
      <trkpt lat="43.80834" lon="7.51508">
        <ele>769</ele>
        <time>2018-06-19T13:15:44Z</time>
      </trkpt>
      <trkpt lat="43.80831" lon="7.51496">
        <ele>759</ele>
        <time>2018-06-19T13:15:59Z</time>
      </trkpt>
      <trkpt lat="43.80828" lon="7.51494">
        <ele>758</ele>
        <time>2018-06-19T13:16:12Z</time>
      </trkpt>
      <trkpt lat="43.80824" lon="7.51494">
        <ele>756</ele>
        <time>2018-06-19T13:16:24Z</time>
      </trkpt>
      <trkpt lat="43.80816" lon="7.51495">
        <ele>754</ele>
        <time>2018-06-19T13:16:36Z</time>
      </trkpt>
      <trkpt lat="43.80807" lon="7.51494">
        <ele>751</ele>
        <time>2018-06-19T13:16:49Z</time>
      </trkpt>
      <trkpt lat="43.80802" lon="7.51491">
        <ele>750</ele>
        <time>2018-06-19T13:16:58Z</time>
      </trkpt>
      <trkpt lat="43.80792" lon="7.51491">
        <ele>748</ele>
        <time>2018-06-19T13:17:11Z</time>
      </trkpt>
      <trkpt lat="43.80784" lon="7.51489">
        <ele>746</ele>
        <time>2018-06-19T13:17:24Z</time>
      </trkpt>
      <trkpt lat="43.80777" lon="7.51492">
        <ele>745</ele>
        <time>2018-06-19T13:17:37Z</time>
      </trkpt>
      <trkpt lat="43.80774" lon="7.51486">
        <ele>745</ele>
        <time>2018-06-19T13:17:49Z</time>
      </trkpt>
      <trkpt lat="43.80776" lon="7.51482">
        <ele>744</ele>
        <time>2018-06-19T13:18:04Z</time>
      </trkpt>
      <trkpt lat="43.80777" lon="7.51479">
        <ele>744</ele>
        <time>2018-06-19T13:18:08Z</time>
      </trkpt>
      <trkpt lat="43.80779" lon="7.51473">
        <ele>744</ele>
        <time>2018-06-19T13:18:14Z</time>
      </trkpt>
      <trkpt lat="43.80782" lon="7.51469">
        <ele>744</ele>
        <time>2018-06-19T13:18:18Z</time>
      </trkpt>
      <trkpt lat="43.80787" lon="7.51456">
        <ele>744</ele>
        <time>2018-06-19T13:18:30Z</time>
      </trkpt>
      <trkpt lat="43.80791" lon="7.51439">
        <ele>743</ele>
        <time>2018-06-19T13:18:44Z</time>
      </trkpt>
      <trkpt lat="43.8079" lon="7.51433">
        <ele>742</ele>
        <time>2018-06-19T13:18:49Z</time>
      </trkpt>
      <trkpt lat="43.8079" lon="7.51422">
        <ele>741</ele>
        <time>2018-06-19T13:18:59Z</time>
      </trkpt>
      <trkpt lat="43.80787" lon="7.51418">
        <ele>740</ele>
        <time>2018-06-19T13:19:03Z</time>
      </trkpt>
      <trkpt lat="43.80787" lon="7.51409">
        <ele>728</ele>
        <time>2018-06-19T13:19:15Z</time>
      </trkpt>
      <trkpt lat="43.80781" lon="7.51408">
        <ele>726</ele>
        <time>2018-06-19T13:19:27Z</time>
      </trkpt>
      <trkpt lat="43.80775" lon="7.51404">
        <ele>724</ele>
        <time>2018-06-19T13:19:40Z</time>
      </trkpt>
      <trkpt lat="43.80771" lon="7.51405">
        <ele>723</ele>
        <time>2018-06-19T13:19:47Z</time>
      </trkpt>
      <trkpt lat="43.80763" lon="7.51412">
        <ele>720</ele>
        <time>2018-06-19T13:19:59Z</time>
      </trkpt>
      <trkpt lat="43.80755" lon="7.51424">
        <ele>723</ele>
        <time>2018-06-19T13:20:12Z</time>
      </trkpt>
      <trkpt lat="43.80746" lon="7.51425">
        <ele>717</ele>
        <time>2018-06-19T13:20:24Z</time>
      </trkpt>
      <trkpt lat="43.80733" lon="7.5143">
        <ele>719</ele>
        <time>2018-06-19T13:20:37Z</time>
      </trkpt>
      <trkpt lat="43.8073" lon="7.51432">
        <ele>719</ele>
        <time>2018-06-19T13:20:40Z</time>
      </trkpt>
      <trkpt lat="43.80727" lon="7.51434">
        <ele>719</ele>
        <time>2018-06-19T13:20:56Z</time>
      </trkpt>
      <trkpt lat="43.80727" lon="7.51434">
        <ele>719</ele>
        <time>2018-06-19T13:21:33Z</time>
      </trkpt>
      <trkpt lat="43.80722" lon="7.51437">
        <ele>720</ele>
        <time>2018-06-19T13:21:56Z</time>
      </trkpt>
      <trkpt lat="43.80713" lon="7.51445">
        <ele>720</ele>
        <time>2018-06-19T13:22:08Z</time>
      </trkpt>
      <trkpt lat="43.8071" lon="7.51447">
        <ele>720</ele>
        <time>2018-06-19T13:22:11Z</time>
      </trkpt>
      <trkpt lat="43.80697" lon="7.51455">
        <ele>721</ele>
        <time>2018-06-19T13:22:26Z</time>
      </trkpt>
      <trkpt lat="43.80696" lon="7.51455">
        <ele>721</ele>
        <time>2018-06-19T13:22:27Z</time>
      </trkpt>
      <trkpt lat="43.80689" lon="7.51467">
        <ele>722</ele>
        <time>2018-06-19T13:22:39Z</time>
      </trkpt>
      <trkpt lat="43.80671" lon="7.5147">
        <ele>722</ele>
        <time>2018-06-19T13:22:53Z</time>
      </trkpt>
      <trkpt lat="43.8066" lon="7.51476">
        <ele>720</ele>
        <time>2018-06-19T13:23:04Z</time>
      </trkpt>
      <trkpt lat="43.80645" lon="7.51488">
        <ele>720</ele>
        <time>2018-06-19T13:23:19Z</time>
      </trkpt>
      <trkpt lat="43.8064" lon="7.51488">
        <ele>720</ele>
        <time>2018-06-19T13:23:23Z</time>
      </trkpt>
      <trkpt lat="43.80629" lon="7.51484">
        <ele>719</ele>
        <time>2018-06-19T13:23:32Z</time>
      </trkpt>
      <trkpt lat="43.80626" lon="7.51483">
        <ele>719</ele>
        <time>2018-06-19T13:23:35Z</time>
      </trkpt>
      <trkpt lat="43.80607" lon="7.5148">
        <ele>719</ele>
        <time>2018-06-19T13:23:49Z</time>
      </trkpt>
      <trkpt lat="43.80589" lon="7.51476">
        <ele>719</ele>
        <time>2018-06-19T13:24:04Z</time>
      </trkpt>
      <trkpt lat="43.80575" lon="7.51473">
        <ele>721</ele>
        <time>2018-06-19T13:24:17Z</time>
      </trkpt>
      <trkpt lat="43.80563" lon="7.5147">
        <ele>721</ele>
        <time>2018-06-19T13:24:30Z</time>
      </trkpt>
      <trkpt lat="43.8055" lon="7.51463">
        <ele>721</ele>
        <time>2018-06-19T13:24:45Z</time>
      </trkpt>
      <trkpt lat="43.80537" lon="7.51454">
        <ele>721</ele>
        <time>2018-06-19T13:24:58Z</time>
      </trkpt>
      <trkpt lat="43.80527" lon="7.51447">
        <ele>721</ele>
        <time>2018-06-19T13:25:10Z</time>
      </trkpt>
      <trkpt lat="43.80524" lon="7.51445">
        <ele>721</ele>
        <time>2018-06-19T13:25:13Z</time>
      </trkpt>
      <trkpt lat="43.80514" lon="7.51437">
        <ele>721</ele>
        <time>2018-06-19T13:25:27Z</time>
      </trkpt>
      <trkpt lat="43.80508" lon="7.51437">
        <ele>721</ele>
        <time>2018-06-19T13:25:38Z</time>
      </trkpt>
      <trkpt lat="43.80494" lon="7.51433">
        <ele>719</ele>
        <time>2018-06-19T13:25:50Z</time>
      </trkpt>
      <trkpt lat="43.80478" lon="7.51441">
        <ele>717</ele>
        <time>2018-06-19T13:26:04Z</time>
      </trkpt>
      <trkpt lat="43.80458" lon="7.51448">
        <ele>716</ele>
        <time>2018-06-19T13:26:18Z</time>
      </trkpt>
      <trkpt lat="43.80444" lon="7.5146">
        <ele>716</ele>
        <time>2018-06-19T13:26:31Z</time>
      </trkpt>
      <trkpt lat="43.80438" lon="7.51465">
        <ele>716</ele>
        <time>2018-06-19T13:26:37Z</time>
      </trkpt>
      <trkpt lat="43.80425" lon="7.51479">
        <ele>718</ele>
        <time>2018-06-19T13:26:53Z</time>
      </trkpt>
      <trkpt lat="43.80413" lon="7.51492">
        <ele>716</ele>
        <time>2018-06-19T13:27:07Z</time>
      </trkpt>
      <trkpt lat="43.80404" lon="7.51507">
        <ele>723</ele>
        <time>2018-06-19T13:27:20Z</time>
      </trkpt>
      <trkpt lat="43.80402" lon="7.51509">
        <ele>723</ele>
        <time>2018-06-19T13:27:22Z</time>
      </trkpt>
      <trkpt lat="43.80386" lon="7.5152">
        <ele>723</ele>
        <time>2018-06-19T13:27:38Z</time>
      </trkpt>
      <trkpt lat="43.80383" lon="7.51521">
        <ele>723</ele>
        <time>2018-06-19T13:27:41Z</time>
      </trkpt>
      <trkpt lat="43.80381" lon="7.51522">
        <ele>723</ele>
        <time>2018-06-19T13:27:43Z</time>
      </trkpt>
      <trkpt lat="43.80378" lon="7.51526">
        <ele>723</ele>
        <time>2018-06-19T13:27:47Z</time>
      </trkpt>
      <trkpt lat="43.80367" lon="7.51543">
        <ele>724</ele>
        <time>2018-06-19T13:28:03Z</time>
      </trkpt>
      <trkpt lat="43.80365" lon="7.51546">
        <ele>724</ele>
        <time>2018-06-19T13:28:06Z</time>
      </trkpt>
      <trkpt lat="43.8036" lon="7.51557">
        <ele>725</ele>
        <time>2018-06-19T13:28:15Z</time>
      </trkpt>
      <trkpt lat="43.80346" lon="7.5157">
        <ele>725</ele>
        <time>2018-06-19T13:28:30Z</time>
      </trkpt>
      <trkpt lat="43.80344" lon="7.51572">
        <ele>725</ele>
        <time>2018-06-19T13:28:33Z</time>
      </trkpt>
      <trkpt lat="43.80338" lon="7.51576">
        <ele>725</ele>
        <time>2018-06-19T13:28:38Z</time>
      </trkpt>
      <trkpt lat="43.80321" lon="7.5159">
        <ele>725</ele>
        <time>2018-06-19T13:28:56Z</time>
      </trkpt>
      <trkpt lat="43.80318" lon="7.51592">
        <ele>726</ele>
        <time>2018-06-19T13:28:59Z</time>
      </trkpt>
      <trkpt lat="43.80317" lon="7.51604">
        <ele>726</ele>
        <time>2018-06-19T13:29:13Z</time>
      </trkpt>
      <trkpt lat="43.80316" lon="7.51615">
        <ele>727</ele>
        <time>2018-06-19T13:29:29Z</time>
      </trkpt>
      <trkpt lat="43.80308" lon="7.51631">
        <ele>729</ele>
        <time>2018-06-19T13:29:42Z</time>
      </trkpt>
      <trkpt lat="43.80303" lon="7.51638">
        <ele>729</ele>
        <time>2018-06-19T13:29:48Z</time>
      </trkpt>
      <trkpt lat="43.80297" lon="7.51643">
        <ele>729</ele>
        <time>2018-06-19T13:29:54Z</time>
      </trkpt>
      <trkpt lat="43.80295" lon="7.51646">
        <ele>729</ele>
        <time>2018-06-19T13:29:57Z</time>
      </trkpt>
      <trkpt lat="43.8029" lon="7.51648">
        <ele>729</ele>
        <time>2018-06-19T13:30:01Z</time>
      </trkpt>
      <trkpt lat="43.80282" lon="7.51654">
        <ele>728</ele>
        <time>2018-06-19T13:30:08Z</time>
      </trkpt>
      <trkpt lat="43.80278" lon="7.51658">
        <ele>728</ele>
        <time>2018-06-19T13:30:12Z</time>
      </trkpt>
      <trkpt lat="43.80276" lon="7.51663">
        <ele>728</ele>
        <time>2018-06-19T13:30:16Z</time>
      </trkpt>
      <trkpt lat="43.80268" lon="7.51673">
        <ele>737</ele>
        <time>2018-06-19T13:30:28Z</time>
      </trkpt>
      <trkpt lat="43.80267" lon="7.51682">
        <ele>739</ele>
        <time>2018-06-19T13:30:35Z</time>
      </trkpt>
      <trkpt lat="43.8026" lon="7.51691">
        <ele>740</ele>
        <time>2018-06-19T13:30:48Z</time>
      </trkpt>
      <trkpt lat="43.80254" lon="7.517">
        <ele>741</ele>
        <time>2018-06-19T13:31:01Z</time>
      </trkpt>
      <trkpt lat="43.8025" lon="7.51707">
        <ele>743</ele>
        <time>2018-06-19T13:31:12Z</time>
      </trkpt>
      <trkpt lat="43.8025" lon="7.5171">
        <ele>731</ele>
        <time>2018-06-19T13:31:20Z</time>
      </trkpt>
      <trkpt lat="43.80245" lon="7.51721">
        <ele>733</ele>
        <time>2018-06-19T13:31:31Z</time>
      </trkpt>
      <trkpt lat="43.80241" lon="7.51734">
        <ele>736</ele>
        <time>2018-06-19T13:31:43Z</time>
      </trkpt>
      <trkpt lat="43.80241" lon="7.51736">
        <ele>737</ele>
        <time>2018-06-19T13:31:45Z</time>
      </trkpt>
      <trkpt lat="43.80233" lon="7.51743">
        <ele>736</ele>
        <time>2018-06-19T13:31:58Z</time>
      </trkpt>
      <trkpt lat="43.80221" lon="7.51748">
        <ele>733</ele>
        <time>2018-06-19T13:32:10Z</time>
      </trkpt>
      <trkpt lat="43.80216" lon="7.5175">
        <ele>745</ele>
        <time>2018-06-19T13:32:16Z</time>
      </trkpt>
      <trkpt lat="43.80207" lon="7.51757">
        <ele>743</ele>
        <time>2018-06-19T13:32:29Z</time>
      </trkpt>
      <trkpt lat="43.80204" lon="7.51765">
        <ele>744</ele>
        <time>2018-06-19T13:32:40Z</time>
      </trkpt>
      <trkpt lat="43.80202" lon="7.51772">
        <ele>744</ele>
        <time>2018-06-19T13:32:52Z</time>
      </trkpt>
      <trkpt lat="43.80195" lon="7.51785">
        <ele>744</ele>
        <time>2018-06-19T13:33:05Z</time>
      </trkpt>
      <trkpt lat="43.8019" lon="7.5179">
        <ele>744</ele>
        <time>2018-06-19T13:33:17Z</time>
      </trkpt>
      <trkpt lat="43.80181" lon="7.51802">
        <ele>744</ele>
        <time>2018-06-19T13:33:31Z</time>
      </trkpt>
      <trkpt lat="43.8018" lon="7.51803">
        <ele>744</ele>
        <time>2018-06-19T13:33:32Z</time>
      </trkpt>
      <trkpt lat="43.80178" lon="7.51811">
        <ele>744</ele>
        <time>2018-06-19T13:33:45Z</time>
      </trkpt>
      <trkpt lat="43.80169" lon="7.51821">
        <ele>743</ele>
        <time>2018-06-19T13:33:59Z</time>
      </trkpt>
      <trkpt lat="43.80162" lon="7.51831">
        <ele>736</ele>
        <time>2018-06-19T13:34:09Z</time>
      </trkpt>
      <trkpt lat="43.80151" lon="7.5184">
        <ele>733</ele>
        <time>2018-06-19T13:34:24Z</time>
      </trkpt>
      <trkpt lat="43.80147" lon="7.51844">
        <ele>731</ele>
        <time>2018-06-19T13:34:28Z</time>
      </trkpt>
      <trkpt lat="43.80141" lon="7.51852">
        <ele>729</ele>
        <time>2018-06-19T13:34:40Z</time>
      </trkpt>
      <trkpt lat="43.80133" lon="7.5186">
        <ele>727</ele>
        <time>2018-06-19T13:34:54Z</time>
      </trkpt>
      <trkpt lat="43.80125" lon="7.51868">
        <ele>725</ele>
        <time>2018-06-19T13:35:08Z</time>
      </trkpt>
      <trkpt lat="43.80118" lon="7.51875">
        <ele>724</ele>
        <time>2018-06-19T13:35:21Z</time>
      </trkpt>
      <trkpt lat="43.8011" lon="7.51884">
        <ele>723</ele>
        <time>2018-06-19T13:35:36Z</time>
      </trkpt>
      <trkpt lat="43.80102" lon="7.51893">
        <ele>721</ele>
        <time>2018-06-19T13:35:50Z</time>
      </trkpt>
      <trkpt lat="43.80095" lon="7.51895">
        <ele>720</ele>
        <time>2018-06-19T13:36:02Z</time>
      </trkpt>
      <trkpt lat="43.80093" lon="7.51892">
        <ele>720</ele>
        <time>2018-06-19T13:36:05Z</time>
      </trkpt>
      <trkpt lat="43.80088" lon="7.51882">
        <ele>719</ele>
        <time>2018-06-19T13:36:22Z</time>
      </trkpt>
      <trkpt lat="43.80086" lon="7.51884">
        <ele>719</ele>
        <time>2018-06-19T13:36:36Z</time>
      </trkpt>
      <trkpt lat="43.80086" lon="7.51884">
        <ele>719</ele>
        <time>2018-06-19T13:36:48Z</time>
      </trkpt>
      <trkpt lat="43.80076" lon="7.5188">
        <ele>691</ele>
        <time>2018-06-19T13:37:01Z</time>
      </trkpt>
      <trkpt lat="43.8007" lon="7.51879">
        <ele>690</ele>
        <time>2018-06-19T13:37:14Z</time>
      </trkpt>
      <trkpt lat="43.80064" lon="7.5188">
        <ele>689</ele>
        <time>2018-06-19T13:37:28Z</time>
      </trkpt>
      <trkpt lat="43.80057" lon="7.51884">
        <ele>688</ele>
        <time>2018-06-19T13:37:42Z</time>
      </trkpt>
      <trkpt lat="43.80052" lon="7.51885">
        <ele>686</ele>
        <time>2018-06-19T13:37:55Z</time>
      </trkpt>
      <trkpt lat="43.80045" lon="7.51892">
        <ele>685</ele>
        <time>2018-06-19T13:38:09Z</time>
      </trkpt>
      <trkpt lat="43.80041" lon="7.51898">
        <ele>684</ele>
        <time>2018-06-19T13:38:19Z</time>
      </trkpt>
      <trkpt lat="43.80035" lon="7.51901">
        <ele>682</ele>
        <time>2018-06-19T13:38:32Z</time>
      </trkpt>
      <trkpt lat="43.80028" lon="7.51906">
        <ele>680</ele>
        <time>2018-06-19T13:38:46Z</time>
      </trkpt>
      <trkpt lat="43.80022" lon="7.5191">
        <ele>678</ele>
        <time>2018-06-19T13:39:00Z</time>
      </trkpt>
      <trkpt lat="43.80014" lon="7.51916">
        <ele>675</ele>
        <time>2018-06-19T13:39:15Z</time>
      </trkpt>
      <trkpt lat="43.80006" lon="7.51918">
        <ele>675</ele>
        <time>2018-06-19T13:39:29Z</time>
      </trkpt>
      <trkpt lat="43.80006" lon="7.51918">
        <ele>675</ele>
        <time>2018-06-19T13:39:30Z</time>
      </trkpt>
      <trkpt lat="43.79999" lon="7.51928">
        <ele>664</ele>
        <time>2018-06-19T13:39:45Z</time>
      </trkpt>
      <trkpt lat="43.79992" lon="7.5193">
        <ele>663</ele>
        <time>2018-06-19T13:39:57Z</time>
      </trkpt>
      <trkpt lat="43.79984" lon="7.51933">
        <ele>661</ele>
        <time>2018-06-19T13:40:13Z</time>
      </trkpt>
      <trkpt lat="43.79979" lon="7.51935">
        <ele>660</ele>
        <time>2018-06-19T13:40:23Z</time>
      </trkpt>
      <trkpt lat="43.79975" lon="7.51944">
        <ele>659</ele>
        <time>2018-06-19T13:40:37Z</time>
      </trkpt>
      <trkpt lat="43.79971" lon="7.51951">
        <ele>658</ele>
        <time>2018-06-19T13:40:50Z</time>
      </trkpt>
      <trkpt lat="43.79966" lon="7.51953">
        <ele>657</ele>
        <time>2018-06-19T13:41:00Z</time>
      </trkpt>
      <trkpt lat="43.79958" lon="7.51956">
        <ele>656</ele>
        <time>2018-06-19T13:41:13Z</time>
      </trkpt>
      <trkpt lat="43.79953" lon="7.51953">
        <ele>654</ele>
        <time>2018-06-19T13:41:26Z</time>
      </trkpt>
      <trkpt lat="43.79947" lon="7.51955">
        <ele>653</ele>
        <time>2018-06-19T13:41:39Z</time>
      </trkpt>
      <trkpt lat="43.79945" lon="7.51953">
        <ele>652</ele>
        <time>2018-06-19T13:41:52Z</time>
      </trkpt>
      <trkpt lat="43.79943" lon="7.51952">
        <ele>651</ele>
        <time>2018-06-19T13:42:53Z</time>
      </trkpt>
      <trkpt lat="43.79938" lon="7.51946">
        <ele>649</ele>
        <time>2018-06-19T13:43:05Z</time>
      </trkpt>
      <trkpt lat="43.79931" lon="7.5195">
        <ele>648</ele>
        <time>2018-06-19T13:43:19Z</time>
      </trkpt>
      <trkpt lat="43.79931" lon="7.51949">
        <ele>648</ele>
        <time>2018-06-19T13:43:20Z</time>
      </trkpt>
      <trkpt lat="43.79931" lon="7.51929">
        <ele>642</ele>
        <time>2018-06-19T13:43:33Z</time>
      </trkpt>
      <trkpt lat="43.7993" lon="7.51925">
        <ele>640</ele>
        <time>2018-06-19T13:43:45Z</time>
      </trkpt>
      <trkpt lat="43.79927" lon="7.5193">
        <ele>640</ele>
        <time>2018-06-19T13:43:53Z</time>
      </trkpt>
      <trkpt lat="43.79924" lon="7.51931">
        <ele>640</ele>
        <time>2018-06-19T13:43:57Z</time>
      </trkpt>
      <trkpt lat="43.79918" lon="7.51938">
        <ele>642</ele>
        <time>2018-06-19T13:44:11Z</time>
      </trkpt>
      <trkpt lat="43.79917" lon="7.51944">
        <ele>619</ele>
        <time>2018-06-19T13:44:17Z</time>
      </trkpt>
      <trkpt lat="43.79916" lon="7.51947">
        <ele>618</ele>
        <time>2018-06-19T13:44:19Z</time>
      </trkpt>
      <trkpt lat="43.79911" lon="7.5196">
        <ele>619</ele>
        <time>2018-06-19T13:44:32Z</time>
      </trkpt>
      <trkpt lat="43.79905" lon="7.51969">
        <ele>620</ele>
        <time>2018-06-19T13:44:45Z</time>
      </trkpt>
      <trkpt lat="43.79899" lon="7.51975">
        <ele>620</ele>
        <time>2018-06-19T13:44:55Z</time>
      </trkpt>
      <trkpt lat="43.79888" lon="7.51988">
        <ele>619</ele>
        <time>2018-06-19T13:45:12Z</time>
      </trkpt>
      <trkpt lat="43.79882" lon="7.51997">
        <ele>617</ele>
        <time>2018-06-19T13:45:24Z</time>
      </trkpt>
      <trkpt lat="43.79878" lon="7.51999">
        <ele>615</ele>
        <time>2018-06-19T13:45:29Z</time>
      </trkpt>
      <trkpt lat="43.79865" lon="7.52006">
        <ele>623</ele>
        <time>2018-06-19T13:45:44Z</time>
      </trkpt>
      <trkpt lat="43.79864" lon="7.52007">
        <ele>623</ele>
        <time>2018-06-19T13:45:47Z</time>
      </trkpt>
      <trkpt lat="43.79856" lon="7.52017">
        <ele>621</ele>
        <time>2018-06-19T13:46:02Z</time>
      </trkpt>
      <trkpt lat="43.79851" lon="7.52021">
        <ele>620</ele>
        <time>2018-06-19T13:46:17Z</time>
      </trkpt>
      <trkpt lat="43.79841" lon="7.5203">
        <ele>621</ele>
        <time>2018-06-19T13:46:31Z</time>
      </trkpt>
      <trkpt lat="43.79838" lon="7.52037">
        <ele>622</ele>
        <time>2018-06-19T13:46:37Z</time>
      </trkpt>
      <trkpt lat="43.79829" lon="7.52047">
        <ele>594</ele>
        <time>2018-06-19T13:46:51Z</time>
      </trkpt>
      <trkpt lat="43.79822" lon="7.52058">
        <ele>596</ele>
        <time>2018-06-19T13:47:03Z</time>
      </trkpt>
      <trkpt lat="43.7982" lon="7.5206">
        <ele>596</ele>
        <time>2018-06-19T13:47:21Z</time>
      </trkpt>
      <trkpt lat="43.79818" lon="7.52064">
        <ele>597</ele>
        <time>2018-06-19T13:47:27Z</time>
      </trkpt>
      <trkpt lat="43.79818" lon="7.52065">
        <ele>597</ele>
        <time>2018-06-19T13:47:28Z</time>
      </trkpt>
      <trkpt lat="43.79813" lon="7.52072">
        <ele>597</ele>
        <time>2018-06-19T13:47:38Z</time>
      </trkpt>
      <trkpt lat="43.79812" lon="7.52074">
        <ele>597</ele>
        <time>2018-06-19T13:47:40Z</time>
      </trkpt>
      <trkpt lat="43.79809" lon="7.5208">
        <ele>597</ele>
        <time>2018-06-19T13:47:45Z</time>
      </trkpt>
      <trkpt lat="43.79807" lon="7.52083">
        <ele>596</ele>
        <time>2018-06-19T13:47:48Z</time>
      </trkpt>
      <trkpt lat="43.79802" lon="7.52094">
        <ele>605</ele>
        <time>2018-06-19T13:48:01Z</time>
      </trkpt>
      <trkpt lat="43.79799" lon="7.52096">
        <ele>605</ele>
        <time>2018-06-19T13:48:04Z</time>
      </trkpt>
      <trkpt lat="43.79799" lon="7.52097">
        <ele>604</ele>
        <time>2018-06-19T13:48:05Z</time>
      </trkpt>
      <trkpt lat="43.79791" lon="7.52107">
        <ele>602</ele>
        <time>2018-06-19T13:48:17Z</time>
      </trkpt>
      <trkpt lat="43.79781" lon="7.52115">
        <ele>600</ele>
        <time>2018-06-19T13:48:31Z</time>
      </trkpt>
      <trkpt lat="43.79778" lon="7.52115">
        <ele>599</ele>
        <time>2018-06-19T13:48:35Z</time>
      </trkpt>
      <trkpt lat="43.7977" lon="7.52125">
        <ele>599</ele>
        <time>2018-06-19T13:48:49Z</time>
      </trkpt>
      <trkpt lat="43.79768" lon="7.52128">
        <ele>599</ele>
        <time>2018-06-19T13:48:52Z</time>
      </trkpt>
      <trkpt lat="43.79758" lon="7.52134">
        <ele>598</ele>
        <time>2018-06-19T13:49:06Z</time>
      </trkpt>
      <trkpt lat="43.79756" lon="7.52137">
        <ele>598</ele>
        <time>2018-06-19T13:49:10Z</time>
      </trkpt>
      <trkpt lat="43.79754" lon="7.5214">
        <ele>597</ele>
        <time>2018-06-19T13:49:14Z</time>
      </trkpt>
      <trkpt lat="43.79754" lon="7.52143">
        <ele>597</ele>
        <time>2018-06-19T13:49:16Z</time>
      </trkpt>
      <trkpt lat="43.79746" lon="7.52153">
        <ele>577</ele>
        <time>2018-06-19T13:49:30Z</time>
      </trkpt>
      <trkpt lat="43.79745" lon="7.52155">
        <ele>577</ele>
        <time>2018-06-19T13:49:32Z</time>
      </trkpt>
      <trkpt lat="43.79738" lon="7.52163">
        <ele>578</ele>
        <time>2018-06-19T13:49:43Z</time>
      </trkpt>
      <trkpt lat="43.79732" lon="7.52173">
        <ele>581</ele>
        <time>2018-06-19T13:49:55Z</time>
      </trkpt>
      <trkpt lat="43.79725" lon="7.52183">
        <ele>577</ele>
        <time>2018-06-19T13:50:08Z</time>
      </trkpt>
      <trkpt lat="43.79718" lon="7.52189">
        <ele>575</ele>
        <time>2018-06-19T13:50:22Z</time>
      </trkpt>
      <trkpt lat="43.79714" lon="7.52194">
        <ele>574</ele>
        <time>2018-06-19T13:50:34Z</time>
      </trkpt>
      <trkpt lat="43.79708" lon="7.522">
        <ele>573</ele>
        <time>2018-06-19T13:50:47Z</time>
      </trkpt>
      <trkpt lat="43.79705" lon="7.52205">
        <ele>572</ele>
        <time>2018-06-19T13:50:59Z</time>
      </trkpt>
      <trkpt lat="43.79698" lon="7.52212">
        <ele>571</ele>
        <time>2018-06-19T13:51:13Z</time>
      </trkpt>
      <trkpt lat="43.79692" lon="7.52217">
        <ele>569</ele>
        <time>2018-06-19T13:51:26Z</time>
      </trkpt>
      <trkpt lat="43.79688" lon="7.52221">
        <ele>569</ele>
        <time>2018-06-19T13:51:36Z</time>
      </trkpt>
      <trkpt lat="43.79685" lon="7.52212">
        <ele>567</ele>
        <time>2018-06-19T13:51:48Z</time>
      </trkpt>
      <trkpt lat="43.79685" lon="7.52212">
        <ele>567</ele>
        <time>2018-06-19T13:52:01Z</time>
      </trkpt>
      <trkpt lat="43.79683" lon="7.52215">
        <ele>567</ele>
        <time>2018-06-19T13:52:12Z</time>
      </trkpt>
      <trkpt lat="43.79673" lon="7.52212">
        <ele>565</ele>
        <time>2018-06-19T13:52:25Z</time>
      </trkpt>
      <trkpt lat="43.79668" lon="7.52215">
        <ele>565</ele>
        <time>2018-06-19T13:52:37Z</time>
      </trkpt>
      <trkpt lat="43.79664" lon="7.52219">
        <ele>536</ele>
        <time>2018-06-19T13:52:47Z</time>
      </trkpt>
      <trkpt lat="43.79663" lon="7.52219">
        <ele>536</ele>
        <time>2018-06-19T13:53:11Z</time>
      </trkpt>
      <trkpt lat="43.79662" lon="7.52221">
        <ele>536</ele>
        <time>2018-06-19T13:53:53Z</time>
      </trkpt>
      <trkpt lat="43.79659" lon="7.52222">
        <ele>536</ele>
        <time>2018-06-19T13:54:11Z</time>
      </trkpt>
      <trkpt lat="43.79653" lon="7.52224">
        <ele>535</ele>
        <time>2018-06-19T13:54:26Z</time>
      </trkpt>
      <trkpt lat="43.79647" lon="7.52222">
        <ele>533</ele>
        <time>2018-06-19T13:54:38Z</time>
      </trkpt>
      <trkpt lat="43.79644" lon="7.52223">
        <ele>533</ele>
        <time>2018-06-19T13:54:50Z</time>
      </trkpt>
      <trkpt lat="43.7964" lon="7.52228">
        <ele>532</ele>
        <time>2018-06-19T13:55:02Z</time>
      </trkpt>
      <trkpt lat="43.79634" lon="7.52226">
        <ele>530</ele>
        <time>2018-06-19T13:55:13Z</time>
      </trkpt>
      <trkpt lat="43.7963" lon="7.52231">
        <ele>529</ele>
        <time>2018-06-19T13:55:25Z</time>
      </trkpt>
      <trkpt lat="43.79625" lon="7.52237">
        <ele>528</ele>
        <time>2018-06-19T13:55:37Z</time>
      </trkpt>
      <trkpt lat="43.7962" lon="7.52238">
        <ele>526</ele>
        <time>2018-06-19T13:55:51Z</time>
      </trkpt>
      <trkpt lat="43.79615" lon="7.52242">
        <ele>525</ele>
        <time>2018-06-19T13:56:03Z</time>
      </trkpt>
      <trkpt lat="43.7961" lon="7.52245">
        <ele>523</ele>
        <time>2018-06-19T13:56:17Z</time>
      </trkpt>
      <trkpt lat="43.79605" lon="7.52247">
        <ele>521</ele>
        <time>2018-06-19T13:56:29Z</time>
      </trkpt>
      <trkpt lat="43.79599" lon="7.5225">
        <ele>519</ele>
        <time>2018-06-19T13:56:42Z</time>
      </trkpt>
      <trkpt lat="43.79593" lon="7.52251">
        <ele>522</ele>
        <time>2018-06-19T13:56:52Z</time>
      </trkpt>
      <trkpt lat="43.79589" lon="7.52255">
        <ele>520</ele>
        <time>2018-06-19T13:57:03Z</time>
      </trkpt>
      <trkpt lat="43.79582" lon="7.52247">
        <ele>508</ele>
        <time>2018-06-19T13:57:06Z</time>
      </trkpt>
      <trkpt lat="43.79582" lon="7.52244">
        <ele>505</ele>
        <time>2018-06-19T13:57:16Z</time>
      </trkpt>
      <trkpt lat="43.79582" lon="7.52244">
        <ele>505</ele>
        <time>2018-06-19T13:57:33Z</time>
      </trkpt>
      <trkpt lat="43.79582" lon="7.52244">
        <ele>505</ele>
        <time>2018-06-19T13:57:57Z</time>
      </trkpt>
      <trkpt lat="43.79582" lon="7.52247">
        <ele>508</ele>
        <time>2018-06-19T13:58:35Z</time>
      </trkpt>
      <trkpt lat="43.79581" lon="7.52247">
        <ele>508</ele>
        <time>2018-06-19T13:58:50Z</time>
      </trkpt>
      <trkpt lat="43.79579" lon="7.52248">
        <ele>506</ele>
        <time>2018-06-19T13:59:00Z</time>
      </trkpt>
      <trkpt lat="43.79579" lon="7.52246">
        <ele>506</ele>
        <time>2018-06-19T13:59:12Z</time>
      </trkpt>
      <trkpt lat="43.7958" lon="7.52245">
        <ele>505</ele>
        <time>2018-06-19T13:59:23Z</time>
      </trkpt>
      <trkpt lat="43.79578" lon="7.52242">
        <ele>502</ele>
        <time>2018-06-19T13:59:37Z</time>
      </trkpt>
      <trkpt lat="43.79578" lon="7.52234">
        <ele>497</ele>
        <time>2018-06-19T13:59:48Z</time>
      </trkpt>
      <trkpt lat="43.79578" lon="7.52234">
        <ele>497</ele>
        <time>2018-06-19T14:00:06Z</time>
      </trkpt>
      <trkpt lat="43.79578" lon="7.5223">
        <ele>495</ele>
        <time>2018-06-19T14:00:19Z</time>
      </trkpt>
      <trkpt lat="43.79578" lon="7.5223">
        <ele>495</ele>
        <time>2018-06-19T14:00:32Z</time>
      </trkpt>
      <trkpt lat="43.79578" lon="7.52225">
        <ele>493</ele>
        <time>2018-06-19T14:00:45Z</time>
      </trkpt>
      <trkpt lat="43.79581" lon="7.52219">
        <ele>491</ele>
        <time>2018-06-19T14:00:59Z</time>
      </trkpt>
      <trkpt lat="43.79581" lon="7.52216">
        <ele>490</ele>
        <time>2018-06-19T14:01:12Z</time>
      </trkpt>
      <trkpt lat="43.79581" lon="7.52216">
        <ele>490</ele>
        <time>2018-06-19T14:01:22Z</time>
      </trkpt>
      <trkpt lat="43.79578" lon="7.52211">
        <ele>488</ele>
        <time>2018-06-19T14:01:34Z</time>
      </trkpt>
      <trkpt lat="43.79576" lon="7.52208">
        <ele>488</ele>
        <time>2018-06-19T14:01:48Z</time>
      </trkpt>
      <trkpt lat="43.79576" lon="7.52208">
        <ele>488</ele>
        <time>2018-06-19T14:02:02Z</time>
      </trkpt>
      <trkpt lat="43.79574" lon="7.52203">
        <ele>487</ele>
        <time>2018-06-19T14:02:17Z</time>
      </trkpt>
      <trkpt lat="43.79574" lon="7.52203">
        <ele>487</ele>
        <time>2018-06-19T14:02:30Z</time>
      </trkpt>
      <trkpt lat="43.79573" lon="7.522">
        <ele>486</ele>
        <time>2018-06-19T14:02:43Z</time>
      </trkpt>
      <trkpt lat="43.79569" lon="7.52201">
        <ele>486</ele>
        <time>2018-06-19T14:02:57Z</time>
      </trkpt>
      <trkpt lat="43.79563" lon="7.52208">
        <ele>485</ele>
        <time>2018-06-19T14:03:10Z</time>
      </trkpt>
      <trkpt lat="43.79563" lon="7.5221">
        <ele>486</ele>
        <time>2018-06-19T14:03:24Z</time>
      </trkpt>
      <trkpt lat="43.79559" lon="7.52212">
        <ele>485</ele>
        <time>2018-06-19T14:03:36Z</time>
      </trkpt>
      <trkpt lat="43.79556" lon="7.52214">
        <ele>485</ele>
        <time>2018-06-19T14:03:49Z</time>
      </trkpt>
      <trkpt lat="43.79549" lon="7.52216">
        <ele>483</ele>
        <time>2018-06-19T14:04:03Z</time>
      </trkpt>
      <trkpt lat="43.79544" lon="7.52217">
        <ele>482</ele>
        <time>2018-06-19T14:04:16Z</time>
      </trkpt>
      <trkpt lat="43.79541" lon="7.5221">
        <ele>480</ele>
        <time>2018-06-19T14:04:27Z</time>
      </trkpt>
      <trkpt lat="43.79541" lon="7.52203">
        <ele>479</ele>
        <time>2018-06-19T14:04:39Z</time>
      </trkpt>
      <trkpt lat="43.7954" lon="7.522">
        <ele>479</ele>
        <time>2018-06-19T14:04:53Z</time>
      </trkpt>
      <trkpt lat="43.79538" lon="7.52201">
        <ele>479</ele>
        <time>2018-06-19T14:05:06Z</time>
      </trkpt>
      <trkpt lat="43.79536" lon="7.522">
        <ele>478</ele>
        <time>2018-06-19T14:05:19Z</time>
      </trkpt>
      <trkpt lat="43.79533" lon="7.52198">
        <ele>477</ele>
        <time>2018-06-19T14:05:30Z</time>
      </trkpt>
      <trkpt lat="43.79533" lon="7.52196">
        <ele>476</ele>
        <time>2018-06-19T14:05:41Z</time>
      </trkpt>
      <trkpt lat="43.79533" lon="7.52193">
        <ele>476</ele>
        <time>2018-06-19T14:05:54Z</time>
      </trkpt>
      <trkpt lat="43.79527" lon="7.52189">
        <ele>474</ele>
        <time>2018-06-19T14:06:08Z</time>
      </trkpt>
      <trkpt lat="43.79528" lon="7.52184">
        <ele>473</ele>
        <time>2018-06-19T14:06:22Z</time>
      </trkpt>
      <trkpt lat="43.79523" lon="7.52179">
        <ele>470</ele>
        <time>2018-06-19T14:06:36Z</time>
      </trkpt>
      <trkpt lat="43.7952" lon="7.52175">
        <ele>468</ele>
        <time>2018-06-19T14:06:48Z</time>
      </trkpt>
      <trkpt lat="43.79518" lon="7.52176">
        <ele>467</ele>
        <time>2018-06-19T14:07:04Z</time>
      </trkpt>
      <trkpt lat="43.79515" lon="7.5217">
        <ele>465</ele>
        <time>2018-06-19T14:07:18Z</time>
      </trkpt>
      <trkpt lat="43.7951" lon="7.52164">
        <ele>455</ele>
        <time>2018-06-19T14:07:32Z</time>
      </trkpt>
      <trkpt lat="43.79505" lon="7.52162">
        <ele>454</ele>
        <time>2018-06-19T14:07:44Z</time>
      </trkpt>
      <trkpt lat="43.79502" lon="7.52156">
        <ele>455</ele>
        <time>2018-06-19T14:07:57Z</time>
      </trkpt>
      <trkpt lat="43.79496" lon="7.52154">
        <ele>442</ele>
        <time>2018-06-19T14:08:10Z</time>
      </trkpt>
      <trkpt lat="43.79496" lon="7.52147">
        <ele>439</ele>
        <time>2018-06-19T14:08:21Z</time>
      </trkpt>
      <trkpt lat="43.79494" lon="7.52143">
        <ele>438</ele>
        <time>2018-06-19T14:08:33Z</time>
      </trkpt>
      <trkpt lat="43.79488" lon="7.52146">
        <ele>438</ele>
        <time>2018-06-19T14:08:46Z</time>
      </trkpt>
      <trkpt lat="43.79488" lon="7.52146">
        <ele>438</ele>
        <time>2018-06-19T14:09:41Z</time>
      </trkpt>
      <trkpt lat="43.79488" lon="7.52146">
        <ele>437</ele>
        <time>2018-06-19T14:11:15Z</time>
      </trkpt>
      <trkpt lat="43.79483" lon="7.52144">
        <ele>436</ele>
        <time>2018-06-19T14:13:18Z</time>
      </trkpt>
      <trkpt lat="43.79477" lon="7.52134">
        <ele>433</ele>
        <time>2018-06-19T14:13:32Z</time>
      </trkpt>
      <trkpt lat="43.79476" lon="7.52117">
        <ele>431</ele>
        <time>2018-06-19T14:13:48Z</time>
      </trkpt>
      <trkpt lat="43.79478" lon="7.52109">
        <ele>431</ele>
        <time>2018-06-19T14:13:55Z</time>
      </trkpt>
      <trkpt lat="43.79477" lon="7.521">
        <ele>431</ele>
        <time>2018-06-19T14:14:07Z</time>
      </trkpt>
      <trkpt lat="43.7947" lon="7.52109">
        <ele>430</ele>
        <time>2018-06-19T14:14:21Z</time>
      </trkpt>
      <trkpt lat="43.79463" lon="7.52122">
        <ele>429</ele>
        <time>2018-06-19T14:14:35Z</time>
      </trkpt>
      <trkpt lat="43.79456" lon="7.5213">
        <ele>429</ele>
        <time>2018-06-19T14:14:49Z</time>
      </trkpt>
      <trkpt lat="43.79456" lon="7.5213">
        <ele>429</ele>
        <time>2018-06-19T14:15:04Z</time>
      </trkpt>
      <trkpt lat="43.79455" lon="7.52129">
        <ele>428</ele>
        <time>2018-06-19T14:15:17Z</time>
      </trkpt>
      <trkpt lat="43.79455" lon="7.52129">
        <ele>428</ele>
        <time>2018-06-19T14:15:30Z</time>
      </trkpt>
      <trkpt lat="43.79455" lon="7.52129">
        <ele>428</ele>
        <time>2018-06-19T14:15:45Z</time>
      </trkpt>
      <trkpt lat="43.79454" lon="7.52128">
        <ele>428</ele>
        <time>2018-06-19T14:15:57Z</time>
      </trkpt>
      <trkpt lat="43.7945" lon="7.52125">
        <ele>427</ele>
        <time>2018-06-19T14:16:10Z</time>
      </trkpt>
      <trkpt lat="43.79449" lon="7.52124">
        <ele>427</ele>
        <time>2018-06-19T14:16:25Z</time>
      </trkpt>
      <trkpt lat="43.79436" lon="7.52113">
        <ele>423</ele>
        <time>2018-06-19T14:16:41Z</time>
      </trkpt>
      <trkpt lat="43.79436" lon="7.52112">
        <ele>423</ele>
        <time>2018-06-19T14:16:53Z</time>
      </trkpt>
      <trkpt lat="43.79436" lon="7.52112">
        <ele>423</ele>
        <time>2018-06-19T14:16:56Z</time>
      </trkpt>
      <trkpt lat="43.79422" lon="7.52099">
        <ele>417</ele>
        <time>2018-06-19T14:17:08Z</time>
      </trkpt>
      <trkpt lat="43.79422" lon="7.52099">
        <ele>417</ele>
        <time>2018-06-19T14:17:21Z</time>
      </trkpt>
      <trkpt lat="43.79418" lon="7.52094">
        <ele>414</ele>
        <time>2018-06-19T14:17:33Z</time>
      </trkpt>
      <trkpt lat="43.79417" lon="7.52093">
        <ele>413</ele>
        <time>2018-06-19T14:17:47Z</time>
      </trkpt>
      <trkpt lat="43.79397" lon="7.52078">
        <ele>393</ele>
        <time>2018-06-19T14:18:04Z</time>
      </trkpt>
      <trkpt lat="43.79387" lon="7.52073">
        <ele>389</ele>
        <time>2018-06-19T14:18:17Z</time>
      </trkpt>
      <trkpt lat="43.79381" lon="7.5207">
        <ele>387</ele>
        <time>2018-06-19T14:18:30Z</time>
      </trkpt>
      <trkpt lat="43.7938" lon="7.5206">
        <ele>386</ele>
        <time>2018-06-19T14:18:44Z</time>
      </trkpt>
      <trkpt lat="43.79374" lon="7.52053">
        <ele>384</ele>
        <time>2018-06-19T14:18:58Z</time>
      </trkpt>
      <trkpt lat="43.7937" lon="7.52044">
        <ele>383</ele>
        <time>2018-06-19T14:19:11Z</time>
      </trkpt>
      <trkpt lat="43.79364" lon="7.52041">
        <ele>382</ele>
        <time>2018-06-19T14:19:23Z</time>
      </trkpt>
      <trkpt lat="43.79362" lon="7.52047">
        <ele>382</ele>
        <time>2018-06-19T14:19:35Z</time>
      </trkpt>
      <trkpt lat="43.79358" lon="7.52045">
        <ele>381</ele>
        <time>2018-06-19T14:19:44Z</time>
      </trkpt>
      <trkpt lat="43.79354" lon="7.52041">
        <ele>381</ele>
        <time>2018-06-19T14:19:57Z</time>
      </trkpt>
      <trkpt lat="43.79349" lon="7.52038">
        <ele>380</ele>
        <time>2018-06-19T14:20:11Z</time>
      </trkpt>
      <trkpt lat="43.79343" lon="7.52036">
        <ele>379</ele>
        <time>2018-06-19T14:20:28Z</time>
      </trkpt>
      <trkpt lat="43.79336" lon="7.52036">
        <ele>378</ele>
        <time>2018-06-19T14:20:44Z</time>
      </trkpt>
      <trkpt lat="43.7933" lon="7.52038">
        <ele>357</ele>
        <time>2018-06-19T14:20:57Z</time>
      </trkpt>
      <trkpt lat="43.79329" lon="7.52036">
        <ele>357</ele>
        <time>2018-06-19T14:21:10Z</time>
      </trkpt>
      <trkpt lat="43.7932" lon="7.52031">
        <ele>357</ele>
        <time>2018-06-19T14:21:27Z</time>
      </trkpt>
      <trkpt lat="43.79316" lon="7.52031">
        <ele>356</ele>
        <time>2018-06-19T14:21:40Z</time>
      </trkpt>
      <trkpt lat="43.79304" lon="7.52029">
        <ele>354</ele>
        <time>2018-06-19T14:21:54Z</time>
      </trkpt>
      <trkpt lat="43.793" lon="7.5202">
        <ele>353</ele>
        <time>2018-06-19T14:22:03Z</time>
      </trkpt>
      <trkpt lat="43.79298" lon="7.51995">
        <ele>347</ele>
        <time>2018-06-19T14:22:20Z</time>
      </trkpt>
      <trkpt lat="43.793" lon="7.51979">
        <ele>346</ele>
        <time>2018-06-19T14:22:31Z</time>
      </trkpt>
      <trkpt lat="43.79305" lon="7.51971">
        <ele>346</ele>
        <time>2018-06-19T14:22:45Z</time>
      </trkpt>
      <trkpt lat="43.79306" lon="7.51962">
        <ele>345</ele>
        <time>2018-06-19T14:22:58Z</time>
      </trkpt>
      <trkpt lat="43.79306" lon="7.51952">
        <ele>343</ele>
        <time>2018-06-19T14:23:12Z</time>
      </trkpt>
      <trkpt lat="43.79304" lon="7.5195">
        <ele>343</ele>
        <time>2018-06-19T14:23:22Z</time>
      </trkpt>
      <trkpt lat="43.79299" lon="7.51945">
        <ele>342</ele>
        <time>2018-06-19T14:23:34Z</time>
      </trkpt>
      <trkpt lat="43.79293" lon="7.5194">
        <ele>340</ele>
        <time>2018-06-19T14:23:46Z</time>
      </trkpt>
      <trkpt lat="43.79288" lon="7.51935">
        <ele>338</ele>
        <time>2018-06-19T14:24:01Z</time>
      </trkpt>
      <trkpt lat="43.7928" lon="7.5193">
        <ele>336</ele>
        <time>2018-06-19T14:24:15Z</time>
      </trkpt>
      <trkpt lat="43.79273" lon="7.51926">
        <ele>333</ele>
        <time>2018-06-19T14:24:29Z</time>
      </trkpt>
      <trkpt lat="43.79269" lon="7.51923">
        <ele>331</ele>
        <time>2018-06-19T14:24:44Z</time>
      </trkpt>
      <trkpt lat="43.79266" lon="7.51919">
        <ele>330</ele>
        <time>2018-06-19T14:24:55Z</time>
      </trkpt>
      <trkpt lat="43.79263" lon="7.51909">
        <ele>321</ele>
        <time>2018-06-19T14:25:07Z</time>
      </trkpt>
      <trkpt lat="43.79266" lon="7.51898">
        <ele>320</ele>
        <time>2018-06-19T14:25:18Z</time>
      </trkpt>
      <trkpt lat="43.79261" lon="7.51899">
        <ele>320</ele>
        <time>2018-06-19T14:25:31Z</time>
      </trkpt>
      <trkpt lat="43.79254" lon="7.519">
        <ele>320</ele>
        <time>2018-06-19T14:25:43Z</time>
      </trkpt>
      <trkpt lat="43.79251" lon="7.51898">
        <ele>319</ele>
        <time>2018-06-19T14:25:56Z</time>
      </trkpt>
      <trkpt lat="43.79248" lon="7.51891">
        <ele>300</ele>
        <time>2018-06-19T14:26:09Z</time>
      </trkpt>
      <trkpt lat="43.79245" lon="7.51887">
        <ele>298</ele>
        <time>2018-06-19T14:26:22Z</time>
      </trkpt>
      <trkpt lat="43.79242" lon="7.51881">
        <ele>296</ele>
        <time>2018-06-19T14:26:36Z</time>
      </trkpt>
      <trkpt lat="43.7924" lon="7.51876">
        <ele>294</ele>
        <time>2018-06-19T14:26:48Z</time>
      </trkpt>
      <trkpt lat="43.79238" lon="7.5187">
        <ele>293</ele>
        <time>2018-06-19T14:27:00Z</time>
      </trkpt>
      <trkpt lat="43.79235" lon="7.51869">
        <ele>292</ele>
        <time>2018-06-19T14:27:13Z</time>
      </trkpt>
      <trkpt lat="43.7923" lon="7.51863">
        <ele>291</ele>
        <time>2018-06-19T14:27:26Z</time>
      </trkpt>
      <trkpt lat="43.79229" lon="7.51854">
        <ele>290</ele>
        <time>2018-06-19T14:27:40Z</time>
      </trkpt>
      <trkpt lat="43.79233" lon="7.51839">
        <ele>290</ele>
        <time>2018-06-19T14:27:55Z</time>
      </trkpt>
      <trkpt lat="43.79237" lon="7.51831">
        <ele>284</ele>
        <time>2018-06-19T14:28:07Z</time>
      </trkpt>
      <trkpt lat="43.79236" lon="7.51826">
        <ele>283</ele>
        <time>2018-06-19T14:28:19Z</time>
      </trkpt>
      <trkpt lat="43.79237" lon="7.51826">
        <ele>283</ele>
        <time>2018-06-19T14:29:07Z</time>
      </trkpt>
      <trkpt lat="43.79233" lon="7.51828">
        <ele>282</ele>
        <time>2018-06-19T14:29:58Z</time>
      </trkpt>
      <trkpt lat="43.79233" lon="7.51828">
        <ele>282</ele>
        <time>2018-06-19T14:29:59Z</time>
      </trkpt>
      <trkpt lat="43.79227" lon="7.51834">
        <ele>289</ele>
        <time>2018-06-19T14:30:09Z</time>
      </trkpt>
      <trkpt lat="43.79222" lon="7.51836">
        <ele>288</ele>
        <time>2018-06-19T14:30:22Z</time>
      </trkpt>
      <trkpt lat="43.79217" lon="7.51834">
        <ele>287</ele>
        <time>2018-06-19T14:30:33Z</time>
      </trkpt>
      <trkpt lat="43.7922" lon="7.51826">
        <ele>277</ele>
        <time>2018-06-19T14:30:46Z</time>
      </trkpt>
      <trkpt lat="43.79214" lon="7.51824">
        <ele>275</ele>
        <time>2018-06-19T14:31:01Z</time>
      </trkpt>
      <trkpt lat="43.79212" lon="7.51821">
        <ele>274</ele>
        <time>2018-06-19T14:31:15Z</time>
      </trkpt>
      <trkpt lat="43.79207" lon="7.51821">
        <ele>273</ele>
        <time>2018-06-19T14:31:28Z</time>
      </trkpt>
      <trkpt lat="43.79204" lon="7.51821">
        <ele>272</ele>
        <time>2018-06-19T14:31:45Z</time>
      </trkpt>
      <trkpt lat="43.79204" lon="7.51812">
        <ele>271</ele>
        <time>2018-06-19T14:31:57Z</time>
      </trkpt>
      <trkpt lat="43.79205" lon="7.51808">
        <ele>271</ele>
        <time>2018-06-19T14:32:12Z</time>
      </trkpt>
      <trkpt lat="43.79202" lon="7.51807">
        <ele>271</ele>
        <time>2018-06-19T14:32:25Z</time>
      </trkpt>
      <trkpt lat="43.79201" lon="7.51802">
        <ele>270</ele>
        <time>2018-06-19T14:32:38Z</time>
      </trkpt>
      <trkpt lat="43.79194" lon="7.51804">
        <ele>269</ele>
        <time>2018-06-19T14:32:51Z</time>
      </trkpt>
      <trkpt lat="43.79188" lon="7.51804">
        <ele>268</ele>
        <time>2018-06-19T14:33:05Z</time>
      </trkpt>
      <trkpt lat="43.79187" lon="7.518">
        <ele>267</ele>
        <time>2018-06-19T14:33:17Z</time>
      </trkpt>
      <trkpt lat="43.79187" lon="7.51797">
        <ele>267</ele>
        <time>2018-06-19T14:33:30Z</time>
      </trkpt>
      <trkpt lat="43.79185" lon="7.51793">
        <ele>266</ele>
        <time>2018-06-19T14:33:42Z</time>
      </trkpt>
      <trkpt lat="43.79186" lon="7.51792">
        <ele>266</ele>
        <time>2018-06-19T14:33:48Z</time>
      </trkpt>
      <trkpt lat="43.79187" lon="7.51792">
        <ele>266</ele>
        <time>2018-06-19T14:34:07Z</time>
      </trkpt>
      <trkpt lat="43.79189" lon="7.51788">
        <ele>266</ele>
        <time>2018-06-19T14:34:35Z</time>
      </trkpt>
      <trkpt lat="43.79191" lon="7.51788">
        <ele>267</ele>
        <time>2018-06-19T14:34:51Z</time>
      </trkpt>
      <trkpt lat="43.7919" lon="7.51789">
        <ele>267</ele>
        <time>2018-06-19T14:35:11Z</time>
      </trkpt>
      <trkpt lat="43.79191" lon="7.51788">
        <ele>267</ele>
        <time>2018-06-19T14:35:26Z</time>
      </trkpt>
      <trkpt lat="43.7919" lon="7.51789">
        <ele>267</ele>
        <time>2018-06-19T14:35:53Z</time>
      </trkpt>
      <trkpt lat="43.79189" lon="7.5179">
        <ele>266</ele>
        <time>2018-06-19T14:36:05Z</time>
      </trkpt>
      <trkpt lat="43.79184" lon="7.51787">
        <ele>265</ele>
        <time>2018-06-19T14:36:19Z</time>
      </trkpt>
      <trkpt lat="43.79183" lon="7.51786">
        <ele>265</ele>
        <time>2018-06-19T14:36:38Z</time>
      </trkpt>
      <trkpt lat="43.79183" lon="7.51786">
        <ele>265</ele>
        <time>2018-06-19T14:37:19Z</time>
      </trkpt>
      <trkpt lat="43.79177" lon="7.51782">
        <ele>263</ele>
        <time>2018-06-19T14:37:32Z</time>
      </trkpt>
      <trkpt lat="43.79175" lon="7.51781">
        <ele>262</ele>
        <time>2018-06-19T14:37:35Z</time>
      </trkpt>
      <trkpt lat="43.79169" lon="7.51775">
        <ele>260</ele>
        <time>2018-06-19T14:37:48Z</time>
      </trkpt>
      <trkpt lat="43.79167" lon="7.51775">
        <ele>259</ele>
        <time>2018-06-19T14:38:02Z</time>
      </trkpt>
      <trkpt lat="43.79161" lon="7.51772">
        <ele>241</ele>
        <time>2018-06-19T14:38:16Z</time>
      </trkpt>
      <trkpt lat="43.79156" lon="7.51768">
        <ele>240</ele>
        <time>2018-06-19T14:38:29Z</time>
      </trkpt>
      <trkpt lat="43.79154" lon="7.51764">
        <ele>240</ele>
        <time>2018-06-19T14:38:43Z</time>
      </trkpt>
      <trkpt lat="43.79152" lon="7.51761">
        <ele>240</ele>
        <time>2018-06-19T14:38:57Z</time>
      </trkpt>
      <trkpt lat="43.79149" lon="7.51755">
        <ele>240</ele>
        <time>2018-06-19T14:39:10Z</time>
      </trkpt>
      <trkpt lat="43.79147" lon="7.51746">
        <ele>233</ele>
        <time>2018-06-19T14:39:23Z</time>
      </trkpt>
      <trkpt lat="43.79143" lon="7.51734">
        <ele>230</ele>
        <time>2018-06-19T14:39:38Z</time>
      </trkpt>
      <trkpt lat="43.79141" lon="7.51729">
        <ele>230</ele>
        <time>2018-06-19T14:39:52Z</time>
      </trkpt>
      <trkpt lat="43.79137" lon="7.51726">
        <ele>228</ele>
        <time>2018-06-19T14:40:05Z</time>
      </trkpt>
      <trkpt lat="43.79131" lon="7.51719">
        <ele>227</ele>
        <time>2018-06-19T14:40:19Z</time>
      </trkpt>
      <trkpt lat="43.79126" lon="7.51716">
        <ele>226</ele>
        <time>2018-06-19T14:40:33Z</time>
      </trkpt>
      <trkpt lat="43.79122" lon="7.51708">
        <ele>225</ele>
        <time>2018-06-19T14:40:48Z</time>
      </trkpt>
      <trkpt lat="43.79121" lon="7.51705">
        <ele>225</ele>
        <time>2018-06-19T14:41:02Z</time>
      </trkpt>
      <trkpt lat="43.79119" lon="7.51699">
        <ele>224</ele>
        <time>2018-06-19T14:41:15Z</time>
      </trkpt>
      <trkpt lat="43.79116" lon="7.5169">
        <ele>223</ele>
        <time>2018-06-19T14:41:28Z</time>
      </trkpt>
      <trkpt lat="43.79105" lon="7.51682">
        <ele>220</ele>
        <time>2018-06-19T14:41:43Z</time>
      </trkpt>
      <trkpt lat="43.79099" lon="7.51678">
        <ele>218</ele>
        <time>2018-06-19T14:41:50Z</time>
      </trkpt>
      <trkpt lat="43.79096" lon="7.51669">
        <ele>215</ele>
        <time>2018-06-19T14:42:05Z</time>
      </trkpt>
      <trkpt lat="43.79098" lon="7.51666">
        <ele>210</ele>
        <time>2018-06-19T14:42:17Z</time>
      </trkpt>
      <trkpt lat="43.79102" lon="7.5166">
        <ele>211</ele>
        <time>2018-06-19T14:42:29Z</time>
      </trkpt>
      <trkpt lat="43.7911" lon="7.5166">
        <ele>212</ele>
        <time>2018-06-19T14:42:44Z</time>
      </trkpt>
      <trkpt lat="43.79113" lon="7.51667">
        <ele>220</ele>
        <time>2018-06-19T14:42:58Z</time>
      </trkpt>
      <trkpt lat="43.79111" lon="7.51668">
        <ele>220</ele>
        <time>2018-06-19T14:43:16Z</time>
      </trkpt>
      <trkpt lat="43.79107" lon="7.51655">
        <ele>211</ele>
        <time>2018-06-19T14:43:32Z</time>
      </trkpt>
      <trkpt lat="43.79108" lon="7.51653">
        <ele>211</ele>
        <time>2018-06-19T14:43:34Z</time>
      </trkpt>
      <trkpt lat="43.79108" lon="7.51651">
        <ele>211</ele>
        <time>2018-06-19T14:43:37Z</time>
      </trkpt>
      <trkpt lat="43.79109" lon="7.51647">
        <ele>211</ele>
        <time>2018-06-19T14:43:51Z</time>
      </trkpt>
      <trkpt lat="43.79108" lon="7.5165">
        <ele>211</ele>
        <time>2018-06-19T14:44:18Z</time>
      </trkpt>
      <trkpt lat="43.79101" lon="7.51652">
        <ele>210</ele>
        <time>2018-06-19T14:44:31Z</time>
      </trkpt>
      <trkpt lat="43.79095" lon="7.51652">
        <ele>210</ele>
        <time>2018-06-19T14:44:50Z</time>
      </trkpt>
      <trkpt lat="43.79094" lon="7.51652">
        <ele>210</ele>
        <time>2018-06-19T14:45:02Z</time>
      </trkpt>
      <trkpt lat="43.79095" lon="7.51648">
        <ele>210</ele>
        <time>2018-06-19T14:45:59Z</time>
      </trkpt>
      <trkpt lat="43.79095" lon="7.51646">
        <ele>210</ele>
        <time>2018-06-19T14:46:38Z</time>
      </trkpt>
      <trkpt lat="43.79095" lon="7.51646">
        <ele>210</ele>
        <time>2018-06-19T14:47:23Z</time>
      </trkpt>
      <trkpt lat="43.79098" lon="7.51644">
        <ele>210</ele>
        <time>2018-06-19T14:47:36Z</time>
      </trkpt>
      <trkpt lat="43.79104" lon="7.51641">
        <ele>210</ele>
        <time>2018-06-19T14:47:42Z</time>
      </trkpt>
      <trkpt lat="43.79113" lon="7.51638">
        <ele>211</ele>
        <time>2018-06-19T14:47:52Z</time>
      </trkpt>
      <trkpt lat="43.7912" lon="7.51623">
        <ele>210</ele>
        <time>2018-06-19T14:48:07Z</time>
      </trkpt>
      <trkpt lat="43.7912" lon="7.51611">
        <ele>209</ele>
        <time>2018-06-19T14:48:18Z</time>
      </trkpt>
      <trkpt lat="43.79122" lon="7.51591">
        <ele>208</ele>
        <time>2018-06-19T14:48:31Z</time>
      </trkpt>
      <trkpt lat="43.79123" lon="7.51582">
        <ele>195</ele>
        <time>2018-06-19T14:48:38Z</time>
      </trkpt>
      <trkpt lat="43.79128" lon="7.51562">
        <ele>194</ele>
        <time>2018-06-19T14:48:53Z</time>
      </trkpt>
      <trkpt lat="43.79128" lon="7.51561">
        <ele>194</ele>
        <time>2018-06-19T14:48:54Z</time>
      </trkpt>
      <trkpt lat="43.79137" lon="7.51546">
        <ele>193</ele>
        <time>2018-06-19T14:49:10Z</time>
      </trkpt>
      <trkpt lat="43.79143" lon="7.51541">
        <ele>193</ele>
        <time>2018-06-19T14:49:17Z</time>
      </trkpt>
      <trkpt lat="43.79142" lon="7.51541">
        <ele>193</ele>
        <time>2018-06-19T14:49:19Z</time>
      </trkpt>
      <trkpt lat="43.79139" lon="7.5154">
        <ele>192</ele>
        <time>2018-06-19T14:49:23Z</time>
      </trkpt>
      <trkpt lat="43.79136" lon="7.51542">
        <ele>192</ele>
        <time>2018-06-19T14:49:27Z</time>
      </trkpt>
      <trkpt lat="43.79126" lon="7.51554">
        <ele>193</ele>
        <time>2018-06-19T14:49:43Z</time>
      </trkpt>
      <trkpt lat="43.79123" lon="7.51572">
        <ele>194</ele>
        <time>2018-06-19T14:49:56Z</time>
      </trkpt>
      <trkpt lat="43.79121" lon="7.51591">
        <ele>207</ele>
        <time>2018-06-19T14:50:08Z</time>
      </trkpt>
      <trkpt lat="43.79114" lon="7.51612">
        <ele>208</ele>
        <time>2018-06-19T14:50:23Z</time>
      </trkpt>
      <trkpt lat="43.79113" lon="7.51613">
        <ele>208</ele>
        <time>2018-06-19T14:50:24Z</time>
      </trkpt>
      <trkpt lat="43.79105" lon="7.51616">
        <ele>207</ele>
        <time>2018-06-19T14:50:30Z</time>
      </trkpt>
      <trkpt lat="43.79102" lon="7.51616">
        <ele>207</ele>
        <time>2018-06-19T14:50:33Z</time>
      </trkpt>
      <trkpt lat="43.79087" lon="7.51607">
        <ele>202</ele>
        <time>2018-06-19T14:50:47Z</time>
      </trkpt>
      <trkpt lat="43.79083" lon="7.51603">
        <ele>191</ele>
        <time>2018-06-19T14:50:52Z</time>
      </trkpt>
      <trkpt lat="43.79073" lon="7.51588">
        <ele>189</ele>
        <time>2018-06-19T14:51:04Z</time>
      </trkpt>
      <trkpt lat="43.79063" lon="7.51573">
        <ele>179</ele>
        <time>2018-06-19T14:51:17Z</time>
      </trkpt>
      <trkpt lat="43.79051" lon="7.51563">
        <ele>176</ele>
        <time>2018-06-19T14:51:31Z</time>
      </trkpt>
      <trkpt lat="43.79041" lon="7.51557">
        <ele>174</ele>
        <time>2018-06-19T14:51:47Z</time>
      </trkpt>
      <trkpt lat="43.79037" lon="7.51552">
        <ele>173</ele>
        <time>2018-06-19T14:52:03Z</time>
      </trkpt>
      <trkpt lat="43.79031" lon="7.5155">
        <ele>172</ele>
        <time>2018-06-19T14:52:11Z</time>
      </trkpt>
      <trkpt lat="43.79032" lon="7.51556">
        <ele>173</ele>
        <time>2018-06-19T14:52:19Z</time>
      </trkpt>
      <trkpt lat="43.79027" lon="7.5157">
        <ele>174</ele>
        <time>2018-06-19T14:52:32Z</time>
      </trkpt>
      <trkpt lat="43.79025" lon="7.51575">
        <ele>175</ele>
        <time>2018-06-19T14:52:37Z</time>
      </trkpt>
      <trkpt lat="43.79022" lon="7.51588">
        <ele>184</ele>
        <time>2018-06-19T14:52:51Z</time>
      </trkpt>
      <trkpt lat="43.79021" lon="7.51591">
        <ele>185</ele>
        <time>2018-06-19T14:53:01Z</time>
      </trkpt>
      <trkpt lat="43.7902" lon="7.51599">
        <ele>185</ele>
        <time>2018-06-19T14:53:14Z</time>
      </trkpt>
      <trkpt lat="43.79015" lon="7.51616">
        <ele>187</ele>
        <time>2018-06-19T14:53:28Z</time>
      </trkpt>
      <trkpt lat="43.79015" lon="7.51623">
        <ele>188</ele>
        <time>2018-06-19T14:53:32Z</time>
      </trkpt>
      <trkpt lat="43.79015" lon="7.5164">
        <ele>189</ele>
        <time>2018-06-19T14:53:44Z</time>
      </trkpt>
      <trkpt lat="43.79014" lon="7.51648">
        <ele>189</ele>
        <time>2018-06-19T14:53:50Z</time>
      </trkpt>
      <trkpt lat="43.79011" lon="7.51663">
        <ele>188</ele>
        <time>2018-06-19T14:54:01Z</time>
      </trkpt>
      <trkpt lat="43.79009" lon="7.51678">
        <ele>192</ele>
        <time>2018-06-19T14:54:11Z</time>
      </trkpt>
      <trkpt lat="43.79006" lon="7.51694">
        <ele>195</ele>
        <time>2018-06-19T14:54:22Z</time>
      </trkpt>
      <trkpt lat="43.79004" lon="7.51712">
        <ele>196</ele>
        <time>2018-06-19T14:54:35Z</time>
      </trkpt>
      <trkpt lat="43.79001" lon="7.5173">
        <ele>195</ele>
        <time>2018-06-19T14:54:47Z</time>
      </trkpt>
      <trkpt lat="43.79001" lon="7.51731">
        <ele>195</ele>
        <time>2018-06-19T14:54:48Z</time>
      </trkpt>
      <trkpt lat="43.78999" lon="7.51738">
        <ele>182</ele>
        <time>2018-06-19T14:54:53Z</time>
      </trkpt>
      <trkpt lat="43.78998" lon="7.51754">
        <ele>186</ele>
        <time>2018-06-19T14:55:05Z</time>
      </trkpt>
      <trkpt lat="43.79" lon="7.51772">
        <ele>178</ele>
        <time>2018-06-19T14:55:17Z</time>
      </trkpt>
      <trkpt lat="43.78998" lon="7.51776">
        <ele>177</ele>
        <time>2018-06-19T14:55:21Z</time>
      </trkpt>
      <trkpt lat="43.78995" lon="7.51776">
        <ele>177</ele>
        <time>2018-06-19T14:55:26Z</time>
      </trkpt>
      <trkpt lat="43.78992" lon="7.5177">
        <ele>177</ele>
        <time>2018-06-19T14:55:32Z</time>
      </trkpt>
      <trkpt lat="43.78986" lon="7.51757">
        <ele>179</ele>
        <time>2018-06-19T14:55:44Z</time>
      </trkpt>
      <trkpt lat="43.78983" lon="7.51753">
        <ele>178</ele>
        <time>2018-06-19T14:55:48Z</time>
      </trkpt>
      <trkpt lat="43.78977" lon="7.51742">
        <ele>176</ele>
        <time>2018-06-19T14:56:02Z</time>
      </trkpt>
      <trkpt lat="43.78971" lon="7.51737">
        <ele>174</ele>
        <time>2018-06-19T14:56:14Z</time>
      </trkpt>
      <trkpt lat="43.78972" lon="7.5174">
        <ele>174</ele>
        <time>2018-06-19T14:56:31Z</time>
      </trkpt>
      <trkpt lat="43.7897" lon="7.5175">
        <ele>174</ele>
        <time>2018-06-19T14:56:48Z</time>
      </trkpt>
      <trkpt lat="43.78965" lon="7.51748">
        <ele>172</ele>
        <time>2018-06-19T14:57:02Z</time>
      </trkpt>
      <trkpt lat="43.78962" lon="7.51752">
        <ele>170</ele>
        <time>2018-06-19T14:57:12Z</time>
      </trkpt>
      <trkpt lat="43.78957" lon="7.51753">
        <ele>168</ele>
        <time>2018-06-19T14:57:24Z</time>
      </trkpt>
      <trkpt lat="43.78952" lon="7.5176">
        <ele>167</ele>
        <time>2018-06-19T14:57:37Z</time>
      </trkpt>
      <trkpt lat="43.78951" lon="7.5177">
        <ele>166</ele>
        <time>2018-06-19T14:57:51Z</time>
      </trkpt>
      <trkpt lat="43.78948" lon="7.51774">
        <ele>165</ele>
        <time>2018-06-19T14:58:04Z</time>
      </trkpt>
      <trkpt lat="43.78944" lon="7.5177">
        <ele>164</ele>
        <time>2018-06-19T14:58:18Z</time>
      </trkpt>
      <trkpt lat="43.78939" lon="7.51772">
        <ele>163</ele>
        <time>2018-06-19T14:58:31Z</time>
      </trkpt>
      <trkpt lat="43.78939" lon="7.51772">
        <ele>163</ele>
        <time>2018-06-19T14:59:02Z</time>
      </trkpt>
      <trkpt lat="43.78932" lon="7.51766">
        <ele>161</ele>
        <time>2018-06-19T14:59:15Z</time>
      </trkpt>
      <trkpt lat="43.7893" lon="7.51764">
        <ele>160</ele>
        <time>2018-06-19T14:59:27Z</time>
      </trkpt>
      <trkpt lat="43.78923" lon="7.51767">
        <ele>159</ele>
        <time>2018-06-19T14:59:40Z</time>
      </trkpt>
      <trkpt lat="43.78918" lon="7.51763">
        <ele>157</ele>
        <time>2018-06-19T14:59:53Z</time>
      </trkpt>
      <trkpt lat="43.78916" lon="7.51762">
        <ele>143</ele>
        <time>2018-06-19T15:00:04Z</time>
      </trkpt>
      <trkpt lat="43.78918" lon="7.51763">
        <ele>157</ele>
        <time>2018-06-19T15:00:38Z</time>
      </trkpt>
      <trkpt lat="43.78918" lon="7.51763">
        <ele>157</ele>
        <time>2018-06-19T15:01:03Z</time>
      </trkpt>
      <trkpt lat="43.78917" lon="7.51762">
        <ele>157</ele>
        <time>2018-06-19T15:03:44Z</time>
      </trkpt>
      <trkpt lat="43.78917" lon="7.51766">
        <ele>142</ele>
        <time>2018-06-19T15:04:10Z</time>
      </trkpt>
      <trkpt lat="43.78918" lon="7.51764">
        <ele>158</ele>
        <time>2018-06-19T15:04:47Z</time>
      </trkpt>
      <trkpt lat="43.78917" lon="7.51766">
        <ele>142</ele>
        <time>2018-06-19T15:05:17Z</time>
      </trkpt>
      <trkpt lat="43.78916" lon="7.5178">
        <ele>138</ele>
        <time>2018-06-19T15:05:29Z</time>
      </trkpt>
      <trkpt lat="43.78916" lon="7.51781">
        <ele>138</ele>
        <time>2018-06-19T15:05:30Z</time>
      </trkpt>
      <trkpt lat="43.78917" lon="7.51789">
        <ele>160</ele>
        <time>2018-06-19T15:05:37Z</time>
      </trkpt>
      <trkpt lat="43.7892" lon="7.51798">
        <ele>160</ele>
        <time>2018-06-19T15:05:44Z</time>
      </trkpt>
      <trkpt lat="43.78926" lon="7.51811">
        <ele>158</ele>
        <time>2018-06-19T15:05:57Z</time>
      </trkpt>
      <trkpt lat="43.78932" lon="7.51819">
        <ele>158</ele>
        <time>2018-06-19T15:06:06Z</time>
      </trkpt>
      <trkpt lat="43.78934" lon="7.51821">
        <ele>158</ele>
        <time>2018-06-19T15:06:08Z</time>
      </trkpt>
      <trkpt lat="43.78936" lon="7.51839">
        <ele>156</ele>
        <time>2018-06-19T15:06:21Z</time>
      </trkpt>
      <trkpt lat="43.7893" lon="7.51843">
        <ele>154</ele>
        <time>2018-06-19T15:06:29Z</time>
      </trkpt>
      <trkpt lat="43.78926" lon="7.51843">
        <ele>153</ele>
        <time>2018-06-19T15:06:33Z</time>
      </trkpt>
      <trkpt lat="43.78914" lon="7.51834">
        <ele>143</ele>
        <time>2018-06-19T15:06:47Z</time>
      </trkpt>
      <trkpt lat="43.78905" lon="7.5183">
        <ele>140</ele>
        <time>2018-06-19T15:06:55Z</time>
      </trkpt>
      <trkpt lat="43.78901" lon="7.51825">
        <ele>138</ele>
        <time>2018-06-19T15:07:00Z</time>
      </trkpt>
      <trkpt lat="43.78898" lon="7.51817">
        <ele>136</ele>
        <time>2018-06-19T15:07:06Z</time>
      </trkpt>
      <trkpt lat="43.78896" lon="7.51812">
        <ele>135</ele>
        <time>2018-06-19T15:07:11Z</time>
      </trkpt>
      <trkpt lat="43.78885" lon="7.51794">
        <ele>133</ele>
        <time>2018-06-19T15:07:26Z</time>
      </trkpt>
      <trkpt lat="43.78876" lon="7.51782">
        <ele>131</ele>
        <time>2018-06-19T15:07:43Z</time>
      </trkpt>
      <trkpt lat="43.78875" lon="7.51783">
        <ele>131</ele>
        <time>2018-06-19T15:07:44Z</time>
      </trkpt>
      <trkpt lat="43.78869" lon="7.51794">
        <ele>129</ele>
        <time>2018-06-19T15:07:59Z</time>
      </trkpt>
      <trkpt lat="43.78864" lon="7.51805">
        <ele>128</ele>
        <time>2018-06-19T15:08:14Z</time>
      </trkpt>
      <trkpt lat="43.78858" lon="7.51805">
        <ele>127</ele>
        <time>2018-06-19T15:08:28Z</time>
      </trkpt>
      <trkpt lat="43.78853" lon="7.51806">
        <ele>126</ele>
        <time>2018-06-19T15:08:41Z</time>
      </trkpt>
      <trkpt lat="43.78849" lon="7.51818">
        <ele>124</ele>
        <time>2018-06-19T15:08:56Z</time>
      </trkpt>
      <trkpt lat="43.78846" lon="7.51825">
        <ele>122</ele>
        <time>2018-06-19T15:09:08Z</time>
      </trkpt>
      <trkpt lat="43.78846" lon="7.51825">
        <ele>122</ele>
        <time>2018-06-19T15:09:22Z</time>
      </trkpt>
      <trkpt lat="43.78847" lon="7.5181">
        <ele>125</ele>
        <time>2018-06-19T15:09:35Z</time>
      </trkpt>
      <trkpt lat="43.7885" lon="7.51797">
        <ele>126</ele>
        <time>2018-06-19T15:09:47Z</time>
      </trkpt>
      <trkpt lat="43.7885" lon="7.51794">
        <ele>126</ele>
        <time>2018-06-19T15:10:09Z</time>
      </trkpt>
      <trkpt lat="43.78851" lon="7.51793">
        <ele>126</ele>
        <time>2018-06-19T15:10:38Z</time>
      </trkpt>
      <trkpt lat="43.78849" lon="7.51802">
        <ele>126</ele>
        <time>2018-06-19T15:10:52Z</time>
      </trkpt>
      <trkpt lat="43.78846" lon="7.51816">
        <ele>124</ele>
        <time>2018-06-19T15:11:07Z</time>
      </trkpt>
      <trkpt lat="43.78846" lon="7.51832">
        <ele>122</ele>
        <time>2018-06-19T15:11:20Z</time>
      </trkpt>
      <trkpt lat="43.78843" lon="7.51838">
        <ele>120</ele>
        <time>2018-06-19T15:11:30Z</time>
      </trkpt>
      <trkpt lat="43.78838" lon="7.51831">
        <ele>119</ele>
        <time>2018-06-19T15:11:43Z</time>
      </trkpt>
      <trkpt lat="43.78836" lon="7.51827">
        <ele>119</ele>
        <time>2018-06-19T15:11:54Z</time>
      </trkpt>
      <trkpt lat="43.78834" lon="7.51825">
        <ele>120</ele>
        <time>2018-06-19T15:12:06Z</time>
      </trkpt>
      <trkpt lat="43.78827" lon="7.51827">
        <ele>110</ele>
        <time>2018-06-19T15:12:21Z</time>
      </trkpt>
      <trkpt lat="43.78828" lon="7.51824">
        <ele>108</ele>
        <time>2018-06-19T15:12:33Z</time>
      </trkpt>
      <trkpt lat="43.78821" lon="7.51823">
        <ele>105</ele>
        <time>2018-06-19T15:12:45Z</time>
      </trkpt>
      <trkpt lat="43.78817" lon="7.51821">
        <ele>104</ele>
        <time>2018-06-19T15:12:57Z</time>
      </trkpt>
      <trkpt lat="43.7882" lon="7.51805">
        <ele>101</ele>
        <time>2018-06-19T15:13:12Z</time>
      </trkpt>
      <trkpt lat="43.78822" lon="7.51801">
        <ele>101</ele>
        <time>2018-06-19T15:13:15Z</time>
      </trkpt>
      <trkpt lat="43.78824" lon="7.51787">
        <ele>100</ele>
        <time>2018-06-19T15:13:29Z</time>
      </trkpt>
      <trkpt lat="43.78829" lon="7.51771">
        <ele>102</ele>
        <time>2018-06-19T15:13:43Z</time>
      </trkpt>
      <trkpt lat="43.78833" lon="7.51762">
        <ele>105</ele>
        <time>2018-06-19T15:13:54Z</time>
      </trkpt>
      <trkpt lat="43.78836" lon="7.51751">
        <ele>112</ele>
        <time>2018-06-19T15:14:05Z</time>
      </trkpt>
      <trkpt lat="43.78835" lon="7.51746">
        <ele>114</ele>
        <time>2018-06-19T15:14:08Z</time>
      </trkpt>
      <trkpt lat="43.78832" lon="7.5173">
        <ele>102</ele>
        <time>2018-06-19T15:14:21Z</time>
      </trkpt>
      <trkpt lat="43.7883" lon="7.51725">
        <ele>101</ele>
        <time>2018-06-19T15:14:25Z</time>
      </trkpt>
      <trkpt lat="43.78825" lon="7.51711">
        <ele>99</ele>
        <time>2018-06-19T15:14:38Z</time>
      </trkpt>
      <trkpt lat="43.78822" lon="7.51698">
        <ele>99</ele>
        <time>2018-06-19T15:14:50Z</time>
      </trkpt>
      <trkpt lat="43.78819" lon="7.51685">
        <ele>100</ele>
        <time>2018-06-19T15:15:04Z</time>
      </trkpt>
      <trkpt lat="43.78814" lon="7.5167">
        <ele>101</ele>
        <time>2018-06-19T15:15:15Z</time>
      </trkpt>
      <trkpt lat="43.78814" lon="7.51667">
        <ele>101</ele>
        <time>2018-06-19T15:15:17Z</time>
      </trkpt>
      <trkpt lat="43.78812" lon="7.51662">
        <ele>100</ele>
        <time>2018-06-19T15:15:21Z</time>
      </trkpt>
      <trkpt lat="43.78812" lon="7.51659">
        <ele>100</ele>
        <time>2018-06-19T15:15:23Z</time>
      </trkpt>
      <trkpt lat="43.78807" lon="7.51641">
        <ele>97</ele>
        <time>2018-06-19T15:15:37Z</time>
      </trkpt>
      <trkpt lat="43.78801" lon="7.51622">
        <ele>96</ele>
        <time>2018-06-19T15:15:52Z</time>
      </trkpt>
      <trkpt lat="43.788" lon="7.51618">
        <ele>96</ele>
        <time>2018-06-19T15:15:55Z</time>
      </trkpt>
      <trkpt lat="43.78788" lon="7.51615">
        <ele>93</ele>
        <time>2018-06-19T15:16:07Z</time>
      </trkpt>
      <trkpt lat="43.78785" lon="7.51617">
        <ele>93</ele>
        <time>2018-06-19T15:16:09Z</time>
      </trkpt>
      <trkpt lat="43.78781" lon="7.51618">
        <ele>92</ele>
        <time>2018-06-19T15:16:13Z</time>
      </trkpt>
      <trkpt lat="43.78774" lon="7.5162">
        <ele>91</ele>
        <time>2018-06-19T15:16:20Z</time>
      </trkpt>
      <trkpt lat="43.78772" lon="7.5162">
        <ele>90</ele>
        <time>2018-06-19T15:16:22Z</time>
      </trkpt>
      <trkpt lat="43.78762" lon="7.51622">
        <ele>89</ele>
        <time>2018-06-19T15:16:33Z</time>
      </trkpt>
      <trkpt lat="43.78747" lon="7.51629">
        <ele>71</ele>
        <time>2018-06-19T15:16:47Z</time>
      </trkpt>
      <trkpt lat="43.78743" lon="7.51632">
        <ele>70</ele>
        <time>2018-06-19T15:16:52Z</time>
      </trkpt>
      <trkpt lat="43.78732" lon="7.51649">
        <ele>71</ele>
        <time>2018-06-19T15:17:08Z</time>
      </trkpt>
      <trkpt lat="43.78729" lon="7.51653">
        <ele>71</ele>
        <time>2018-06-19T15:17:12Z</time>
      </trkpt>
      <trkpt lat="43.78717" lon="7.51673">
        <ele>70</ele>
        <time>2018-06-19T15:17:29Z</time>
      </trkpt>
      <trkpt lat="43.78713" lon="7.51682">
        <ele>70</ele>
        <time>2018-06-19T15:17:36Z</time>
      </trkpt>
      <trkpt lat="43.78712" lon="7.51692">
        <ele>69</ele>
        <time>2018-06-19T15:17:44Z</time>
      </trkpt>
      <trkpt lat="43.78712" lon="7.51695">
        <ele>69</ele>
        <time>2018-06-19T15:17:46Z</time>
      </trkpt>
      <trkpt lat="43.78704" lon="7.51699">
        <ele>68</ele>
        <time>2018-06-19T15:17:59Z</time>
      </trkpt>
      <trkpt lat="43.78697" lon="7.51702">
        <ele>67</ele>
        <time>2018-06-19T15:18:08Z</time>
      </trkpt>
      <trkpt lat="43.78686" lon="7.51712">
        <ele>66</ele>
        <time>2018-06-19T15:18:24Z</time>
      </trkpt>
      <trkpt lat="43.78683" lon="7.51715">
        <ele>66</ele>
        <time>2018-06-19T15:18:28Z</time>
      </trkpt>
      <trkpt lat="43.78673" lon="7.51708">
        <ele>65</ele>
        <time>2018-06-19T15:18:43Z</time>
      </trkpt>
      <trkpt lat="43.78665" lon="7.51712">
        <ele>52</ele>
        <time>2018-06-19T15:18:55Z</time>
      </trkpt>
      <trkpt lat="43.78657" lon="7.51718">
        <ele>51</ele>
        <time>2018-06-19T15:19:09Z</time>
      </trkpt>
      <trkpt lat="43.78649" lon="7.51727">
        <ele>51</ele>
        <time>2018-06-19T15:19:24Z</time>
      </trkpt>
      <trkpt lat="43.78641" lon="7.51736">
        <ele>50</ele>
        <time>2018-06-19T15:19:41Z</time>
      </trkpt>
      <trkpt lat="43.78636" lon="7.51739">
        <ele>49</ele>
        <time>2018-06-19T15:19:54Z</time>
      </trkpt>
      <trkpt lat="43.78636" lon="7.51748">
        <ele>49</ele>
        <time>2018-06-19T15:20:05Z</time>
      </trkpt>
      <trkpt lat="43.78633" lon="7.51753">
        <ele>44</ele>
        <time>2018-06-19T15:20:12Z</time>
      </trkpt>
      <trkpt lat="43.78626" lon="7.51756">
        <ele>42</ele>
        <time>2018-06-19T15:20:26Z</time>
      </trkpt>
      <trkpt lat="43.78624" lon="7.51748">
        <ele>46</ele>
        <time>2018-06-19T15:20:41Z</time>
      </trkpt>
      <trkpt lat="43.78623" lon="7.51742">
        <ele>46</ele>
        <time>2018-06-19T15:20:59Z</time>
      </trkpt>
      <trkpt lat="43.7862" lon="7.51733">
        <ele>46</ele>
        <time>2018-06-19T15:21:07Z</time>
      </trkpt>
      <trkpt lat="43.78619" lon="7.51712">
        <ele>46</ele>
        <time>2018-06-19T15:21:23Z</time>
      </trkpt>
      <trkpt lat="43.7862" lon="7.51704">
        <ele>46</ele>
        <time>2018-06-19T15:21:29Z</time>
      </trkpt>
      <trkpt lat="43.78624" lon="7.51684">
        <ele>47</ele>
        <time>2018-06-19T15:21:43Z</time>
      </trkpt>
      <trkpt lat="43.78624" lon="7.5168">
        <ele>47</ele>
        <time>2018-06-19T15:21:46Z</time>
      </trkpt>
      <trkpt lat="43.78626" lon="7.51673">
        <ele>47</ele>
        <time>2018-06-19T15:21:51Z</time>
      </trkpt>
      <trkpt lat="43.78633" lon="7.51657">
        <ele>47</ele>
        <time>2018-06-19T15:22:05Z</time>
      </trkpt>
      <trkpt lat="43.78633" lon="7.51655">
        <ele>47</ele>
        <time>2018-06-19T15:22:06Z</time>
      </trkpt>
      <trkpt lat="43.78635" lon="7.51652">
        <ele>47</ele>
        <time>2018-06-19T15:22:08Z</time>
      </trkpt>
      <trkpt lat="43.78637" lon="7.51649">
        <ele>47</ele>
        <time>2018-06-19T15:22:11Z</time>
      </trkpt>
      <trkpt lat="43.78644" lon="7.51631">
        <ele>46</ele>
        <time>2018-06-19T15:22:25Z</time>
      </trkpt>
      <trkpt lat="43.78649" lon="7.51618">
        <ele>46</ele>
        <time>2018-06-19T15:22:37Z</time>
      </trkpt>
      <trkpt lat="43.78655" lon="7.51611">
        <ele>46</ele>
        <time>2018-06-19T15:22:43Z</time>
      </trkpt>
      <trkpt lat="43.78669" lon="7.51596">
        <ele>56</ele>
        <time>2018-06-19T15:23:00Z</time>
      </trkpt>
      <trkpt lat="43.78679" lon="7.51586">
        <ele>56</ele>
        <time>2018-06-19T15:23:12Z</time>
      </trkpt>
      <trkpt lat="43.78687" lon="7.51574">
        <ele>55</ele>
        <time>2018-06-19T15:23:24Z</time>
      </trkpt>
      <trkpt lat="43.7869" lon="7.51568">
        <ele>56</ele>
        <time>2018-06-19T15:23:29Z</time>
      </trkpt>
      <trkpt lat="43.78691" lon="7.51545">
        <ele>57</ele>
        <time>2018-06-19T15:23:43Z</time>
      </trkpt>
      <trkpt lat="43.7869" lon="7.51526">
        <ele>55</ele>
        <time>2018-06-19T15:23:55Z</time>
      </trkpt>
      <trkpt lat="43.78689" lon="7.51514">
        <ele>54</ele>
        <time>2018-06-19T15:24:04Z</time>
      </trkpt>
      <trkpt lat="43.7869" lon="7.51511">
        <ele>54</ele>
        <time>2018-06-19T15:24:06Z</time>
      </trkpt>
      <trkpt lat="43.78693" lon="7.51493">
        <ele>49</ele>
        <time>2018-06-19T15:24:18Z</time>
      </trkpt>
      <trkpt lat="43.78693" lon="7.51492">
        <ele>49</ele>
        <time>2018-06-19T15:24:40Z</time>
      </trkpt>
      <trkpt lat="43.78702" lon="7.51476">
        <ele>51</ele>
        <time>2018-06-19T15:24:55Z</time>
      </trkpt>
      <trkpt lat="43.78705" lon="7.51471">
        <ele>51</ele>
        <time>2018-06-19T15:24:59Z</time>
      </trkpt>
      <trkpt lat="43.78712" lon="7.51457">
        <ele>51</ele>
        <time>2018-06-19T15:25:12Z</time>
      </trkpt>
      <trkpt lat="43.78715" lon="7.51451">
        <ele>51</ele>
        <time>2018-06-19T15:25:17Z</time>
      </trkpt>
      <trkpt lat="43.7872" lon="7.51447">
        <ele>51</ele>
        <time>2018-06-19T15:25:23Z</time>
      </trkpt>
      <trkpt lat="43.78732" lon="7.51434">
        <ele>51</ele>
        <time>2018-06-19T15:25:38Z</time>
      </trkpt>
      <trkpt lat="43.78742" lon="7.5142">
        <ele>50</ele>
        <time>2018-06-19T15:25:52Z</time>
      </trkpt>
      <trkpt lat="43.78744" lon="7.51417">
        <ele>50</ele>
        <time>2018-06-19T15:25:55Z</time>
      </trkpt>
      <trkpt lat="43.7875" lon="7.51409">
        <ele>52</ele>
        <time>2018-06-19T15:26:02Z</time>
      </trkpt>
      <trkpt lat="43.78755" lon="7.51389">
        <ele>56</ele>
        <time>2018-06-19T15:26:16Z</time>
      </trkpt>
      <trkpt lat="43.78756" lon="7.51374">
        <ele>57</ele>
        <time>2018-06-19T15:26:26Z</time>
      </trkpt>
      <trkpt lat="43.78747" lon="7.51361">
        <ele>52</ele>
        <time>2018-06-19T15:26:38Z</time>
      </trkpt>
      <trkpt lat="43.78746" lon="7.51355">
        <ele>52</ele>
        <time>2018-06-19T15:26:42Z</time>
      </trkpt>
      <trkpt lat="43.78741" lon="7.51347">
        <ele>53</ele>
        <time>2018-06-19T15:26:50Z</time>
      </trkpt>
      <trkpt lat="43.78739" lon="7.51346">
        <ele>53</ele>
        <time>2018-06-19T15:26:52Z</time>
      </trkpt>
      <trkpt lat="43.78738" lon="7.51344">
        <ele>53</ele>
        <time>2018-06-19T15:26:54Z</time>
      </trkpt>
      <trkpt lat="43.78734" lon="7.51342">
        <ele>53</ele>
        <time>2018-06-19T15:26:58Z</time>
      </trkpt>
      <trkpt lat="43.78726" lon="7.51336">
        <ele>52</ele>
        <time>2018-06-19T15:27:07Z</time>
      </trkpt>
      <trkpt lat="43.78709" lon="7.51333">
        <ele>58</ele>
        <time>2018-06-19T15:27:23Z</time>
      </trkpt>
      <trkpt lat="43.78706" lon="7.51332">
        <ele>58</ele>
        <time>2018-06-19T15:27:26Z</time>
      </trkpt>
      <trkpt lat="43.78703" lon="7.51333">
        <ele>58</ele>
        <time>2018-06-19T15:27:29Z</time>
      </trkpt>
      <trkpt lat="43.787" lon="7.5133">
        <ele>57</ele>
        <time>2018-06-19T15:27:32Z</time>
      </trkpt>
      <trkpt lat="43.7869" lon="7.51329">
        <ele>56</ele>
        <time>2018-06-19T15:27:41Z</time>
      </trkpt>
      <trkpt lat="43.78687" lon="7.51327">
        <ele>56</ele>
        <time>2018-06-19T15:27:45Z</time>
      </trkpt>
      <trkpt lat="43.78681" lon="7.51328">
        <ele>55</ele>
        <time>2018-06-19T15:27:58Z</time>
      </trkpt>
      <trkpt lat="43.78678" lon="7.51329">
        <ele>55</ele>
        <time>2018-06-19T15:28:39Z</time>
      </trkpt>
      <trkpt lat="43.78677" lon="7.51329">
        <ele>54</ele>
        <time>2018-06-19T15:28:41Z</time>
      </trkpt>
      <trkpt lat="43.78673" lon="7.51327">
        <ele>54</ele>
        <time>2018-06-19T15:28:57Z</time>
      </trkpt>
      <trkpt lat="43.78671" lon="7.51325">
        <ele>54</ele>
        <time>2018-06-19T15:29:17Z</time>
      </trkpt>
      <trkpt lat="43.78666" lon="7.51321">
        <ele>52</ele>
        <time>2018-06-19T15:29:22Z</time>
      </trkpt>
      <trkpt lat="43.78661" lon="7.51315">
        <ele>52</ele>
        <time>2018-06-19T15:29:28Z</time>
      </trkpt>
      <trkpt lat="43.78651" lon="7.51305">
        <ele>52</ele>
        <time>2018-06-19T15:29:38Z</time>
      </trkpt>
      <trkpt lat="43.78647" lon="7.51302">
        <ele>52</ele>
        <time>2018-06-19T15:29:42Z</time>
      </trkpt>
      <trkpt lat="43.78642" lon="7.51289">
        <ele>53</ele>
        <time>2018-06-19T15:29:52Z</time>
      </trkpt>
      <trkpt lat="43.7864" lon="7.51283">
        <ele>53</ele>
        <time>2018-06-19T15:29:56Z</time>
      </trkpt>
      <trkpt lat="43.78634" lon="7.51268">
        <ele>54</ele>
        <time>2018-06-19T15:30:07Z</time>
      </trkpt>
      <trkpt lat="43.78628" lon="7.5125">
        <ele>54</ele>
        <time>2018-06-19T15:30:19Z</time>
      </trkpt>
      <trkpt lat="43.78626" lon="7.51245">
        <ele>58</ele>
        <time>2018-06-19T15:30:22Z</time>
      </trkpt>
      <trkpt lat="43.78623" lon="7.51238">
        <ele>58</ele>
        <time>2018-06-19T15:30:27Z</time>
      </trkpt>
      <trkpt lat="43.78618" lon="7.51226">
        <ele>58</ele>
        <time>2018-06-19T15:30:36Z</time>
      </trkpt>
      <trkpt lat="43.78616" lon="7.51218">
        <ele>58</ele>
        <time>2018-06-19T15:30:41Z</time>
      </trkpt>
      <trkpt lat="43.78608" lon="7.51198">
        <ele>57</ele>
        <time>2018-06-19T15:30:55Z</time>
      </trkpt>
      <trkpt lat="43.78607" lon="7.51196">
        <ele>57</ele>
        <time>2018-06-19T15:30:56Z</time>
      </trkpt>
      <trkpt lat="43.78602" lon="7.51187">
        <ele>56</ele>
        <time>2018-06-19T15:31:03Z</time>
      </trkpt>
      <trkpt lat="43.78599" lon="7.51182">
        <ele>56</ele>
        <time>2018-06-19T15:31:07Z</time>
      </trkpt>
      <trkpt lat="43.78592" lon="7.5117">
        <ele>53</ele>
        <time>2018-06-19T15:31:17Z</time>
      </trkpt>
      <trkpt lat="43.78586" lon="7.51154">
        <ele>56</ele>
        <time>2018-06-19T15:31:28Z</time>
      </trkpt>
      <trkpt lat="43.78584" lon="7.5115">
        <ele>58</ele>
        <time>2018-06-19T15:31:31Z</time>
      </trkpt>
      <trkpt lat="43.7858" lon="7.51135">
        <ele>49</ele>
        <time>2018-06-19T15:31:41Z</time>
      </trkpt>
      <trkpt lat="43.78579" lon="7.51132">
        <ele>49</ele>
        <time>2018-06-19T15:31:43Z</time>
      </trkpt>
      <trkpt lat="43.78576" lon="7.51125">
        <ele>50</ele>
        <time>2018-06-19T15:31:48Z</time>
      </trkpt>
      <trkpt lat="43.78572" lon="7.51117">
        <ele>50</ele>
        <time>2018-06-19T15:31:54Z</time>
      </trkpt>
      <trkpt lat="43.78563" lon="7.51102">
        <ele>51</ele>
        <time>2018-06-19T15:32:08Z</time>
      </trkpt>
      <trkpt lat="43.7856" lon="7.51098">
        <ele>51</ele>
        <time>2018-06-19T15:32:18Z</time>
      </trkpt>
      <trkpt lat="43.78555" lon="7.5109">
        <ele>50</ele>
        <time>2018-06-19T15:32:25Z</time>
      </trkpt>
      <trkpt lat="43.78551" lon="7.51084">
        <ele>50</ele>
        <time>2018-06-19T15:32:29Z</time>
      </trkpt>
      <trkpt lat="43.7855" lon="7.51081">
        <ele>57</ele>
        <time>2018-06-19T15:32:31Z</time>
      </trkpt>
      <trkpt lat="43.78548" lon="7.51079">
        <ele>57</ele>
        <time>2018-06-19T15:32:33Z</time>
      </trkpt>
      <trkpt lat="43.78546" lon="7.51069">
        <ele>57</ele>
        <time>2018-06-19T15:32:39Z</time>
      </trkpt>
      <trkpt lat="43.78542" lon="7.51062">
        <ele>57</ele>
        <time>2018-06-19T15:32:45Z</time>
      </trkpt>
      <trkpt lat="43.78534" lon="7.51052">
        <ele>57</ele>
        <time>2018-06-19T15:32:54Z</time>
      </trkpt>
      <trkpt lat="43.7853" lon="7.51039">
        <ele>58</ele>
        <time>2018-06-19T15:33:04Z</time>
      </trkpt>
      <trkpt lat="43.78523" lon="7.51024">
        <ele>58</ele>
        <time>2018-06-19T15:33:16Z</time>
      </trkpt>
      <trkpt lat="43.78518" lon="7.51016">
        <ele>58</ele>
        <time>2018-06-19T15:33:22Z</time>
      </trkpt>
      <trkpt lat="43.78513" lon="7.5101">
        <ele>58</ele>
        <time>2018-06-19T15:33:27Z</time>
      </trkpt>
      <trkpt lat="43.78511" lon="7.51008">
        <ele>57</ele>
        <time>2018-06-19T15:33:29Z</time>
      </trkpt>
      <trkpt lat="43.78506" lon="7.51002">
        <ele>57</ele>
        <time>2018-06-19T15:33:36Z</time>
      </trkpt>
      <trkpt lat="43.78504" lon="7.50999">
        <ele>60</ele>
        <time>2018-06-19T15:33:38Z</time>
      </trkpt>
      <trkpt lat="43.78499" lon="7.50988">
        <ele>57</ele>
        <time>2018-06-19T15:33:47Z</time>
      </trkpt>
      <trkpt lat="43.78498" lon="7.50987">
        <ele>57</ele>
        <time>2018-06-19T15:33:48Z</time>
      </trkpt>
      <trkpt lat="43.78496" lon="7.50984">
        <ele>57</ele>
        <time>2018-06-19T15:33:54Z</time>
      </trkpt>
      <trkpt lat="43.78494" lon="7.50975">
        <ele>58</ele>
        <time>2018-06-19T15:34:01Z</time>
      </trkpt>
      <trkpt lat="43.7849" lon="7.50971">
        <ele>59</ele>
        <time>2018-06-19T15:34:06Z</time>
      </trkpt>
      <trkpt lat="43.78487" lon="7.50969">
        <ele>59</ele>
        <time>2018-06-19T15:34:09Z</time>
      </trkpt>
      <trkpt lat="43.78483" lon="7.50964">
        <ele>59</ele>
        <time>2018-06-19T15:34:13Z</time>
      </trkpt>
      <trkpt lat="43.78479" lon="7.50959">
        <ele>60</ele>
        <time>2018-06-19T15:34:18Z</time>
      </trkpt>
      <trkpt lat="43.78475" lon="7.50952">
        <ele>60</ele>
        <time>2018-06-19T15:34:23Z</time>
      </trkpt>
      <trkpt lat="43.7847" lon="7.50946">
        <ele>61</ele>
        <time>2018-06-19T15:34:29Z</time>
      </trkpt>
      <trkpt lat="43.78465" lon="7.50941">
        <ele>60</ele>
        <time>2018-06-19T15:34:34Z</time>
      </trkpt>
      <trkpt lat="43.78463" lon="7.50936">
        <ele>60</ele>
        <time>2018-06-19T15:34:39Z</time>
      </trkpt>
      <trkpt lat="43.78452" lon="7.5092">
        <ele>59</ele>
        <time>2018-06-19T15:34:52Z</time>
      </trkpt>
      <trkpt lat="43.7845" lon="7.50917">
        <ele>59</ele>
        <time>2018-06-19T15:35:00Z</time>
      </trkpt>
      <trkpt lat="43.78445" lon="7.50915">
        <ele>70</ele>
        <time>2018-06-19T15:35:05Z</time>
      </trkpt>
      <trkpt lat="43.78442" lon="7.50915">
        <ele>70</ele>
        <time>2018-06-19T15:35:07Z</time>
      </trkpt>
      <trkpt lat="43.78439" lon="7.50912">
        <ele>69</ele>
        <time>2018-06-19T15:35:10Z</time>
      </trkpt>
      <trkpt lat="43.78437" lon="7.50903">
        <ele>69</ele>
        <time>2018-06-19T15:35:16Z</time>
      </trkpt>
      <trkpt lat="43.78435" lon="7.50889">
        <ele>73</ele>
        <time>2018-06-19T15:35:25Z</time>
      </trkpt>
      <trkpt lat="43.78436" lon="7.50886">
        <ele>74</ele>
        <time>2018-06-19T15:35:27Z</time>
      </trkpt>
      <trkpt lat="43.78436" lon="7.50883">
        <ele>74</ele>
        <time>2018-06-19T15:35:29Z</time>
      </trkpt>
      <trkpt lat="43.78439" lon="7.50872">
        <ele>77</ele>
        <time>2018-06-19T15:35:36Z</time>
      </trkpt>
      <trkpt lat="43.78441" lon="7.50858">
        <ele>79</ele>
        <time>2018-06-19T15:35:47Z</time>
      </trkpt>
      <trkpt lat="43.78441" lon="7.50856">
        <ele>79</ele>
        <time>2018-06-19T15:35:48Z</time>
      </trkpt>
      <trkpt lat="43.78438" lon="7.50853">
        <ele>79</ele>
        <time>2018-06-19T15:35:51Z</time>
      </trkpt>
      <trkpt lat="43.78434" lon="7.50852">
        <ele>79</ele>
        <time>2018-06-19T15:35:54Z</time>
      </trkpt>
      <trkpt lat="43.78432" lon="7.5085">
        <ele>79</ele>
        <time>2018-06-19T15:35:56Z</time>
      </trkpt>
      <trkpt lat="43.78423" lon="7.50845">
        <ele>78</ele>
        <time>2018-06-19T15:36:05Z</time>
      </trkpt>
      <trkpt lat="43.78416" lon="7.50843">
        <ele>71</ele>
        <time>2018-06-19T15:36:18Z</time>
      </trkpt>
      <trkpt lat="43.78411" lon="7.50841">
        <ele>72</ele>
        <time>2018-06-19T15:38:16Z</time>
      </trkpt>
      <trkpt lat="43.78409" lon="7.50841">
        <ele>71</ele>
        <time>2018-06-19T15:38:18Z</time>
      </trkpt>
      <trkpt lat="43.78401" lon="7.50838">
        <ele>69</ele>
        <time>2018-06-19T15:38:25Z</time>
      </trkpt>
      <trkpt lat="43.78387" lon="7.50835">
        <ele>64</ele>
        <time>2018-06-19T15:38:38Z</time>
      </trkpt>
      <trkpt lat="43.78372" lon="7.50828">
        <ele>83</ele>
        <time>2018-06-19T15:38:50Z</time>
      </trkpt>
      <trkpt lat="43.78358" lon="7.50827">
        <ele>80</ele>
        <time>2018-06-19T15:39:02Z</time>
      </trkpt>
      <trkpt lat="43.78351" lon="7.50828">
        <ele>77</ele>
        <time>2018-06-19T15:39:07Z</time>
      </trkpt>
      <trkpt lat="43.78344" lon="7.50828">
        <ele>73</ele>
        <time>2018-06-19T15:39:14Z</time>
      </trkpt>
      <trkpt lat="43.78339" lon="7.50828">
        <ele>70</ele>
        <time>2018-06-19T15:39:18Z</time>
      </trkpt>
      <trkpt lat="43.78338" lon="7.50828">
        <ele>69</ele>
        <time>2018-06-19T15:39:20Z</time>
      </trkpt>
      <trkpt lat="43.78335" lon="7.50827">
        <ele>69</ele>
        <time>2018-06-19T15:39:23Z</time>
      </trkpt>
      <trkpt lat="43.78333" lon="7.50825">
        <ele>67</ele>
        <time>2018-06-19T15:39:25Z</time>
      </trkpt>
      <trkpt lat="43.78327" lon="7.50823">
        <ele>69</ele>
        <time>2018-06-19T15:39:30Z</time>
      </trkpt>
      <trkpt lat="43.7832" lon="7.50821">
        <ele>71</ele>
        <time>2018-06-19T15:39:36Z</time>
      </trkpt>
      <trkpt lat="43.78309" lon="7.50818">
        <ele>73</ele>
        <time>2018-06-19T15:39:46Z</time>
      </trkpt>
      <trkpt lat="43.783" lon="7.50817">
        <ele>73</ele>
        <time>2018-06-19T15:39:53Z</time>
      </trkpt>
      <trkpt lat="43.78289" lon="7.50815">
        <ele>73</ele>
        <time>2018-06-19T15:40:03Z</time>
      </trkpt>
      <trkpt lat="43.78279" lon="7.50812">
        <ele>73</ele>
        <time>2018-06-19T15:40:11Z</time>
      </trkpt>
      <trkpt lat="43.78278" lon="7.5081">
        <ele>73</ele>
        <time>2018-06-19T15:40:13Z</time>
      </trkpt>
      <trkpt lat="43.78273" lon="7.50809">
        <ele>72</ele>
        <time>2018-06-19T15:40:18Z</time>
      </trkpt>
      <trkpt lat="43.78268" lon="7.50807">
        <ele>72</ele>
        <time>2018-06-19T15:40:22Z</time>
      </trkpt>
      <trkpt lat="43.78257" lon="7.50803">
        <ele>73</ele>
        <time>2018-06-19T15:40:32Z</time>
      </trkpt>
      <trkpt lat="43.78251" lon="7.50802">
        <ele>73</ele>
        <time>2018-06-19T15:40:38Z</time>
      </trkpt>
      <trkpt lat="43.78239" lon="7.50798">
        <ele>67</ele>
        <time>2018-06-19T15:40:48Z</time>
      </trkpt>
      <trkpt lat="43.78237" lon="7.50798">
        <ele>67</ele>
        <time>2018-06-19T15:40:50Z</time>
      </trkpt>
      <trkpt lat="43.7823" lon="7.50796">
        <ele>67</ele>
        <time>2018-06-19T15:40:56Z</time>
      </trkpt>
      <trkpt lat="43.78227" lon="7.50797">
        <ele>67</ele>
        <time>2018-06-19T15:40:58Z</time>
      </trkpt>
      <trkpt lat="43.78221" lon="7.50795">
        <ele>67</ele>
        <time>2018-06-19T15:41:04Z</time>
      </trkpt>
      <trkpt lat="43.78218" lon="7.50795">
        <ele>67</ele>
        <time>2018-06-19T15:41:06Z</time>
      </trkpt>
      <trkpt lat="43.78204" lon="7.50795">
        <ele>66</ele>
        <time>2018-06-19T15:41:17Z</time>
      </trkpt>
      <trkpt lat="43.78203" lon="7.50794">
        <ele>66</ele>
        <time>2018-06-19T15:41:18Z</time>
      </trkpt>
      <trkpt lat="43.78197" lon="7.50791">
        <ele>66</ele>
        <time>2018-06-19T15:41:24Z</time>
      </trkpt>
      <trkpt lat="43.78191" lon="7.50786">
        <ele>67</ele>
        <time>2018-06-19T15:41:30Z</time>
      </trkpt>
      <trkpt lat="43.78182" lon="7.50778">
        <ele>69</ele>
        <time>2018-06-19T15:41:39Z</time>
      </trkpt>
      <trkpt lat="43.78176" lon="7.50764">
        <ele>73</ele>
        <time>2018-06-19T15:41:49Z</time>
      </trkpt>
      <trkpt lat="43.78173" lon="7.50759">
        <ele>75</ele>
        <time>2018-06-19T15:41:54Z</time>
      </trkpt>
      <trkpt lat="43.78159" lon="7.5075">
        <ele>71</ele>
        <time>2018-06-19T15:42:06Z</time>
      </trkpt>
      <trkpt lat="43.78144" lon="7.50744">
        <ele>77</ele>
        <time>2018-06-19T15:42:18Z</time>
      </trkpt>
      <trkpt lat="43.78139" lon="7.50742">
        <ele>76</ele>
        <time>2018-06-19T15:42:21Z</time>
      </trkpt>
      <trkpt lat="43.78138" lon="7.50741">
        <ele>76</ele>
        <time>2018-06-19T15:42:23Z</time>
      </trkpt>
      <trkpt lat="43.78128" lon="7.50739">
        <ele>74</ele>
        <time>2018-06-19T15:42:32Z</time>
      </trkpt>
      <trkpt lat="43.78118" lon="7.50742">
        <ele>72</ele>
        <time>2018-06-19T15:42:40Z</time>
      </trkpt>
      <trkpt lat="43.78112" lon="7.50742">
        <ele>70</ele>
        <time>2018-06-19T15:42:45Z</time>
      </trkpt>
      <trkpt lat="43.78106" lon="7.5074">
        <ele>68</ele>
        <time>2018-06-19T15:42:58Z</time>
      </trkpt>
      <trkpt lat="43.78097" lon="7.50738">
        <ele>65</ele>
        <time>2018-06-19T15:43:10Z</time>
      </trkpt>
      <trkpt lat="43.78094" lon="7.50738">
        <ele>64</ele>
        <time>2018-06-19T15:43:12Z</time>
      </trkpt>
      <trkpt lat="43.78086" lon="7.50733">
        <ele>64</ele>
        <time>2018-06-19T15:43:20Z</time>
      </trkpt>
      <trkpt lat="43.78079" lon="7.50722">
        <ele>55</ele>
        <time>2018-06-19T15:43:32Z</time>
      </trkpt>
      <trkpt lat="43.78073" lon="7.50712">
        <ele>57</ele>
        <time>2018-06-19T15:43:44Z</time>
      </trkpt>
      <trkpt lat="43.78068" lon="7.50702">
        <ele>59</ele>
        <time>2018-06-19T15:43:53Z</time>
      </trkpt>
      <trkpt lat="43.78064" lon="7.507">
        <ele>59</ele>
        <time>2018-06-19T15:43:56Z</time>
      </trkpt>
      <trkpt lat="43.78056" lon="7.50694">
        <ele>59</ele>
        <time>2018-06-19T15:44:03Z</time>
      </trkpt>
      <trkpt lat="43.78045" lon="7.50687">
        <ele>58</ele>
        <time>2018-06-19T15:44:12Z</time>
      </trkpt>
      <trkpt lat="43.78043" lon="7.50685">
        <ele>58</ele>
        <time>2018-06-19T15:44:15Z</time>
      </trkpt>
      <trkpt lat="43.78039" lon="7.50678">
        <ele>59</ele>
        <time>2018-06-19T15:44:21Z</time>
      </trkpt>
      <trkpt lat="43.78026" lon="7.50667">
        <ele>57</ele>
        <time>2018-06-19T15:44:34Z</time>
      </trkpt>
      <trkpt lat="43.78013" lon="7.50653">
        <ele>67</ele>
        <time>2018-06-19T15:44:48Z</time>
      </trkpt>
      <trkpt lat="43.78007" lon="7.50645">
        <ele>68</ele>
        <time>2018-06-19T15:44:59Z</time>
      </trkpt>
      <trkpt lat="43.78005" lon="7.50643">
        <ele>69</ele>
        <time>2018-06-19T15:45:00Z</time>
      </trkpt>
      <trkpt lat="43.77996" lon="7.50635">
        <ele>57</ele>
        <time>2018-06-19T15:45:07Z</time>
      </trkpt>
      <trkpt lat="43.77986" lon="7.50624">
        <ele>58</ele>
        <time>2018-06-19T15:45:17Z</time>
      </trkpt>
      <trkpt lat="43.77982" lon="7.5062">
        <ele>58</ele>
        <time>2018-06-19T15:45:21Z</time>
      </trkpt>
      <trkpt lat="43.77976" lon="7.50606">
        <ele>60</ele>
        <time>2018-06-19T15:45:34Z</time>
      </trkpt>
      <trkpt lat="43.7797" lon="7.506">
        <ele>60</ele>
        <time>2018-06-19T15:45:46Z</time>
      </trkpt>
      <trkpt lat="43.77959" lon="7.50597">
        <ele>58</ele>
        <time>2018-06-19T15:45:59Z</time>
      </trkpt>
      <trkpt lat="43.77952" lon="7.50592">
        <ele>58</ele>
        <time>2018-06-19T15:46:10Z</time>
      </trkpt>
      <trkpt lat="43.77935" lon="7.50587">
        <ele>58</ele>
        <time>2018-06-19T15:46:19Z</time>
      </trkpt>
      <trkpt lat="43.77927" lon="7.50592">
        <ele>57</ele>
        <time>2018-06-19T15:46:25Z</time>
      </trkpt>
      <trkpt lat="43.77907" lon="7.50595">
        <ele>54</ele>
        <time>2018-06-19T15:46:38Z</time>
      </trkpt>
      <trkpt lat="43.77895" lon="7.50586">
        <ele>53</ele>
        <time>2018-06-19T15:46:47Z</time>
      </trkpt>
      <trkpt lat="43.77888" lon="7.50576">
        <ele>55</ele>
        <time>2018-06-19T15:46:59Z</time>
      </trkpt>
      <trkpt lat="43.77887" lon="7.50575">
        <ele>55</ele>
        <time>2018-06-19T15:47:23Z</time>
      </trkpt>
      <trkpt lat="43.77887" lon="7.50575">
        <ele>55</ele>
        <time>2018-06-19T15:47:24Z</time>
      </trkpt>
      <trkpt lat="43.77884" lon="7.50577">
        <ele>55</ele>
        <time>2018-06-19T15:47:27Z</time>
      </trkpt>
      <trkpt lat="43.77872" lon="7.50577">
        <ele>55</ele>
        <time>2018-06-19T15:47:39Z</time>
      </trkpt>
      <trkpt lat="43.77866" lon="7.50577">
        <ele>55</ele>
        <time>2018-06-19T15:47:43Z</time>
      </trkpt>
      <trkpt lat="43.77858" lon="7.5058">
        <ele>56</ele>
        <time>2018-06-19T15:47:51Z</time>
      </trkpt>
      <trkpt lat="43.77849" lon="7.50587">
        <ele>55</ele>
        <time>2018-06-19T15:48:02Z</time>
      </trkpt>
      <trkpt lat="43.77842" lon="7.50591">
        <ele>56</ele>
        <time>2018-06-19T15:48:08Z</time>
      </trkpt>
      <trkpt lat="43.77826" lon="7.50593">
        <ele>56</ele>
        <time>2018-06-19T15:48:20Z</time>
      </trkpt>
      <trkpt lat="43.77814" lon="7.50602">
        <ele>53</ele>
        <time>2018-06-19T15:48:34Z</time>
      </trkpt>
      <trkpt lat="43.77812" lon="7.50608">
        <ele>52</ele>
        <time>2018-06-19T15:48:40Z</time>
      </trkpt>
      <trkpt lat="43.77799" lon="7.50615">
        <ele>51</ele>
        <time>2018-06-19T15:48:55Z</time>
      </trkpt>
      <trkpt lat="43.77796" lon="7.50618">
        <ele>51</ele>
        <time>2018-06-19T15:48:58Z</time>
      </trkpt>
      <trkpt lat="43.77792" lon="7.50622">
        <ele>50</ele>
        <time>2018-06-19T15:49:02Z</time>
      </trkpt>
      <trkpt lat="43.77785" lon="7.5063">
        <ele>50</ele>
        <time>2018-06-19T15:49:10Z</time>
      </trkpt>
      <trkpt lat="43.77775" lon="7.50635">
        <ele>49</ele>
        <time>2018-06-19T15:49:23Z</time>
      </trkpt>
      <trkpt lat="43.7776" lon="7.50642">
        <ele>49</ele>
        <time>2018-06-19T15:49:37Z</time>
      </trkpt>
      <trkpt lat="43.77756" lon="7.5065">
        <ele>49</ele>
        <time>2018-06-19T15:49:50Z</time>
      </trkpt>
      <trkpt lat="43.77754" lon="7.50655">
        <ele>49</ele>
        <time>2018-06-19T15:50:03Z</time>
      </trkpt>
      <trkpt lat="43.77754" lon="7.50655">
        <ele>49</ele>
        <time>2018-06-19T15:50:09Z</time>
      </trkpt>
      <trkpt lat="43.77753" lon="7.50664">
        <ele>48</ele>
        <time>2018-06-19T15:50:16Z</time>
      </trkpt>
      <trkpt lat="43.77743" lon="7.50668">
        <ele>44</ele>
        <time>2018-06-19T15:50:26Z</time>
      </trkpt>
      <trkpt lat="43.77747" lon="7.50674">
        <ele>43</ele>
        <time>2018-06-19T15:50:40Z</time>
      </trkpt>
      <trkpt lat="43.7776" lon="7.50675">
        <ele>41</ele>
        <time>2018-06-19T15:50:53Z</time>
      </trkpt>
      <trkpt lat="43.7775" lon="7.50679">
        <ele>41</ele>
        <time>2018-06-19T15:51:08Z</time>
      </trkpt>
      <trkpt lat="43.77739" lon="7.50683">
        <ele>38</ele>
        <time>2018-06-19T15:51:24Z</time>
      </trkpt>
      <trkpt lat="43.77725" lon="7.50686">
        <ele>36</ele>
        <time>2018-06-19T15:51:36Z</time>
      </trkpt>
      <trkpt lat="43.77721" lon="7.50683">
        <ele>35</ele>
        <time>2018-06-19T15:51:47Z</time>
      </trkpt>
      <trkpt lat="43.7772" lon="7.50678">
        <ele>36</ele>
        <time>2018-06-19T15:51:54Z</time>
      </trkpt>
      <trkpt lat="43.77719" lon="7.50675">
        <ele>36</ele>
        <time>2018-06-19T15:51:56Z</time>
      </trkpt>
      <trkpt lat="43.77716" lon="7.50676">
        <ele>35</ele>
        <time>2018-06-19T15:52:04Z</time>
      </trkpt>
      <trkpt lat="43.77715" lon="7.50677">
        <ele>35</ele>
        <time>2018-06-19T15:52:09Z</time>
      </trkpt>
      <trkpt lat="43.77715" lon="7.50668">
        <ele>36</ele>
        <time>2018-06-19T15:52:17Z</time>
      </trkpt>
      <trkpt lat="43.77715" lon="7.50661">
        <ele>41</ele>
        <time>2018-06-19T15:52:23Z</time>
      </trkpt>
      <trkpt lat="43.77712" lon="7.50658">
        <ele>40</ele>
        <time>2018-06-19T15:52:26Z</time>
      </trkpt>
      <trkpt lat="43.77708" lon="7.50647">
        <ele>39</ele>
        <time>2018-06-19T15:52:41Z</time>
      </trkpt>
      <trkpt lat="43.77709" lon="7.50634">
        <ele>39</ele>
        <time>2018-06-19T15:53:21Z</time>
      </trkpt>
      <trkpt lat="43.77704" lon="7.50625">
        <ele>39</ele>
        <time>2018-06-19T15:53:35Z</time>
      </trkpt>
      <trkpt lat="43.777" lon="7.50623">
        <ele>38</ele>
        <time>2018-06-19T15:53:38Z</time>
      </trkpt>
      <trkpt lat="43.77697" lon="7.50621">
        <ele>38</ele>
        <time>2018-06-19T15:53:39Z</time>
      </trkpt>
      <trkpt lat="43.77682" lon="7.50602">
        <ele>34</ele>
        <time>2018-06-19T15:53:54Z</time>
      </trkpt>
      <trkpt lat="43.77682" lon="7.50601">
        <ele>34</ele>
        <time>2018-06-19T15:53:55Z</time>
      </trkpt>
      <trkpt lat="43.77671" lon="7.50583">
        <ele>27</ele>
        <time>2018-06-19T15:54:08Z</time>
      </trkpt>
      <trkpt lat="43.7767" lon="7.50579">
        <ele>27</ele>
        <time>2018-06-19T15:54:11Z</time>
      </trkpt>
      <trkpt lat="43.77663" lon="7.50578">
        <ele>23</ele>
        <time>2018-06-19T15:54:19Z</time>
      </trkpt>
      <trkpt lat="43.77654" lon="7.50578">
        <ele>22</ele>
        <time>2018-06-19T15:54:24Z</time>
      </trkpt>
      <trkpt lat="43.77649" lon="7.50578">
        <ele>21</ele>
        <time>2018-06-19T15:54:26Z</time>
      </trkpt>
      <trkpt lat="43.77641" lon="7.50584">
        <ele>22</ele>
        <time>2018-06-19T15:54:31Z</time>
      </trkpt>
      <trkpt lat="43.77637" lon="7.50587">
        <ele>21</ele>
        <time>2018-06-19T15:54:38Z</time>
      </trkpt>
      <trkpt lat="43.7763" lon="7.50587">
        <ele>21</ele>
        <time>2018-06-19T15:54:43Z</time>
      </trkpt>
      <trkpt lat="43.77625" lon="7.50585">
        <ele>20</ele>
        <time>2018-06-19T15:54:55Z</time>
      </trkpt>
      <trkpt lat="43.7762" lon="7.5058">
        <ele>17</ele>
        <time>2018-06-19T15:56:22Z</time>
      </trkpt>
      <trkpt lat="43.7761" lon="7.50572">
        <ele>16</ele>
        <time>2018-06-19T15:56:31Z</time>
      </trkpt>
      <trkpt lat="43.77608" lon="7.5057">
        <ele>16</ele>
        <time>2018-06-19T15:56:34Z</time>
      </trkpt>
      <trkpt lat="43.77607" lon="7.50561">
        <ele>16</ele>
        <time>2018-06-19T15:56:45Z</time>
      </trkpt>
      <trkpt lat="43.77608" lon="7.50557">
        <ele>16</ele>
        <time>2018-06-19T15:56:48Z</time>
      </trkpt>
      <trkpt lat="43.77612" lon="7.5054">
        <ele>16</ele>
        <time>2018-06-19T15:56:59Z</time>
      </trkpt>
      <trkpt lat="43.77612" lon="7.50539">
        <ele>16</ele>
        <time>2018-06-19T15:57:00Z</time>
      </trkpt>
      <trkpt lat="43.77602" lon="7.50531">
        <ele>16</ele>
        <time>2018-06-19T15:57:12Z</time>
      </trkpt>
      <trkpt lat="43.77596" lon="7.50524">
        <ele>15</ele>
        <time>2018-06-19T15:57:16Z</time>
      </trkpt>
      <trkpt lat="43.77596" lon="7.50508">
        <ele>14</ele>
        <time>2018-06-19T15:57:24Z</time>
      </trkpt>
      <trkpt lat="43.77593" lon="7.50485">
        <ele>14</ele>
        <time>2018-06-19T15:57:37Z</time>
      </trkpt>
      <trkpt lat="43.77602" lon="7.50475">
        <ele>15</ele>
        <time>2018-06-19T15:57:49Z</time>
      </trkpt>
      <trkpt lat="43.77613" lon="7.50466">
        <ele>15</ele>
        <time>2018-06-19T15:58:01Z</time>
      </trkpt>
      <trkpt lat="43.77615" lon="7.50463">
        <ele>15</ele>
        <time>2018-06-19T15:58:05Z</time>
      </trkpt>
      <trkpt lat="43.77622" lon="7.50458">
        <ele>16</ele>
        <time>2018-06-19T15:58:09Z</time>
      </trkpt>
      <trkpt lat="43.77637" lon="7.50444">
        <ele>16</ele>
        <time>2018-06-19T15:58:22Z</time>
      </trkpt>
      <trkpt lat="43.77639" lon="7.50443">
        <ele>16</ele>
        <time>2018-06-19T15:58:24Z</time>
      </trkpt>
      <trkpt lat="43.7765" lon="7.50439">
        <ele>16</ele>
        <time>2018-06-19T15:58:35Z</time>
      </trkpt>
      <trkpt lat="43.77656" lon="7.50438">
        <ele>16</ele>
        <time>2018-06-19T15:58:41Z</time>
      </trkpt>
      <trkpt lat="43.77658" lon="7.50437">
        <ele>16</ele>
        <time>2018-06-19T15:58:43Z</time>
      </trkpt>
      <trkpt lat="43.77661" lon="7.50433">
        <ele>17</ele>
        <time>2018-06-19T15:58:49Z</time>
      </trkpt>
      <trkpt lat="43.77665" lon="7.50431">
        <ele>17</ele>
        <time>2018-06-19T15:58:52Z</time>
      </trkpt>
      <trkpt lat="43.77669" lon="7.50428">
        <ele>20</ele>
        <time>2018-06-19T15:58:55Z</time>
      </trkpt>
      <trkpt lat="43.7767" lon="7.50424">
        <ele>19</ele>
        <time>2018-06-19T15:58:57Z</time>
      </trkpt>
      <trkpt lat="43.77676" lon="7.50415">
        <ele>18</ele>
        <time>2018-06-19T15:59:04Z</time>
      </trkpt>
      <trkpt lat="43.77678" lon="7.50412">
        <ele>19</ele>
        <time>2018-06-19T15:59:06Z</time>
      </trkpt>
      <trkpt lat="43.77693" lon="7.50401">
        <ele>20</ele>
        <time>2018-06-19T15:59:17Z</time>
      </trkpt>
      <trkpt lat="43.77704" lon="7.50393">
        <ele>21</ele>
        <time>2018-06-19T15:59:29Z</time>
      </trkpt>
      <trkpt lat="43.77711" lon="7.50387">
        <ele>21</ele>
        <time>2018-06-19T15:59:35Z</time>
      </trkpt>
      <trkpt lat="43.77713" lon="7.50384">
        <ele>22</ele>
        <time>2018-06-19T15:59:37Z</time>
      </trkpt>
      <trkpt lat="43.77713" lon="7.50376">
        <ele>21</ele>
        <time>2018-06-19T15:59:43Z</time>
      </trkpt>
      <trkpt lat="43.77708" lon="7.5037">
        <ele>21</ele>
        <time>2018-06-19T15:59:48Z</time>
      </trkpt>
      <trkpt lat="43.77723" lon="7.50369">
        <ele>22</ele>
        <time>2018-06-19T15:59:57Z</time>
      </trkpt>
      <trkpt lat="43.7772" lon="7.50361">
        <ele>22</ele>
        <time>2018-06-19T16:00:04Z</time>
      </trkpt>
      <trkpt lat="43.7772" lon="7.5036">
        <ele>22</ele>
        <time>2018-06-19T16:00:06Z</time>
      </trkpt>
      <trkpt lat="43.77721" lon="7.5035">
        <ele>22</ele>
        <time>2018-06-19T16:00:13Z</time>
      </trkpt>
      <trkpt lat="43.77717" lon="7.50331">
        <ele>24</ele>
        <time>2018-06-19T16:00:26Z</time>
      </trkpt>
      <trkpt lat="43.77718" lon="7.50325">
        <ele>24</ele>
        <time>2018-06-19T16:00:35Z</time>
      </trkpt>
      <trkpt lat="43.77718" lon="7.50325">
        <ele>24</ele>
        <time>2018-06-19T16:01:12Z</time>
      </trkpt>
      <trkpt lat="43.77713" lon="7.50319">
        <ele>24</ele>
        <time>2018-06-19T16:01:19Z</time>
      </trkpt>
      <trkpt lat="43.77715" lon="7.50317">
        <ele>24</ele>
        <time>2018-06-19T16:01:21Z</time>
      </trkpt>
      <trkpt lat="43.77719" lon="7.5031">
        <ele>24</ele>
        <time>2018-06-19T16:01:29Z</time>
      </trkpt>
      <trkpt lat="43.77718" lon="7.50306">
        <ele>25</ele>
        <time>2018-06-19T16:01:32Z</time>
      </trkpt>
      <trkpt lat="43.77716" lon="7.50291">
        <ele>25</ele>
        <time>2018-06-19T16:01:42Z</time>
      </trkpt>
      <trkpt lat="43.77716" lon="7.50289">
        <ele>25</ele>
        <time>2018-06-19T16:01:44Z</time>
      </trkpt>
      <trkpt lat="43.77714" lon="7.50282">
        <ele>26</ele>
        <time>2018-06-19T16:01:48Z</time>
      </trkpt>
      <trkpt lat="43.77704" lon="7.50268">
        <ele>25</ele>
        <time>2018-06-19T16:01:53Z</time>
      </trkpt>
      <trkpt lat="43.77699" lon="7.5026">
        <ele>25</ele>
        <time>2018-06-19T16:01:57Z</time>
      </trkpt>
      <trkpt lat="43.77693" lon="7.50247">
        <ele>29</ele>
        <time>2018-06-19T16:02:05Z</time>
      </trkpt>
      <trkpt lat="43.7769" lon="7.50242">
        <ele>28</ele>
        <time>2018-06-19T16:02:09Z</time>
      </trkpt>
      <trkpt lat="43.77683" lon="7.50227">
        <ele>29</ele>
        <time>2018-06-19T16:02:18Z</time>
      </trkpt>
      <trkpt lat="43.77679" lon="7.50211">
        <ele>29</ele>
        <time>2018-06-19T16:02:27Z</time>
      </trkpt>
      <trkpt lat="43.77674" lon="7.50204">
        <ele>29</ele>
        <time>2018-06-19T16:02:33Z</time>
      </trkpt>
      <trkpt lat="43.77671" lon="7.50193">
        <ele>29</ele>
        <time>2018-06-19T16:02:39Z</time>
      </trkpt>
      <trkpt lat="43.77667" lon="7.50184">
        <ele>28</ele>
        <time>2018-06-19T16:02:46Z</time>
      </trkpt>
      <trkpt lat="43.77663" lon="7.50171">
        <ele>24</ele>
        <time>2018-06-19T16:02:55Z</time>
      </trkpt>
      <trkpt lat="43.77662" lon="7.50166">
        <ele>25</ele>
        <time>2018-06-19T16:02:58Z</time>
      </trkpt>
      <trkpt lat="43.77662" lon="7.50158">
        <ele>24</ele>
        <time>2018-06-19T16:03:02Z</time>
      </trkpt>
      <trkpt lat="43.77661" lon="7.50154">
        <ele>24</ele>
        <time>2018-06-19T16:03:05Z</time>
      </trkpt>
      <trkpt lat="43.77659" lon="7.50146">
        <ele>24</ele>
        <time>2018-06-19T16:03:11Z</time>
      </trkpt>
      <trkpt lat="43.77656" lon="7.50132">
        <ele>23</ele>
        <time>2018-06-19T16:03:19Z</time>
      </trkpt>
      <trkpt lat="43.77655" lon="7.5012">
        <ele>23</ele>
        <time>2018-06-19T16:03:25Z</time>
      </trkpt>
      <trkpt lat="43.77652" lon="7.50111">
        <ele>23</ele>
        <time>2018-06-19T16:03:31Z</time>
      </trkpt>
      <trkpt lat="43.77651" lon="7.50101">
        <ele>23</ele>
        <time>2018-06-19T16:03:36Z</time>
      </trkpt>
      <trkpt lat="43.7765" lon="7.50086">
        <ele>24</ele>
        <time>2018-06-19T16:03:45Z</time>
      </trkpt>
      <trkpt lat="43.77649" lon="7.50083">
        <ele>24</ele>
        <time>2018-06-19T16:03:48Z</time>
      </trkpt>
      <trkpt lat="43.77648" lon="7.50078">
        <ele>24</ele>
        <time>2018-06-19T16:03:51Z</time>
      </trkpt>
      <trkpt lat="43.77646" lon="7.50074">
        <ele>24</ele>
        <time>2018-06-19T16:03:53Z</time>
      </trkpt>
      <trkpt lat="43.77644" lon="7.50062">
        <ele>24</ele>
        <time>2018-06-19T16:04:00Z</time>
      </trkpt>
      <trkpt lat="43.77644" lon="7.50056">
        <ele>24</ele>
        <time>2018-06-19T16:04:05Z</time>
      </trkpt>
      <trkpt lat="43.77642" lon="7.50046">
        <ele>24</ele>
        <time>2018-06-19T16:04:11Z</time>
      </trkpt>
      <trkpt lat="43.77642" lon="7.5004">
        <ele>24</ele>
        <time>2018-06-19T16:04:15Z</time>
      </trkpt>
      <trkpt lat="43.77641" lon="7.50031">
        <ele>25</ele>
        <time>2018-06-19T16:04:20Z</time>
      </trkpt>
      <trkpt lat="43.77641" lon="7.50021">
        <ele>25</ele>
        <time>2018-06-19T16:04:27Z</time>
      </trkpt>
      <trkpt lat="43.77643" lon="7.50007">
        <ele>26</ele>
        <time>2018-06-19T16:04:36Z</time>
      </trkpt>
      <trkpt lat="43.77644" lon="7.50005">
        <ele>26</ele>
        <time>2018-06-19T16:04:38Z</time>
      </trkpt>
      <trkpt lat="43.77645" lon="7.49984">
        <ele>27</ele>
        <time>2018-06-19T16:04:50Z</time>
      </trkpt>
      <trkpt lat="43.77645" lon="7.49981">
        <ele>27</ele>
        <time>2018-06-19T16:04:52Z</time>
      </trkpt>
      <trkpt lat="43.77643" lon="7.49968">
        <ele>26</ele>
        <time>2018-06-19T16:05:00Z</time>
      </trkpt>
      <trkpt lat="43.77644" lon="7.49962">
        <ele>26</ele>
        <time>2018-06-19T16:05:04Z</time>
      </trkpt>
      <trkpt lat="43.77646" lon="7.49959">
        <ele>26</ele>
        <time>2018-06-19T16:05:07Z</time>
      </trkpt>
      <trkpt lat="43.77648" lon="7.49945">
        <ele>26</ele>
        <time>2018-06-19T16:05:15Z</time>
      </trkpt>
      <trkpt lat="43.77646" lon="7.49935">
        <ele>26</ele>
        <time>2018-06-19T16:05:21Z</time>
      </trkpt>
      <trkpt lat="43.77642" lon="7.49928">
        <ele>26</ele>
        <time>2018-06-19T16:05:24Z</time>
      </trkpt>
      <trkpt lat="43.77639" lon="7.49921">
        <ele>26</ele>
        <time>2018-06-19T16:05:28Z</time>
      </trkpt>
      <trkpt lat="43.77637" lon="7.49912">
        <ele>25</ele>
        <time>2018-06-19T16:05:33Z</time>
      </trkpt>
      <trkpt lat="43.77637" lon="7.499">
        <ele>25</ele>
        <time>2018-06-19T16:05:42Z</time>
      </trkpt>
      <trkpt lat="43.77638" lon="7.49892">
        <ele>25</ele>
        <time>2018-06-19T16:05:48Z</time>
      </trkpt>
      <trkpt lat="43.77638" lon="7.49887">
        <ele>25</ele>
        <time>2018-06-19T16:05:52Z</time>
      </trkpt>
      <trkpt lat="43.77638" lon="7.49872">
        <ele>25</ele>
        <time>2018-06-19T16:06:02Z</time>
      </trkpt>
      <trkpt lat="43.77637" lon="7.49866">
        <ele>25</ele>
        <time>2018-06-19T16:06:06Z</time>
      </trkpt>
      <trkpt lat="43.77637" lon="7.49861">
        <ele>25</ele>
        <time>2018-06-19T16:06:09Z</time>
      </trkpt>
      <trkpt lat="43.77639" lon="7.49854">
        <ele>25</ele>
        <time>2018-06-19T16:06:13Z</time>
      </trkpt>
      <trkpt lat="43.77636" lon="7.49845">
        <ele>25</ele>
        <time>2018-06-19T16:06:18Z</time>
      </trkpt>
      <trkpt lat="43.77634" lon="7.49841">
        <ele>25</ele>
        <time>2018-06-19T16:06:21Z</time>
      </trkpt>
      <trkpt lat="43.77635" lon="7.49838">
        <ele>25</ele>
        <time>2018-06-19T16:06:23Z</time>
      </trkpt>
      <trkpt lat="43.77633" lon="7.49829">
        <ele>25</ele>
        <time>2018-06-19T16:06:30Z</time>
      </trkpt>
      <trkpt lat="43.77634" lon="7.49811">
        <ele>25</ele>
        <time>2018-06-19T16:06:41Z</time>
      </trkpt>
      <trkpt lat="43.77634" lon="7.49801">
        <ele>24</ele>
        <time>2018-06-19T16:06:46Z</time>
      </trkpt>
      <trkpt lat="43.77631" lon="7.4979">
        <ele>24</ele>
        <time>2018-06-19T16:06:53Z</time>
      </trkpt>
      <trkpt lat="43.77632" lon="7.49782">
        <ele>24</ele>
        <time>2018-06-19T16:06:59Z</time>
      </trkpt>
      <trkpt lat="43.77631" lon="7.49768">
        <ele>24</ele>
        <time>2018-06-19T16:07:07Z</time>
      </trkpt>
      <trkpt lat="43.7763" lon="7.49761">
        <ele>24</ele>
        <time>2018-06-19T16:07:11Z</time>
      </trkpt>
      <trkpt lat="43.77629" lon="7.49754">
        <ele>24</ele>
        <time>2018-06-19T16:07:15Z</time>
      </trkpt>
      <trkpt lat="43.77628" lon="7.49751">
        <ele>24</ele>
        <time>2018-06-19T16:07:17Z</time>
      </trkpt>
      <trkpt lat="43.77625" lon="7.49735">
        <ele>26</ele>
        <time>2018-06-19T16:07:25Z</time>
      </trkpt>
      <trkpt lat="43.77625" lon="7.49727">
        <ele>26</ele>
        <time>2018-06-19T16:07:29Z</time>
      </trkpt>
      <trkpt lat="43.77624" lon="7.49719">
        <ele>26</ele>
        <time>2018-06-19T16:07:34Z</time>
      </trkpt>
      <trkpt lat="43.77623" lon="7.49711">
        <ele>26</ele>
        <time>2018-06-19T16:07:40Z</time>
      </trkpt>
      <trkpt lat="43.77623" lon="7.49701">
        <ele>27</ele>
        <time>2018-06-19T16:07:46Z</time>
      </trkpt>
      <trkpt lat="43.77623" lon="7.49696">
        <ele>27</ele>
        <time>2018-06-19T16:07:49Z</time>
      </trkpt>
      <trkpt lat="43.77619" lon="7.49692">
        <ele>26</ele>
        <time>2018-06-19T16:07:53Z</time>
      </trkpt>
      <trkpt lat="43.77619" lon="7.49685">
        <ele>27</ele>
        <time>2018-06-19T16:07:57Z</time>
      </trkpt>
      <trkpt lat="43.77618" lon="7.49673">
        <ele>26</ele>
        <time>2018-06-19T16:08:05Z</time>
      </trkpt>
      <trkpt lat="43.77615" lon="7.49659">
        <ele>26</ele>
        <time>2018-06-19T16:08:13Z</time>
      </trkpt>
      <trkpt lat="43.77615" lon="7.49645">
        <ele>26</ele>
        <time>2018-06-19T16:08:22Z</time>
      </trkpt>
      <trkpt lat="43.77613" lon="7.49631">
        <ele>26</ele>
        <time>2018-06-19T16:08:32Z</time>
      </trkpt>
      <trkpt lat="43.77615" lon="7.49625">
        <ele>26</ele>
        <time>2018-06-19T16:08:36Z</time>
      </trkpt>
      <trkpt lat="43.77614" lon="7.49618">
        <ele>26</ele>
        <time>2018-06-19T16:08:48Z</time>
      </trkpt>
      <trkpt lat="43.77612" lon="7.49611">
        <ele>25</ele>
        <time>2018-06-19T16:09:13Z</time>
      </trkpt>
      <trkpt lat="43.7761" lon="7.4961">
        <ele>25</ele>
        <time>2018-06-19T16:09:15Z</time>
      </trkpt>
      <trkpt lat="43.77603" lon="7.49603">
        <ele>24</ele>
        <time>2018-06-19T16:09:24Z</time>
      </trkpt>
      <trkpt lat="43.77599" lon="7.49594">
        <ele>23</ele>
        <time>2018-06-19T16:09:32Z</time>
      </trkpt>
      <trkpt lat="43.77584" lon="7.49588">
        <ele>19</ele>
        <time>2018-06-19T16:09:41Z</time>
      </trkpt>
      <trkpt lat="43.77582" lon="7.49585">
        <ele>18</ele>
        <time>2018-06-19T16:09:43Z</time>
      </trkpt>
      <trkpt lat="43.77581" lon="7.49581">
        <ele>18</ele>
        <time>2018-06-19T16:09:45Z</time>
      </trkpt>
      <trkpt lat="43.77583" lon="7.49568">
        <ele>18</ele>
        <time>2018-06-19T16:09:51Z</time>
      </trkpt>
      <trkpt lat="43.7758" lon="7.4956">
        <ele>18</ele>
        <time>2018-06-19T16:09:56Z</time>
      </trkpt>
      <trkpt lat="43.77576" lon="7.49556">
        <ele>18</ele>
        <time>2018-06-19T16:10:02Z</time>
      </trkpt>
      <trkpt lat="43.77574" lon="7.49552">
        <ele>17</ele>
        <time>2018-06-19T16:10:13Z</time>
      </trkpt>
      <trkpt lat="43.77571" lon="7.49536">
        <ele>17</ele>
        <time>2018-06-19T16:10:24Z</time>
      </trkpt>
      <trkpt lat="43.77569" lon="7.49533">
        <ele>17</ele>
        <time>2018-06-19T16:10:36Z</time>
      </trkpt>
      <trkpt lat="43.77569" lon="7.49533">
        <ele>17</ele>
        <time>2018-06-19T16:11:29Z</time>
      </trkpt>
      <trkpt lat="43.77569" lon="7.49533">
        <ele>17</ele>
        <time>2018-06-19T16:11:41Z</time>
      </trkpt>
      <trkpt lat="43.77562" lon="7.49517">
        <ele>17</ele>
        <time>2018-06-19T16:11:50Z</time>
      </trkpt>
      <trkpt lat="43.77559" lon="7.49511">
        <ele>17</ele>
        <time>2018-06-19T16:11:53Z</time>
      </trkpt>
      <trkpt lat="43.77556" lon="7.49507">
        <ele>17</ele>
        <time>2018-06-19T16:11:56Z</time>
      </trkpt>
      <trkpt lat="43.7755" lon="7.49492">
        <ele>18</ele>
        <time>2018-06-19T16:12:06Z</time>
      </trkpt>
      <trkpt lat="43.77543" lon="7.49478">
        <ele>18</ele>
        <time>2018-06-19T16:12:17Z</time>
      </trkpt>
      <trkpt lat="43.77538" lon="7.49467">
        <ele>18</ele>
        <time>2018-06-19T16:12:24Z</time>
      </trkpt>
      <trkpt lat="43.77536" lon="7.49462">
        <ele>18</ele>
        <time>2018-06-19T16:12:28Z</time>
      </trkpt>
      <trkpt lat="43.77531" lon="7.49452">
        <ele>18</ele>
        <time>2018-06-19T16:12:38Z</time>
      </trkpt>
      <trkpt lat="43.7753" lon="7.49447">
        <ele>18</ele>
        <time>2018-06-19T16:12:42Z</time>
      </trkpt>
      <trkpt lat="43.77528" lon="7.49444">
        <ele>18</ele>
        <time>2018-06-19T16:12:53Z</time>
      </trkpt>
      <trkpt lat="43.77528" lon="7.49444">
        <ele>18</ele>
        <time>2018-06-19T16:12:55Z</time>
      </trkpt>
      <trkpt lat="43.77518" lon="7.49462">
        <ele>18</ele>
        <time>2018-06-19T16:13:06Z</time>
      </trkpt>
      <trkpt lat="43.7749" lon="7.49608">
        <ele>17</ele>
        <time>2018-06-19T16:13:39Z</time>
      </trkpt>
      <trkpt lat="43.7749" lon="7.49608">
        <ele>17</ele>
        <time>2018-06-19T16:16:21Z</time>
      </trkpt>
      <trkpt lat="43.7749" lon="7.49608">
        <ele>17</ele>
        <time>2018-06-19T16:16:37Z</time>
      </trkpt>
      <trkpt lat="43.77512" lon="7.4944">
        <ele>18</ele>
        <time>2018-06-19T16:23:28Z</time>
      </trkpt>
      <trkpt lat="43.77523" lon="7.49447">
        <ele>18</ele>
        <time>2018-06-19T16:24:16Z</time>
      </trkpt>
      <trkpt lat="43.77523" lon="7.49448">
        <ele>18</ele>
        <time>2018-06-19T16:33:43Z</time>
      </trkpt>
      <trkpt lat="43.77522" lon="7.49447">
        <ele>18</ele>
        <time>2018-06-19T16:39:26Z</time>
      </trkpt>
      <trkpt lat="43.77522" lon="7.49445">
        <ele>18</ele>
        <time>2018-06-19T16:43:19Z</time>
      </trkpt>
      <trkpt lat="43.77521" lon="7.49445">
        <ele>18</ele>
        <time>2018-06-19T16:50:17Z</time>
      </trkpt>
      <trkpt lat="43.7752" lon="7.49445">
        <ele>18</ele>
        <time>2018-06-19T16:52:57Z</time>
      </trkpt>
      <trkpt lat="43.77519" lon="7.49443">
        <ele>18</ele>
        <time>2018-06-19T16:59:18Z</time>
      </trkpt>
      <trkpt lat="43.77519" lon="7.49443">
        <ele>18</ele>
        <time>2018-06-19T17:00:32Z</time>
      </trkpt>
      <trkpt lat="43.77519" lon="7.49442">
        <ele>18</ele>
        <time>2018-06-19T17:01:48Z</time>
      </trkpt>
      <trkpt lat="43.7752" lon="7.49443">
        <ele>18</ele>
        <time>2018-06-19T17:05:16Z</time>
      </trkpt>
      <trkpt lat="43.7752" lon="7.49442">
        <ele>18</ele>
        <time>2018-06-19T17:05:46Z</time>
      </trkpt>
      <trkpt lat="43.77521" lon="7.49443">
        <ele>18</ele>
        <time>2018-06-19T17:06:13Z</time>
      </trkpt>
      <trkpt lat="43.77521" lon="7.49443">
        <ele>18</ele>
        <time>2018-06-19T17:06:41Z</time>
      </trkpt>
      <trkpt lat="43.77521" lon="7.49444">
        <ele>18</ele>
        <time>2018-06-19T17:08:31Z</time>
      </trkpt>
      <trkpt lat="43.7752" lon="7.49445">
        <ele>18</ele>
        <time>2018-06-19T17:15:08Z</time>
      </trkpt>
      <trkpt lat="43.77521" lon="7.49445">
        <ele>18</ele>
        <time>2018-06-19T17:19:00Z</time>
      </trkpt>
      <trkpt lat="43.77521" lon="7.49447">
        <ele>18</ele>
        <time>2018-06-19T17:20:40Z</time>
      </trkpt>
      <trkpt lat="43.7752" lon="7.49446">
        <ele>18</ele>
        <time>2018-06-19T17:21:13Z</time>
      </trkpt>
      <trkpt lat="43.7752" lon="7.49446">
        <ele>18</ele>
        <time>2018-06-19T17:21:57Z</time>
      </trkpt>
      <trkpt lat="43.77519" lon="7.49442">
        <ele>18</ele>
        <time>2018-06-19T17:22:17Z</time>
      </trkpt>
      <trkpt lat="43.77519" lon="7.49443">
        <ele>18</ele>
        <time>2018-06-19T17:23:30Z</time>
      </trkpt>
      <trkpt lat="43.7752" lon="7.49443">
        <ele>18</ele>
        <time>2018-06-19T17:30:21Z</time>
      </trkpt>
      <trkpt lat="43.7752" lon="7.49443">
        <ele>18</ele>
        <time>2018-06-19T17:32:58Z</time>
      </trkpt>
      <trkpt lat="43.77519" lon="7.49444">
        <ele>18</ele>
        <time>2018-06-19T17:38:29Z</time>
      </trkpt>
      <trkpt lat="43.77517" lon="7.49444">
        <ele>18</ele>
        <time>2018-06-19T18:39:17Z</time>
      </trkpt>
      <trkpt lat="43.77518" lon="7.49444">
        <ele>18</ele>
        <time>2018-06-19T18:41:23Z</time>
      </trkpt>
      <trkpt lat="43.77518" lon="7.49444">
        <ele>18</ele>
        <time>2018-06-19T18:42:37Z</time>
      </trkpt>
      <trkpt lat="43.77518" lon="7.49444">
        <ele>18</ele>
        <time>2018-06-19T18:43:39Z</time>
      </trkpt>
      <trkpt lat="43.77518" lon="7.49444">
        <ele>18</ele>
        <time>2018-06-19T18:44:34Z</time>
      </trkpt>
      <trkpt lat="43.77518" lon="7.49444">
        <ele>18</ele>
        <time>2018-06-19T18:45:52Z</time>
      </trkpt>
      <trkpt lat="43.7752" lon="7.49444">
        <ele>18</ele>
        <time>2018-06-19T19:26:42Z</time>
      </trkpt>
      <trkpt lat="43.77519" lon="7.49445">
        <ele>18</ele>
        <time>2018-06-19T19:41:22Z</time>
      </trkpt>
      <trkpt lat="43.77519" lon="7.49444">
        <ele>18</ele>
        <time>2018-06-19T19:47:03Z</time>
      </trkpt>
      <trkpt lat="43.77518" lon="7.49445">
        <ele>18</ele>
        <time>2018-06-19T20:28:47Z</time>
      </trkpt>
      <trkpt lat="43.77519" lon="7.49445">
        <ele>18</ele>
        <time>2018-06-20T00:17:13Z</time>
      </trkpt>
      <trkpt lat="43.77519" lon="7.49445">
        <ele>18</ele>
        <time>2018-06-20T00:18:41Z</time>
      </trkpt>
      <trkpt lat="43.77519" lon="7.49445">
        <ele>18</ele>
        <time>2018-06-20T00:18:43Z</time>
      </trkpt>
      <trkpt lat="43.77532" lon="7.49426">
        <ele>18</ele>
        <time>2018-06-20T00:18:52Z</time>
      </trkpt>
    </trkseg>
  </trk>
</gpx>